# Wetter Temperatur Luftdruck Luftfeuchtigkeit Sichtweite Windgeschwindigkeit Windrichtung Zeit
1 Clouds 1 1004 55 10000 4.1 160 22:25 24.01.2020
2 Clouds 1 1004 55 10000 2.6 130 21:43 24.01.2020
3 Clouds 1 1004 51 10000 2.6 210 21:21 24.01.2020
4 Clouds 1 1004 51 10000 4.1 200 20:59 24.01.2020
5 Clouds 1 1003 51 10000 4.6 210 20:40 24.01.2020
6 Clouds 2 1003 51 10000 4.6 210 20:20 24.01.2020
7 Clouds 2 1003 64 10000 4.1 200 19:57 24.01.2020
8 Clouds 2 1003 59 10000 5.1 200 19:38 24.01.2020
9 Clouds 2 1003 59 10000 5.1 200 19:20 24.01.2020
10 Clouds 2 1003 55 10000 4.6 200 18:43 24.01.2020
11 Clouds 3 1003 55 10000 4.6 200 18:24 24.01.2020
12 Clouds 2 1003 55 10000 3.1 180 17:54 24.01.2020
13 Clouds 3 1003 59 10000 4.1 190 17:36 24.01.2020
14 Clouds 4 1003 48 10000 4.1 220 17:18 24.01.2020
15 Clouds 4 1003 52 10000 6.2 210 16:39 24.01.2020
16 Clouds 5 1003 56 10000 5.7 210 16:20 24.01.2020
17 Clouds 6 1003 56 10000 6.7 210 15:43 24.01.2020
18 Clouds 6 1003 56 10000 6.7 210 15:23 24.01.2020
19 Clouds 6 1003 60 10000 6.7 210 14:58 24.01.2020
20 Clouds 6 1004 60 10000 5.7 200 14:40 24.01.2020
21 Clear 6 1004 60 10000 5.7 200 14:21 24.01.2020
22 Clear 6 1004 56 10000 5.7 210 13:43 24.01.2020
23 Clouds 6 1004 65 10000 4.6 180 13:23 24.01.2020
24 Clouds 6 1004 69 10000 4.6 180 12:44 24.01.2020
25 Clouds 5 1004 74 10000 4.1 160 12:22 24.01.2020
26 Clouds 5 1005 80 10000 1 0 11:57 24.01.2020
27 Clouds 4 1004 86 10000 1.5 180 11:38 24.01.2020
28 Clouds 3 1005 86 10000 3.1 150 11:18 24.01.2020
29 Clouds 3 1004 86 10000 1.5 180 11:18 24.01.2020
30 Clouds 3 1005 85 10000 3.1 170 10:41 24.01.2020
31 Clouds 3 1005 85 10000 3.1 170 10:20 24.01.2020
32 Clouds 3 1004 85 10000 4.1 190 09:54 24.01.2020
33 Clouds 3 1004 86 10000 2.6 180 09:36 24.01.2020
34 Clouds 3 1005 80 10000 2.1 0 09:18 24.01.2020
35 Clouds 3 1004 85 10000 4.1 140 08:39 24.01.2020
36 Clouds 3 1004 87 10000 4.1 140 08:18 24.01.2020
37 Clouds 3 1004 86 10000 5.1 190 07:47 24.01.2020
38 Clouds 3 1004 86 10000 5.1 190 07:22 24.01.2020
39 Clouds 3 1004 86 10000 5.1 190 07:22 24.01.2020
40 Clouds 4 1004 86 10000 6.7 180 06:43 24.01.2020
41 Clouds 4 1004 86 10000 6.7 180 06:23 24.01.2020
42 Clouds 3 1004 86 10000 8.2 170 05:33 24.01.2020
43 Clouds 4 1005 88 10000 5.7 160 03:36 24.01.2020
44 Clouds 4 1006 88 10000 4.1 140 02:40 24.01.2020
45 Clouds 4 1006 86 10000 4.6 160 02:21 24.01.2020
46 Clouds 4 1007 86 10000 5.1 180 01:39 24.01.2020
47 Clouds 5 1007 87 10000 7.7 190 00:49 24.01.2020
48 Clouds 5 1007 87 10000 6.2 180 00:19 24.01.2020
49 Clouds 5 1007 87 10000 7.2 180 23:42 23.01.2020
50 Clouds 5 1008 87 10000 6.7 190 23:22 23.01.2020
51 Clouds 5 1008 87 10000 6.7 190 22:58 23.01.2020
52 Clouds 5 1008 87 10000 8.7 200 22:37 23.01.2020
53 Clouds 5 1008 87 10000 8.7 200 22:18 23.01.2020
54 Clouds 5 1008 87 10000 6.7 200 21:55 23.01.2020
55 Clouds 5 1009 87 10000 4.6 150 21:37 23.01.2020
56 Clouds 5 1009 87 10000 4.6 150 21:19 23.01.2020
57 Clouds 5 1009 87 10000 2.6 120 20:54 23.01.2020
58 Clouds 5 1009 87 10000 9.3 190 20:36 23.01.2020
59 Clouds 5 1009 83 10000 9.3 190 20:18 23.01.2020
60 Clouds 5 1010 83 10000 5.7 200 19:42 23.01.2020
61 Clouds 5 1010 83 10000 5.7 200 19:23 23.01.2020
62 Clouds 4 1010 83 10000 4.6 210 18:57 23.01.2020
63 Clouds 4 1010 69 10000 4.6 220 18:38 23.01.2020
64 Clouds 5 1010 69 10000 4.6 220 18:19 23.01.2020
65 Clouds 4 1010 74 10000 5.1 200 17:55 23.01.2020
66 Clouds 4 1011 69 10000 1.5 240 17:37 23.01.2020
67 Clouds 4 1011 69 10000 1.5 240 17:18 23.01.2020
68 Clouds 4 1011 74 10000 3.6 170 16:39 23.01.2020
69 Clouds 4 1011 74 10000 3.6 170 16:20 23.01.2020
70 Clouds 4 1012 69 10000 3.6 130 15:58 23.01.2020
71 Clouds 4 1012 74 10000 4.1 160 15:39 23.01.2020
72 Clouds 4 1012 74 10000 4.1 160 15:19 23.01.2020
73 Clouds 4 1012 74 10000 5.1 140 14:58 23.01.2020
74 Clouds 4 1013 64 10000 5.7 150 14:40 23.01.2020
75 Clouds 4 1013 64 10000 5.7 150 14:22 23.01.2020
76 Clouds 4 1013 64 10000 5.7 160 13:55 23.01.2020
77 Clouds 4 1014 69 10000 3.1 170 13:37 23.01.2020
78 Clouds 3 1014 69 10000 3.1 170 13:18 23.01.2020
79 Clouds 3 1014 69 10000 2.6 230 12:42 23.01.2020
80 Clouds 3 1014 69 10000 2.6 230 12:24 23.01.2020
81 Clouds 2 1015 69 10000 1.5 0 11:56 23.01.2020
82 Clouds 2 1015 65 10000 2.1 200 11:37 23.01.2020
83 Clouds 2 1015 65 10000 2.1 200 11:18 23.01.2020
84 Clouds 1 1015 65 10000 4.6 180 10:42 23.01.2020
85 Clouds 1 1016 65 10000 4.1 200 10:19 23.01.2020
86 Clouds 0 1016 65 10000 3.6 160 10:19 23.01.2020
87 Clouds 0 1016 65 10000 6.2 180 09:42 23.01.2020
88 Clouds 1 1016 65 10000 6.2 180 09:24 23.01.2020
89 Clouds 0 1017 65 10000 4.6 170 08:58 23.01.2020
90 Clouds 0 1017 65 10000 3.6 180 08:40 23.01.2020
91 Clouds 0 1017 75 10000 3.6 180 08:21 23.01.2020
92 Clouds 0 1018 75 10000 3.6 180 07:44 23.01.2020
93 Clouds 0 1018 75 10000 4.6 160 07:24 23.01.2020
94 Clouds 0 1019 75 10000 3.1 200 06:51 23.01.2020
95 Clouds -1 1020 74 10000 4.6 200 06:20 23.01.2020
96 Clouds -2 1021 79 10000 1.5 180 04:58 23.01.2020
97 Clouds -2 1022 79 10000 2.1 220 04:22 23.01.2020
98 Clouds -2 1024 74 10000 2.1 180 02:31 23.01.2020
99 Clouds -1 1026 74 10000 1 0 00:56 23.01.2020
100 Clouds -2 1026 68 10000 2.6 170 00:26 23.01.2020
101 Clouds -2 1027 68 10000 0.5 0 23:47 22.01.2020
102 Clouds -2 1027 68 10000 0.5 0 23:29 22.01.2020
103 Clouds -2 1027 68 10000 1.5 360 22:58 22.01.2020
104 Clouds -2 1028 74 10000 1 0 22:39 22.01.2020
105 Clouds -2 1028 74 10000 1 0 22:21 22.01.2020
106 Clouds -2 1027 74 10000 1 0 21:39 22.01.2020
107 Clouds -2 1027 74 10000 1 0 21:21 22.01.2020
108 Clouds -2 1028 74 10000 1.5 340 20:56 22.01.2020
109 Clouds -2 1028 73 10000 2.1 350 20:37 22.01.2020
110 Clouds -2 1028 73 10000 2.1 350 20:18 22.01.2020
111 Clouds -2 1028 68 10000 1 0 19:55 22.01.2020
112 Clouds -1 1028 68 10000 1.5 310 19:37 22.01.2020
113 Clouds -2 1028 68 10000 1.5 310 19:18 22.01.2020
114 Clouds -1 1028 63 10000 1 0 18:55 22.01.2020
115 Clouds -1 1027 67 10000 1 0 18:37 22.01.2020
116 Clouds -1 1027 67 10000 1 0 18:18 22.01.2020
117 Clouds 0 1028 44 10000 1 0 17:40 22.01.2020
118 Clear 0 1028 44 10000 1 0 17:21 22.01.2020
119 Clear 0 1027 47 10000 2.1 40 16:58 22.01.2020
120 Clear 2 1027 40 10000 1.5 0 16:39 22.01.2020
121 Clear 2 1027 40 10000 1.5 0 16:21 22.01.2020
122 Clear 3 1027 38 10000 2.6 310 15:56 22.01.2020
123 Clear 4 1027 41 10000 2.1 300 15:38 22.01.2020
124 Clear 4 1027 41 10000 3.6 290 15:18 22.01.2020
125 Clear 5 1027 41 10000 2.1 260 14:39 22.01.2020
126 Clear 4 1026 41 10000 2.1 290 14:20 22.01.2020
127 Clear 5 1026 41 10000 2.1 290 13:58 22.01.2020
128 Clear 5 1026 38 10000 3.1 310 13:37 22.01.2020
129 Clear 5 1026 38 10000 3.1 310 13:19 22.01.2020
130 Clear 5 1026 38 10000 2.6 280 12:57 22.01.2020
131 Clear 5 1026 44 10000 2.1 0 12:39 22.01.2020
132 Clear 5 1026 44 10000 2.1 0 12:19 22.01.2020
133 Clear 4 1025 38 10000 3.1 310 11:57 22.01.2020
134 Clear 4 1024 40 10000 1.5 240 11:39 22.01.2020
135 Clear 3 1024 44 10000 1.5 0 11:19 22.01.2020
136 Clear 2 1024 44 10000 1.5 0 10:46 22.01.2020
137 Clear 2 1023 47 10000 4.6 20 10:21 22.01.2020
138 Clear 2 1022 47 10000 3.1 70 09:59 22.01.2020
139 Clear 2 1022 47 10000 3.1 70 09:40 22.01.2020
140 Clear 2 1022 51 10000 2.1 30 09:22 22.01.2020
141 Clear 2 1021 51 10000 2.6 310 08:56 22.01.2020
142 Clear 2 1021 47 10000 3.6 310 08:37 22.01.2020
143 Clear 3 1021 47 10000 3.6 310 08:19 22.01.2020
144 Clear 4 1020 47 10000 3.1 320 07:44 22.01.2020
145 Clear 4 1020 51 10000 3.1 330 07:26 22.01.2020
146 Clear 3 1019 51 10000 3.6 300 06:36 22.01.2020
147 Clear 3 1022 69 0 0.5 0 05:57 22.01.2020
148 Clear 2 1018 51 10000 3.1 310 04:26 22.01.2020
149 Clear 2 1018 55 10000 2.6 320 03:27 22.01.2020
150 Clear 2 1018 51 10000 3.1 310 02:48 22.01.2020
151 Clouds 3 1017 51 10000 2.6 250 00:47 22.01.2020
152 Clouds 4 1017 51 10000 2.6 250 00:28 22.01.2020
153 Clouds 4 1017 55 10000 3.1 240 23:57 21.01.2020
154 Clouds 4 1017 55 10000 3.1 210 23:37 21.01.2020
155 Clouds 4 1017 55 10000 3.1 210 23:19 21.01.2020
156 Clouds 4 1018 55 10000 3.1 130 22:41 21.01.2020
157 Clouds 4 1018 55 10000 3.1 130 22:23 21.01.2020
158 Clouds 3 1017 55 10000 3.1 140 21:58 21.01.2020
159 Clouds 3 1018 59 10000 4.6 130 21:39 21.01.2020
160 Clouds 4 1018 59 10000 4.6 130 21:20 21.01.2020
161 Clouds 3 1018 64 10000 3.1 110 20:57 21.01.2020
162 Clouds 3 1018 64 10000 3.1 110 20:57 21.01.2020
163 Clouds 3 1018 69 10000 2.1 120 20:39 21.01.2020
164 Clouds 4 1018 64 10000 3.1 200 20:20 21.01.2020
165 Clouds 4 1018 64 10000 3.1 200 19:57 21.01.2020
166 Clouds 4 1018 59 10000 4.6 200 19:39 21.01.2020
167 Clouds 4 1018 59 10000 4.6 200 19:20 21.01.2020
168 Clouds 4 1018 64 10000 4.1 190 18:56 21.01.2020
169 Clouds 4 1018 59 10000 1 0 18:38 21.01.2020
170 Clouds 3 1018 59 10000 1 0 18:20 21.01.2020
171 Clouds 4 1019 59 10000 3.1 190 17:45 21.01.2020
172 Clouds 5 1019 55 10000 2.1 180 17:21 21.01.2020
173 Clouds 5 1020 55 10000 2.1 200 16:59 21.01.2020
174 Clouds 5 1020 55 10000 2.1 200 16:59 21.01.2020
175 Clouds 4 1020 41 10000 1 0 16:37 21.01.2020
176 Clouds 4 1020 41 10000 1 0 16:19 21.01.2020
177 Clouds 5 1021 41 10000 3.6 250 15:56 21.01.2020
178 Clouds 6 1020 41 10000 2.1 240 15:37 21.01.2020
179 Clouds 6 1020 41 10000 2.1 240 15:18 21.01.2020
180 Clouds 7 1020 42 10000 2.6 290 14:39 21.01.2020
181 Clouds 7 1020 42 10000 2.6 290 14:20 21.01.2020
182 Clouds 7 1021 42 10000 2.1 230 13:41 21.01.2020
183 Clouds 7 1021 48 10000 1.5 0 13:19 21.01.2020
184 Clouds 7 1021 48 10000 1.5 0 12:57 21.01.2020
185 Clouds 7 1020 52 10000 2.1 250 12:39 21.01.2020
186 Clouds 7 1020 52 10000 2.1 250 12:20 21.01.2020
187 Clouds 7 1020 48 10000 1.5 0 11:41 21.01.2020
188 Clear 6 1020 48 10000 1.5 0 11:22 21.01.2020
189 Clear 6 1020 48 10000 3.1 280 10:59 21.01.2020
190 Clear 5 1020 48 10000 2.6 0 10:41 21.01.2020
191 Clear 5 1020 48 10000 2.6 0 10:22 21.01.2020
192 Clear 5 1019 56 10000 1.5 0 09:43 21.01.2020
193 Clear 5 1019 56 10000 1 0 09:23 21.01.2020
194 Clear 5 1019 84 10000 2.1 0 08:56 21.01.2020
195 Clear 5 1019 80 10000 3.1 190 08:38 21.01.2020
196 Clouds 5 1018 80 10000 1.5 0 08:19 21.01.2020
197 Clouds 6 1017 80 10000 2.1 190 07:41 21.01.2020
198 Clouds 6 1017 80 10000 2.1 190 07:22 21.01.2020
199 Clouds 6 1017 80 10000 2.6 90 06:55 21.01.2020
200 Clouds 7 1016 70 10000 5.7 220 06:37 21.01.2020
201 Clouds 7 1016 65 10000 3.1 200 05:44 21.01.2020
202 Clouds 6 1017 80 10000 3.6 140 04:41 21.01.2020
203 Clouds 7 1017 81 10000 6.7 150 02:58 21.01.2020
204 Clouds 7 1017 81 10000 6.2 140 02:19 21.01.2020
205 Clouds 7 1018 86 10000 6.7 150 01:26 21.01.2020
206 Clouds 7 1019 86 10000 7.7 190 00:38 21.01.2020
207 Clouds 7 1019 86 10000 5.7 200 23:59 20.01.2020
208 Clouds 7 1020 81 10000 8.2 190 23:41 20.01.2020
209 Clouds 7 1020 86 10000 5.7 200 23:19 20.01.2020
210 Clouds 7 1020 86 10000 5.7 200 22:58 20.01.2020
211 Clouds 7 1021 80 10000 7.2 200 22:38 20.01.2020
212 Clouds 7 1021 80 10000 7.7 200 22:20 20.01.2020
213 Clouds 7 1021 80 10000 7.2 200 22:20 20.01.2020
214 Clouds 7 1021 80 10000 7.7 200 21:58 20.01.2020
215 Clouds 7 1021 81 10000 7.2 200 21:37 20.01.2020
216 Clouds 7 1021 81 10000 7.2 200 21:19 20.01.2020
217 Clouds 7 1022 80 10000 5.7 200 20:56 20.01.2020
218 Clouds 7 1022 80 10000 7.2 200 20:38 20.01.2020
219 Clouds 7 1022 80 10000 7.2 200 20:18 20.01.2020
220 Clouds 7 1022 86 10000 5.1 200 19:56 20.01.2020
221 Clouds 7 1023 80 10000 5.7 210 19:38 20.01.2020
222 Clouds 6 1023 80 10000 5.7 210 19:18 20.01.2020
223 Clouds 6 1024 75 10000 6.2 220 18:44 20.01.2020
224 Clouds 6 1024 75 10000 6.2 220 18:22 20.01.2020
225 Clouds 5 1024 86 10000 5.7 180 17:41 20.01.2020
226 Clouds 5 1024 86 10000 5.7 180 17:20 20.01.2020
227 Clouds 6 1025 75 10000 4.1 170 16:59 20.01.2020
228 Clouds 6 1025 75 10000 6.2 180 16:39 20.01.2020
229 Clouds 6 1025 70 10000 6.2 180 16:19 20.01.2020
230 Clouds 6 1025 75 10000 6.2 180 16:19 20.01.2020
231 Clouds 6 1025 70 10000 6.2 180 16:19 20.01.2020
232 Clouds 6 1025 70 10000 6.2 180 16:19 20.01.2020
233 Clouds 6 1025 70 10000 6.2 180 15:56 20.01.2020
234 Clouds 7 1026 70 10000 6.2 190 15:38 20.01.2020
235 Clouds 7 1026 70 10000 6.2 190 15:20 20.01.2020
236 Clouds 7 1026 70 10000 3.6 210 14:41 20.01.2020
237 Clouds 7 1026 70 10000 3.6 210 14:22 20.01.2020
238 Clouds 7 1026 75 10000 3.1 210 13:58 20.01.2020
239 Clouds 7 1026 75 10000 3.1 210 13:40 20.01.2020
240 Clouds 6 1026 79 10000 3.1 210 13:21 20.01.2020
241 Clouds 6 1026 79 10000 6.7 200 12:46 20.01.2020
242 Clouds 6 1026 79 10000 6.2 190 12:28 20.01.2020
243 Clouds 6 1027 79 10000 6.2 200 11:58 20.01.2020
244 Clouds 5 1027 74 10000 6.2 190 11:39 20.01.2020
245 Clouds 5 1027 74 10000 6.2 190 11:20 20.01.2020
246 Clouds 4 1027 74 10000 6.7 190 10:48 20.01.2020
247 Clouds 4 1027 74 10000 6.7 190 10:22 20.01.2020
248 Clouds 4 1027 74 10000 6.2 200 09:57 20.01.2020
249 Clouds 4 1027 74 10000 7.7 190 09:39 20.01.2020
250 Clouds 4 1027 74 10000 7.7 190 09:20 20.01.2020
251 Clouds 4 1027 80 10000 5.1 170 08:44 20.01.2020
252 Clouds 4 1027 80 10000 5.1 170 08:26 20.01.2020
253 Clouds 4 1027 74 10000 5.1 180 07:45 20.01.2020
254 Clouds 3 1028 69 10000 5.7 180 07:25 20.01.2020
255 Clouds 4 1028 74 10000 3.6 210 06:48 20.01.2020
256 Clouds 3 1028 74 10000 3.6 210 06:27 20.01.2020
257 Clouds 3 1028 69 10000 5.7 210 05:42 20.01.2020
258 Clouds 3 1028 69 10000 5.7 210 05:22 20.01.2020
259 Clouds 2 1029 74 10000 6.2 210 04:42 20.01.2020
260 Clouds 1 1030 64 10000 2.6 150 02:57 20.01.2020
261 Clouds 0 1031 68 10000 3.1 210 01:54 20.01.2020
262 Clouds 1 1031 68 10000 4.1 180 01:35 20.01.2020
263 Clouds 0 1032 86 10000 0.5 0 00:44 20.01.2020
264 Clouds 0 1032 86 10000 2.6 210 00:23 20.01.2020
265 Clouds -1 1032 86 10000 1 0 23:39 19.01.2020
266 Clouds -1 1032 86 10000 1 0 23:20 19.01.2020
267 Clouds -1 1032 86 10000 1.5 210 22:57 19.01.2020
268 Clouds -1 1032 86 10000 1.5 210 22:57 19.01.2020
269 Clouds -1 1032 86 10000 0.5 0 22:38 19.01.2020
270 Clouds -1 1032 86 10000 0.5 0 22:20 19.01.2020
271 Clouds -1 1032 86 10000 1.5 210 21:57 19.01.2020
272 Clouds -1 1033 80 10000 1 230 21:38 19.01.2020
273 Clouds -1 1033 80 10000 1 230 21:20 19.01.2020
274 Clouds -1 1032 80 10000 1 0 20:57 19.01.2020
275 Clouds -1 1032 86 10000 0.5 0 20:39 19.01.2020
276 Clouds -1 1032 86 10000 0.5 0 20:20 19.01.2020
277 Clouds -1 1032 80 10000 1.5 240 19:57 19.01.2020
278 Clouds -1 1032 74 10000 0.5 0 19:39 19.01.2020
279 Clouds -1 1032 74 10000 0.5 0 19:39 19.01.2020
280 Clouds -1 1032 74 10000 0.5 0 19:20 19.01.2020
281 Clouds -1 1032 80 10000 1.5 250 18:57 19.01.2020
282 Clouds -1 1031 67 10000 0.64 292 18:38 19.01.2020
283 Clouds -1 1031 67 10000 0.64 292 18:20 19.01.2020
284 Clouds -1 1031 67 10000 2.6 270 17:58 19.01.2020
285 Clouds -1 1031 59 10000 1 0 17:40 19.01.2020
286 Clouds -1 1031 59 10000 1 0 17:40 19.01.2020
287 Clouds 0 1031 59 10000 1 0 17:21 19.01.2020
288 Clouds 0 1031 59 10000 1.5 260 16:59 19.01.2020
289 Clouds 0 1030 55 10000 2.1 270 16:39 19.01.2020
290 Clouds 1 1030 55 10000 2.1 270 16:21 19.01.2020
291 Clouds 1 1029 59 10000 2.1 10 15:58 19.01.2020
292 Clouds 1 1029 59 10000 2.1 10 15:58 19.01.2020
293 Clouds 1 1029 59 10000 2.1 350 15:38 19.01.2020
294 Clouds 2 1029 59 10000 2.1 350 15:20 19.01.2020
295 Clouds 3 1029 51 10000 0.93 274 14:58 19.01.2020
296 Clouds 3 1028 51 10000 1 0 14:39 19.01.2020
297 Clear 4 1028 51 10000 1 0 14:18 19.01.2020
298 Clear 4 1028 51 10000 1 0 14:18 19.01.2020
299 Clear 4 1028 51 10000 2.1 300 13:57 19.01.2020
300 Clear 4 1027 55 10000 2.1 300 13:38 19.01.2020
301 Clear 4 1027 55 10000 2.1 300 13:19 19.01.2020
302 Clear 4 1027 51 10000 2.1 280 12:55 19.01.2020
303 Clear 4 1027 55 10000 3.1 260 12:37 19.01.2020
304 Clear 4 1026 55 10000 2.1 240 12:19 19.01.2020
305 Clear 3 1025 64 10000 1.5 290 11:42 19.01.2020
306 Clear 2 1025 64 10000 1.5 290 11:20 19.01.2020
307 Clear 2 1025 59 10000 2.1 330 10:56 19.01.2020
308 Clear 2 1025 59 10000 2.1 330 10:56 19.01.2020
309 Clear 1 1024 64 10000 0.5 0 10:38 19.01.2020
310 Clear 1 1024 64 10000 0.5 0 10:19 19.01.2020
311 Clear 1 1023 69 10000 2.6 310 09:56 19.01.2020
312 Clear 1 1023 69 10000 2.6 310 09:56 19.01.2020
313 Clear 1 1023 69 10000 2.6 310 09:56 19.01.2020
314 Clear 1 1023 69 10000 2.6 310 09:56 19.01.2020
315 Clear 1 1023 69 10000 3.1 300 09:37 19.01.2020
316 Clear 0 1023 69 10000 3.1 300 09:18 19.01.2020
317 Clear 0 1022 66 10000 2.6 340 08:48 19.01.2020
318 Clouds 0 1022 74 10000 1.5 360 08:28 19.01.2020
319 Clouds 0 1019 74 10000 3.1 330 07:42 19.01.2020
320 Clouds 1 1019 74 10000 3.1 330 07:22 19.01.2020
321 Clouds 1 1019 74 10000 3.6 20 06:54 19.01.2020
322 Clouds 0 1018 74 10000 2.6 320 06:21 19.01.2020
323 Clouds 0 1013 72 10000 2.1 310 02:47 19.01.2020
324 Clouds 0 1013 72 10000 1.5 270 02:24 19.01.2020
325 Clear 0 1011 75 10000 1 0 01:28 19.01.2020
326 Clear 0 1011 80 10000 1.5 70 00:54 19.01.2020
327 Clear 1 1010 74 10000 2.6 330 00:29 19.01.2020
328 Clear 1 1010 74 10000 2.6 330 23:59 18.01.2020
329 Clear 1 1009 74 10000 2.6 270 23:41 18.01.2020
330 Clear 1 1009 74 10000 2.6 270 23:23 18.01.2020
331 Clear 1 1008 80 10000 2.1 300 22:55 18.01.2020
332 Clear 1 1008 80 10000 2.1 0 22:37 18.01.2020
333 Clear 1 1008 80 10000 2.1 0 22:19 18.01.2020
334 Clear 1 1008 86 10000 1.5 40 21:57 18.01.2020
335 Clear 1 1007 80 10000 2.1 310 21:38 18.01.2020
336 Clear 1 1007 80 10000 2.1 310 21:20 18.01.2020
337 Clear 1 1006 80 10000 2.6 360 20:44 18.01.2020
338 Clouds 2 1006 96 10000 2.6 360 20:21 18.01.2020
339 Clouds 2 1006 95 10000 2.6 360 20:21 18.01.2020
340 Clouds 2 1005 95 10000 1.5 0 19:59 18.01.2020
341 Clouds 2 1005 86 10000 2.1 30 19:41 18.01.2020
342 Clouds 2 1005 86 10000 2.1 30 19:22 18.01.2020
343 Clouds 2 1004 93 10000 1.5 300 18:42 18.01.2020
344 Clouds 2 1004 93 10000 1.5 300 18:22 18.01.2020
345 Clouds 3 1003 93 10000 3.1 310 17:56 18.01.2020
346 Fog 3 1003 100 10000 2.1 310 17:37 18.01.2020
347 Fog 3 1003 100 10000 2.1 310 17:19 18.01.2020
348 Fog 3 1002 93 10000 1.5 300 16:55 18.01.2020
349 Fog 3 1002 93 10000 1.5 300 16:55 18.01.2020
350 Clouds 3 1002 93 10000 1.5 290 16:36 18.01.2020
351 Clouds 3 1002 100 10000 2.1 290 16:18 18.01.2020
352 Clouds 4 1001 100 10000 1 0 15:41 18.01.2020
353 Clouds 4 1001 100 10000 1 0 15:23 18.01.2020
354 Clouds 4 1002 100 10000 1.5 230 14:57 18.01.2020
355 Fog 4 1002 100 10000 1.5 290 14:39 18.01.2020
356 Fog 4 1002 100 10000 1.5 290 14:18 18.01.2020
357 Fog 4 1001 100 8000 1 340 13:43 18.01.2020
358 Fog 4 1001 100 8000 1 340 13:24 18.01.2020
359 Fog 4 1001 100 5000 1 0 12:57 18.01.2020
360 Fog 4 1001 100 5000 1 0 12:57 18.01.2020
361 Fog 4 1001 100 5000 1 0 12:57 18.01.2020
362 Fog 4 1001 100 5000 1 0 12:38 18.01.2020
363 Fog 4 1001 100 5000 1 0 12:20 18.01.2020
364 Fog 4 1001 100 1000 2.17 209 11:44 18.01.2020
365 Fog 4 1001 100 500 2.74 199 11:21 18.01.2020
366 Fog 4 1001 100 500 1 0 10:57 18.01.2020
367 Fog 4 1001 100 500 1 350 10:38 18.01.2020
368 Fog 4 1001 100 500 1 350 10:19 18.01.2020
369 Fog 4 1001 100 600 0.5 0 09:46 18.01.2020
370 Fog 4 1001 100 600 0.5 0 09:28 18.01.2020
371 Rain 4 1001 100 700 1 350 08:55 18.01.2020
372 Rain 4 1001 100 700 1 0 08:37 18.01.2020
373 Rain 4 1001 100 700 1 0 08:19 18.01.2020
374 Rain 4 1001 100 600 1 220 07:45 18.01.2020
375 Rain 4 1001 100 900 1 190 07:26 18.01.2020
376 Rain 4 1002 100 1800 1.5 200 06:47 18.01.2020
377 Rain 4 1002 100 1800 1.5 200 06:47 18.01.2020
378 Rain 4 1002 100 2300 0.98 197 05:59 18.01.2020
379 Rain 4 1002 100 1400 0.5 0 05:19 18.01.2020
380 Rain 4 1002 100 800 0.97 212 02:53 18.01.2020
381 Rain 4 1002 100 800 0.97 212 02:53 18.01.2020
382 Rain 4 1003 100 700 1.3 198 01:52 18.01.2020
383 Rain 4 1003 100 600 1 320 01:29 18.01.2020
384 Rain 4 1004 100 650 1.66 185 00:36 18.01.2020
385 Rain 4 1004 100 700 1.66 185 00:18 18.01.2020
386 Rain 5 1004 100 900 2.1 190 23:40 17.01.2020
387 Rain 5 1004 100 900 2.1 190 23:19 17.01.2020
388 Rain 5 1004 100 5000 3.1 170 22:44 17.01.2020
389 Rain 5 1005 100 2500 3.6 170 22:21 17.01.2020
390 Rain 5 1005 100 3500 2.1 190 21:58 17.01.2020
391 Rain 5 1005 100 7000 2.6 160 21:40 17.01.2020
392 Rain 5 1005 100 7000 2.6 160 21:22 17.01.2020
393 Rain 5 1005 100 7000 2.1 200 20:57 17.01.2020
394 Rain 5 1005 100 8000 2.6 190 20:37 17.01.2020
395 Rain 5 1006 100 9000 4.1 170 20:19 17.01.2020
396 Rain 5 1006 100 9000 4.1 170 19:55 17.01.2020
397 Drizzle 5 1006 100 7000 3.1 160 19:37 17.01.2020
398 Drizzle 5 1006 100 7000 3.1 160 19:18 17.01.2020
399 Drizzle 5 1006 100 7000 4.1 160 18:45 17.01.2020
400 Drizzle 5 1006 100 6000 4.1 170 18:27 17.01.2020
401 Drizzle 5 1006 93 5000 3.1 160 17:56 17.01.2020
402 Drizzle 5 1006 93 8000 4.6 160 17:38 17.01.2020
403 Drizzle 5 1006 93 8000 4.6 160 17:20 17.01.2020
404 Drizzle 5 1007 93 8000 4.6 160 16:42 17.01.2020
405 Drizzle 5 1007 93 8000 4.6 160 16:42 17.01.2020
406 Drizzle 5 1007 100 7000 4.6 160 16:20 17.01.2020
407 Drizzle 5 1007 100 8000 4.6 160 15:48 17.01.2020
408 Drizzle 5 1007 100 7000 5.1 160 15:28 17.01.2020
409 Drizzle 5 1007 100 4000 5.7 160 14:57 17.01.2020
410 Drizzle 5 1008 100 7000 6.2 170 14:38 17.01.2020
411 Drizzle 5 1008 100 7000 6.2 170 14:20 17.01.2020
412 Drizzle 6 1008 100 5000 5.7 170 13:41 17.01.2020
413 Drizzle 6 1008 100 5000 5.7 170 13:22 17.01.2020
414 Drizzle 6 1008 100 5000 5.7 170 13:22 17.01.2020
415 Drizzle 6 1008 100 5000 6.2 180 12:46 17.01.2020
416 Drizzle 6 1008 100 5000 6.2 180 12:23 17.01.2020
417 Drizzle 6 1008 100 8000 6.2 170 11:41 17.01.2020
418 Drizzle 6 1008 100 8000 6.2 170 11:20 17.01.2020
419 Drizzle 6 1008 100 9000 6.2 170 10:56 17.01.2020
420 Drizzle 6 1008 93 9000 6.7 170 10:37 17.01.2020
421 Drizzle 6 1008 93 9000 6.7 170 10:19 17.01.2020
422 Drizzle 6 1008 93 6000 6.7 180 09:43 17.01.2020
423 Drizzle 6 1008 93 6000 7.2 180 09:21 17.01.2020
424 Rain 5 1008 100 6000 6.2 180 08:56 17.01.2020
425 Rain 5 1008 100 10000 5.1 170 08:38 17.01.2020
426 Rain 5 1008 100 10000 5.1 170 08:19 17.01.2020
427 Rain 5 1009 93 10000 5.7 170 07:43 17.01.2020
428 Rain 5 1009 93 10000 5.7 170 07:25 17.01.2020
429 Rain 5 1009 93 8000 5.1 160 06:51 17.01.2020
430 Rain 5 1010 93 9000 5.1 160 06:30 17.01.2020
431 Rain 5 988 83 0 1.34 178 04:27 17.01.2020
432 Rain 5 990 80 0 0.89 135 02:56 17.01.2020
433 Rain 5 990 80 0 0.89 135 02:56 17.01.2020
434 Rain 5 990 81 0 0.89 92 02:32 17.01.2020
435 Clouds 5 991 82 0 1.34 224 01:44 17.01.2020
436 Clouds 5 991 82 0 1.34 162 01:22 17.01.2020
437 Clouds 4 992 84 0 1.34 266 00:37 17.01.2020
438 Clouds 4 1015 95 10000 5.1 180 23:59 16.01.2020
439 Clouds 4 1015 95 10000 5.1 180 23:41 16.01.2020
440 Clouds 4 1015 91 10000 5.1 180 23:22 16.01.2020
441 Clouds 4 1015 91 10000 5.1 210 22:41 16.01.2020
442 Clouds 4 1014 91 10000 1.5 200 22:21 16.01.2020
443 Clouds 3 1014 91 10000 1.5 200 21:57 16.01.2020
444 Clouds 3 1014 91 10000 1.5 200 21:57 16.01.2020
445 Clouds 3 1014 80 10000 3.1 210 21:38 16.01.2020
446 Clouds 3 1014 80 10000 3.1 210 21:19 16.01.2020
447 Clouds 3 1014 80 10000 3.1 210 21:19 16.01.2020
448 Clouds 4 1014 69 10000 4.1 210 20:57 16.01.2020
449 Clouds 4 1014 91 10000 2.1 130 20:38 16.01.2020
450 Clouds 3 1014 83 10000 3.1 200 20:19 16.01.2020
451 Clouds 4 1014 83 10000 3.1 200 19:56 16.01.2020
452 Clouds 4 1014 83 10000 5.1 190 19:37 16.01.2020
453 Clouds 4 1014 83 10000 5.1 190 19:19 16.01.2020
454 Clouds 4 1014 83 10000 5.1 190 19:19 16.01.2020
455 Clouds 4 1013 83 10000 5.7 190 18:55 16.01.2020
456 Clouds 4 1013 83 10000 5.1 180 18:37 16.01.2020
457 Clouds 4 1013 83 10000 5.1 180 18:18 16.01.2020
458 Clouds 4 1012 83 10000 5.1 200 17:42 16.01.2020
459 Clouds 4 1012 71 10000 5.1 200 17:23 16.01.2020
460 Clouds 5 1012 75 10000 6.7 190 16:57 16.01.2020
461 Clouds 5 1011 75 10000 6.7 160 16:39 16.01.2020
462 Clouds 6 1011 75 10000 6.7 160 16:19 16.01.2020
463 Clouds 6 1010 75 10000 6.7 160 15:44 16.01.2020
464 Clouds 6 1010 75 10000 5.1 180 15:23 16.01.2020
465 Clouds 6 1009 80 10000 5.7 180 14:57 16.01.2020
466 Clouds 7 1009 75 10000 6.2 190 14:39 16.01.2020
467 Clear 7 1009 75 10000 6.2 190 14:20 16.01.2020
468 Clear 7 1008 80 10000 4.6 200 13:45 16.01.2020
469 Clear 7 1008 80 10000 4.6 200 13:26 16.01.2020
470 Clear 6 1007 86 10000 5.7 180 12:47 16.01.2020
471 Clear 6 1007 86 10000 5.7 180 12:29 16.01.2020
472 Clear 6 1007 86 10000 5.7 180 12:29 16.01.2020
473 Clouds 6 1007 86 10000 5.7 180 11:59 16.01.2020
474 Clouds 6 1007 86 10000 5.7 180 11:41 16.01.2020
475 Clouds 5 1006 86 10000 5.1 190 11:22 16.01.2020
476 Clouds 5 1005 86 10000 6.7 210 10:55 16.01.2020
477 Clouds 5 1004 86 10000 7.2 210 10:36 16.01.2020
478 Clouds 5 1004 86 10000 7.2 210 10:18 16.01.2020
479 Clouds 5 1003 86 10000 6.7 200 09:41 16.01.2020
480 Clouds 5 1003 86 10000 6.7 200 09:23 16.01.2020
481 Clouds 5 1002 86 10000 6.7 190 08:55 16.01.2020
482 Clouds 5 1002 86 10000 4.1 180 08:36 16.01.2020
483 Clouds 4 1001 86 10000 4.6 190 07:59 16.01.2020
484 Clouds 5 1000 86 10000 5.1 190 07:41 16.01.2020
485 Clouds 5 1000 86 10000 5.1 190 07:23 16.01.2020
486 Clouds 5 1000 86 10000 6.2 180 06:46 16.01.2020
487 Clouds 5 999 86 10000 6.7 180 06:28 16.01.2020
488 Clouds 5 999 86 10000 6.7 180 06:28 16.01.2020
489 Clouds 5 999 86 10000 8.2 190 05:46 16.01.2020
490 Clouds 5 998 86 10000 8.2 190 04:46 16.01.2020
491 Clouds 5 998 86 10000 8.2 190 04:46 16.01.2020
492 Clouds 4 997 86 10000 9.8 180 03:29 16.01.2020
493 Clouds 4 997 86 10000 7.7 180 02:44 16.01.2020
494 Clouds 4 997 86 10000 6.2 190 01:28 16.01.2020
495 Clouds 4 996 86 10000 5.7 170 00:41 16.01.2020
496 Clouds 4 996 86 10000 5.7 170 00:19 16.01.2020
497 Clouds 4 996 86 10000 5.1 170 23:40 15.01.2020
498 Clouds 4 996 86 10000 5.1 170 23:20 15.01.2020
499 Clouds 4 996 86 10000 3.1 190 22:56 15.01.2020
500 Clouds 4 995 80 10000 3.1 210 22:37 15.01.2020
501 Clouds 4 995 80 10000 3.1 210 22:18 15.01.2020
502 Clouds 4 995 80 10000 3.1 210 22:18 15.01.2020
503 Clouds 4 995 86 10000 6.2 200 21:55 15.01.2020
504 Clouds 4 995 86 10000 3.6 200 21:36 15.01.2020
505 Clouds 3 995 86 10000 3.6 200 21:18 15.01.2020
506 Clouds 4 995 86 10000 2.6 190 20:54 15.01.2020
507 Clouds 4 995 86 10000 1.5 180 20:36 15.01.2020
508 Clouds 3 995 86 10000 1.5 180 20:18 15.01.2020
509 Clouds 3 994 79 10000 1.5 160 19:54 15.01.2020
510 Clouds 4 994 80 10000 3.1 120 19:36 15.01.2020
511 Clouds 4 994 79 10000 3.1 80 19:18 15.01.2020
512 Clouds 4 994 79 10000 3.1 80 18:55 15.01.2020
513 Clouds 4 994 79 10000 3.1 80 18:55 15.01.2020
514 Clouds 4 994 79 10000 3.1 80 18:55 15.01.2020
515 Clouds 4 994 80 10000 3.6 110 18:36 15.01.2020
516 Clouds 4 994 79 10000 4.1 130 18:18 15.01.2020
517 Clouds 4 994 79 10000 4.1 130 17:40 15.01.2020
518 Clouds 4 993 71 10000 4.6 180 17:22 15.01.2020
519 Clouds 4 993 71 10000 5.1 190 16:57 15.01.2020
520 -273 0 0 0 0 0 16:38 15.01.2020
521 Clouds 4 993 71 10000 6.2 200 16:20 15.01.2020
522 Clouds 4 993 71 10000 6.2 200 16:20 15.01.2020
523 Clouds 4 993 71 10000 6.2 200 16:20 15.01.2020
524 Clouds 4 992 71 10000 5.1 200 15:43 15.01.2020
525 Clouds 4 992 71 10000 5.1 200 15:21 15.01.2020
526 Clouds 4 992 71 10000 5.7 190 14:56 15.01.2020
527 Clouds 5 992 71 10000 4.6 200 14:37 15.01.2020
528 Clouds 5 992 67 10000 4.6 200 14:18 15.01.2020
529 Clouds 5 991 67 10000 4.1 200 13:44 15.01.2020
530 Clouds 5 991 86 10000 5.1 200 13:23 15.01.2020
531 Clouds 4 990 67 10000 7.2 200 12:56 15.01.2020
532 Clouds 4 990 67 10000 5.1 210 12:37 15.01.2020
533 Clouds 4 990 67 10000 5.1 210 12:19 15.01.2020
534 Clouds 4 990 67 10000 5.7 210 11:54 15.01.2020
535 Clouds 4 989 69 10000 3.6 220 11:36 15.01.2020
536 Clouds 4 988 70 10000 4.1 220 11:18 15.01.2020
537 Clouds 3 988 80 10000 6.2 220 10:41 15.01.2020
538 Clouds 3 988 80 10000 6.2 220 10:21 15.01.2020
539 Clouds 3 986 86 10000 5.7 220 09:41 15.01.2020
540 Clouds 4 986 86 10000 5.7 220 09:22 15.01.2020
541 Clouds 4 985 86 10000 5.7 210 08:45 15.01.2020
542 Clouds 4 984 86 10000 5.7 210 08:27 15.01.2020
543 Clouds 4 984 86 10000 4.6 230 07:56 15.01.2020
544 Clouds 4 983 86 10000 3.1 230 07:35 15.01.2020
545 Clouds 4 982 93 10000 2.1 0 06:57 15.01.2020
546 Clouds 4 982 93 10000 2.1 0 06:57 15.01.2020
547 Clouds 4 982 69 10000 1.5 100 06:38 15.01.2020
548 Fog 4 981 100 6000 0.5 0 05:43 15.01.2020
549 Clouds 4 981 95 6000 1.5 70 03:44 15.01.2020
550 Rain 3 984 93 10000 5.1 150 01:50 15.01.2020
551 Rain 3 985 93 10000 7.7 160 01:22 15.01.2020
552 Rain 4 986 93 10000 5.7 150 00:38 15.01.2020
553 Rain 4 986 93 10000 5.7 150 00:20 15.01.2020
554 Rain 3 988 93 10000 3.6 150 23:47 14.01.2020
555 Rain 4 988 93 10000 3.6 150 23:28 14.01.2020
556 Rain 3 989 93 10000 2.6 130 22:58 14.01.2020
557 Clouds 3 990 86 10000 2.6 140 22:40 14.01.2020
558 Clouds 3 990 86 10000 2.6 140 22:19 14.01.2020
559 Clouds 3 990 86 10000 2.6 140 21:58 14.01.2020
560 Clouds 3 991 93 10000 2.1 160 21:39 14.01.2020
561 Clouds 3 991 93 10000 2.1 160 21:19 14.01.2020
562 Clouds 3 991 94 10000 4.1 190 20:54 14.01.2020
563 Clouds 3 991 94 10000 4.1 190 20:54 14.01.2020
564 Clouds 3 991 94 10000 2.6 140 20:36 14.01.2020
565 Clouds 3 991 75 10000 2.6 140 20:18 14.01.2020
566 Clouds 3 991 75 10000 2.6 140 19:55 14.01.2020
567 Clouds 2 990 75 10000 2.6 50 19:37 14.01.2020
568 Clouds 2 990 75 10000 2.6 50 19:18 14.01.2020
569 Clouds 2 990 75 10000 2.6 50 19:18 14.01.2020
570 Clouds 2 990 86 10000 2.1 170 18:41 14.01.2020
571 Clouds 2 990 86 10000 2.1 170 18:20 14.01.2020
572 Clouds 3 990 86 10000 2.1 170 17:58 14.01.2020
573 Clouds 3 989 93 10000 3.1 200 17:37 14.01.2020
574 Clouds 3 989 86 10000 4.1 210 17:18 14.01.2020
575 Clouds 3 989 86 10000 4.1 210 16:43 14.01.2020
576 Clouds 4 988 86 10000 5.7 210 16:23 14.01.2020
577 Clouds 4 988 86 10000 5.7 200 15:58 14.01.2020
578 Clouds 5 987 93 10000 6.7 190 15:40 14.01.2020
579 Clouds 5 987 93 10000 6.7 190 15:19 14.01.2020
580 Clouds 5 987 86 10000 6.2 170 14:43 14.01.2020
581 Clouds 5 987 93 10000 5.7 180 14:20 14.01.2020
582 Rain 5 987 93 10000 6.2 180 13:57 14.01.2020
583 Clouds 5 987 86 10000 6.2 180 13:38 14.01.2020
584 Clouds 5 987 86 10000 6.2 180 13:18 14.01.2020
585 Clouds 5 987 93 10000 4.1 180 12:41 14.01.2020
586 Clouds 5 987 93 10000 4.1 180 12:21 14.01.2020
587 Clouds 5 986 93 10000 5.1 190 11:55 14.01.2020
588 Clouds 5 986 100 10000 4.1 160 11:36 14.01.2020
589 Clouds 5 986 100 10000 4.1 160 11:18 14.01.2020
590 Clouds 5 989 87 9000 8.2 190 10:40 14.01.2020
591 Rain 5 986 88 9000 3.6 200 10:20 14.01.2020
592 Rain 5 986 88 7000 6.2 160 09:58 14.01.2020
593 Rain 5 988 93 5000 12.3 180 09:40 14.01.2020
594 Rain 5 988 93 5000 12.3 180 09:21 14.01.2020
595 Snow 4 987 88 3300 5.7 150 08:48 14.01.2020
596 Snow 4 988 95 3000 6.2 160 08:25 14.01.2020
597 Snow 4 988 94 2500 6.7 160 07:56 14.01.2020
598 Clouds 4 989 100 9000 8.2 160 07:34 14.01.2020
599 Clouds 4 989 100 9000 8.2 160 07:34 14.01.2020
600 Rain 3 990 93 10000 8.2 150 06:57 14.01.2020
601 Rain 3 990 86 10000 8.7 150 06:34 14.01.2020
602 Drizzle 4 992 86 10000 8.2 150 05:28 14.01.2020
603 Rain 4 995 93 10000 9.3 170 03:57 14.01.2020
604 Clouds 4 996 93 10000 8.2 170 03:35 14.01.2020
605 Rain 4 998 100 10000 6.7 170 01:58 14.01.2020
606 Rain 3 1000 93 10000 4.6 170 00:53 14.01.2020
607 Clouds 3 1000 91 8000 1 0 00:35 14.01.2020
608 Clouds 3 1001 91 10000 3.6 180 23:56 13.01.2020
609 Clouds 3 1003 86 10000 6.7 180 23:37 13.01.2020
610 Clouds 2 1001 100 10000 0.5 0 23:18 13.01.2020
611 Clouds 2 1001 100 10000 0.5 0 23:18 13.01.2020
612 Snow 1 1002 100 10000 1 0 22:43 13.01.2020
613 Snow 1 1002 100 10000 1 0 22:22 13.01.2020
614 Rain 2 1002 95 10000 0.5 0 21:58 13.01.2020
615 Rain 2 1002 95 10000 0.5 0 21:58 13.01.2020
616 Clouds 2 1004 92 10000 1 0 21:39 13.01.2020
617 Clouds 2 1004 92 10000 1 0 21:19 13.01.2020
618 Clouds 1 1004 100 10000 1.5 220 20:59 13.01.2020
619 Clouds 1 1004 92 10000 2.6 190 20:41 13.01.2020
620 Clouds 1 1004 92 10000 2.6 190 20:22 13.01.2020
621 Clouds 1 1004 92 10000 2.6 190 20:22 13.01.2020
622 Clouds 1 1004 92 10000 2.6 190 20:22 13.01.2020
623 Clouds 0 1004 92 10000 4.1 170 19:59 13.01.2020
624 Clouds 0 1004 92 10000 5.1 190 19:40 13.01.2020
625 Clouds 0 1004 92 10000 5.1 190 19:20 13.01.2020
626 Clouds 1 1004 92 10000 4.1 210 18:57 13.01.2020
627 Clear 0 1004 86 10000 2.1 200 18:37 13.01.2020
628 Clear 0 1004 86 10000 2.1 200 18:19 13.01.2020
629 Clear 0 1004 83 10000 3.6 200 17:55 13.01.2020
630 Clear 1 1004 83 10000 2.6 200 17:36 13.01.2020
631 Clear 0 1004 83 10000 2.6 200 17:36 13.01.2020
632 Clear 0 1004 87 10000 2.6 200 17:18 13.01.2020
633 Clear 1 982 74 0 0.45 174 16:40 13.01.2020
634 Clear 1 982 74 0 0.45 174 16:40 13.01.2020
635 Clear 1 982 73 0 0.45 99 16:21 13.01.2020
636 Clear 1 982 71 0 0.89 222 15:55 13.01.2020
637 Clear 2 982 71 0 0.45 175 15:36 13.01.2020
638 Clear 2 983 69 0 0.89 135 15:18 13.01.2020
639 Clear 2 1005 69 0 2.9 199 14:40 13.01.2020
640 Clouds 2 1003 92 0 2.21 206 14:22 13.01.2020
641 Clouds 2 989 32 0 1.79 146 13:56 13.01.2020
642 Clouds 2 1003 93 0 2.21 206 13:38 13.01.2020
643 Clouds 2 1004 93 0 2.09 206 13:20 13.01.2020
644 Clouds 2 1004 93 0 2.21 206 13:20 13.01.2020
645 Clouds 1 1005 75 10000 5.1 180 12:43 13.01.2020
646 Clouds 1 1005 75 10000 5.1 180 12:23 13.01.2020
647 Clouds 1 1005 75 10000 5.1 180 12:23 13.01.2020
648 Clouds 1 1005 75 10000 5.1 180 11:59 13.01.2020
649 Clouds 0 1005 86 10000 4.6 180 11:39 13.01.2020
650 Clouds 0 1005 86 10000 4.6 180 11:19 13.01.2020
651 Clouds 0 1005 86 10000 6.2 210 10:56 13.01.2020
652 Clouds 0 1005 86 10000 4.1 190 10:38 13.01.2020
653 Clouds -1 1005 86 10000 4.1 190 10:20 13.01.2020
654 Clouds -1 1005 86 10000 3.1 190 09:45 13.01.2020
655 Clouds -1 1005 80 10000 2.6 220 09:26 13.01.2020
656 Clouds -1 1004 80 10000 3.1 170 08:59 13.01.2020
657 Clouds -1 1004 86 10000 3.6 170 08:38 13.01.2020
658 Clouds -1 1004 86 10000 3.6 170 08:19 13.01.2020
659 Clouds -1 1004 86 10000 4.6 190 07:45 13.01.2020
660 Clouds -1 1004 80 10000 5.1 200 07:27 13.01.2020
661 Clouds -1 1004 80 10000 4.1 150 06:39 13.01.2020
662 Clouds -2 1004 80 10000 4.6 150 05:57 13.01.2020
663 Clouds -2 1004 80 10000 4.6 180 05:19 13.01.2020
664 Clouds -1 1004 86 10000 5.1 180 03:46 13.01.2020
665 Clouds -1 1003 86 10000 4.6 190 02:51 13.01.2020
666 Clouds -1 1003 80 10000 5.1 170 02:31 13.01.2020
667 Clouds -1 1003 86 10000 3.1 180 01:47 13.01.2020
668 Clouds 0 1003 86 10000 4.6 200 00:59 13.01.2020
669 Clouds 0 1003 86 10000 4.6 200 00:37 13.01.2020
670 Clouds 0 1003 86 10000 4.6 200 00:18 13.01.2020
671 Clouds 0 1002 86 10000 4.6 200 23:41 12.01.2020
672 Clear 0 1002 86 10000 4.6 200 23:22 12.01.2020
673 Clear 0 1002 80 10000 4.1 210 22:57 12.01.2020
674 Clear 0 1002 86 10000 4.6 200 22:39 12.01.2020
675 Clear 0 1002 86 10000 4.6 200 22:19 12.01.2020
676 Clear 0 1002 82 10000 5.1 190 21:54 12.01.2020
677 Clear 0 1002 82 10000 5.1 190 21:54 12.01.2020
678 Clear 0 1002 86 10000 5.1 190 21:36 12.01.2020
679 Clear 0 1002 86 10000 5.1 190 21:36 12.01.2020
680 Clear 0 1002 86 10000 5.1 190 21:18 12.01.2020
681 Clear 1 1002 82 10000 5.7 200 20:54 12.01.2020
682 Clouds 1 1002 79 10000 4.1 190 20:36 12.01.2020
683 Clear 0 1002 80 10000 4.1 190 20:18 12.01.2020
684 Clear 1 1001 80 10000 5.7 170 19:54 12.01.2020
685 Clear 1 1001 80 10000 4.1 180 19:36 12.01.2020
686 Clear 1 1001 74 10000 4.1 160 19:18 12.01.2020
687 Clear 1 1001 74 10000 4.1 160 19:18 12.01.2020
688 Clear 1 1001 74 10000 4.1 160 18:54 12.01.2020
689 Clear 0 1001 69 10000 4.1 160 18:36 12.01.2020
690 Clear 1 1001 69 10000 4.1 160 18:18 12.01.2020
691 Clear 1 1001 69 10000 5.7 190 17:42 12.01.2020
692 Clear 1 1001 69 10000 5.7 190 17:20 12.01.2020
693 Clear 1 1001 69 10000 4.6 200 16:57 12.01.2020
694 Clear 2 1001 64 10000 4.1 180 16:38 12.01.2020
695 Clear 2 1001 64 10000 4.1 180 16:19 12.01.2020
696 Clear 3 1000 55 10000 5.1 170 15:43 12.01.2020
697 Clear 4 1000 55 10000 5.1 170 15:25 12.01.2020
698 Clear 4 1000 55 10000 3.1 190 14:59 12.01.2020
699 Clear 4 1000 55 10000 3.1 160 14:41 12.01.2020
700 Clear 5 1000 55 10000 3.1 160 14:21 12.01.2020
701 Clear 5 1000 60 10000 3.6 150 13:56 12.01.2020
702 Clear 5 1000 60 10000 2.6 190 13:38 12.01.2020
703 Clear 5 1000 60 10000 2.1 140 13:20 12.01.2020
704 Clear 5 1000 60 10000 2.1 140 12:43 12.01.2020
705 Clear 5 999 60 10000 3.1 210 12:21 12.01.2020
706 Clear 5 999 60 10000 3.1 210 11:59 12.01.2020
707 Clear 4 999 69 10000 2.1 0 11:40 12.01.2020
708 Clear 4 999 69 10000 2.1 0 11:21 12.01.2020
709 Clear 4 999 80 10000 2.1 180 10:43 12.01.2020
710 Clouds 4 998 80 10000 3.1 180 10:23 12.01.2020
711 Clouds 3 998 65 10000 3.6 170 09:59 12.01.2020
712 Clouds 3 997 65 10000 4.6 160 09:41 12.01.2020
713 Clouds 3 997 65 10000 4.6 160 09:21 12.01.2020
714 Clouds 4 997 86 10000 2.6 150 08:47 12.01.2020
715 Clouds 4 997 100 10000 2.6 170 08:21 12.01.2020
716 Clouds 4 997 93 10000 2.1 0 07:45 12.01.2020
717 Clouds 4 997 93 10000 3.1 130 07:25 12.01.2020
718 Clouds 3 997 100 10000 2.1 140 06:50 12.01.2020
719 Clouds 4 997 93 10000 3.1 180 06:32 12.01.2020
720 Clouds 4 997 93 10000 1.5 200 05:47 12.01.2020
721 Clouds 4 997 100 10000 3.6 200 04:52 12.01.2020
722 Clouds 5 996 100 10000 3.6 200 03:29 12.01.2020
723 Clouds 5 996 93 10000 4.1 160 02:34 12.01.2020
724 Clouds 5 996 93 10000 4.1 160 02:34 12.01.2020
725 Clouds 6 996 100 10000 4.1 160 01:58 12.01.2020
726 Clouds 6 996 93 10000 2.1 150 01:30 12.01.2020
727 Clouds 6 996 87 10000 5.7 200 00:44 12.01.2020
728 Clouds 6 996 87 10000 5.7 200 00:21 12.01.2020
729 Clouds 6 996 87 10000 4.1 210 23:56 11.01.2020
730 Clouds 6 995 87 10000 3.6 190 23:37 11.01.2020
731 Clouds 6 995 87 10000 3.6 190 23:18 11.01.2020
732 Clouds 7 995 93 10000 4.6 190 22:56 11.01.2020
733 Clouds 6 996 93 10000 6.2 210 22:37 11.01.2020
734 Clouds 6 996 93 10000 6.2 210 22:18 11.01.2020
735 Clouds 6 996 93 10000 6.7 200 21:42 11.01.2020
736 Clouds 6 996 93 10000 6.7 200 21:18 11.01.2020
737 Clouds 6 996 93 10000 5.7 190 20:55 11.01.2020
738 Clouds 6 996 93 10000 5.7 190 20:37 11.01.2020
739 Clouds 6 996 93 10000 5.7 190 20:18 11.01.2020
740 Rain 6 997 93 10000 5.1 200 19:55 11.01.2020
741 Clouds 6 997 93 10000 8.7 200 19:36 11.01.2020
742 Clouds 6 997 93 10000 8.7 200 19:18 11.01.2020
743 Clouds 6 996 100 10000 8.2 180 18:54 11.01.2020
744 Rain 6 997 100 10000 8.2 180 18:36 11.01.2020
745 Rain 6 997 100 10000 8.2 180 18:18 11.01.2020
746 Rain 6 998 87 10000 9.8 190 17:54 11.01.2020
747 Rain 6 999 87 10000 8.2 190 17:36 11.01.2020
748 Rain 6 999 87 10000 8.2 190 17:18 11.01.2020
749 Clouds 6 999 93 10000 7.7 190 16:41 11.01.2020
750 Clouds 6 999 93 10000 7.7 190 16:22 11.01.2020
751 Clouds 6 1001 93 10000 8.7 190 15:42 11.01.2020
752 Clouds 6 1001 93 10000 8.7 190 15:23 11.01.2020
753 Clouds 6 1001 93 10000 10.8 190 14:58 11.01.2020
754 Drizzle 5 1001 93 10000 9.8 190 14:40 11.01.2020
755 Drizzle 5 1001 93 10000 9.8 190 14:22 11.01.2020
756 Drizzle 5 1002 93 10000 7.7 190 13:55 11.01.2020
757 Drizzle 5 1002 93 10000 7.7 190 13:55 11.01.2020
758 Rain 5 1003 93 6000 8.2 190 13:36 11.01.2020
759 Rain 5 1003 93 6000 8.2 190 13:18 11.01.2020
760 Drizzle 5 1004 93 3900 9.3 200 12:42 11.01.2020
761 Drizzle 5 1004 93 3900 9.3 200 12:24 11.01.2020
762 Drizzle 5 1005 93 6000 9.3 190 11:54 11.01.2020
763 Drizzle 5 1005 86 8000 10.3 190 11:36 11.01.2020
764 Drizzle 5 1006 86 10000 10.3 180 11:18 11.01.2020
765 Rain 5 1007 86 10000 11.3 180 10:42 11.01.2020
766 Rain 5 1007 86 10000 11.3 180 10:23 11.01.2020
767 Clouds 4 1008 86 10000 8.7 190 09:39 11.01.2020
768 Clouds 4 1008 86 10000 8.7 190 09:21 11.01.2020
769 Rain 4 1010 82 10000 7.2 190 08:43 11.01.2020
770 Rain 3 1010 76 10000 7.2 190 08:22 11.01.2020
771 Clouds 3 1011 76 10000 6.7 180 07:44 11.01.2020
772 Clouds 2 1012 76 10000 6.2 200 07:26 11.01.2020
773 Clouds 1 1012 92 10000 4.1 190 06:52 11.01.2020
774 Clouds 0 1013 92 10000 2.6 240 06:19 11.01.2020
775 Snow -1 1014 92 10000 1 0 04:48 11.01.2020
776 Snow -2 1015 92 10000 1 350 04:29 11.01.2020
777 Clouds -4 1016 92 10000 1.5 10 03:28 11.01.2020
778 Fog -4 1017 100 6000 5.15 204 02:40 11.01.2020
779 Fog -4 1017 92 10000 1.79 207 01:44 11.01.2020
780 Clouds -6 1018 92 10000 0.5 0 01:20 11.01.2020
781 Clouds -6 1018 92 10000 1 0 00:44 11.01.2020
782 Clouds -6 1018 92 10000 1.71 212 00:20 11.01.2020
783 Clouds -6 1018 92 10000 1 30 23:41 10.01.2020
784 Clouds -6 1018 92 10000 1 30 23:41 10.01.2020
785 Clear -6 1018 92 10000 1 30 23:22 10.01.2020
786 Clear -5 1018 92 10000 1 30 22:59 10.01.2020
787 Clear -6 1018 92 10000 1 0 22:40 10.01.2020
788 Clear -5 1018 92 10000 1 0 22:21 10.01.2020
789 Clear -5 1018 100 10000 1 0 21:57 10.01.2020
790 Clear -5 1018 92 10000 0.5 0 21:38 10.01.2020
791 Clear -5 1018 92 10000 0.5 0 21:19 10.01.2020
792 Clear -5 1018 92 10000 1 0 20:43 10.01.2020
793 Clear -5 1018 92 10000 1 0 20:25 10.01.2020
794 Clear -5 1017 85 10000 1 30 19:59 10.01.2020
795 Clear -4 1017 92 10000 1 320 19:38 10.01.2020
796 Clear -4 1017 92 10000 1 320 19:20 10.01.2020
797 Clear -4 1017 92 10000 1 360 18:44 10.01.2020
798 Clear -4 1016 85 10000 1.5 50 18:20 10.01.2020
799 Clear -4 1016 85 10000 1.5 50 17:58 10.01.2020
800 Clear -3 1016 85 10000 1.5 20 17:39 10.01.2020
801 Clear -3 1016 85 10000 1.5 20 17:21 10.01.2020
802 Clear -3 1018 86 10000 1.5 360 16:59 10.01.2020
803 Clear -3 1016 79 10000 0.5 0 16:40 10.01.2020
804 Clear -2 1016 79 10000 0.5 0 16:21 10.01.2020
805 Clear -2 1016 86 10000 0.58 342 15:56 10.01.2020
806 Clear -2 1015 86 10000 1 0 15:37 10.01.2020
807 Clear -1 1015 86 10000 1 0 15:18 10.01.2020
808 Clear -1 1015 79 10000 1 0 14:56 10.01.2020
809 Clear -1 1015 79 10000 2.1 30 14:38 10.01.2020
810 Clouds 0 1014 79 10000 2.1 20 14:19 10.01.2020
811 Clouds 0 1014 79 10000 2.1 20 13:44 10.01.2020
812 Clouds -1 1014 86 10000 3.6 20 13:26 10.01.2020
813 Clouds -1 1014 86 10000 3.6 20 13:26 10.01.2020
814 Clouds -1 1014 86 10000 3.6 30 12:59 10.01.2020
815 Clouds -1 1014 86 10000 3.1 20 12:39 10.01.2020
816 Clouds -1 1014 86 10000 3.1 20 12:21 10.01.2020
817 Clouds -1 1014 92 10000 3.1 360 11:56 10.01.2020
818 Clouds -1 1014 86 10000 2.6 350 11:38 10.01.2020
819 Clouds -2 1013 92 10000 2.6 10 11:19 10.01.2020
820 Clouds -2 1013 92 10000 1.5 360 10:58 10.01.2020
821 Clouds -2 1013 92 10000 1.5 360 10:58 10.01.2020
822 Clouds -2 1013 92 10000 1.5 360 10:58 10.01.2020
823 Clouds -3 1013 92 10000 1.5 10 10:37 10.01.2020
824 Clouds -2 1013 92 10000 1.5 10 10:18 10.01.2020
825 Clouds -2 1013 92 10000 1.5 10 10:18 10.01.2020
826 Clouds -2 1012 85 10000 3.1 20 09:45 10.01.2020
827 Clouds -2 1012 85 10000 3.1 20 09:25 10.01.2020
828 Clouds -2 1012 92 10000 1.5 70 08:44 10.01.2020
829 Clouds -2 1012 92 10000 1.5 70 08:24 10.01.2020
830 Clouds -2 1011 86 10000 2.6 20 07:58 10.01.2020
831 Clouds -2 1011 86 10000 2.6 20 07:58 10.01.2020
832 Clouds -2 1011 86 10000 3.1 20 07:39 10.01.2020
833 Clouds -2 1010 86 10000 3.6 20 07:19 10.01.2020
834 Clouds -1 1010 92 10000 3.6 20 06:37 10.01.2020
835 Clouds -1 1010 92 10000 3.6 20 06:19 10.01.2020
836 Clouds 0 1009 86 10000 5.1 20 04:44 10.01.2020
837 Clouds 0 1008 86 10000 3.1 10 03:31 10.01.2020
838 Clouds 0 1008 86 10000 3.1 10 03:31 10.01.2020
839 Clouds 1 1008 86 10000 2.6 30 02:52 10.01.2020
840 Clouds 1 1008 92 10000 4.1 10 01:53 10.01.2020
841 Clouds 1 1007 92 10000 3.1 30 01:30 10.01.2020
842 Clouds 1 1007 85 10000 4.1 20 00:49 10.01.2020
843 Clouds 0 1007 85 10000 4.1 30 00:31 10.01.2020
844 Clouds 1 1007 85 10000 3.1 30 23:55 09.01.2020
845 Clouds 1 1007 85 10000 2.6 40 23:36 09.01.2020
846 Clouds 1 1007 86 10000 2.6 40 23:18 09.01.2020
847 Clouds 1 1007 86 10000 2.1 10 22:54 09.01.2020
848 Clouds 1 1007 86 10000 2.1 50 22:36 09.01.2020
849 Clouds 1 1007 86 10000 2.6 40 22:18 09.01.2020
850 Clouds 1 1007 86 10000 2.6 40 21:54 09.01.2020
851 Clouds 1 1007 86 10000 2.1 50 21:36 09.01.2020
852 Clouds 1 1007 86 10000 2.1 30 21:18 09.01.2020
853 Clouds 1 1007 86 10000 2.1 30 20:54 09.01.2020
854 Clouds 1 1007 86 10000 2.1 30 20:36 09.01.2020
855 Clouds 1 1007 86 10000 2.6 30 20:18 09.01.2020
856 Clouds 1 1007 86 10000 2.1 20 19:39 09.01.2020
857 Clouds 1 1007 86 10000 2.1 20 19:20 09.01.2020
858 Clouds 1 1007 86 10000 1.5 360 18:56 09.01.2020
859 Clouds 1 1007 86 10000 1.5 360 18:38 09.01.2020
860 Clouds 1 1007 86 10000 1 0 18:20 09.01.2020
861 Clouds 0 1007 86 10000 2.1 340 17:41 09.01.2020
862 Clouds 0 1007 86 10000 1.5 350 17:19 09.01.2020
863 Clouds 1 1007 86 10000 1.5 30 16:56 09.01.2020
864 Clouds 1 1007 86 10000 1.5 30 16:38 09.01.2020
865 Clouds 1 1007 92 10000 1.5 30 16:20 09.01.2020
866 Clouds 1 1007 86 10000 2.1 20 15:42 09.01.2020
867 Clouds 1 1007 92 10000 2.1 40 15:22 09.01.2020
868 Clouds 1 1008 92 10000 1 0 14:57 09.01.2020
869 Clouds 1 1008 92 10000 1 0 14:38 09.01.2020
870 Clouds 2 1008 76 10000 2.1 0 14:18 09.01.2020
871 Clouds 1 1008 86 10000 0.41 148 13:55 09.01.2020
872 Clouds 1 1008 86 10000 0.41 148 13:37 09.01.2020
873 Clouds 1 1008 86 10000 1.5 320 13:18 09.01.2020
874 Clouds 1 1008 81 10000 0.5 0 12:42 09.01.2020
875 Clouds 1 1009 81 10000 1.5 360 12:24 09.01.2020
876 Clouds 1 1009 81 10000 2.6 130 11:59 09.01.2020
877 Clouds 1 1009 81 10000 2.6 130 11:41 09.01.2020
878 Clouds 1 1009 83 10000 1 0 11:23 09.01.2020
879 Clouds 0 1008 83 10000 2.1 140 10:56 09.01.2020
880 Clouds 0 1008 83 10000 2.1 140 10:37 09.01.2020
881 Clouds 0 1008 83 10000 1.5 290 10:19 09.01.2020
882 Clouds 0 1008 83 10000 1.5 0 09:41 09.01.2020
883 Clouds 0 1008 83 10000 1.5 0 09:41 09.01.2020
884 Clouds 1 1008 74 10000 3.6 210 09:22 09.01.2020
885 Clouds 0 1008 83 10000 3.1 200 08:56 09.01.2020
886 Clouds 1 1008 83 10000 3.1 200 08:37 09.01.2020
887 Clouds 0 1008 80 10000 1.5 170 08:19 09.01.2020
888 Clouds 1 1008 74 10000 5.1 210 07:44 09.01.2020
889 Clouds 1 1008 80 10000 6.2 190 07:24 09.01.2020
890 Clouds 1 1006 86 10000 3.6 180 06:39 09.01.2020
891 Clouds 1 1006 86 10000 3.6 180 06:21 09.01.2020
892 Clouds 2 1006 80 10000 7.2 200 05:50 09.01.2020
893 Clear 2 1006 74 10000 5.1 180 04:46 09.01.2020
894 Clear 2 1005 82 10000 6.2 200 03:55 09.01.2020
895 Clear 2 1005 74 10000 7.7 180 03:26 09.01.2020
896 Clear 2 1004 69 10000 7.7 180 02:31 09.01.2020
897 Clear 2 1004 69 10000 6.2 160 01:40 09.01.2020
898 Clear 3 1003 69 10000 4.1 150 00:44 09.01.2020
899 Clear 3 1003 69 10000 6.2 200 00:23 09.01.2020
900 Clear 3 1002 80 10000 7.7 180 23:58 08.01.2020
901 Clear 3 1002 80 10000 7.7 180 23:38 08.01.2020
902 Clear 3 1002 69 10000 6.7 210 23:19 08.01.2020
903 Clear 3 1002 69 10000 9.3 200 22:40 08.01.2020
904 Clear 3 1002 69 10000 9.3 200 22:40 08.01.2020
905 Clear 3 1002 64 10000 7.2 210 22:21 08.01.2020
906 Clear 3 1002 64 10000 7.2 210 21:58 08.01.2020
907 Clear 3 1002 64 10000 7.2 210 21:39 08.01.2020
908 Clear 3 1001 69 10000 6.2 210 21:20 08.01.2020
909 Clear 3 1001 59 10000 8.2 220 20:58 08.01.2020
910 Clear 3 1001 59 10000 8.2 220 20:40 08.01.2020
911 Clear 3 1000 59 10000 6.7 210 20:20 08.01.2020
912 Clear 3 1000 59 10000 6.7 210 20:20 08.01.2020
913 Clear 3 1000 59 10000 6.7 210 19:57 08.01.2020
914 Clear 3 1000 59 10000 6.7 210 19:37 08.01.2020
915 Clear 3 1001 59 10000 6.7 220 19:19 08.01.2020
916 Clear 3 1001 59 10000 6.7 220 18:56 08.01.2020
917 Clear 3 1001 59 10000 6.7 220 18:37 08.01.2020
918 Clear 3 1000 59 10000 5.1 210 18:18 08.01.2020
919 Clear 3 1000 64 10000 4.6 200 17:56 08.01.2020
920 Clear 3 1000 64 10000 4.6 200 17:37 08.01.2020
921 Clear 4 1000 59 10000 4.6 190 17:18 08.01.2020
922 Clear 4 1000 59 10000 3.1 170 16:54 08.01.2020
923 Clear 4 1000 59 10000 3.1 170 16:36 08.01.2020
924 Clear 4 999 64 10000 4.1 190 16:18 08.01.2020
925 Clear 5 999 48 10000 5.1 220 15:41 08.01.2020
926 Clear 5 999 48 10000 4.6 230 15:21 08.01.2020
927 Clear 5 999 48 10000 5.7 230 14:57 08.01.2020
928 Clear 6 999 48 10000 5.7 230 14:39 08.01.2020
929 Clear 6 998 45 10000 5.7 230 14:20 08.01.2020
930 Clear 6 998 48 10000 5.1 240 13:40 08.01.2020
931 Clear 6 998 48 10000 5.1 240 13:40 08.01.2020
932 Clear 6 997 48 10000 5.1 240 13:19 08.01.2020
933 Clear 6 996 48 10000 5.7 240 12:42 08.01.2020
934 Clear 6 996 48 10000 5.1 230 12:19 08.01.2020
935 Clear 7 995 48 10000 4.6 230 11:55 08.01.2020
936 Clear 7 995 48 10000 4.6 230 11:37 08.01.2020
937 Clear 7 995 52 10000 5.1 230 11:19 08.01.2020
938 Clear 7 994 60 10000 5.1 240 10:55 08.01.2020
939 Clear 7 994 60 10000 5.1 240 10:37 08.01.2020
940 Clear 7 994 68 10000 4.6 230 10:18 08.01.2020
941 Clear 7 993 65 10000 5.7 240 09:41 08.01.2020
942 Clear 7 992 75 10000 6.7 230 09:19 08.01.2020
943 Clouds 7 991 81 10000 7.2 220 08:57 08.01.2020
944 Clouds 7 991 81 10000 7.2 220 08:37 08.01.2020
945 Clouds 8 991 87 10000 4.6 220 08:19 08.01.2020
946 Clouds 8 990 87 10000 6.2 210 07:48 08.01.2020
947 Clouds 8 990 87 10000 5.1 210 07:29 08.01.2020
948 Clouds 8 990 93 10000 4.6 210 06:45 08.01.2020
949 Clouds 8 989 93 10000 9.8 190 06:22 08.01.2020
950 Clouds 8 990 93 10000 10.3 190 05:41 08.01.2020
951 Clouds 8 991 93 10000 8.2 190 04:56 08.01.2020
952 Clouds 8 991 93 10000 10.8 190 04:24 08.01.2020
953 Clouds 7 992 93 10000 9.8 200 02:45 08.01.2020
954 Clouds 7 992 93 10000 11.3 190 02:22 08.01.2020
955 Drizzle 7 993 93 10000 10.8 190 01:46 08.01.2020
956 Clouds 6 994 100 10000 11.8 190 01:19 08.01.2020
957 Rain 6 995 93 5000 13.4 180 00:27 08.01.2020
958 Rain 6 997 93 5000 9.8 190 23:55 07.01.2020
959 Rain 6 997 93 5000 9.8 190 23:37 07.01.2020
960 Rain 6 997 93 4500 12.9 190 23:19 07.01.2020
961 Drizzle 6 998 86 10000 11.3 190 22:40 07.01.2020
962 Clouds 6 998 86 10000 14.9 190 22:20 07.01.2020
963 Clouds 6 998 80 10000 11.8 190 21:55 07.01.2020
964 Clouds 6 998 80 10000 11.8 190 21:37 07.01.2020
965 Clouds 6 1000 80 10000 8.2 190 21:19 07.01.2020
966 Clouds 6 1001 80 10000 9.8 190 20:55 07.01.2020
967 Clouds 6 1001 80 10000 9.8 190 20:36 07.01.2020
968 Clouds 6 1001 80 10000 9.8 190 20:36 07.01.2020
969 Clouds 6 1001 80 10000 8.2 180 20:18 07.01.2020
970 Clouds 6 1003 80 10000 9.3 180 19:38 07.01.2020
971 Clouds 5 1004 86 10000 8.2 180 19:19 07.01.2020
972 Rain 5 1004 86 10000 9.3 180 18:58 07.01.2020
973 Rain 5 1004 86 10000 9.3 180 18:58 07.01.2020
974 Rain 5 1004 86 10000 9.3 180 18:40 07.01.2020
975 Rain 5 1005 86 10000 8.2 180 18:19 07.01.2020
976 Clouds 5 1005 86 10000 7.7 190 17:58 07.01.2020
977 Clouds 5 1005 86 10000 7.7 190 17:39 07.01.2020
978 Clouds 5 1006 93 10000 8.2 190 17:20 07.01.2020
979 Clouds 5 1006 93 10000 7.7 200 16:56 07.01.2020
980 Clouds 5 1006 93 10000 7.7 200 16:37 07.01.2020
981 Clouds 4 1006 93 10000 6.2 180 16:19 07.01.2020
982 Clouds 4 1006 93 10000 4.1 170 15:57 07.01.2020
983 Clouds 4 1006 93 10000 4.1 170 15:37 07.01.2020
984 Clouds 4 1007 93 10000 5.1 190 15:18 07.01.2020
985 Clouds 4 1007 93 10000 7.2 190 14:42 07.01.2020
986 Clouds 4 1007 93 10000 6.2 180 14:24 07.01.2020
987 Clouds 4 1008 93 10000 3.1 200 13:57 07.01.2020
988 Clouds 4 1008 93 10000 3.1 200 13:38 07.01.2020
989 Clouds 4 1008 93 10000 3.1 190 13:18 07.01.2020
990 Clouds 4 1009 86 10000 4.6 210 12:41 07.01.2020
991 Clouds 4 1009 93 10000 3.6 220 12:19 07.01.2020
992 Clouds 4 1009 93 10000 5.7 210 11:45 07.01.2020
993 Clouds 4 1009 93 10000 5.1 190 11:23 07.01.2020
994 Clouds 4 1009 86 10000 2.1 170 10:59 07.01.2020
995 Clouds 4 1009 86 10000 2.1 170 10:41 07.01.2020
996 Clouds 4 1009 86 10000 3.1 180 10:23 07.01.2020
997 Clouds 3 1009 93 10000 5.1 190 09:56 07.01.2020
998 Clouds 3 1009 93 10000 5.1 190 09:38 07.01.2020
999 Clouds 3 1008 86 10000 4.6 180 09:19 07.01.2020
1000 Clouds 3 1008 86 10000 3.6 200 08:42 07.01.2020
1001 Clouds 3 1007 86 10000 3.1 210 08:22 07.01.2020
1002 Clouds 3 1007 86 10000 5.1 210 07:54 07.01.2020
1003 Clouds 3 1007 86 10000 4.6 200 07:27 07.01.2020
1004 Clouds 4 1007 93 10000 5.1 210 06:53 07.01.2020
1005 Clouds 4 1006 93 10000 4.1 200 06:32 07.01.2020
1006 Clouds 4 1006 93 10000 6.2 210 05:49 07.01.2020
1007 Clouds 4 1006 86 10000 3.6 190 04:31 07.01.2020
1008 Clouds 4 1006 86 10000 5.1 200 03:26 07.01.2020
1009 Clouds 4 1006 86 10000 6.2 200 02:21 07.01.2020
1010 Clouds 4 1006 86 10000 8.2 210 01:51 07.01.2020
1011 Clouds 4 1006 86 10000 8.2 210 01:26 07.01.2020
1012 Clouds 4 1006 93 10000 9.8 200 00:23 07.01.2020
1013 Clouds 4 1006 93 10000 8.7 200 23:59 06.01.2020
1014 Clouds 5 1006 93 10000 8.7 200 23:39 06.01.2020
1015 Clouds 5 1006 93 10000 8.2 200 23:21 06.01.2020
1016 Clouds 5 1006 100 10000 6.2 190 22:58 06.01.2020
1017 Clouds 5 1006 100 10000 6.2 190 22:37 06.01.2020
1018 Clouds 5 1006 100 9000 5.7 170 22:19 06.01.2020
1019 Mist 5 1006 100 4000 6.2 180 21:55 06.01.2020
1020 Mist 5 1006 100 4000 6.2 180 21:37 06.01.2020
1021 Fog 5 1007 100 1200 5.1 190 21:18 06.01.2020
1022 Mist 5 1007 100 4000 4.1 190 20:55 06.01.2020
1023 Mist 5 1007 100 4000 4.1 190 20:37 06.01.2020
1024 Mist 5 1008 100 5000 4.6 180 20:19 06.01.2020
1025 Mist 5 1008 100 5000 4.6 180 20:19 06.01.2020
1026 Clouds 5 1008 100 6000 5.7 180 19:55 06.01.2020
1027 Clouds 5 1008 100 6000 5.7 180 19:36 06.01.2020
1028 Clouds 5 1008 100 6000 5.7 180 19:36 06.01.2020
1029 Fog 5 1008 100 500 5.7 200 19:18 06.01.2020
1030 Fog 4 1008 100 600 3.6 200 18:44 06.01.2020
1031 Fog 4 1008 100 800 3.1 210 18:20 06.01.2020
1032 Mist 3 1009 100 1200 1.5 220 17:40 06.01.2020
1033 Mist 3 1009 100 2500 2.6 190 17:20 06.01.2020
1034 Mist 3 1009 100 2500 2.6 190 17:20 06.01.2020
1035 Fog 3 1009 100 1800 1.86 208 16:57 06.01.2020
1036 Fog 3 1009 100 1800 1.86 208 16:39 06.01.2020
1037 Fog 3 1009 100 650 1.5 210 16:21 06.01.2020
1038 Fog 3 1010 100 600 2.6 190 15:44 06.01.2020
1039 Fog 3 1010 100 700 2.6 190 15:22 06.01.2020
1040 Fog 4 1010 100 800 2.1 160 15:00 06.01.2020
1041 Fog 4 1010 100 800 2.1 160 14:41 06.01.2020
1042 Fog 3 1010 100 500 2.1 180 14:22 06.01.2020
1043 Fog 4 1011 100 800 2.1 160 13:59 06.01.2020
1044 Fog 4 1010 100 500 2.1 180 13:59 06.01.2020
1045 Fog 3 1011 100 800 2.1 160 13:39 06.01.2020
1046 Fog 3 1011 100 400 1.5 0 13:20 06.01.2020
1047 Fog 3 1012 95 400 0.5 0 12:55 06.01.2020
1048 Fog 3 1012 95 400 0.5 0 12:37 06.01.2020
1049 Fog 4 1012 95 400 1.02 209 12:37 06.01.2020
1050 Fog 3 1012 95 400 1.02 209 12:18 06.01.2020
1051 Fog 3 1012 100 400 1 230 11:41 06.01.2020
1052 Fog 2 1012 93 350 2.1 140 11:23 06.01.2020
1053 Fog 2 1012 100 500 1 0 10:59 06.01.2020
1054 Fog 2 1012 100 500 1 0 10:40 06.01.2020
1055 Fog 2 1012 100 500 1.5 70 10:20 06.01.2020
1056 Fog 2 1012 100 1200 1 0 09:39 06.01.2020
1057 Fog 2 1012 100 8000 0.5 0 09:20 06.01.2020
1058 Fog 1 1012 100 7000 0.5 0 08:51 06.01.2020
1059 Fog 1 1012 100 7000 0.5 0 08:33 06.01.2020
1060 Mist 1 1013 100 5000 2.1 10 07:57 06.01.2020
1061 Mist 1 1013 100 5000 2.1 10 07:36 06.01.2020
1062 Fog 1 1013 100 7000 1 0 06:47 06.01.2020
1063 Fog 1 1013 92 4300 1.5 10 06:27 06.01.2020
1064 Fog 1 1013 100 8000 2.1 10 05:48 06.01.2020
1065 Fog 1 1013 100 8000 2.1 40 04:53 06.01.2020
1066 Fog 1 1013 100 5000 1.5 30 04:20 06.01.2020
1067 Fog 1 1013 100 2600 3.1 30 02:58 06.01.2020
1068 Fog 1 1013 100 5000 0.5 0 02:24 06.01.2020
1069 Fog 1 1013 100 1900 1.5 30 01:45 06.01.2020
1070 Fog 1 1013 92 4000 1.5 50 01:27 06.01.2020
1071 Fog 1 1013 100 7000 1.5 10 00:44 06.01.2020
1072 Fog 1 1013 92 10000 0.5 0 00:24 06.01.2020
1073 Clouds 1 1013 100 10000 1.5 60 23:43 05.01.2020
1074 Clouds 1 1013 100 10000 1.5 60 23:43 05.01.2020
1075 Clouds 1 1012 96 10000 1 0 23:23 05.01.2020
1076 Clouds 1 1012 96 10000 1 0 23:23 05.01.2020
1077 Clouds 1 1012 96 10000 3.1 200 22:58 05.01.2020
1078 Clouds 2 1012 96 10000 3.1 200 22:39 05.01.2020
1079 Clouds 2 1012 96 10000 1 0 22:20 05.01.2020
1080 Clouds 2 1012 100 10000 1.5 140 21:56 05.01.2020
1081 Clouds 2 1012 100 10000 1.5 140 21:37 05.01.2020
1082 Clouds 2 1012 100 10000 1.5 140 21:37 05.01.2020
1083 Clouds 2 1012 96 10000 1 0 21:19 05.01.2020
1084 Clouds 3 1012 93 10000 1.5 0 20:55 05.01.2020
1085 Clouds 3 1012 93 10000 1.5 0 20:37 05.01.2020
1086 Clouds 3 1012 93 10000 2.6 230 20:19 05.01.2020
1087 Clouds 3 1012 93 10000 6.2 210 19:56 05.01.2020
1088 Clouds 3 1012 93 10000 6.2 210 19:37 05.01.2020
1089 Clouds 3 1012 93 10000 4.6 220 19:19 05.01.2020
1090 Clouds 3 1012 93 10000 5.7 220 18:54 05.01.2020
1091 Clouds 3 1012 93 10000 5.7 220 18:36 05.01.2020
1092 Clouds 3 1012 93 10000 5.7 220 18:36 05.01.2020
1093 Clouds 3 1012 93 10000 5.1 220 18:18 05.01.2020
1094 Clouds 3 1012 93 10000 5.1 210 17:55 05.01.2020
1095 Clouds 3 1012 93 10000 5.1 210 17:55 05.01.2020
1096 Clouds 3 1012 100 10000 4.1 200 17:37 05.01.2020
1097 Clouds 3 1012 100 10000 4.1 200 17:18 05.01.2020
1098 Clouds 3 1012 92 10000 5.1 220 16:55 05.01.2020
1099 Clouds 2 1012 92 10000 5.1 220 16:36 05.01.2020
1100 Clouds 2 1012 92 10000 4.1 210 16:18 05.01.2020
1101 Clouds 2 1013 92 10000 6.2 210 15:36 05.01.2020
1102 Clouds 2 1013 92 10000 6.2 210 15:36 05.01.2020
1103 Clouds 2 1013 92 10000 5.1 210 15:18 05.01.2020
1104 Clouds 1 1014 92 10000 4.1 220 14:54 05.01.2020
1105 Clouds 1 1014 92 10000 5.7 210 14:36 05.01.2020
1106 Clouds 1 1014 92 10000 5.7 210 14:18 05.01.2020
1107 Clouds 1 1015 92 10000 5.1 210 13:40 05.01.2020
1108 Rain 0 1015 86 10000 6.2 210 13:21 05.01.2020
1109 Clouds 0 1019 93 0 5.7 200 12:57 05.01.2020
1110 Clouds 0 1019 93 0 5.7 200 12:39 05.01.2020
1111 Snow 0 1017 92 8000 3.6 190 12:21 05.01.2020
1112 Snow 0 1017 92 6000 5.1 180 11:55 05.01.2020
1113 Snow -1 1018 86 6000 5.7 190 11:37 05.01.2020
1114 Snow -1 1018 86 6000 5.7 190 11:19 05.01.2020
1115 Snow -1 1019 79 4000 4.6 210 10:55 05.01.2020
1116 Snow -1 1019 79 4000 4.6 210 10:36 05.01.2020
1117 Snow -1 1020 74 10000 3.1 170 10:36 05.01.2020
1118 Snow -1 1020 74 10000 3.1 170 10:36 05.01.2020
1119 Snow -1 1020 74 10000 3.1 170 10:18 05.01.2020
1120 Snow -1 1020 74 10000 3.6 180 09:41 05.01.2020
1121 Snow -1 1020 79 10000 4.1 190 09:21 05.01.2020
1122 Snow -1 1020 79 10000 4.1 170 08:45 05.01.2020
1123 Snow -2 1020 73 10000 4.6 190 08:26 05.01.2020
1124 Clouds -2 1021 73 10000 2.1 190 07:55 05.01.2020
1125 Clouds -2 1021 73 10000 2.1 190 07:35 05.01.2020
1126 Clouds -2 1022 73 10000 1 0 06:58 05.01.2020
1127 Clouds -3 1022 73 10000 0.5 0 05:55 05.01.2020
1128 Clouds -3 1024 74 0 2.6 110 05:30 05.01.2020
1129 Clouds -3 1024 74 0 2.6 110 05:30 05.01.2020
1130 Clouds -3 1022 73 10000 1 0 04:34 05.01.2020
1131 Clouds -3 1022 68 10000 1.5 160 03:47 05.01.2020
1132 Clouds -3 1021 63 10000 2.1 330 02:45 05.01.2020
1133 Clouds -3 1021 58 10000 1 0 02:20 05.01.2020
1134 Clouds -3 1021 58 10000 1 0 01:40 05.01.2020
1135 Clouds -3 1021 63 10000 1.5 340 01:18 05.01.2020
1136 Clouds -3 1020 54 10000 2.1 0 00:41 05.01.2020
1137 Clouds -3 1020 58 10000 2.6 290 00:22 05.01.2020
1138 Clouds -3 1020 58 10000 3.6 360 23:59 04.01.2020
1139 Clouds -2 1020 58 10000 3.6 360 23:39 04.01.2020
1140 Clouds -1 1019 54 10000 3.1 310 23:19 04.01.2020
1141 Clouds -1 1019 54 10000 1.5 360 22:39 04.01.2020
1142 Clouds -1 1018 66 10000 2.1 310 22:21 04.01.2020
1143 Clouds -1 1018 43 10000 1.5 0 21:57 04.01.2020
1144 Clouds -1 1018 66 10000 2.6 0 21:38 04.01.2020
1145 Clouds -1 1018 66 10000 2.6 0 21:19 04.01.2020
1146 Clouds 0 1017 66 10000 2.6 160 20:57 04.01.2020
1147 Clouds 0 1017 66 10000 2.6 160 20:38 04.01.2020
1148 Clear 0 1016 54 10000 1 0 20:19 04.01.2020
1149 Clear 0 1015 54 10000 1.5 0 19:42 04.01.2020
1150 Clear 0 1015 54 10000 1.5 0 19:24 04.01.2020
1151 Clear 0 1015 54 10000 2.1 270 18:58 04.01.2020
1152 Clear 0 1014 54 10000 1.5 260 18:39 04.01.2020
1153 Clear 0 1014 54 10000 1.5 260 18:21 04.01.2020
1154 Clear 1 1013 54 10000 1.5 0 17:59 04.01.2020
1155 Clear 1 1013 54 10000 1.5 0 17:40 04.01.2020
1156 Clear 1 1012 50 10000 1.5 270 17:22 04.01.2020
1157 Clear 1 1011 62 10000 1.5 270 16:54 04.01.2020
1158 Clear 1 1011 62 10000 1.5 270 16:36 04.01.2020
1159 Clear 1 1011 43 10000 2.1 340 16:18 04.01.2020
1160 Clear 2 1010 43 10000 5.1 350 15:42 04.01.2020
1161 Clear 2 1010 43 10000 5.1 350 15:42 04.01.2020
1162 Clear 2 1009 40 10000 6.2 330 15:19 04.01.2020
1163 Clear 2 1008 40 10000 5.7 320 14:58 04.01.2020
1164 Clear 2 1008 40 10000 5.7 320 14:58 04.01.2020
1165 Clear 3 1008 40 10000 5.7 320 14:40 04.01.2020
1166 Clouds 3 1008 40 10000 4.1 340 14:19 04.01.2020
1167 Clouds 3 1007 40 10000 7.2 330 13:56 04.01.2020
1168 Clouds 3 1007 40 10000 7.2 330 13:37 04.01.2020
1169 Clear 3 1006 43 10000 6.7 330 13:18 04.01.2020
1170 Clear 3 1005 43 10000 4.6 320 12:42 04.01.2020
1171 Clear 3 1004 43 10000 5.7 330 12:20 04.01.2020
1172 Clear 3 1004 43 10000 5.7 330 11:59 04.01.2020
1173 Clear 2 1003 50 10000 4.1 320 11:40 04.01.2020
1174 Clear 2 1003 50 10000 4.1 320 11:40 04.01.2020
1175 Clear 2 1003 47 10000 3.6 340 11:20 04.01.2020
1176 Clear 2 1002 47 10000 3.6 310 10:58 04.01.2020
1177 Clear 2 1002 47 10000 3.6 310 10:38 04.01.2020
1178 Clear 2 1001 66 10000 3.1 300 10:19 04.01.2020
1179 Clear 1 1000 66 10000 1 0 09:42 04.01.2020
1180 Clear 1 999 66 10000 1.5 270 09:24 04.01.2020
1181 Clear 0 998 58 10000 1.5 220 08:44 04.01.2020
1182 Clouds 1 997 63 10000 1 0 08:25 04.01.2020
1183 Clouds 1 997 58 10000 3.6 200 07:51 04.01.2020
1184 Clouds 1 997 63 10000 3.6 210 07:32 04.01.2020
1185 Clouds 1 996 63 10000 3.1 220 06:39 04.01.2020
1186 Clouds 1 995 43 10000 3.1 240 05:46 04.01.2020
1187 Clouds 1 995 52 10000 3.1 220 04:47 04.01.2020
1188 Clouds 1 995 54 10000 2.6 190 04:27 04.01.2020
1189 Clouds 1 995 52 10000 2.6 180 03:19 04.01.2020
1190 Clouds 1 994 52 10000 3.6 230 02:36 04.01.2020
1191 Clouds 1 994 54 10000 5.7 210 01:58 04.01.2020
1192 Clouds 1 994 54 10000 5.7 200 01:32 04.01.2020
1193 Clouds 1 994 58 10000 4.1 190 00:56 04.01.2020
1194 Clouds 1 994 55 10000 3.6 230 00:28 04.01.2020
1195 Clouds 1 994 55 10000 3.1 210 23:52 03.01.2020
1196 Clouds 1 994 59 10000 4.6 230 23:27 03.01.2020
1197 Snow 2 993 64 10000 5.7 230 22:55 03.01.2020
1198 Snow 1 993 64 10000 5.7 230 22:37 03.01.2020
1199 Snow 1 993 64 10000 5.7 230 22:18 03.01.2020
1200 Snow 1 993 64 10000 7.2 230 21:56 03.01.2020
1201 Snow 2 993 64 10000 7.2 230 21:37 03.01.2020
1202 Snow 2 993 59 10000 7.2 230 21:18 03.01.2020
1203 Snow 2 993 69 10000 7.2 220 20:43 03.01.2020
1204 Clear 3 993 64 10000 7.2 230 20:19 03.01.2020
1205 Clear 3 994 80 10000 4.6 240 19:59 03.01.2020
1206 Clear 3 994 80 10000 4.6 240 19:41 03.01.2020
1207 Clouds 3 993 64 1800 6.2 240 19:22 03.01.2020
1208 Rain 3 993 55 10000 6.2 220 18:46 03.01.2020
1209 Clear 3 993 55 10000 6.7 210 18:26 03.01.2020
1210 Clear 3 993 55 10000 10.3 210 17:58 03.01.2020
1211 Clear 3 993 55 10000 10.3 210 17:58 03.01.2020
1212 Clear 3 993 55 10000 10.3 210 17:39 03.01.2020
1213 Rain 4 994 55 10000 7.2 220 17:21 03.01.2020
1214 Rain 3 994 51 10000 7.7 200 16:43 03.01.2020
1215 Clear 3 994 43 10000 4.6 200 16:24 03.01.2020
1216 Clear 3 994 43 10000 4.6 200 15:59 03.01.2020
1217 Clear 3 995 43 10000 3.6 220 15:41 03.01.2020
1218 Clear 3 995 43 10000 5.1 200 15:19 03.01.2020
1219 Clear 4 995 34 10000 4.6 230 14:39 03.01.2020
1220 Clear 4 996 34 10000 4.6 240 14:20 03.01.2020
1221 Clear 4 996 37 10000 5.1 250 13:57 03.01.2020
1222 Clear 4 996 37 10000 5.1 250 13:38 03.01.2020
1223 Clear 5 995 40 10000 5.1 250 13:20 03.01.2020
1224 Clear 5 995 35 10000 7.2 290 12:41 03.01.2020
1225 Clouds 5 994 38 10000 4.6 250 12:22 03.01.2020
1226 Clouds 5 993 44 10000 5.7 230 11:49 03.01.2020
1227 Clouds 5 993 44 10000 5.7 230 11:31 03.01.2020
1228 Clouds 4 993 44 10000 6.2 230 10:58 03.01.2020
1229 Clouds 5 993 44 10000 6.2 230 10:39 03.01.2020
1230 Clouds 5 993 48 10000 5.1 240 10:21 03.01.2020
1231 Clouds 5 992 55 10000 5.1 230 09:55 03.01.2020
1232 Clouds 5 992 55 10000 5.1 230 09:37 03.01.2020
1233 Clouds 6 992 56 10000 5.1 220 09:19 03.01.2020
1234 Clear 6 991 74 10000 5.7 210 08:44 03.01.2020
1235 Clouds 6 990 80 10000 5.7 220 08:22 03.01.2020
1236 Clouds 6 990 86 10000 5.7 220 07:43 03.01.2020
1237 Rain 6 989 93 10000 4.6 220 07:19 03.01.2020
1238 Clouds 7 989 87 10000 4.6 210 06:59 03.01.2020
1239 Clouds 7 989 87 10000 4.6 210 06:40 03.01.2020
1240 Clouds 7 988 81 10000 3.1 190 06:22 03.01.2020
1241 Clouds 7 988 81 10000 3.1 190 06:22 03.01.2020
1242 Clouds 7 988 81 10000 3.1 190 06:22 03.01.2020
1243 Clouds 6 989 81 10000 5.7 200 04:45 03.01.2020
1244 Clouds 6 990 86 10000 9.3 190 03:38 03.01.2020
1245 Clouds 6 992 86 10000 9.8 190 02:53 03.01.2020
1246 Clouds 6 994 86 10000 7.7 200 01:51 03.01.2020
1247 Clouds 6 994 86 10000 7.7 200 01:31 03.01.2020
1248 Clouds 6 995 80 10000 9.8 190 00:40 03.01.2020
1249 Clouds 6 996 86 10000 8.7 190 00:20 03.01.2020
1250 Clouds 6 996 86 10000 8.2 190 23:39 02.01.2020
1251 Clouds 6 996 80 10000 8.7 190 23:20 02.01.2020
1252 Clouds 6 997 86 10000 7.7 200 22:58 02.01.2020
1253 Clouds 6 997 86 10000 7.7 200 22:40 02.01.2020
1254 Clouds 6 997 86 10000 5.7 190 22:19 02.01.2020
1255 Clouds 6 997 80 10000 6.7 180 21:55 02.01.2020
1256 Clouds 6 997 80 10000 6.7 180 21:37 02.01.2020
1257 Clouds 6 998 86 10000 7.7 190 21:18 02.01.2020
1258 Clouds 6 998 80 10000 10.3 200 20:56 02.01.2020
1259 Clouds 6 998 86 10000 9.8 200 20:37 02.01.2020
1260 Clouds 6 998 86 10000 9.8 200 20:18 02.01.2020
1261 Clouds 6 999 80 10000 6.2 190 19:54 02.01.2020
1262 Clouds 5 999 80 10000 6.2 190 19:36 02.01.2020
1263 Clouds 5 999 86 10000 7.2 180 19:18 02.01.2020
1264 Clouds 5 1000 86 10000 5.1 190 18:42 02.01.2020
1265 Clouds 5 1001 80 10000 5.1 180 18:23 02.01.2020
1266 Clouds 5 1001 80 10000 4.6 150 17:58 02.01.2020
1267 Clouds 5 1001 80 10000 4.6 150 17:58 02.01.2020
1268 Clouds 5 1001 80 10000 4.6 150 17:38 02.01.2020
1269 Clouds 5 1002 80 10000 6.2 160 17:20 02.01.2020
1270 Clouds 5 1003 80 10000 8.7 170 16:58 02.01.2020
1271 Clouds 5 1003 80 10000 8.7 170 16:40 02.01.2020
1272 Clouds 5 1003 80 10000 7.2 180 16:20 02.01.2020
1273 Clouds 5 1003 80 10000 7.2 180 16:20 02.01.2020
1274 Clouds 5 1003 86 10000 8.2 170 15:57 02.01.2020
1275 Clouds 5 1003 80 10000 8.2 180 15:39 02.01.2020
1276 Clouds 5 1003 80 10000 8.2 180 15:20 02.01.2020
1277 Clouds 5 1004 86 10000 9.3 190 14:56 02.01.2020
1278 Clouds 5 1004 80 10000 8.2 200 14:36 02.01.2020
1279 Clouds 5 1004 80 10000 8.2 200 14:18 02.01.2020
1280 Clouds 5 1004 80 10000 11.3 190 13:48 02.01.2020
1281 Clouds 5 1004 80 10000 11.3 190 13:48 02.01.2020
1282 Clouds 5 1005 86 10000 13.4 190 13:30 02.01.2020
1283 Clouds 5 1005 86 10000 10.8 200 12:46 02.01.2020
1284 Clouds 5 1006 86 10000 9.8 190 12:26 02.01.2020
1285 Clouds 4 1006 86 10000 9.8 190 11:58 02.01.2020
1286 Clouds 5 1006 86 10000 8.7 200 11:40 02.01.2020
1287 Clouds 4 1006 86 10000 8.7 200 11:19 02.01.2020
1288 Clouds 4 1006 86 10000 6.2 210 10:44 02.01.2020
1289 Clouds 4 1007 93 10000 6.2 200 10:25 02.01.2020
1290 Clouds 4 1007 89 10000 6.7 200 09:48 02.01.2020
1291 Clouds 4 1007 89 10000 6.7 200 09:29 02.01.2020
1292 Clouds 4 1007 89 10000 5.7 210 08:47 02.01.2020
1293 Clouds 4 1007 86 10000 6.2 220 08:27 02.01.2020
1294 Clouds 4 1007 86 10000 4.6 210 07:53 02.01.2020
1295 Clouds 4 1007 86 10000 4.6 210 07:30 02.01.2020
1296 Clouds 3 1008 86 10000 4.6 210 06:46 02.01.2020
1297 Clouds 3 1008 86 10000 6.2 200 06:27 02.01.2020
1298 Clouds 3 1008 86 10000 4.6 190 05:29 02.01.2020
1299 Clouds 3 1009 80 10000 6.7 180 04:32 02.01.2020
1300 Clouds 3 1010 86 10000 5.1 200 02:48 02.01.2020
1301 Clouds 3 1010 86 10000 6.2 210 01:59 02.01.2020
1302 Clouds 3 1010 86 10000 6.2 210 01:37 02.01.2020
1303 Clouds 3 1010 86 10000 2.6 190 00:58 02.01.2020
1304 Clouds 3 1011 80 10000 4.6 180 00:33 02.01.2020
1305 Clouds 3 1011 86 10000 5.7 170 23:53 01.01.2020
1306 Clouds 3 1011 80 10000 4.1 190 23:28 01.01.2020
1307 Clouds 3 1011 80 10000 4.1 190 22:59 01.01.2020
1308 Clouds 3 1011 80 10000 3.6 210 22:38 01.01.2020
1309 Clouds 3 1010 80 10000 5.7 210 22:19 01.01.2020
1310 Clouds 3 1011 86 10000 4.6 200 21:56 01.01.2020
1311 Clouds 3 1011 86 10000 4.6 200 21:37 01.01.2020
1312 Clouds 2 1012 80 10000 3.1 210 21:19 01.01.2020
1313 Clouds 2 1012 80 10000 7.2 180 20:55 01.01.2020
1314 Clouds 2 1012 80 10000 7.2 180 20:37 01.01.2020
1315 Clouds 2 1012 80 10000 4.1 160 20:18 01.01.2020
1316 Clouds 2 1012 80 10000 4.1 180 19:54 01.01.2020
1317 Clouds 2 1012 80 10000 4.1 180 19:36 01.01.2020
1318 Clouds 2 1012 74 10000 4.6 160 19:18 01.01.2020
1319 Clouds 2 1013 74 10000 3.6 180 18:55 01.01.2020
1320 Clouds 2 1013 74 10000 3.6 180 18:36 01.01.2020
1321 Clouds 3 1013 74 10000 6.2 200 18:18 01.01.2020
1322 Clouds 3 1013 74 10000 4.6 210 17:55 01.01.2020
1323 Clouds 3 1013 74 10000 4.6 210 17:37 01.01.2020
1324 Clouds 3 1013 69 10000 8.7 200 17:18 01.01.2020
1325 Clouds 3 1013 69 10000 5.1 210 16:40 01.01.2020
1326 Clouds 3 1013 69 10000 5.1 210 16:40 01.01.2020
1327 Clouds 3 1013 69 10000 7.7 190 16:21 01.01.2020
1328 Clouds 3 1013 74 10000 5.7 190 15:57 01.01.2020
1329 Clouds 3 1013 74 10000 5.7 190 15:39 01.01.2020
1330 Clouds 3 1014 74 10000 5.7 200 15:20 01.01.2020
1331 Clouds 4 1014 69 10000 8.2 210 14:58 01.01.2020
1332 Clouds 4 1014 69 10000 8.2 210 14:58 01.01.2020
1333 Clouds 4 1014 69 10000 8.2 210 14:40 01.01.2020
1334 Clouds 4 1014 69 10000 7.7 200 14:21 01.01.2020
1335 Clouds 4 1014 69 10000 6.2 210 13:56 01.01.2020
1336 Clouds 4 1014 69 10000 6.2 210 13:37 01.01.2020
1337 Clouds 3 1014 74 10000 5.1 190 13:18 01.01.2020
1338 Clouds 3 1014 74 10000 4.6 180 12:55 01.01.2020
1339 Clouds 3 1014 74 10000 4.6 180 12:37 01.01.2020
1340 Clouds 3 1014 74 10000 5.7 200 12:18 01.01.2020
1341 Clouds 3 1015 74 10000 6.2 200 11:43 01.01.2020
1342 Clouds 3 1015 74 10000 5.1 200 11:22 01.01.2020
1343 Clouds 3 1015 74 10000 5.1 190 10:58 01.01.2020
1344 Clouds 3 1015 74 10000 5.1 190 10:40 01.01.2020
1345 Clouds 3 1015 74 10000 5.1 180 10:20 01.01.2020
1346 Clouds 2 1015 74 10000 5.7 200 09:56 01.01.2020
1347 Clouds 2 1015 74 10000 5.7 200 09:37 01.01.2020
1348 Clouds 3 1015 74 10000 6.2 200 09:18 01.01.2020
1349 Clouds 3 1014 80 10000 5.7 190 08:55 01.01.2020
1350 Clouds 2 1014 80 10000 5.7 190 08:36 01.01.2020
1351 Clouds 2 1014 80 10000 5.7 190 08:36 01.01.2020
1352 Clouds 2 1014 80 10000 5.7 190 08:18 01.01.2020
1353 Clouds 2 1014 74 10000 6.2 200 07:48 01.01.2020
1354 Clouds 2 1015 74 10000 4.6 210 07:30 01.01.2020
1355 Clouds 2 1015 80 10000 3.6 180 06:44 01.01.2020
1356 Clouds 2 1015 80 10000 3.1 190 06:20 01.01.2020
1357 Clouds 3 1016 74 10000 5.7 200 04:44 01.01.2020
1358 Clouds 3 1016 69 10000 6.7 180 03:43 01.01.2020
1359 Clouds 3 1017 69 10000 6.2 190 03:22 01.01.2020
1360 Clouds 3 1017 69 10000 4.6 190 02:55 01.01.2020
1361 Clouds 3 1017 69 10000 4.6 190 02:32 01.01.2020
1362 Clouds 3 1018 64 10000 5.1 180 01:45 01.01.2020
1363 Clouds 3 1018 64 10000 4.1 220 01:24 01.01.2020
1364 Clouds 2 1019 64 10000 5.7 220 00:57 01.01.2020
1365 Clouds 2 1019 64 10000 4.6 220 00:37 01.01.2020
1366 Clouds 2 1019 64 10000 4.6 220 00:19 01.01.2020
1367 Clouds 2 1019 64 10000 6.2 220 23:40 31.12.2019
1368 Clouds 2 1019 59 10000 5.7 240 23:21 31.12.2019
1369 Clouds 1 1020 59 10000 5.1 230 22:57 31.12.2019
1370 Clouds 2 1020 59 10000 5.1 230 22:38 31.12.2019
1371 Clouds 1 1020 70 10000 4.6 190 22:18 31.12.2019
1372 Clouds 1 1020 70 10000 3.6 190 21:54 31.12.2019
1373 Clouds 1 1020 70 10000 3.6 190 21:36 31.12.2019
1374 Clouds 1 1021 70 10000 3.6 200 21:18 31.12.2019
1375 Clouds 0 1021 70 10000 3.6 200 20:40 31.12.2019
1376 Clouds 0 1021 74 10000 4.6 200 20:22 31.12.2019
1377 Clouds 0 1021 74 10000 3.6 190 19:59 31.12.2019
1378 Clouds 0 1021 74 10000 3.6 190 19:40 31.12.2019
1379 Clouds 0 1021 68 10000 4.1 200 19:22 31.12.2019
1380 Clouds 0 1021 68 10000 4.1 200 19:22 31.12.2019
1381 Clouds 0 1021 68 10000 3.1 180 18:58 31.12.2019
1382 Clouds 0 1021 68 10000 3.1 180 18:40 31.12.2019
1383 Clouds 0 1021 71 10000 2.6 190 18:20 31.12.2019
1384 Clouds 0 1021 71 10000 1 0 17:56 31.12.2019
1385 Clouds 0 1021 71 10000 1 0 17:38 31.12.2019
1386 Clouds 0 1021 71 10000 1 0 17:38 31.12.2019
1387 Clouds 0 1021 55 10000 1.5 220 17:19 31.12.2019
1388 Clouds 0 1021 55 10000 1.5 160 16:57 31.12.2019
1389 Clouds 1 1021 55 10000 1.5 160 16:38 31.12.2019
1390 Clouds 1 1021 55 10000 1 0 16:19 31.12.2019
1391 Clouds 1 1021 55 10000 1.5 0 15:56 31.12.2019
1392 Clouds 1 1021 55 10000 1.5 0 15:38 31.12.2019
1393 Clouds 1 1021 59 0 1.46 252 15:20 31.12.2019
1394 Clouds 1 1020 44 10000 1.5 330 14:57 31.12.2019
1395 Clouds 2 1020 44 10000 1.5 330 14:38 31.12.2019
1396 Clouds 2 1020 44 10000 1.5 260 14:19 31.12.2019
1397 Clouds 2 1020 44 10000 1.5 260 14:19 31.12.2019
1398 Clouds 3 1020 44 10000 2.1 280 13:57 31.12.2019
1399 Clouds 3 1020 44 10000 2.1 280 13:39 31.12.2019
1400 Clouds 3 1019 47 10000 1.5 320 13:21 31.12.2019
1401 Clouds 2 1019 47 10000 1.5 320 12:58 31.12.2019
1402 Clouds 3 1019 47 10000 2.1 310 12:39 31.12.2019
1403 Clouds 3 1019 51 10000 1 0 12:20 31.12.2019
1404 Clouds 3 1018 59 10000 1 0 11:56 31.12.2019
1405 Clouds 2 1018 59 10000 1 0 11:38 31.12.2019
1406 Clear 2 1018 51 10000 1.5 0 11:20 31.12.2019
1407 Clear 3 1017 51 10000 2.1 300 10:57 31.12.2019
1408 Clear 3 1017 51 10000 2.1 300 10:57 31.12.2019
1409 Clear 3 1017 51 10000 1.5 0 10:38 31.12.2019
1410 Clear 3 1017 51 10000 2.1 300 10:38 31.12.2019
1411 Clear 2 1017 51 10000 1.5 0 10:20 31.12.2019
1412 Clear 3 1016 55 10000 2.1 310 09:58 31.12.2019
1413 Clear 2 1016 55 10000 2.1 310 09:39 31.12.2019
1414 Clear 1 1015 59 10000 1 0 09:20 31.12.2019
1415 Clear 1 1015 59 10000 1 0 09:20 31.12.2019
1416 Clear 1 1014 64 10000 1 0 08:57 31.12.2019
1417 Clear 2 1014 64 10000 1 0 08:37 31.12.2019
1418 Clear 2 1014 64 10000 1 0 08:37 31.12.2019
1419 Clouds 3 1013 55 10000 1 0 08:18 31.12.2019
1420 Clouds 4 1013 59 10000 2.1 250 07:41 31.12.2019
1421 Clouds 3 1012 64 10000 1.55 261 07:19 31.12.2019
1422 Clouds 3 1011 64 10000 2.1 0 06:49 31.12.2019
1423 Clouds 3 1010 64 10000 1 0 05:57 31.12.2019
1424 Clouds 4 1008 64 10000 1.5 70 04:28 31.12.2019
1425 Clouds 3 1005 59 10000 1.5 320 03:27 31.12.2019
1426 Clouds 4 1005 52 10000 3.1 310 02:49 31.12.2019
1427 Clear 3 1004 64 10000 2.1 0 01:55 31.12.2019
1428 Clear 4 1004 64 10000 2.1 0 01:35 31.12.2019
1429 Clear 4 1003 64 10000 2.6 240 00:59 31.12.2019
1430 Clear 4 1003 64 10000 2.6 240 00:41 31.12.2019
1431 Clear 4 1003 64 10000 2.1 280 00:21 31.12.2019
1432 Clear 3 1003 74 10000 1 0 23:56 30.12.2019
1433 Clear 3 1003 74 10000 1 0 23:38 30.12.2019
1434 Clear 3 1002 74 10000 4.6 200 23:19 30.12.2019
1435 Clear 4 1003 64 10000 2.1 110 22:57 30.12.2019
1436 Clear 4 1003 64 10000 2.1 110 22:37 30.12.2019
1437 Clear 4 1003 64 10000 2.1 200 22:19 30.12.2019
1438 Clear 4 1002 60 10000 4.1 230 21:56 30.12.2019
1439 Clear 4 1002 60 10000 4.1 230 21:38 30.12.2019
1440 Clear 4 1002 60 10000 5.1 230 21:18 30.12.2019
1441 Clear 4 1002 60 10000 5.1 230 21:18 30.12.2019
1442 Clear 4 1001 56 10000 6.7 220 20:56 30.12.2019
1443 Clear 4 1001 56 10000 6.7 220 20:38 30.12.2019
1444 Clouds 5 1001 60 10000 6.2 210 20:19 30.12.2019
1445 Clouds 5 1001 69 10000 7.2 190 19:56 30.12.2019
1446 Clouds 5 1001 69 10000 7.2 190 19:37 30.12.2019
1447 Clouds 5 1001 69 10000 6.2 180 19:37 30.12.2019
1448 Clouds 5 1001 69 10000 6.2 180 19:19 30.12.2019
1449 Clouds 5 1001 74 10000 7.2 180 18:56 30.12.2019
1450 Clouds 5 1001 74 10000 7.2 180 18:37 30.12.2019
1451 Clouds 5 1001 80 10000 5.1 200 18:19 30.12.2019
1452 Clouds 6 1002 69 10000 4.6 220 17:54 30.12.2019
1453 Clouds 6 1002 65 10000 5.7 210 17:36 30.12.2019
1454 Clouds 6 1002 65 10000 5.7 210 17:18 30.12.2019
1455 Clouds 6 1002 65 10000 4.6 210 16:54 30.12.2019
1456 Clouds 6 1002 65 10000 4.6 210 16:36 30.12.2019
1457 Clouds 6 1002 65 10000 3.1 210 16:18 30.12.2019
1458 Clouds 6 1002 76 10000 4.6 200 15:54 30.12.2019
1459 Clouds 6 1002 75 10000 3.6 200 15:36 30.12.2019
1460 Clouds 6 1002 75 10000 3.6 200 15:18 30.12.2019
1461 Clouds 7 1002 70 10000 4.1 220 14:42 30.12.2019
1462 Clouds 7 1002 84 10000 3.1 250 14:19 30.12.2019
1463 Clouds 7 1002 75 10000 4.6 190 13:54 30.12.2019
1464 Clouds 6 1002 75 10000 4.6 190 13:36 30.12.2019
1465 Clouds 6 1003 93 10000 4.6 160 13:18 30.12.2019
1466 Clouds 6 1002 93 10000 7.7 160 12:42 30.12.2019
1467 Clouds 6 1002 93 10000 6.7 180 12:20 30.12.2019
1468 Clouds 6 1002 93 10000 7.7 190 11:58 30.12.2019
1469 Clouds 6 1002 93 10000 7.7 190 11:39 30.12.2019
1470 Clouds 6 1003 100 10000 4.6 190 11:19 30.12.2019
1471 Clouds 6 1003 93 10000 4.6 190 10:44 30.12.2019
1472 Clouds 6 1003 100 10000 3.6 210 10:21 30.12.2019
1473 Clouds 6 1003 93 10000 5.1 180 09:57 30.12.2019
1474 Clouds 6 1003 93 10000 5.1 180 09:39 30.12.2019
1475 Clouds 6 1003 93 10000 3.6 210 09:19 30.12.2019
1476 Clouds 6 1003 93 10000 5.7 210 08:50 30.12.2019
1477 Clouds 6 1003 93 10000 5.7 210 08:50 30.12.2019
1478 Clouds 6 1003 100 10000 5.1 200 08:23 30.12.2019
1479 Clouds 6 1004 100 10000 4.1 200 07:55 30.12.2019
1480 Clouds 6 1004 100 10000 2.6 200 07:34 30.12.2019
1481 Clouds 6 1004 100 10000 2.6 200 06:52 30.12.2019
1482 Clouds 6 1005 93 10000 6.2 190 04:57 30.12.2019
1483 Clouds 6 1006 93 10000 5.7 210 03:55 30.12.2019
1484 Clouds 5 1007 93 10000 7.7 200 02:58 30.12.2019
1485 Clouds 5 1007 93 10000 7.7 200 02:40 30.12.2019
1486 Clouds 5 1007 93 10000 5.1 200 01:50 30.12.2019
1487 Clouds 5 1008 93 10000 6.7 190 01:21 30.12.2019
1488 Clouds 5 1008 93 10000 7.2 190 00:44 30.12.2019
1489 Clouds 5 1009 100 10000 7.7 200 00:19 30.12.2019
1490 Clouds 5 1009 93 10000 6.7 210 23:39 29.12.2019
1491 Clouds 5 1009 93 10000 6.7 210 23:21 29.12.2019
1492 Clouds 5 1009 93 10000 5.1 220 22:54 29.12.2019
1493 Clouds 5 1009 93 10000 5.1 220 22:36 29.12.2019
1494 Clouds 5 1009 93 10000 5.1 220 22:36 29.12.2019
1495 Clouds 5 1009 93 10000 5.1 220 22:36 29.12.2019
1496 Clouds 5 1009 93 10000 4.6 190 22:18 29.12.2019
1497 Clouds 4 1010 100 10000 4.6 200 21:42 29.12.2019
1498 Clouds 5 1010 93 10000 7.7 200 21:21 29.12.2019
1499 Clouds 5 1011 93 10000 5.7 200 20:57 29.12.2019
1500 Clouds 5 1011 93 10000 5.7 200 20:39 29.12.2019
1501 Clouds 5 1011 100 10000 6.7 210 20:21 29.12.2019
1502 Clouds 5 1011 100 10000 7.2 210 19:59 29.12.2019
1503 Clouds 5 1011 100 10000 7.2 210 19:40 29.12.2019
1504 Clouds 5 1011 93 10000 6.7 210 19:21 29.12.2019
1505 Clouds 5 1012 93 10000 5.7 210 18:58 29.12.2019
1506 Clouds 5 1012 93 10000 5.7 210 18:39 29.12.2019
1507 Clouds 5 1012 93 10000 7.7 200 18:20 29.12.2019
1508 Clouds 5 1012 93 10000 8.2 210 17:58 29.12.2019
1509 Clouds 5 1012 93 10000 8.2 210 17:39 29.12.2019
1510 Clouds 6 1013 93 10000 8.7 200 17:20 29.12.2019
1511 Clouds 5 1013 100 10000 7.7 210 16:57 29.12.2019
1512 Clouds 5 1013 100 10000 7.7 210 16:38 29.12.2019
1513 Clouds 5 1013 100 10000 7.7 210 16:38 29.12.2019
1514 Clouds 5 1013 100 10000 6.7 210 16:20 29.12.2019
1515 Rain 5 1013 93 10000 7.7 210 15:58 29.12.2019
1516 Rain 5 1015 100 10000 6.7 200 15:39 29.12.2019
1517 Rain 5 1015 100 10000 6.7 200 15:20 29.12.2019
1518 Rain 5 1015 100 7000 4.1 210 14:58 29.12.2019
1519 Clouds 5 1015 100 7000 4.1 210 14:38 29.12.2019
1520 Clouds 5 1016 100 7000 3.6 200 14:18 29.12.2019
1521 Clouds 5 1016 100 8000 7.7 200 13:57 29.12.2019
1522 Clouds 5 1016 100 8000 7.7 200 13:38 29.12.2019
1523 Clouds 5 1017 100 10000 8.2 200 13:20 29.12.2019
1524 Clouds 5 1017 93 9000 5.1 210 12:45 29.12.2019
1525 Clouds 5 1018 93 10000 5.7 200 12:27 29.12.2019
1526 Clouds 5 1018 93 10000 5.7 200 12:27 29.12.2019
1527 Clouds 5 1018 100 10000 5.1 210 11:59 29.12.2019
1528 Clouds 5 1018 100 10000 5.1 210 11:40 29.12.2019
1529 Clouds 5 1018 93 10000 5.1 210 11:20 29.12.2019
1530 Clouds 5 1018 93 10000 5.1 210 11:20 29.12.2019
1531 Clouds 5 1018 93 10000 7.2 210 10:55 29.12.2019
1532 Clouds 4 1018 93 10000 7.2 210 10:37 29.12.2019
1533 Clouds 4 1018 93 10000 5.1 210 10:18 29.12.2019
1534 Clouds 4 1018 93 10000 5.1 210 10:18 29.12.2019
1535 Clouds 4 1019 93 10000 5.7 210 09:43 29.12.2019
1536 Clouds 4 1019 100 10000 5.7 210 09:25 29.12.2019
1537 Drizzle 4 1019 93 10000 6.2 210 08:50 29.12.2019
1538 Rain 4 1020 93 10000 6.2 210 08:29 29.12.2019
1539 Clouds 4 1020 100 10000 6.7 210 07:58 29.12.2019
1540 Clouds 4 1020 100 10000 6.2 210 07:31 29.12.2019
1541 Clouds 4 1020 100 10000 6.7 210 07:31 29.12.2019
1542 Clouds 4 1021 100 10000 6.2 210 06:57 29.12.2019
1543 Rain 4 1021 93 10000 5.7 210 06:27 29.12.2019
1544 Clouds 4 1022 93 10000 6.2 210 05:54 29.12.2019
1545 Clouds 3 1023 93 10000 6.2 200 04:42 29.12.2019
1546 Clouds 3 1024 93 10000 5.1 200 04:21 29.12.2019
1547 Clouds 3 1025 93 10000 5.7 210 03:28 29.12.2019
1548 Clouds 3 1025 100 8000 5.7 210 02:22 29.12.2019
1549 Clouds 3 1025 100 8000 5.7 210 02:22 29.12.2019
1550 Clouds 3 1025 100 7000 4.6 210 01:42 29.12.2019
1551 Clouds 3 1025 100 7000 5.1 200 01:23 29.12.2019
1552 Drizzle 3 1026 93 7000 8.2 200 00:44 29.12.2019
1553 Drizzle 2 1028 100 6000 5.1 210 00:24 29.12.2019
1554 Drizzle 2 1028 100 2000 5.7 220 23:45 28.12.2019
1555 Drizzle 2 1028 100 2000 7.7 200 23:19 28.12.2019
1556 Drizzle 2 1028 100 2000 7.7 200 23:19 28.12.2019
1557 Mist 2 1029 100 3300 6.7 200 22:54 28.12.2019
1558 Mist 2 1029 100 3500 6.2 210 22:36 28.12.2019
1559 Mist 2 1029 100 3500 6.2 210 22:18 28.12.2019
1560 Clouds 2 1029 100 7000 7.2 210 21:55 28.12.2019
1561 Clouds 2 1029 100 10000 6.2 200 21:36 28.12.2019
1562 Clouds 1 1029 100 10000 6.2 200 21:18 28.12.2019
1563 Clouds 1 1030 100 10000 4.6 210 20:38 28.12.2019
1564 Clouds 1 1030 93 10000 4.6 200 20:20 28.12.2019
1565 Clouds 1 1031 93 10000 5.1 210 19:59 28.12.2019
1566 Clouds 1 1031 93 10000 5.1 210 19:39 28.12.2019
1567 Clouds 1 1031 93 9000 4.6 210 19:21 28.12.2019
1568 Clouds 0 1031 93 10000 3.6 200 18:59 28.12.2019
1569 Clouds 1 1031 93 10000 3.6 200 18:40 28.12.2019
1570 Snow 0 1032 93 10000 4.1 190 18:19 28.12.2019
1571 Snow 0 1032 100 5000 4.1 200 17:56 28.12.2019
1572 Snow 0 1032 100 5000 4.1 200 17:38 28.12.2019
1573 Snow 0 1032 100 10000 4.1 200 17:18 28.12.2019
1574 Snow 0 1033 100 10000 3.6 200 16:46 28.12.2019
1575 Snow 0 1033 92 7000 4.6 200 16:26 28.12.2019
1576 Snow 0 1033 92 7000 4.6 200 16:26 28.12.2019
1577 Snow 0 1033 92 7000 4.6 200 16:26 28.12.2019
1578 Snow -1 1033 100 4200 3.6 190 15:49 28.12.2019
1579 Snow -1 1033 100 4000 3.6 170 15:25 28.12.2019
1580 Snow -1 1034 100 5000 3.6 170 15:00 28.12.2019
1581 Snow -1 1034 100 5000 3.6 170 14:40 28.12.2019
1582 Snow -1 1034 100 5000 3.6 170 14:40 28.12.2019
1583 Snow -1 1034 92 1800 2.6 170 14:21 28.12.2019
1584 Snow -1 1034 92 4100 3.6 170 13:56 28.12.2019
1585 Snow -1 1034 92 4100 3.6 170 13:37 28.12.2019
1586 Snow -2 1035 100 5000 3.6 170 13:18 28.12.2019
1587 Rain -2 1035 100 3000 3.1 180 12:43 28.12.2019
1588 Rain -2 1035 100 3000 3.1 180 12:43 28.12.2019
1589 Rain -2 1036 100 8000 3.1 180 12:24 28.12.2019
1590 Rain -2 1036 100 3900 3.6 180 11:56 28.12.2019
1591 Rain -2 1036 100 3900 3.6 180 11:38 28.12.2019
1592 Rain -2 1036 92 5000 3.6 190 11:19 28.12.2019
1593 Clouds -3 1036 92 10000 3.6 190 10:44 28.12.2019
1594 Snow -3 1036 100 4000 3.1 180 10:22 28.12.2019
1595 Rain -3 1036 100 5000 3.1 180 09:58 28.12.2019
1596 Rain -3 1036 100 5000 3.1 180 09:40 28.12.2019
1597 Snow -3 1037 100 9000 3.1 190 09:20 28.12.2019
1598 Snow -3 1037 92 10000 3.1 190 08:44 28.12.2019
1599 Clouds -3 1037 92 10000 2.6 180 08:26 28.12.2019
1600 Clouds -4 1037 92 10000 2.1 190 07:53 28.12.2019
1601 Clouds -4 1037 92 10000 2.6 170 07:30 28.12.2019
1602 Clouds -4 1037 100 10000 2.1 190 06:41 28.12.2019
1603 Clouds -4 1038 100 7000 3.1 190 04:51 28.12.2019
1604 Mist -4 1038 92 5000 3.1 180 03:47 28.12.2019
1605 Clouds -4 1039 92 8000 2.6 170 02:48 28.12.2019
1606 Clouds -5 1039 92 8000 2.6 200 01:59 28.12.2019
1607 Clouds -5 1039 92 8000 2.6 200 01:30 28.12.2019
1608 Snow -5 1039 92 10000 1 230 00:58 28.12.2019
1609 Snow -5 1039 92 10000 1 230 00:38 28.12.2019
1610 Snow -5 1039 100 10000 1 0 00:19 28.12.2019
1611 Rain -5 1039 100 10000 1.5 240 23:43 27.12.2019
1612 Snow -5 1039 100 10000 1 0 23:20 27.12.2019
1613 Snow -5 1039 100 9000 1 230 22:58 27.12.2019
1614 Snow -5 1039 100 9000 1 230 22:38 27.12.2019
1615 Snow -5 1038 100 9000 1 0 22:20 27.12.2019
1616 Snow -5 1038 100 9000 1 0 22:20 27.12.2019
1617 Snow -5 1038 100 10000 1.5 160 21:55 27.12.2019
1618 Snow -5 1038 100 10000 1.5 160 21:37 27.12.2019
1619 Snow -5 1038 100 9000 1.5 150 21:18 27.12.2019
1620 Clouds -5 1038 100 10000 1 0 20:41 27.12.2019
1621 Clouds -6 1038 100 10000 1.5 150 20:22 27.12.2019
1622 Clouds -6 1038 100 10000 1.5 90 19:43 27.12.2019
1623 Clouds -6 1038 100 10000 1 0 19:21 27.12.2019
1624 Clouds -6 1038 100 10000 1 0 18:59 27.12.2019
1625 Clouds -6 1038 100 10000 1 0 18:40 27.12.2019
1626 Clouds -6 1038 92 10000 1.5 0 18:21 27.12.2019
1627 Clouds -6 1038 92 10000 1.5 0 17:58 27.12.2019
1628 Clouds -6 1038 92 10000 1.5 0 17:40 27.12.2019
1629 Clouds -6 1038 92 10000 1 0 17:19 27.12.2019
1630 Clouds -6 1037 92 9000 1.5 110 16:58 27.12.2019
1631 Clouds -6 1037 92 9000 1.5 110 16:38 27.12.2019
1632 Clouds -6 1037 92 9000 2.1 120 16:19 27.12.2019
1633 Clouds -6 1037 92 10000 2.1 110 15:45 27.12.2019
1634 Clouds -5 1037 92 10000 2.1 0 15:23 27.12.2019
1635 Clouds -6 1036 92 10000 1.5 110 14:58 27.12.2019
1636 Clouds -5 1036 92 10000 1.5 110 14:40 27.12.2019
1637 Fog -5 1036 92 10000 2.1 110 14:21 27.12.2019
1638 Fog -5 1036 92 10000 1.5 0 13:57 27.12.2019
1639 Fog -5 1036 92 10000 1.5 0 13:38 27.12.2019
1640 Fog -5 1036 92 10000 1.5 0 13:38 27.12.2019
1641 Fog -5 1035 100 6000 1 0 13:20 27.12.2019
1642 Fog -5 1035 100 550 1.04 30 12:42 27.12.2019
1643 Fog -5 1035 100 3500 0.5 0 12:23 27.12.2019
1644 Fog -6 1034 92 9000 1.04 30 11:46 27.12.2019
1645 Fog -6 1034 92 10000 0.5 0 11:27 27.12.2019
1646 Fog -6 1034 92 10000 0.5 0 10:59 27.12.2019
1647 Fog -6 1034 92 10000 1.57 357 10:41 27.12.2019
1648 Fog -6 1033 92 10000 0.5 0 10:22 27.12.2019
1649 Fog -6 1033 92 10000 1 0 09:49 27.12.2019
1650 Fog -6 1032 92 10000 1.57 357 09:22 27.12.2019
1651 Fog -6 1032 92 10000 1.57 357 08:59 27.12.2019
1652 Fog -6 1032 92 10000 1.57 357 08:38 27.12.2019
1653 Fog -6 1031 92 10000 0.5 340 07:57 27.12.2019
1654 Fog -6 1031 92 10000 0.5 340 07:38 27.12.2019
1655 Fog -6 1030 92 9000 1.5 320 06:39 27.12.2019
1656 Fog -6 1030 92 9000 1.56 15 06:18 27.12.2019
1657 Fog -5 1029 100 900 1 330 04:20 27.12.2019
1658 Fog -5 1028 100 500 1.59 13 02:27 27.12.2019
1659 Fog -5 1027 100 800 1.62 8 01:42 27.12.2019
1660 Fog -5 1027 100 600 0.5 0 01:20 27.12.2019
1661 Fog -5 1027 100 650 1 0 00:46 27.12.2019
1662 Fog -5 1026 92 3700 1 10 00:25 27.12.2019
1663 Fog -5 1026 92 3700 1 10 00:25 27.12.2019
1664 Fog -5 1026 92 7000 1.57 11 23:44 26.12.2019
1665 Fog -5 1025 100 9000 1.5 360 23:24 26.12.2019
1666 Mist -5 1025 100 10000 1 0 22:58 26.12.2019
1667 Mist -5 1025 100 10000 1 0 22:38 26.12.2019
1668 Fog -5 1025 92 10000 1 40 22:18 26.12.2019
1669 Clouds -5 1025 92 10000 0.5 0 21:39 26.12.2019
1670 Clouds -5 1024 100 10000 1 0 21:21 26.12.2019
1671 Fog -5 1024 92 10000 0.5 0 20:54 26.12.2019
1672 Fog -5 1024 92 10000 0.5 0 20:36 26.12.2019
1673 Fog -5 1024 92 10000 1.37 8 20:18 26.12.2019
1674 Fog -5 1024 92 10000 1.37 8 20:18 26.12.2019
1675 Fog -5 1024 92 10000 0.5 0 19:54 26.12.2019
1676 Fog -5 1024 92 10000 0.5 0 19:36 26.12.2019
1677 Fog -5 1023 100 10000 1 0 19:18 26.12.2019
1678 Fog -5 1023 100 10000 1 0 19:18 26.12.2019
1679 Fog -5 1023 92 6000 1 0 18:55 26.12.2019
1680 Fog -5 1023 92 6000 1 0 18:55 26.12.2019
1681 Fog -5 1023 92 6000 1 0 18:36 26.12.2019
1682 Fog -4 1023 100 400 1.37 8 18:18 26.12.2019
1683 Fog -4 1022 100 400 0.5 0 17:40 26.12.2019
1684 Fog -4 1022 100 400 1.29 15 17:20 26.12.2019
1685 Fog -4 1022 100 500 1.29 15 16:49 26.12.2019
1686 Fog -4 1022 100 500 0.5 0 16:26 26.12.2019
1687 Fog -4 1022 100 300 1 0 15:57 26.12.2019
1688 Fog -4 1022 100 300 1 0 15:38 26.12.2019
1689 Fog -3 1021 92 200 1.5 20 15:19 26.12.2019
1690 Fog -4 1021 100 300 1 0 14:41 26.12.2019
1691 Rain -3 1021 100 500 0.5 0 14:23 26.12.2019
1692 Rain -3 1021 100 500 0.5 0 14:23 26.12.2019
1693 Fog -3 1021 100 500 0.5 0 14:23 26.12.2019
1694 Clouds -3 1021 92 10000 1.18 26 13:55 26.12.2019
1695 Clouds -3 1021 92 10000 1.18 26 13:36 26.12.2019
1696 Clouds -3 1021 92 10000 1.11 22 13:18 26.12.2019
1697 Clouds -3 1021 100 10000 0.5 330 12:44 26.12.2019
1698 Clouds -3 1021 92 10000 1.11 22 12:24 26.12.2019
1699 Clouds -3 1021 92 10000 1.11 22 11:59 26.12.2019
1700 Clouds -4 1020 92 10000 1.11 22 11:40 26.12.2019
1701 Clouds -4 1020 92 10000 1.11 22 11:40 26.12.2019
1702 Clouds -4 1020 92 10000 1.2 6 11:21 26.12.2019
1703 Clouds -5 1020 92 10000 0.5 0 10:50 26.12.2019
1704 Clouds -5 1020 92 10000 1 340 10:26 26.12.2019
1705 Clouds -5 1020 92 10000 1.5 350 09:55 26.12.2019
1706 Clouds -5 1020 92 10000 1.5 350 09:36 26.12.2019
1707 Clouds -5 1020 92 10000 1 340 09:18 26.12.2019
1708 Clouds -5 1019 100 10000 1.29 9 08:39 26.12.2019
1709 Fog -5 1019 100 10000 1 0 08:21 26.12.2019
1710 Fog -5 1019 100 10000 2.1 330 07:41 26.12.2019
1711 Fog -5 1019 92 10000 2.1 330 07:19 26.12.2019
1712 Fog -6 1018 100 10000 1.5 350 06:38 26.12.2019
1713 Fog -5 1018 92 10000 1.5 340 06:20 26.12.2019
1714 Fog -5 1018 92 10000 1 340 05:42 26.12.2019
1715 Clear -5 1018 92 10000 1 0 04:33 26.12.2019
1716 Clear -5 1017 92 10000 1.5 350 03:32 26.12.2019
1717 Clouds -4 1017 92 10000 0.5 0 02:47 26.12.2019
1718 Fog -5 1017 100 10000 1.5 20 02:29 26.12.2019
1719 Fog -4 1017 92 10000 1 40 01:44 26.12.2019
1720 Clear -4 1016 92 10000 0.5 0 01:25 26.12.2019
1721 Clear -4 1016 92 10000 1.5 360 00:44 26.12.2019
1722 Clear -4 1016 100 10000 1.35 354 00:23 26.12.2019
1723 Clear -4 1016 100 10000 1.35 354 23:58 25.12.2019
1724 Clear -4 1016 100 10000 1.35 354 23:37 25.12.2019
1725 Clear -4 1016 92 10000 1.37 337 23:19 25.12.2019
1726 Clear -4 1016 92 10000 1.37 337 23:19 25.12.2019
1727 Clouds -4 1015 92 10000 1.37 337 22:57 25.12.2019
1728 Clouds -4 1015 92 10000 1.37 337 22:37 25.12.2019
1729 Fog -3 1015 92 10000 1 350 22:19 25.12.2019
1730 Fog -4 1015 100 10000 1.5 320 21:55 25.12.2019
1731 Fog -4 1015 100 10000 1.5 320 21:37 25.12.2019
1732 Fog -3 1015 100 9000 1 0 21:19 25.12.2019
1733 Fog -3 1015 92 2000 1.37 337 20:40 25.12.2019
1734 Fog -3 1014 100 800 0.5 0 20:21 25.12.2019
1735 Fog -3 1014 92 600 1.23 344 19:59 25.12.2019
1736 Fog -3 1014 92 600 1.23 344 19:41 25.12.2019
1737 Fog -3 1014 92 650 1.23 344 19:21 25.12.2019
1738 Fog -3 1013 100 500 1.23 344 18:40 25.12.2019
1739 Fog -2 1013 92 3000 1.23 344 18:21 25.12.2019
1740 Fog -2 1013 100 8000 1 0 17:58 25.12.2019
1741 Fog -2 1013 100 8000 1 0 17:39 25.12.2019
1742 Fog -2 1013 92 8000 1 330 17:18 25.12.2019
1743 Fog -2 1012 92 1500 1 10 16:55 25.12.2019
1744 Fog -2 1012 92 2000 1 0 16:36 25.12.2019
1745 Fog -2 1012 92 2000 1 0 16:18 25.12.2019
1746 Fog -2 1012 100 5000 1.5 30 15:55 25.12.2019
1747 Fog -2 1011 92 10000 1.5 40 15:36 25.12.2019
1748 Fog -1 1011 92 10000 1.5 40 15:18 25.12.2019
1749 Rain -1 1011 100 10000 1.5 20 14:42 25.12.2019
1750 Rain -1 1011 100 10000 1.5 20 14:23 25.12.2019
1751 Rain -1 1011 92 10000 1.5 30 13:58 25.12.2019
1752 Rain -1 1011 92 10000 1.5 30 13:40 25.12.2019
1753 Clouds -1 1011 100 10000 1 350 13:20 25.12.2019
1754 Fog -1 1010 100 10000 1 0 12:43 25.12.2019
1755 Fog -1 1010 100 10000 1 0 12:22 25.12.2019
1756 Fog -1 1010 92 10000 1 0 11:58 25.12.2019
1757 Fog -1 1010 92 10000 1 0 11:40 25.12.2019
1758 Fog -1 1010 100 10000 0.5 0 11:20 25.12.2019
1759 Fog -2 1009 92 10000 2.1 20 10:39 25.12.2019
1760 Fog -2 1009 100 10000 1.5 20 10:21 25.12.2019
1761 Fog -2 1008 100 9000 1.5 340 09:58 25.12.2019
1762 Fog -2 1008 100 9000 1.5 340 09:40 25.12.2019
1763 Fog -2 1008 100 9000 1.5 340 09:40 25.12.2019
1764 Fog -2 1008 100 10000 1 360 09:21 25.12.2019
1765 Fog -1 1008 100 9000 1 330 08:42 25.12.2019
1766 Fog -1 1008 100 10000 0.5 360 08:23 25.12.2019
1767 Fog -1 1008 100 10000 0.5 360 08:23 25.12.2019
1768 Fog -1 1007 92 10000 1.41 330 07:42 25.12.2019
1769 Clouds -1 1007 92 10000 1.41 330 07:22 25.12.2019
1770 Clouds 0 1006 100 10000 0.5 0 06:24 25.12.2019
1771 Clouds -1 1007 91 0 2.6 10 05:50 25.12.2019
1772 Clouds 0 1007 90 0 3.1 350 04:44 25.12.2019
1773 Clouds 0 1006 92 10000 2.1 10 04:24 25.12.2019
1774 Clouds 0 1006 92 10000 1.5 10 03:44 25.12.2019
1775 Clouds 0 1006 92 10000 1.5 10 03:44 25.12.2019
1776 Clouds 0 1005 100 10000 2.6 20 02:59 25.12.2019
1777 Clouds 0 1005 100 10000 2.6 20 02:29 25.12.2019
1778 Clouds 0 1005 93 10000 1.5 20 01:52 25.12.2019
1779 Clouds 0 1005 97 10000 1 20 01:22 25.12.2019
1780 Clouds 0 1004 97 10000 1 0 00:42 25.12.2019
1781 Clouds 0 1004 97 10000 1.5 40 00:23 25.12.2019
1782 Clouds 1 1004 97 10000 1.5 20 23:40 24.12.2019
1783 Clouds 1 1004 96 10000 1 30 23:20 24.12.2019
1784 Clouds 0 1004 100 10000 2.1 20 22:55 24.12.2019
1785 Clouds 0 1004 100 10000 2.1 20 22:37 24.12.2019
1786 Clouds 0 1004 96 10000 2.1 40 22:19 24.12.2019
1787 Clouds 0 1004 96 10000 2.1 40 21:41 24.12.2019
1788 Clouds 0 1003 96 10000 2.1 40 21:20 24.12.2019
1789 Clouds 1 1003 96 10000 1.5 50 20:43 24.12.2019
1790 Clouds 1 1003 99 10000 1.5 30 20:23 24.12.2019
1791 Clouds 1 1003 99 10000 2.1 40 19:57 24.12.2019
1792 Clouds 1 1003 99 10000 2.1 40 19:37 24.12.2019
1793 Clouds 1 1003 99 10000 1.5 40 19:18 24.12.2019
1794 Clouds 1 1003 99 10000 1.5 40 18:42 24.12.2019
1795 Clouds 1 1002 99 10000 2.1 40 18:19 24.12.2019
1796 Clouds 1 1002 99 10000 2.1 40 17:45 24.12.2019
1797 Clouds 1 1002 99 10000 2.1 40 17:23 24.12.2019
1798 Clouds 1 1002 99 9000 2.1 40 16:58 24.12.2019
1799 Clouds 1 1002 99 9000 2.1 40 16:40 24.12.2019
1800 Clouds 1 1002 99 9000 2.1 40 16:40 24.12.2019
1801 Clouds 1 1002 99 8000 2.6 30 16:22 24.12.2019
1802 Clouds 1 1002 99 6000 2.1 40 15:58 24.12.2019
1803 Clouds 1 1002 99 6000 2.1 40 15:38 24.12.2019
1804 Mist 1 1002 99 5000 2.6 40 15:20 24.12.2019
1805 Mist 1 1002 99 5000 2.6 40 14:58 24.12.2019
1806 Mist 1 1002 99 5000 2.6 40 14:58 24.12.2019
1807 Snow 1 1002 99 6000 2.1 40 14:40 24.12.2019
1808 Snow 1 1002 99 6000 2.6 30 14:22 24.12.2019
1809 Snow 1 1002 99 3500 2.1 30 13:56 24.12.2019
1810 Snow 1 1002 99 3500 2.1 30 13:38 24.12.2019
1811 Snow 1 1002 99 1300 2.1 30 13:20 24.12.2019
1812 Snow 1 1002 99 1500 2.6 40 12:57 24.12.2019
1813 Snow 1 1002 99 1500 2.6 40 12:38 24.12.2019
1814 Snow 1 1002 100 1300 2.6 30 12:19 24.12.2019
1815 Snow 1 1003 100 1600 3.1 30 11:57 24.12.2019
1816 Snow 1 1003 100 1600 3.1 30 11:38 24.12.2019
1817 Snow 0 1003 100 1200 3.6 30 11:20 24.12.2019
1818 Snow 0 1003 100 1200 3.6 30 11:20 24.12.2019
1819 Snow 0 1003 100 2000 3.6 30 10:57 24.12.2019
1820 Snow 0 1003 100 2000 3.6 30 10:38 24.12.2019
1821 Snow 1 1003 100 1500 3.6 40 10:20 24.12.2019
1822 Snow 1 1003 100 2200 4.1 40 09:58 24.12.2019
1823 Snow 1 1003 100 2200 4.1 40 09:40 24.12.2019
1824 Snow 0 1003 100 2700 3.6 30 09:21 24.12.2019
1825 Snow 0 1002 92 3400 3.6 40 08:47 24.12.2019
1826 Snow 0 1002 92 5000 3.6 40 08:25 24.12.2019
1827 Snow 0 1003 92 4800 4.1 40 07:59 24.12.2019
1828 Snow 0 1003 92 4800 4.1 40 07:39 24.12.2019
1829 Snow 0 1003 92 4100 3.6 40 07:21 24.12.2019
1830 Snow 0 1003 92 4100 3.6 40 07:21 24.12.2019
1831 Snow 0 1003 92 4800 3.6 40 06:40 24.12.2019
1832 Snow 0 1003 92 4800 3.6 40 06:19 24.12.2019
1833 Snow 0 1003 92 3000 2.1 40 05:53 24.12.2019
1834 Snow 0 1003 92 7000 2.6 40 05:19 24.12.2019
1835 Snow 0 1003 92 10000 1 0 04:21 24.12.2019
1836 Clouds 0 1004 92 10000 2.1 30 03:48 24.12.2019
1837 Rain 0 1003 93 0 2.6 50 02:29 24.12.2019
1838 Clouds 0 1003 92 10000 2.6 40 01:57 24.12.2019
1839 Clouds 0 1003 92 10000 2.1 40 01:26 24.12.2019
1840 Clouds 0 1003 92 10000 1.5 30 00:58 24.12.2019
1841 Clouds 0 1003 92 10000 1.5 30 00:40 24.12.2019
1842 Clouds 0 1003 92 10000 1.5 10 00:20 24.12.2019
1843 Clouds 0 1003 92 10000 1.5 10 23:43 23.12.2019
1844 Clouds 0 1003 92 10000 2.1 20 23:24 23.12.2019
1845 Clouds 0 1003 92 10000 2.1 30 22:57 23.12.2019
1846 Clouds 0 1003 92 10000 2.1 30 22:38 23.12.2019
1847 Clouds 0 1003 92 10000 2.6 40 22:20 23.12.2019
1848 Clouds 0 1003 92 10000 2.1 20 21:57 23.12.2019
1849 Clouds 0 1003 92 10000 2.1 20 21:37 23.12.2019
1850 Clouds 0 1002 100 10000 2.1 30 21:19 23.12.2019
1851 Clouds 0 1002 100 10000 2.1 30 20:59 23.12.2019
1852 Clouds 0 1002 100 10000 2.1 30 20:40 23.12.2019
1853 Clouds 0 1002 92 10000 1.5 10 20:19 23.12.2019
1854 Clouds 0 1002 92 10000 2.1 40 19:58 23.12.2019
1855 Clouds 0 1002 92 10000 2.1 40 19:40 23.12.2019
1856 Clouds 0 1002 100 10000 2.1 20 19:21 23.12.2019
1857 Clouds 0 1001 100 10000 2.6 40 18:58 23.12.2019
1858 Snow 0 1001 100 10000 2.1 20 18:39 23.12.2019
1859 Snow 0 1001 100 10000 2.1 20 18:20 23.12.2019
1860 Snow 0 1001 100 10000 2.1 20 17:59 23.12.2019
1861 Snow 1 1001 100 10000 2.1 40 17:40 23.12.2019
1862 Snow 1 1001 100 10000 1.5 10 17:19 23.12.2019
1863 Snow 1 1001 92 10000 2.1 20 16:57 23.12.2019
1864 Snow 1 1001 92 10000 2.1 20 16:39 23.12.2019
1865 Clouds 1 1001 92 10000 2.1 10 16:18 23.12.2019
1866 Snow 1 1000 92 10000 2.1 30 15:57 23.12.2019
1867 Snow 1 1000 92 10000 2.1 30 15:37 23.12.2019
1868 Snow 1 1000 92 10000 3.1 30 15:19 23.12.2019
1869 Snow 1 1000 92 10000 2.6 30 14:56 23.12.2019
1870 Snow 1 1000 92 10000 2.6 30 14:56 23.12.2019
1871 Snow 1 1000 92 10000 2.6 30 14:38 23.12.2019
1872 Snow 1 1000 92 7000 2.1 20 14:18 23.12.2019
1873 Snow 1 1000 92 6000 2.1 40 13:56 23.12.2019
1874 Snow 1 1000 92 6000 2.1 40 13:37 23.12.2019
1875 Snow 1 1000 92 5000 2.1 40 13:19 23.12.2019
1876 Snow 1 999 92 10000 2.6 40 12:54 23.12.2019
1877 Snow 1 999 92 10000 2.6 40 12:36 23.12.2019
1878 Snow 1 999 92 10000 2.6 40 12:36 23.12.2019
1879 Snow 1 999 92 10000 2.1 40 12:18 23.12.2019
1880 Clouds 1 999 92 10000 2.6 30 11:42 23.12.2019
1881 Clouds 1 999 92 10000 2.6 40 11:22 23.12.2019
1882 Clouds 1 999 92 10000 3.1 40 10:56 23.12.2019
1883 Clouds 1 999 92 10000 3.1 40 10:37 23.12.2019
1884 Clouds 1 999 92 10000 3.6 40 10:18 23.12.2019
1885 Clouds 1 998 92 10000 3.6 30 09:57 23.12.2019
1886 Clouds 1 998 92 10000 3.6 30 09:39 23.12.2019
1887 Clouds 1 998 92 10000 2.6 40 09:19 23.12.2019
1888 Clouds 1 997 100 10000 2.6 40 08:42 23.12.2019
1889 Snow 1 997 100 10000 2.6 20 08:23 23.12.2019
1890 Rain 1 997 100 10000 3.1 30 07:57 23.12.2019
1891 Rain 1 997 100 10000 3.1 30 07:38 23.12.2019
1892 Clouds 1 997 92 10000 3.1 40 07:19 23.12.2019
1893 Clouds 1 996 100 10000 3.1 30 06:43 23.12.2019
1894 Clouds 1 996 100 10000 3.1 40 06:22 23.12.2019
1895 Clouds 1 996 100 10000 2.6 40 05:46 23.12.2019
1896 Clouds 1 996 96 10000 2.6 40 04:55 23.12.2019
1897 Clouds 1 996 96 10000 2.6 40 04:19 23.12.2019
1898 Clouds 1 995 96 10000 2.1 20 02:48 23.12.2019
1899 Clouds 1 995 98 10000 2.1 20 02:20 23.12.2019
1900 Clouds 1 995 98 10000 2.1 20 01:51 23.12.2019
1901 Clouds 1 995 97 10000 1.5 30 01:32 23.12.2019
1902 Clouds 1 995 97 10000 1.5 30 01:32 23.12.2019
1903 Clouds 1 995 97 10000 1.5 30 01:32 23.12.2019
1904 Clouds 1 995 97 10000 2.1 20 00:54 23.12.2019
1905 Clouds 1 995 97 10000 3.1 20 00:35 23.12.2019
1906 Clouds 1 995 97 10000 1.5 40 23:57 22.12.2019
1907 Clouds 1 995 97 10000 1.5 40 23:38 22.12.2019
1908 Clouds 1 994 97 10000 2.1 30 23:20 22.12.2019
1909 Drizzle 1 994 97 8000 1 0 22:57 22.12.2019
1910 Drizzle 1 994 97 8000 1 0 22:38 22.12.2019
1911 Clouds 1 994 97 10000 1.5 20 22:19 22.12.2019
1912 Clouds 1 993 97 9000 1.5 30 21:56 22.12.2019
1913 Clouds 1 993 97 9000 1.5 30 21:56 22.12.2019
1914 Clouds 1 993 97 9000 1.5 30 21:38 22.12.2019
1915 Clouds 1 993 97 9000 1.5 10 21:20 22.12.2019
1916 Mist 1 993 97 5000 1 0 20:41 22.12.2019
1917 Mist 1 992 96 1300 1.5 340 20:19 22.12.2019
1918 Mist 1 992 96 1100 1 0 19:58 22.12.2019
1919 Mist 1 992 96 1100 1 0 19:40 22.12.2019
1920 Fog 1 992 96 900 1 0 19:20 22.12.2019
1921 Fog 1 992 96 800 0.97 27 18:58 22.12.2019
1922 Fog 1 992 96 800 0.97 27 18:38 22.12.2019
1923 Fog 1 992 96 900 0.5 0 18:19 22.12.2019
1924 Fog 1 992 96 700 1.5 30 17:55 22.12.2019
1925 Fog 1 991 96 700 1 0 17:36 22.12.2019
1926 Fog 1 991 97 700 1 0 17:18 22.12.2019
1927 Mist 1 992 97 1100 1.5 50 16:42 22.12.2019
1928 Fog 1 991 97 650 1.5 20 16:23 22.12.2019
1929 Fog 1 991 97 650 1.5 20 16:23 22.12.2019
1930 Fog 1 991 97 350 1 0 15:58 22.12.2019
1931 Fog 1 991 97 350 1 0 15:39 22.12.2019
1932 Fog 1 991 97 300 1.5 30 15:21 22.12.2019
1933 Fog 2 991 100 400 0.5 0 14:59 22.12.2019
1934 Fog 1 991 100 400 0.5 0 14:38 22.12.2019
1935 Fog 2 991 100 350 0.51 59 14:19 22.12.2019
1936 Fog 1 991 100 450 0.51 59 13:56 22.12.2019
1937 Fog 1 991 100 450 0.51 59 13:38 22.12.2019
1938 Fog 2 990 100 600 1 0 13:19 22.12.2019
1939 Fog 1 990 100 500 1 0 12:57 22.12.2019
1940 Fog 2 990 100 500 1 0 12:38 22.12.2019
1941 Fog 2 990 98 500 0.5 0 12:19 22.12.2019
1942 Fog 2 990 98 400 1.5 10 11:58 22.12.2019
1943 Fog 2 990 98 400 1.5 10 11:38 22.12.2019
1944 Fog 1 990 97 350 0.5 0 11:19 22.12.2019
1945 Fog 1 990 100 300 1 350 10:57 22.12.2019
1946 Fog 1 990 100 300 1 350 10:38 22.12.2019
1947 Fog 1 990 97 600 1 0 10:19 22.12.2019
1948 Fog 1 990 100 900 1.5 0 09:58 22.12.2019
1949 Mist 1 989 100 1200 0.66 48 09:39 22.12.2019
1950 Mist 1 989 100 1200 0.66 48 09:21 22.12.2019
1951 Fog 1 989 100 1300 0.66 48 08:45 22.12.2019
1952 Mist 1 989 100 4600 0.64 26 08:23 22.12.2019
1953 Mist 1 989 100 4400 0.64 26 07:44 22.12.2019
1954 Mist 1 989 98 5000 1 0 07:21 22.12.2019
1955 Mist 1 989 98 5000 1 0 07:21 22.12.2019
1956 Mist 1 989 98 5000 1 0 07:21 22.12.2019
1957 Mist 1 989 98 1500 0.5 0 06:55 22.12.2019
1958 Mist 1 988 100 1200 0.5 0 06:26 22.12.2019
1959 Mist 1 988 98 1100 0.5 0 05:41 22.12.2019
1960 Fog 1 988 100 800 0.31 216 05:20 22.12.2019
1961 Fog 2 988 100 700 1 0 04:26 22.12.2019
1962 Mist 2 988 100 1500 0.5 150 02:47 22.12.2019
1963 Mist 2 988 100 2000 0.49 253 02:23 22.12.2019
1964 Clouds 2 988 100 7000 2.1 20 01:32 22.12.2019
1965 Mist 2 988 100 2000 0.56 268 00:57 22.12.2019
1966 Mist 2 988 100 2000 0.56 268 00:38 22.12.2019
1967 Mist 2 988 100 1200 1 280 00:20 22.12.2019
1968 Mist 2 988 100 4000 1 0 23:41 21.12.2019
1969 Fog 2 988 100 7000 1 0 23:22 21.12.2019
1970 Fog 2 988 100 8000 0.25 273 22:57 21.12.2019
1971 Fog 2 988 100 8000 0.25 273 22:39 21.12.2019
1972 Fog 2 988 100 8000 1.5 20 22:18 21.12.2019
1973 Fog 2 988 100 8000 1.5 20 22:18 21.12.2019
1974 Fog 2 988 100 9000 1 0 21:55 21.12.2019
1975 Fog 2 987 100 8000 1.5 20 21:36 21.12.2019
1976 Fog 2 987 100 8000 1.5 20 21:18 21.12.2019
1977 Mist 2 987 100 2000 1.5 30 20:57 21.12.2019
1978 Mist 2 987 100 2000 1.5 30 20:37 21.12.2019
1979 Mist 2 987 100 1200 1 340 20:19 21.12.2019
1980 Mist 2 987 100 1200 1 0 19:55 21.12.2019
1981 Mist 2 987 100 1200 1 0 19:36 21.12.2019
1982 Mist 2 987 100 1300 1.5 360 19:18 21.12.2019
1983 Mist 2 987 100 1600 1.5 360 18:42 21.12.2019
1984 Mist 2 987 100 1200 1.5 30 18:23 21.12.2019
1985 Rain 2 987 100 900 1.5 20 17:56 21.12.2019
1986 Rain 2 987 100 900 1.5 20 17:38 21.12.2019
1987 Fog 2 987 100 900 1 0 17:20 21.12.2019
1988 Rain 2 987 100 1600 1.5 20 16:57 21.12.2019
1989 Rain 2 987 100 1600 1.5 20 16:38 21.12.2019
1990 Rain 2 987 100 3600 1 350 16:18 21.12.2019
1991 Rain 2 986 100 10000 1 10 15:55 21.12.2019
1992 Rain 2 986 100 10000 1 10 15:37 21.12.2019
1993 Mist 2 986 100 5000 2.6 20 15:18 21.12.2019
1994 Mist 2 986 100 5000 2.1 20 14:42 21.12.2019
1995 Clouds 2 986 93 6000 2.1 30 14:23 21.12.2019
1996 Mist 2 986 100 5000 0.5 0 13:58 21.12.2019
1997 Mist 2 986 100 5000 0.5 0 13:39 21.12.2019
1998 Drizzle 2 986 100 6000 1 0 13:19 21.12.2019
1999 Rain 2 986 100 5000 2.1 20 12:56 21.12.2019
2000 Rain 2 986 100 5000 2.1 20 12:38 21.12.2019
2001 Rain 2 986 100 5000 2.1 20 12:38 21.12.2019
2002 Rain 2 986 100 2500 1.5 350 12:20 21.12.2019
2003 Rain 2 986 100 2500 0.5 0 11:48 21.12.2019
2004 Rain 2 986 100 4600 0.5 0 11:27 21.12.2019
2005 Rain 2 986 100 5000 2.1 20 10:59 21.12.2019
2006 Rain 2 986 100 3900 2.6 30 10:40 21.12.2019
2007 Rain 2 986 100 3900 2.6 30 10:21 21.12.2019
2008 Rain 2 986 100 4000 3.1 30 09:58 21.12.2019
2009 Rain 2 986 100 4000 3.1 30 09:39 21.12.2019
2010 Rain 2 986 100 4400 3.1 30 09:19 21.12.2019
2011 Rain 2 986 100 4500 2.6 30 08:51 21.12.2019
2012 Mist 2 986 93 4800 2.6 30 08:27 21.12.2019
2013 Mist 2 986 93 4800 2.6 30 07:58 21.12.2019
2014 Rain 2 986 100 4600 3.1 30 07:39 21.12.2019
2015 Drizzle 2 987 100 4400 2.6 30 07:20 21.12.2019
2016 Drizzle 2 987 100 4000 2.6 30 06:40 21.12.2019
2017 Drizzle 2 987 100 5000 3.1 30 06:22 21.12.2019
2018 Drizzle 2 987 100 5000 3.1 20 05:25 21.12.2019
2019 Drizzle 2 988 100 5000 2.1 20 04:34 21.12.2019
2020 Drizzle 2 988 100 6000 2.6 10 03:56 21.12.2019
2021 Drizzle 2 988 100 6000 3.1 20 02:25 21.12.2019
2022 Drizzle 2 989 100 6000 3.6 30 01:48 21.12.2019
2023 Drizzle 2 990 100 5000 2.6 20 01:25 21.12.2019
2024 Drizzle 2 990 100 5000 3.1 20 00:45 21.12.2019
2025 Drizzle 2 990 100 5000 4.1 30 00:26 21.12.2019
2026 Drizzle 2 991 100 5000 3.6 30 23:39 20.12.2019
2027 Drizzle 2 991 100 5000 3.1 30 23:21 20.12.2019
2028 Drizzle 2 991 99 4300 3.1 20 22:59 20.12.2019
2029 Drizzle 2 991 99 4300 3.1 20 22:59 20.12.2019
2030 Drizzle 2 991 99 4300 3.1 20 22:39 20.12.2019
2031 Drizzle 2 991 100 3500 3.1 30 22:18 20.12.2019
2032 Drizzle 2 991 100 3500 3.1 30 21:41 20.12.2019
2033 Drizzle 2 992 99 2600 3.1 30 21:21 20.12.2019
2034 Drizzle 2 992 99 2500 3.1 40 20:59 20.12.2019
2035 Drizzle 2 992 99 2500 3.1 40 20:38 20.12.2019
2036 Drizzle 2 993 99 2900 0.5 0 20:19 20.12.2019
2037 Drizzle 1 992 99 3000 2.1 20 19:56 20.12.2019
2038 Drizzle 1 992 99 3000 2.1 20 19:38 20.12.2019
2039 Mist 1 992 99 3300 3.1 30 19:18 20.12.2019
2040 Mist 1 993 99 3800 3.6 30 18:41 20.12.2019
2041 Mist 1 993 99 3100 2.6 20 18:23 20.12.2019
2042 Drizzle 1 994 99 3100 2.1 40 17:58 20.12.2019
2043 Drizzle 1 994 99 3100 2.1 40 17:39 20.12.2019
2044 Drizzle 1 994 99 3100 2.1 40 17:20 20.12.2019
2045 Mist 1 995 99 3200 1.5 30 16:57 20.12.2019
2046 Mist 1 995 99 2000 2.1 20 16:38 20.12.2019
2047 Mist 1 995 99 2000 2.1 20 16:19 20.12.2019
2048 Fog 1 995 99 1500 2.6 30 15:55 20.12.2019
2049 Fog 1 995 99 1000 2.6 30 15:37 20.12.2019
2050 Fog 1 995 99 1000 2.6 30 15:37 20.12.2019
2051 Fog 1 995 99 1000 2.6 30 15:18 20.12.2019
2052 Fog 1 996 99 700 2.1 30 14:42 20.12.2019
2053 Fog 1 996 99 550 2.1 20 14:24 20.12.2019
2054 Fog 1 997 99 500 2.6 30 13:57 20.12.2019
2055 Fog 1 997 99 500 2.1 30 13:37 20.12.2019
2056 Fog 1 997 99 500 2.1 30 13:19 20.12.2019
2057 Fog 1 998 99 800 1.5 50 12:56 20.12.2019
2058 Mist 1 998 99 1300 2.1 40 12:36 20.12.2019
2059 Mist 1 998 99 1300 2.1 40 12:18 20.12.2019
2060 Mist 1 998 99 1200 1.5 30 11:57 20.12.2019
2061 Mist 0 998 99 1300 2.1 30 11:38 20.12.2019
2062 Mist 1 998 99 1300 2.1 30 11:38 20.12.2019
2063 Mist 1 998 99 1300 2.1 30 11:18 20.12.2019
2064 Mist 0 999 99 1600 2.1 20 10:56 20.12.2019
2065 Mist 0 999 100 2200 2.1 20 10:37 20.12.2019
2066 Mist 0 999 100 2200 2.1 20 10:19 20.12.2019
2067 Mist 1 1000 100 4400 1.5 20 09:43 20.12.2019
2068 Mist 1 1000 100 4400 1.5 20 09:21 20.12.2019
2069 Mist 0 1000 100 4500 2.1 20 08:57 20.12.2019
2070 Mist 0 1000 100 4500 2.1 30 08:38 20.12.2019
2071 Mist 0 1000 100 4500 2.1 30 08:20 20.12.2019
2072 Mist 0 1000 100 4500 2.1 30 08:20 20.12.2019
2073 Mist 0 1001 100 4200 1.5 30 07:57 20.12.2019
2074 Mist 0 1001 100 4000 2.1 20 07:37 20.12.2019
2075 Mist 0 1001 100 4000 2.1 20 07:18 20.12.2019
2076 Mist 0 1001 100 2800 1.5 20 06:44 20.12.2019
2077 Mist 0 1001 100 2800 1.5 20 06:26 20.12.2019
2078 Mist 0 1002 100 2700 2.1 20 05:47 20.12.2019
2079 Mist 0 1003 100 2600 1.5 30 04:59 20.12.2019
2080 Mist -1 1004 92 5000 1.5 30 03:49 20.12.2019
2081 Mist -1 1004 100 5000 1.5 30 02:55 20.12.2019
2082 Mist -1 1005 92 3800 2.1 30 01:59 20.12.2019
2083 Mist -1 1005 100 3500 2.1 20 01:35 20.12.2019
2084 Mist -1 1005 100 3900 2.1 30 00:55 20.12.2019
2085 Mist -1 1006 100 4600 2.1 40 00:35 20.12.2019
2086 Mist 0 1006 100 5000 2.1 30 23:58 19.12.2019
2087 Mist 0 1006 92 4600 2.1 40 23:40 19.12.2019
2088 Mist 0 1006 92 4600 2.1 40 23:19 19.12.2019
2089 Clouds 0 1007 92 6000 1.5 350 22:40 19.12.2019
2090 Clouds 0 1007 92 6000 1.5 350 22:22 19.12.2019
2091 Clouds 0 1007 100 9000 1.5 350 21:57 19.12.2019
2092 Mist 0 1007 100 9000 2.1 30 21:39 19.12.2019
2093 Mist 0 1007 100 9000 2.1 30 21:19 19.12.2019
2094 Mist 0 1007 100 6000 2.6 30 20:57 19.12.2019
2095 Mist -1 1008 100 7000 2.6 20 20:38 19.12.2019
2096 Mist -1 1008 100 7000 2.6 20 20:20 19.12.2019
2097 Mist -1 1008 100 5000 1.5 360 19:58 19.12.2019
2098 Mist -1 1008 100 3000 1 0 19:40 19.12.2019
2099 Snow -1 1008 92 3500 1.5 330 19:19 19.12.2019
2100 Snow -1 1008 92 3500 1.5 330 19:19 19.12.2019
2101 Snow -1 1008 92 3500 1.5 330 18:58 19.12.2019
2102 Snow -1 1009 92 2000 1.5 360 18:40 19.12.2019
2103 Snow -1 1009 92 2000 1.5 360 18:19 19.12.2019
2104 Snow -1 1009 92 2000 1.5 360 18:19 19.12.2019
2105 Snow -1 1009 92 2000 2.1 360 17:56 19.12.2019
2106 Snow -2 1010 100 2000 2.1 10 17:37 19.12.2019
2107 Snow -2 1010 100 2000 2.1 10 17:18 19.12.2019
2108 Snow -2 1010 100 1500 2.6 30 16:56 19.12.2019
2109 Snow -2 1011 100 1200 1 350 16:37 19.12.2019
2110 Snow -2 1011 100 1200 1 350 16:19 19.12.2019
2111 Snow -2 1011 100 1100 0.5 0 15:57 19.12.2019
2112 Snow -3 1012 92 1100 0.5 0 15:37 19.12.2019
2113 Snow -3 1012 92 1100 0.5 0 15:19 19.12.2019
2114 Snow -3 1012 92 1100 0.5 0 15:19 19.12.2019
2115 Snow -3 1012 100 900 1.5 20 14:44 19.12.2019
2116 Snow -3 1012 100 900 1.5 20 14:20 19.12.2019
2117 Snow -3 1013 92 2000 1 0 13:59 19.12.2019
2118 Snow -3 1014 92 1900 1 0 13:38 19.12.2019
2119 Snow -4 1014 92 1900 1 0 13:20 19.12.2019
2120 Mist -4 1014 92 1900 0.5 0 12:58 19.12.2019
2121 Mist -4 1014 92 1900 0.5 0 12:57 19.12.2019
2122 Fog -4 1015 92 800 0.5 0 12:39 19.12.2019
2123 Fog -4 1015 92 800 0.5 0 12:19 19.12.2019
2124 Mist -5 1015 92 1500 1.57 37 11:58 19.12.2019
2125 Mist -5 1015 92 1800 1.57 37 11:40 19.12.2019
2126 Fog -5 1015 92 3000 1 360 11:18 19.12.2019
2127 Fog -5 1015 92 3000 1 360 11:18 19.12.2019
2128 Fog -5 1015 92 3000 1 360 10:58 19.12.2019
2129 Fog -5 1015 92 3000 1 360 10:58 19.12.2019
2130 Fog -5 1016 92 1700 1.42 22 10:38 19.12.2019
2131 Fog -5 1016 92 1700 1.42 22 10:20 19.12.2019
2132 Fog -6 1015 100 1200 0.5 0 09:56 19.12.2019
2133 Fog -6 1015 100 900 1.42 22 09:37 19.12.2019
2134 Fog -6 1015 100 900 1.42 22 09:18 19.12.2019
2135 Fog -6 1015 92 900 1.42 22 08:55 19.12.2019
2136 Fog -6 1015 92 650 1.42 22 08:36 19.12.2019
2137 Fog -6 1016 92 0 1 320 08:18 19.12.2019
2138 Fog -6 1015 92 700 1 240 07:40 19.12.2019
2139 Fog -6 1015 92 700 1 240 07:22 19.12.2019
2140 Fog -6 1015 92 550 0.91 34 06:54 19.12.2019
2141 Fog -6 1015 92 450 0.91 34 06:36 19.12.2019
2142 Fog -7 1015 92 450 0.91 34 06:18 19.12.2019
2143 Fog -7 1015 92 800 1 0 05:41 19.12.2019
2144 Fog -7 1015 92 800 1 0 05:18 19.12.2019
2145 Fog -8 1015 100 550 1 0 03:51 19.12.2019
2146 Fog -8 1014 92 900 1 0 02:25 19.12.2019
2147 Fog -7 1013 92 600 0.5 0 01:24 19.12.2019
2148 Fog -7 1013 92 450 0.92 12 00:55 19.12.2019
2149 Fog -7 1013 100 550 1 0 00:36 19.12.2019
2150 Fog -7 1013 100 550 1 0 00:18 19.12.2019
2151 Fog -7 1012 100 500 1 0 23:43 18.12.2019
2152 Fog -7 1012 100 500 1 0 23:43 18.12.2019
2153 Fog -6 1012 100 550 0.5 0 23:19 18.12.2019
2154 Fog -6 1012 100 550 0.5 0 22:56 18.12.2019
2155 Fog -6 1011 92 500 1 0 22:38 18.12.2019
2156 Fog -6 1011 92 500 1 0 22:20 18.12.2019
2157 Fog -6 1011 92 600 0.5 0 21:57 18.12.2019
2158 Fog -6 1011 92 500 1 0 21:39 18.12.2019
2159 Fog -6 1011 92 500 1 0 21:20 18.12.2019
2160 Fog -7 1010 92 500 0.5 0 20:55 18.12.2019
2161 Fog -7 1009 92 500 1.5 60 20:37 18.12.2019
2162 Fog -7 1009 92 500 1.5 60 20:37 18.12.2019
2163 Fog -7 1009 92 500 1.5 60 20:37 18.12.2019
2164 Fog -6 1009 92 500 1.5 60 20:19 18.12.2019
2165 Fog -6 1009 92 400 0.5 0 19:56 18.12.2019
2166 Fog -6 1008 100 400 0.5 0 19:37 18.12.2019
2167 Fog -6 1007 100 500 0.5 0 19:18 18.12.2019
2168 Fog -6 1007 100 800 1.5 40 18:45 18.12.2019
2169 Fog -6 1007 100 800 1.5 40 18:25 18.12.2019
2170 Fog -6 1006 92 600 0.81 329 17:58 18.12.2019
2171 Fog -6 1006 92 1500 2.1 20 17:39 18.12.2019
2172 Fog -6 1006 92 1500 2.1 20 17:39 18.12.2019
2173 Fog -6 1006 92 1500 2.1 20 17:20 18.12.2019
2174 Fog -6 1006 92 1500 2.1 20 16:58 18.12.2019
2175 Fog -6 1005 92 2000 1 0 16:40 18.12.2019
2176 Fog -6 1005 92 2000 1 0 16:40 18.12.2019
2177 Fog -6 1005 92 9000 1 0 16:21 18.12.2019
2178 Fog -5 1004 92 9000 1 360 15:56 18.12.2019
2179 Fog -5 1004 92 9000 1 360 15:38 18.12.2019
2180 Fog -5 1004 92 10000 0.5 350 15:20 18.12.2019
2181 Fog -5 1003 92 8000 0.8 321 14:43 18.12.2019
2182 Clouds -5 1003 100 9000 1 0 14:22 18.12.2019
2183 Clouds -5 1002 92 10000 0.68 338 13:58 18.12.2019
2184 Clouds -5 1002 92 10000 0.68 338 13:39 18.12.2019
2185 Fog -5 1002 92 10000 0.5 0 13:21 18.12.2019
2186 Fog -5 1002 92 10000 0.55 317 12:59 18.12.2019
2187 Fog -5 1001 100 10000 1.5 0 12:40 18.12.2019
2188 Fog -5 1001 100 10000 1.5 0 12:21 18.12.2019
2189 Clouds -5 1001 92 10000 1 10 11:57 18.12.2019
2190 Clouds -6 1001 92 10000 1 10 11:39 18.12.2019
2191 Clouds -5 1000 92 10000 1 0 11:20 18.12.2019
2192 Clouds -6 1000 92 10000 0.74 275 10:57 18.12.2019
2193 Clouds -6 1000 92 10000 0.74 275 10:39 18.12.2019
2194 Clouds -6 1000 100 10000 0.74 275 10:20 18.12.2019
2195 Clouds -6 999 92 10000 0.74 275 09:57 18.12.2019
2196 Clouds -6 999 92 10000 0.74 275 09:19 18.12.2019
2197 Clouds -6 998 100 10000 0.5 220 08:42 18.12.2019
2198 Clouds -5 998 92 10000 0.86 313 08:24 18.12.2019
2199 Clouds -5 997 92 10000 1 0 07:56 18.12.2019
2200 Clouds -5 997 92 10000 1 0 07:56 18.12.2019
2201 Clouds -5 997 92 10000 1 310 07:38 18.12.2019
2202 Clouds -5 997 92 10000 1 310 07:19 18.12.2019
2203 Clouds -5 997 92 10000 1.5 330 06:50 18.12.2019
2204 Clouds -5 997 92 10000 2.6 350 06:22 18.12.2019
2205 Clouds -4 997 92 10000 2.1 360 05:30 18.12.2019
2206 Clouds -4 997 92 9000 2.6 360 03:45 18.12.2019
2207 Clouds -4 998 92 10000 3.1 10 02:43 18.12.2019
2208 Clouds -4 997 92 10000 3.6 10 02:25 18.12.2019
2209 Clouds -3 998 92 10000 3.1 10 01:43 18.12.2019
2210 Clouds -3 998 92 10000 3.1 360 01:24 18.12.2019
2211 Clouds -3 999 92 10000 1.5 340 00:42 18.12.2019
2212 Clouds -3 999 92 10000 2.6 360 00:24 18.12.2019
2213 Clouds -3 999 92 10000 2.1 340 23:58 17.12.2019
2214 Clouds -3 999 92 10000 2.1 340 23:39 17.12.2019
2215 Clouds -3 999 92 10000 1.5 350 23:20 17.12.2019
2216 Fog -3 999 92 6000 1.5 340 22:57 17.12.2019
2217 Fog -3 999 92 6000 1.5 340 22:38 17.12.2019
2218 Fog -3 1000 92 9000 1.5 340 22:19 17.12.2019
2219 Mist -3 1000 92 5000 1.5 330 21:57 17.12.2019
2220 Mist -3 1000 92 5000 1.5 330 21:38 17.12.2019
2221 Fog -3 1000 92 10000 1.5 320 21:20 17.12.2019
2222 Clouds -3 1000 92 10000 2.1 330 20:58 17.12.2019
2223 Clouds -3 1000 92 10000 2.1 330 20:39 17.12.2019
2224 Clouds -3 1000 92 8000 1.5 330 20:18 17.12.2019
2225 Fog -3 1000 92 9000 1.5 330 19:56 17.12.2019
2226 Fog -3 1000 92 9000 1.5 330 19:38 17.12.2019
2227 Fog -3 1000 92 9000 1.5 320 19:19 17.12.2019
2228 Mist -3 1000 92 3500 1.5 330 18:56 17.12.2019
2229 Mist -3 1000 92 3500 1.5 330 18:37 17.12.2019
2230 Mist -3 1001 92 5000 2.1 330 18:19 17.12.2019
2231 Fog -3 1001 92 8000 1.5 320 17:42 17.12.2019
2232 Fog -3 1001 92 2500 1.5 340 17:21 17.12.2019
2233 Fog -3 1001 100 2900 2.1 320 16:57 17.12.2019
2234 Fog -3 1001 100 2000 1.5 340 16:38 17.12.2019
2235 Fog -3 1001 100 2000 1.5 340 16:19 17.12.2019
2236 Fog -3 1001 100 2000 2.1 320 15:59 17.12.2019
2237 Fog -3 1001 100 2000 2.1 320 15:38 17.12.2019
2238 Fog -3 1001 100 4000 2.1 320 15:19 17.12.2019
2239 Fog -3 1001 92 2000 1.5 350 14:56 17.12.2019
2240 Fog -3 1001 92 2500 1 0 14:38 17.12.2019
2241 Fog -3 1001 92 2500 1 0 14:19 17.12.2019
2242 Mist -3 1001 100 2000 2.1 320 13:56 17.12.2019
2243 Mist -3 1001 100 2000 2.1 320 13:38 17.12.2019
2244 Mist -3 1001 100 2000 1.5 300 13:19 17.12.2019
2245 Mist -3 1001 100 2000 1.5 300 13:19 17.12.2019
2246 Mist -3 1001 100 3000 1 0 12:56 17.12.2019
2247 Mist -3 1001 100 3000 1 0 12:37 17.12.2019
2248 Mist -3 1001 100 3000 2.1 320 12:18 17.12.2019
2249 Fog -3 1001 100 2000 1.5 0 11:56 17.12.2019
2250 Fog -3 1001 100 2000 1.5 0 11:36 17.12.2019
2251 Mist -3 1001 92 3000 1.5 330 11:18 17.12.2019
2252 Mist -3 1001 92 1600 1.5 330 10:55 17.12.2019
2253 Mist -3 1001 92 1600 1.5 330 10:37 17.12.2019
2254 Fog -3 1001 92 1500 1.5 320 10:18 17.12.2019
2255 Snow -3 1000 92 2000 1.5 320 09:42 17.12.2019
2256 Mist -3 1000 92 4000 2.1 330 09:21 17.12.2019
2257 Snow -3 1000 100 4000 2.1 340 08:58 17.12.2019
2258 Snow -3 1000 92 7000 1.5 350 08:39 17.12.2019
2259 Snow -3 1000 92 7000 1.5 350 08:21 17.12.2019
2260 Snow -3 999 92 4000 2.1 340 07:58 17.12.2019
2261 Snow -3 999 92 4000 2.1 340 07:39 17.12.2019
2262 Mist -3 999 92 4100 2.1 340 07:20 17.12.2019
2263 Fog -3 999 100 6000 2.1 340 06:41 17.12.2019
2264 Fog -3 999 100 6000 2.1 340 06:22 17.12.2019
2265 Clouds -3 998 92 10000 3.1 330 05:40 17.12.2019
2266 Clouds -3 998 100 10000 2.6 340 04:51 17.12.2019
2267 Fog -2 998 92 10000 1.5 340 03:40 17.12.2019
2268 Fog -2 997 100 4000 1.5 310 02:22 17.12.2019
2269 Fog -2 997 92 1000 1.5 340 01:21 17.12.2019
2270 Fog -2 997 100 1000 1.5 360 00:39 17.12.2019
2271 Fog -2 997 100 1000 1.5 350 00:21 17.12.2019
2272 Fog -2 996 100 800 1.5 320 23:43 16.12.2019
2273 Fog -2 996 100 1000 1 0 23:20 16.12.2019
2274 Fog -2 996 100 1000 1 0 22:58 16.12.2019
2275 Fog -2 996 100 1000 1 0 22:38 16.12.2019
2276 Fog -2 996 100 1000 1 0 22:38 16.12.2019
2277 Fog -2 996 92 500 1 0 22:20 16.12.2019
2278 Fog -1 996 100 600 1 320 21:57 16.12.2019
2279 Fog -1 996 100 600 1 320 21:39 16.12.2019
2280 Fog -1 995 100 600 1.5 30 21:20 16.12.2019
2281 Fog -1 995 100 500 1.5 30 20:58 16.12.2019
2282 Fog -1 995 100 500 1.5 30 20:39 16.12.2019
2283 Fog -1 995 100 500 1.5 30 20:39 16.12.2019
2284 Fog -1 995 100 500 1 0 20:19 16.12.2019
2285 Fog -1 995 100 500 1 0 20:19 16.12.2019
2286 Fog -1 995 100 600 1 0 19:56 16.12.2019
2287 Fog -1 995 100 600 1 0 19:37 16.12.2019
2288 Fog -1 995 100 1100 0.5 0 19:19 16.12.2019
2289 Fog -1 995 100 800 0.78 350 18:59 16.12.2019
2290 Fog -1 995 100 800 0.78 350 18:40 16.12.2019
2291 Fog -1 994 100 750 1 0 18:20 16.12.2019
2292 Fog -1 994 100 750 1 0 18:20 16.12.2019
2293 Fog -1 994 100 900 1 0 17:58 16.12.2019
2294 Mist -1 994 100 2000 1 0 17:39 16.12.2019
2295 Mist -1 994 100 2000 1 0 17:21 16.12.2019
2296 Mist -1 994 100 10000 2.1 340 16:57 16.12.2019
2297 Mist -1 994 100 10000 2.1 340 16:39 16.12.2019
2298 Clouds -1 994 92 10000 2.1 240 16:19 16.12.2019
2299 Clouds 0 994 92 10000 2.1 0 15:58 16.12.2019
2300 Clouds 0 994 92 10000 2.1 0 15:38 16.12.2019
2301 Clouds 0 994 92 10000 1 0 15:20 16.12.2019
2302 Clouds 0 994 92 10000 1.5 220 14:57 16.12.2019
2303 Clouds 0 994 92 10000 1.5 220 14:37 16.12.2019
2304 Clouds 0 994 100 10000 1 0 14:37 16.12.2019
2305 Clouds 0 994 100 10000 1 0 14:19 16.12.2019
2306 Clouds 0 994 100 10000 1 0 14:19 16.12.2019
2307 Clouds 0 994 100 10000 1 0 14:19 16.12.2019
2308 Clouds 0 994 100 10000 1 0 14:19 16.12.2019
2309 Clouds 0 994 100 10000 1 0 14:19 16.12.2019
2310 Clouds 0 994 93 10000 2.1 170 13:56 16.12.2019
2311 Clouds 0 994 91 10000 2.1 170 13:37 16.12.2019
2312 Clouds 0 994 100 10000 1.5 200 13:19 16.12.2019
2313 Clouds 0 994 91 10000 3.1 180 12:57 16.12.2019
2314 Clouds 0 994 91 10000 3.1 180 12:39 16.12.2019
2315 Clouds 0 995 91 10000 2.6 190 12:18 16.12.2019
2316 Clouds 0 994 91 10000 2.6 170 11:58 16.12.2019
2317 Clouds -1 995 91 10000 4.6 200 11:40 16.12.2019
2318 Clouds -1 995 94 10000 4.6 200 11:20 16.12.2019
2319 Clouds -1 994 94 10000 3.1 190 10:56 16.12.2019
2320 Clouds -1 994 94 10000 3.1 190 10:37 16.12.2019
2321 Clouds -1 994 94 10000 4.6 190 10:19 16.12.2019
2322 Clouds -1 994 94 10000 4.6 180 09:45 16.12.2019
2323 Clouds -1 993 94 10000 3.1 180 09:26 16.12.2019
2324 Clouds -1 993 100 10000 2.6 160 08:41 16.12.2019
2325 Clouds 0 993 100 10000 3.1 170 08:21 16.12.2019
2326 Clouds 0 993 100 10000 3.1 170 08:21 16.12.2019
2327 Clouds 0 992 100 10000 3.1 180 07:59 16.12.2019
2328 Clouds 0 992 100 10000 3.1 180 07:41 16.12.2019
2329 Clouds 0 992 92 10000 2.6 180 07:20 16.12.2019
2330 Clouds 0 992 100 10000 2.1 180 06:41 16.12.2019
2331 Clouds 0 992 100 10000 3.1 180 06:22 16.12.2019
2332 Clouds -1 992 100 10000 3.1 180 05:47 16.12.2019
2333 Clouds 0 992 100 10000 2.6 180 05:29 16.12.2019
2334 Clouds 0 991 96 10000 3.1 200 03:41 16.12.2019
2335 Clouds 0 990 97 10000 2.6 200 01:58 16.12.2019
2336 Clouds 0 990 97 10000 2.6 200 01:40 16.12.2019
2337 Clouds 0 990 97 10000 2.6 200 01:40 16.12.2019
2338 Clouds 0 989 100 10000 2.1 200 00:42 16.12.2019
2339 Clouds 0 989 96 10000 0.5 0 00:23 16.12.2019
2340 Clouds 0 989 96 10000 1.5 200 23:58 15.12.2019
2341 Clouds 0 988 96 8000 1.5 200 23:38 15.12.2019
2342 Clouds 0 988 96 8000 1.5 200 23:19 15.12.2019
2343 Fog 0 988 96 8000 1.5 200 22:55 15.12.2019
2344 Fog 0 988 96 8000 1.5 200 22:37 15.12.2019
2345 Fog 1 987 96 9000 1.18 246 22:18 15.12.2019
2346 Fog 1 987 96 8000 1.5 210 21:55 15.12.2019
2347 Fog 1 987 96 8000 1.5 210 21:37 15.12.2019
2348 Fog 1 986 96 5000 1 210 21:18 15.12.2019
2349 Fog 1 986 96 10000 1 0 20:55 15.12.2019
2350 Fog 1 986 96 10000 1 0 20:36 15.12.2019
2351 Fog 1 985 100 9000 1 0 20:18 15.12.2019
2352 Fog 1 985 99 9000 1 0 19:55 15.12.2019
2353 Fog 1 985 99 9000 1 0 19:37 15.12.2019
2354 Mist 1 985 99 3900 1.5 290 19:18 15.12.2019
2355 Fog 1 984 99 8000 1.5 280 18:55 15.12.2019
2356 Fog 1 984 99 8000 1.5 280 18:55 15.12.2019
2357 Fog 1 984 98 8000 1.5 280 18:36 15.12.2019
2358 Clouds 1 984 98 8000 1.63 203 18:18 15.12.2019
2359 Clouds 1 984 99 8000 0.5 0 17:55 15.12.2019
2360 Clouds 1 984 99 8000 1 0 17:36 15.12.2019
2361 Clouds 1 984 99 8000 1 0 17:18 15.12.2019
2362 Drizzle 1 983 99 8000 2.1 30 16:42 15.12.2019
2363 Rain 1 983 99 8000 2.1 40 16:23 15.12.2019
2364 Drizzle 1 983 99 9000 2.6 10 15:57 15.12.2019
2365 Drizzle 1 983 99 9000 2.6 10 15:39 15.12.2019
2366 Drizzle 1 984 93 0 1.17 145 15:19 15.12.2019
2367 Snow 1 983 99 5000 2.6 20 14:56 15.12.2019
2368 Snow 2 983 99 5000 2.6 20 14:37 15.12.2019
2369 Mist 2 983 99 3300 2.6 20 14:19 15.12.2019
2370 Snow 2 983 99 4400 2.1 20 13:58 15.12.2019
2371 Snow 2 983 99 4400 2.1 20 13:38 15.12.2019
2372 Clouds 1 983 99 8000 2.1 30 13:19 15.12.2019
2373 Snow 1 983 99 7000 2.6 30 12:57 15.12.2019
2374 Snow 1 983 99 8000 1.5 30 12:39 15.12.2019
2375 Snow 1 983 99 8000 1.5 30 12:21 15.12.2019
2376 Clouds 1 983 99 8000 2.1 40 11:58 15.12.2019
2377 Clouds 1 983 99 8000 2.1 40 11:37 15.12.2019
2378 Snow 1 983 99 4200 3.1 20 11:19 15.12.2019
2379 Snow 1 983 99 4200 3.1 20 11:19 15.12.2019
2380 Snow 1 983 99 8000 2.1 30 10:55 15.12.2019
2381 Snow 1 983 99 8000 2.1 30 10:37 15.12.2019
2382 Clouds 1 983 99 10000 2.1 20 10:19 15.12.2019
2383 Clouds 1 983 99 10000 2.1 60 09:41 15.12.2019
2384 Rain 1 983 100 0 2.6 60 09:20 15.12.2019
2385 Clouds 1 983 99 9000 1.5 40 08:59 15.12.2019
2386 Clouds 1 983 99 9000 1.5 40 08:41 15.12.2019
2387 Clouds 1 983 98 8000 2.1 20 08:22 15.12.2019
2388 Clouds 1 983 98 5000 2.1 30 07:56 15.12.2019
2389 Snow 1 983 98 7000 2.1 40 07:35 15.12.2019
2390 Snow 1 983 98 7000 2.6 40 06:52 15.12.2019
2391 Snow 1 983 98 6000 2.1 30 06:20 15.12.2019
2392 Snow 1 983 98 7000 2.6 30 05:37 15.12.2019
2393 Snow 1 983 99 7000 2.6 30 05:18 15.12.2019
2394 Snow 1 983 99 6000 2.6 30 03:54 15.12.2019
2395 Snow 1 983 99 4600 2.1 30 02:34 15.12.2019
2396 Snow 1 983 99 7000 2.6 20 01:50 15.12.2019
2397 Clouds 1 983 99 8000 2.6 20 01:28 15.12.2019
2398 Clouds 1 983 99 9000 2.1 20 00:59 15.12.2019
2399 Clouds 1 983 99 9000 2.1 20 00:41 15.12.2019
2400 Clouds 1 983 99 8000 2.1 30 00:23 15.12.2019
2401 Clouds 1 983 99 10000 2.1 30 23:40 14.12.2019
2402 Clouds 1 983 99 10000 2.6 30 23:40 14.12.2019
2403 Clouds 1 983 99 10000 2.1 30 23:21 14.12.2019
2404 Rain 1 982 99 10000 1 340 22:58 14.12.2019
2405 Rain 1 982 99 10000 1 340 22:58 14.12.2019
2406 Rain 1 982 99 10000 1 340 22:58 14.12.2019
2407 Rain 1 982 99 10000 1.5 30 22:40 14.12.2019
2408 Rain 1 982 99 10000 1.5 30 22:21 14.12.2019
2409 Snow 1 982 99 10000 1.5 350 21:56 14.12.2019
2410 Snow 1 982 99 10000 1.5 350 21:38 14.12.2019
2411 Snow 1 982 99 9000 2.1 30 21:19 14.12.2019
2412 Snow 1 982 99 9000 2.1 30 21:19 14.12.2019
2413 Snow 1 982 99 10000 2.1 40 20:56 14.12.2019
2414 Clouds 1 982 99 10000 2.1 50 20:38 14.12.2019
2415 Clouds 1 982 99 10000 2.1 50 20:19 14.12.2019
2416 Clouds 1 982 99 10000 2.6 50 19:55 14.12.2019
2417 Clouds 1 982 99 10000 2.6 50 19:36 14.12.2019
2418 Rain 1 982 99 10000 2.1 60 19:18 14.12.2019
2419 Rain 1 982 99 10000 2.6 70 18:55 14.12.2019
2420 Rain 1 982 99 10000 2.6 70 18:36 14.12.2019
2421 Rain 1 982 99 10000 2.1 80 18:18 14.12.2019
2422 Rain 1 982 99 10000 2.6 80 17:42 14.12.2019
2423 Rain 1 982 98 10000 2.6 80 17:22 14.12.2019
2424 Rain 1 982 98 10000 2.6 100 16:55 14.12.2019
2425 Rain 1 982 98 10000 2.6 100 16:37 14.12.2019
2426 Rain 1 982 98 10000 2.6 90 16:18 14.12.2019
2427 Clouds 1 981 98 10000 2.6 0 15:41 14.12.2019
2428 Clouds 1 981 98 10000 3.1 70 15:21 14.12.2019
2429 Snow 1 981 98 7000 2.6 60 14:58 14.12.2019
2430 Clouds 1 981 98 10000 2.6 70 14:38 14.12.2019
2431 Clouds 1 981 98 10000 2.6 70 14:19 14.12.2019
2432 Clouds 1 981 98 10000 2.6 70 13:45 14.12.2019
2433 Snow 1 981 99 5000 2.6 70 13:20 14.12.2019
2434 Snow 1 981 99 10000 3.1 70 12:59 14.12.2019
2435 Snow 1 981 98 3600 3.1 60 12:41 14.12.2019
2436 Snow 1 981 98 3600 3.1 60 12:21 14.12.2019
2437 Snow 1 981 98 3600 3.1 60 12:21 14.12.2019
2438 Snow 1 981 98 3600 3.1 60 12:21 14.12.2019
2439 Snow 1 982 99 1500 2.6 60 11:59 14.12.2019
2440 Snow 1 982 98 1400 2.6 60 11:39 14.12.2019
2441 Snow 1 982 99 1400 2.6 60 11:20 14.12.2019
2442 Snow 1 982 99 2200 2.6 50 10:59 14.12.2019
2443 Snow 1 982 99 2200 2.6 50 10:40 14.12.2019
2444 Snow 1 982 99 2000 2.6 60 10:22 14.12.2019
2445 Snow 1 982 99 3500 2.6 60 09:57 14.12.2019
2446 Snow 1 982 99 3500 2.6 60 09:39 14.12.2019
2447 Snow 1 982 99 5000 2.6 60 09:19 14.12.2019
2448 Snow 1 982 99 8000 2.6 60 08:43 14.12.2019
2449 Clouds 1 982 99 10000 2.1 50 08:20 14.12.2019
2450 Snow 0 982 99 10000 2.6 50 07:44 14.12.2019
2451 Snow 1 982 99 8000 2.6 50 07:24 14.12.2019
2452 Snow 0 982 99 6000 2.6 50 06:57 14.12.2019
2453 Snow 1 982 99 6000 2.6 50 06:38 14.12.2019
2454 Snow 1 982 99 3700 2.6 50 06:18 14.12.2019
2455 Snow 1 983 99 5000 2.6 50 04:48 14.12.2019
2456 Snow 1 985 99 10000 2.6 60 02:41 14.12.2019
2457 Snow 1 985 99 3000 2.6 60 02:19 14.12.2019
2458 Snow 1 985 99 10000 3.1 50 01:37 14.12.2019
2459 Snow 1 986 99 9000 3.1 50 00:49 14.12.2019
2460 Snow 1 986 99 4000 3.1 50 00:28 14.12.2019
2461 Snow 1 987 99 5000 2.6 50 23:57 13.12.2019
2462 Snow 1 987 99 6000 3.1 30 23:37 13.12.2019
2463 Snow 1 987 98 6000 3.1 30 23:18 13.12.2019
2464 Snow 1 987 98 7000 3.1 40 22:41 13.12.2019
2465 Snow 1 988 98 7000 3.6 50 22:19 13.12.2019
2466 Snow 1 988 98 10000 3.6 50 21:56 13.12.2019
2467 Snow 1 988 98 10000 3.1 50 21:38 13.12.2019
2468 Snow 2 988 98 10000 3.1 50 21:20 13.12.2019
2469 Snow 2 989 98 10000 3.1 60 20:43 13.12.2019
2470 Rain 2 989 98 10000 3.6 90 20:24 13.12.2019
2471 Rain 2 989 98 10000 3.6 90 19:59 13.12.2019
2472 Rain 2 989 98 10000 3.6 90 19:41 13.12.2019
2473 Rain 2 989 98 10000 3.6 90 19:41 13.12.2019
2474 Rain 2 989 98 10000 3.6 90 19:23 13.12.2019
2475 Rain 2 989 98 10000 3.1 80 18:59 13.12.2019
2476 Rain 2 989 98 10000 2.1 80 18:41 13.12.2019
2477 Rain 2 989 98 10000 2.1 80 18:19 13.12.2019
2478 Clouds 2 990 98 10000 2.6 80 17:57 13.12.2019
2479 Clouds 2 990 98 10000 2.6 70 17:38 13.12.2019
2480 Clouds 2 990 98 10000 2.6 70 17:18 13.12.2019
2481 Clouds 2 990 98 10000 1.5 70 16:54 13.12.2019
2482 Rain 2 990 98 10000 2.1 100 16:36 13.12.2019
2483 Rain 2 990 98 10000 2.1 100 16:18 13.12.2019
2484 Clouds 2 990 98 10000 2.6 90 15:38 13.12.2019
2485 Clouds 2 990 98 10000 2.6 90 15:20 13.12.2019
2486 Clouds 1 990 98 10000 3.1 100 14:42 13.12.2019
2487 Clouds 2 990 93 10000 3.1 100 14:21 13.12.2019
2488 Rain 2 990 100 10000 3.1 100 13:58 13.12.2019
2489 Clouds 2 990 100 10000 2.1 90 13:40 13.12.2019
2490 Clouds 2 990 100 10000 2.1 90 13:21 13.12.2019
2491 Snow 2 990 100 10000 2.1 110 12:44 13.12.2019
2492 Snow 2 990 100 10000 2.1 110 12:23 13.12.2019
2493 Clouds 2 990 100 10000 2.1 120 11:58 13.12.2019
2494 Clouds 1 990 95 10000 3.1 140 11:40 13.12.2019
2495 Rain 1 990 98 10000 2.6 120 11:22 13.12.2019
2496 Rain 1 990 98 10000 2.6 120 10:56 13.12.2019
2497 Drizzle 1 990 98 10000 2.6 130 10:38 13.12.2019
2498 Drizzle 1 990 98 10000 2.6 130 10:19 13.12.2019
2499 Clouds 1 990 98 10000 3.6 120 09:41 13.12.2019
2500 Clouds 1 990 98 10000 3.6 120 09:20 13.12.2019
2501 Drizzle 1 990 98 10000 3.6 130 09:20 13.12.2019
2502 Drizzle 1 990 98 10000 3.6 130 08:44 13.12.2019
2503 Clouds 1 989 97 10000 2.6 120 08:25 13.12.2019
2504 Clouds 1 989 97 9000 2.1 140 07:47 13.12.2019
2505 Snow 1 989 97 8000 1.5 150 07:24 13.12.2019
2506 Snow 1 989 97 10000 2.6 130 06:55 13.12.2019
2507 Snow 1 989 97 3300 3.6 120 06:29 13.12.2019
2508 Clouds 1 989 97 10000 2.1 130 05:47 13.12.2019
2509 Clouds 1 989 97 10000 1 0 05:28 13.12.2019
2510 Snow 1 989 97 8000 1.5 90 04:46 13.12.2019
2511 Snow 1 989 97 10000 2.6 170 03:48 13.12.2019
2512 Clouds 1 988 97 10000 4.1 170 02:34 13.12.2019
2513 Clouds 1 988 100 10000 4.1 180 01:48 13.12.2019
2514 Clouds 1 988 100 10000 3.6 160 00:57 13.12.2019
2515 Rain 1 988 94 9000 4.6 170 00:37 13.12.2019
2516 Clouds 1 988 94 10000 3.6 170 23:59 12.12.2019
2517 Clouds 1 988 94 10000 4.1 170 23:40 12.12.2019
2518 Clouds 1 988 98 10000 4.1 170 23:22 12.12.2019
2519 Snow 1 988 98 6000 4.1 180 22:56 12.12.2019
2520 Clouds 1 988 98 6000 3.1 180 22:37 12.12.2019
2521 Clouds 1 988 98 6000 3.1 180 22:19 12.12.2019
2522 Clouds 2 988 93 8000 3.6 140 21:55 12.12.2019
2523 Rain 1 988 93 10000 3.6 130 21:37 12.12.2019
2524 Rain 2 988 93 10000 3.6 130 21:37 12.12.2019
2525 Rain 1 988 93 10000 3.6 130 21:18 12.12.2019
2526 Rain 2 988 93 10000 4.1 140 20:56 12.12.2019
2527 Rain 2 988 93 10000 5.1 150 20:38 12.12.2019
2528 Rain 2 988 93 10000 5.1 150 20:20 12.12.2019
2529 Clouds 2 989 93 10000 4.6 130 19:43 12.12.2019
2530 Clouds 2 989 93 10000 4.1 140 19:23 12.12.2019
2531 Clouds 2 989 93 10000 4.6 140 18:58 12.12.2019
2532 Clouds 2 989 93 10000 4.6 140 18:40 12.12.2019
2533 Clouds 2 990 93 10000 5.7 150 18:21 12.12.2019
2534 Clouds 2 990 93 10000 5.7 150 18:21 12.12.2019
2535 Clouds 2 990 93 10000 5.7 150 17:59 12.12.2019
2536 Rain 2 990 93 10000 5.7 140 17:40 12.12.2019
2537 Rain 3 990 93 10000 5.7 140 17:21 12.12.2019
2538 Clouds 3 990 93 10000 5.7 140 16:59 12.12.2019
2539 Clouds 3 990 93 10000 4.1 130 16:41 12.12.2019
2540 Clouds 3 990 93 10000 4.1 130 16:21 12.12.2019
2541 Rain 3 990 100 10000 4.1 130 15:58 12.12.2019
2542 Rain 3 991 93 9000 5.1 170 15:40 12.12.2019
2543 Rain 3 991 93 9000 4.6 140 15:18 12.12.2019
2544 Rain 3 991 93 9000 4.6 140 14:56 12.12.2019
2545 Clouds 3 991 93 10000 3.6 150 14:36 12.12.2019
2546 Clouds 3 991 93 10000 3.6 150 14:36 12.12.2019
2547 Clouds 3 991 93 10000 3.6 150 14:18 12.12.2019
2548 Clouds 3 992 93 10000 4.1 140 13:54 12.12.2019
2549 Rain 3 992 93 10000 4.6 160 13:36 12.12.2019
2550 Rain 3 992 100 10000 5.1 170 13:18 12.12.2019
2551 Rain 3 992 100 9000 4.1 170 12:40 12.12.2019
2552 Rain 3 992 100 9000 4.1 170 12:22 12.12.2019
2553 Rain 3 993 93 6000 4.1 170 11:57 12.12.2019
2554 Clouds 3 993 93 10000 3.6 170 11:38 12.12.2019
2555 Clouds 3 993 93 10000 3.6 170 11:38 12.12.2019
2556 Clouds 3 993 93 10000 3.6 170 11:38 12.12.2019
2557 Clouds 3 993 93 10000 3.6 170 11:20 12.12.2019
2558 Snow 3 993 93 6000 7.2 170 10:57 12.12.2019
2559 Snow 3 993 93 6000 7.2 170 10:57 12.12.2019
2560 Rain 3 993 93 9000 5.1 170 10:39 12.12.2019
2561 Rain 3 993 93 9000 5.1 170 10:21 12.12.2019
2562 Clouds 3 993 93 10000 6.2 170 09:55 12.12.2019
2563 Clouds 3 993 93 10000 6.2 170 09:55 12.12.2019
2564 Drizzle 3 993 100 8000 4.6 170 09:37 12.12.2019
2565 Drizzle 3 993 100 8000 4.6 170 09:19 12.12.2019
2566 Clouds 3 993 93 10000 4.1 160 08:46 12.12.2019
2567 Clouds 3 993 93 10000 5.1 160 08:28 12.12.2019
2568 Clouds 3 993 93 10000 5.1 160 07:50 12.12.2019
2569 Clouds 3 994 93 10000 5.1 160 07:28 12.12.2019
2570 Rain 3 993 93 10000 5.7 160 06:57 12.12.2019
2571 Clouds 3 993 93 10000 5.7 160 06:36 12.12.2019
2572 Clouds 3 993 100 10000 6.2 160 05:49 12.12.2019
2573 Clouds 3 993 93 10000 7.2 160 05:25 12.12.2019
2574 Clouds 3 994 93 10000 7.2 160 04:28 12.12.2019
2575 Clouds 3 995 93 10000 7.7 160 02:41 12.12.2019
2576 Clouds 3 995 93 10000 7.7 160 02:22 12.12.2019
2577 Clouds 3 995 93 10000 7.2 160 01:54 12.12.2019
2578 Clouds 3 995 100 10000 5.7 140 01:35 12.12.2019
2579 Clouds 3 995 93 10000 5.1 160 00:48 12.12.2019
2580 Clouds 3 995 93 10000 5.1 160 00:21 12.12.2019
2581 Clouds 3 995 93 10000 5.1 160 23:54 11.12.2019
2582 Clouds 3 995 93 10000 5.1 180 23:36 11.12.2019
2583 Clouds 3 995 93 10000 5.1 180 23:18 11.12.2019
2584 Clouds 3 995 93 10000 6.2 160 22:55 11.12.2019
2585 Clouds 3 995 93 10000 6.2 170 22:36 11.12.2019
2586 Clouds 3 995 93 10000 6.2 170 22:36 11.12.2019
2587 Clear 3 995 93 10000 7.2 190 22:18 11.12.2019
2588 Clouds 3 995 93 10000 8.2 180 21:39 11.12.2019
2589 Clouds 3 995 93 10000 8.7 180 21:20 11.12.2019
2590 Clouds 3 995 93 10000 8.7 180 20:58 11.12.2019
2591 Clouds 3 995 86 10000 7.7 170 20:40 11.12.2019
2592 Clouds 3 995 86 10000 7.7 170 20:20 11.12.2019
2593 Clouds 3 995 86 10000 6.7 170 19:59 11.12.2019
2594 Clouds 3 995 93 10000 5.1 170 19:40 11.12.2019
2595 Clouds 3 995 93 10000 5.1 170 19:21 11.12.2019
2596 Clouds 3 995 86 10000 4.6 170 18:59 11.12.2019
2597 Clouds 3 995 86 10000 3.1 150 18:39 11.12.2019
2598 Clouds 3 995 86 10000 3.1 150 18:19 11.12.2019
2599 Clouds 3 995 86 10000 1.5 120 17:56 11.12.2019
2600 Clouds 3 995 93 10000 3.6 170 17:37 11.12.2019
2601 Clouds 3 995 93 10000 3.6 170 17:18 11.12.2019
2602 Clouds 3 995 86 10000 3.1 190 16:55 11.12.2019
2603 Clouds 3 995 86 10000 3.1 190 16:37 11.12.2019
2604 Clouds 3 995 86 10000 3.1 190 16:18 11.12.2019
2605 Clouds 3 995 93 10000 4.6 180 15:55 11.12.2019
2606 Clouds 4 995 86 10000 2.1 190 15:36 11.12.2019
2607 Clouds 4 995 93 10000 1 0 15:18 11.12.2019
2608 Clouds 4 995 93 10000 1 0 14:54 11.12.2019
2609 Clouds 4 994 93 10000 1.5 180 14:36 11.12.2019
2610 Clouds 4 994 93 10000 1.5 180 14:18 11.12.2019
2611 Clouds 4 994 93 10000 0.5 0 13:42 11.12.2019
2612 Clouds 4 994 86 10000 2.1 200 13:42 11.12.2019
2613 Clouds 4 994 86 10000 2.1 200 13:21 11.12.2019
2614 Clouds 4 994 86 10000 2.6 170 12:57 11.12.2019
2615 Clouds 4 993 86 10000 5.7 180 12:39 11.12.2019
2616 Clouds 4 993 86 10000 5.7 180 12:21 11.12.2019
2617 Clouds 4 993 86 10000 5.7 180 12:21 11.12.2019
2618 Clouds 4 993 93 10000 5.1 170 11:58 11.12.2019
2619 Clouds 4 993 93 10000 6.2 160 11:39 11.12.2019
2620 Clouds 4 992 86 10000 5.7 170 11:19 11.12.2019
2621 Clouds 4 992 86 10000 5.7 170 11:19 11.12.2019
2622 Clouds 4 992 86 10000 5.7 170 10:57 11.12.2019
2623 Clouds 4 992 93 10000 4.1 150 10:39 11.12.2019
2624 Clouds 4 992 93 10000 4.1 150 10:20 11.12.2019
2625 Clouds 4 990 93 10000 4.6 200 09:44 11.12.2019
2626 Clouds 4 990 93 10000 4.6 200 09:44 11.12.2019
2627 Clouds 4 990 93 10000 4.6 200 09:21 11.12.2019
2628 Clouds 4 989 93 10000 6.2 190 08:58 11.12.2019
2629 Clouds 4 988 93 10000 4.6 190 08:40 11.12.2019
2630 Clouds 5 988 93 10000 4.6 190 08:20 11.12.2019
2631 Clouds 5 988 93 10000 6.2 210 07:59 11.12.2019
2632 Rain 5 987 100 10000 6.2 190 07:41 11.12.2019
2633 Rain 6 987 100 10000 6.2 190 07:22 11.12.2019
2634 Rain 6 987 100 6000 7.2 160 06:45 11.12.2019
2635 Rain 6 987 100 6000 7.2 160 06:23 11.12.2019
2636 Rain 6 987 100 8000 6.2 150 05:52 11.12.2019
2637 Rain 6 989 93 0 12.3 180 05:27 11.12.2019
2638 Snow 5 988 93 5000 6.2 150 04:47 11.12.2019
2639 Clouds 3 990 93 7000 8.7 160 02:50 11.12.2019
2640 Snow 3 992 95 7000 8.7 150 01:56 11.12.2019
2641 Snow 3 993 94 6000 8.7 160 01:21 11.12.2019
2642 Snow 3 994 94 9000 9.3 160 00:37 11.12.2019
2643 Snow 3 994 94 9000 9.3 160 00:18 11.12.2019
2644 Snow 2 995 94 6000 9.3 160 23:43 10.12.2019
2645 Snow 2 996 96 5000 9.3 160 23:22 10.12.2019
2646 Snow 2 997 96 6000 9.3 160 22:42 10.12.2019
2647 Snow 3 998 96 6000 9.8 160 22:24 10.12.2019
2648 Snow 3 998 96 6000 9.8 160 22:24 10.12.2019
2649 Snow 3 998 96 3300 7.2 160 21:58 10.12.2019
2650 Snow 2 999 96 2600 7.7 160 21:39 10.12.2019
2651 Snow 2 999 96 2600 7.7 160 21:21 10.12.2019
2652 Snow 2 1000 96 2800 8.2 150 20:59 10.12.2019
2653 Clouds 2 1003 75 10000 10.3 170 20:38 10.12.2019
2654 Clouds 2 1003 75 10000 10.3 170 20:38 10.12.2019
2655 Clouds 2 1003 75 10000 10.3 170 20:19 10.12.2019
2656 Clouds 2 1003 75 10000 10.3 170 20:19 10.12.2019
2657 Clouds 2 1003 75 10000 10.3 170 20:19 10.12.2019
2658 Snow 2 1001 100 8000 4.6 170 20:19 10.12.2019
2659 Clouds 2 1004 75 10000 8.2 170 19:56 10.12.2019
2660 Clouds 1 1005 91 10000 9.3 170 19:38 10.12.2019
2661 Clouds 1 1005 91 10000 9.3 170 19:20 10.12.2019
2662 Clouds 1 1006 91 10000 7.7 170 18:56 10.12.2019
2663 Clouds 1 1007 80 10000 6.7 160 18:38 10.12.2019
2664 Clouds 0 1007 80 10000 6.7 160 18:18 10.12.2019
2665 Clouds -1 1008 80 10000 4.6 130 17:42 10.12.2019
2666 Clouds -2 1008 80 10000 4.6 130 17:23 10.12.2019
2667 Clouds -2 1008 92 10000 0.5 0 16:58 10.12.2019
2668 Rain -3 1008 92 10000 3.43 199 16:39 10.12.2019
2669 Rain -2 1008 92 10000 3.43 199 16:19 10.12.2019
2670 Clouds -2 1011 74 10000 4.6 150 15:39 10.12.2019
2671 Clouds -3 1010 85 10000 1 0 15:19 10.12.2019
2672 Clouds -4 1010 85 10000 1 0 14:57 10.12.2019
2673 Clouds -4 1011 85 10000 0.5 0 14:38 10.12.2019
2674 Clouds -4 1011 85 10000 0.5 0 14:20 10.12.2019
2675 Clouds -4 1011 85 10000 1 0 13:58 10.12.2019
2676 Clouds -4 1011 92 10000 1 0 13:40 10.12.2019
2677 Clouds -5 1011 92 10000 1 0 13:20 10.12.2019
2678 Clouds -5 1011 92 10000 1 0 13:20 10.12.2019
2679 Clouds -5 1012 85 10000 0.76 87 12:49 10.12.2019
2680 Clouds -5 1012 85 10000 0.5 0 12:28 10.12.2019
2681 Clouds -5 1012 85 10000 1.5 10 11:59 10.12.2019
2682 Clouds -5 1012 85 10000 1.5 10 11:40 10.12.2019
2683 Clouds -7 1012 85 10000 0.74 74 11:21 10.12.2019
2684 Clouds -7 1012 85 10000 1 0 10:44 10.12.2019
2685 Clouds -7 1012 85 10000 1 0 10:25 10.12.2019
2686 Clouds -8 1012 92 10000 0.5 0 09:58 10.12.2019
2687 Clouds -8 1012 92 10000 2.6 320 09:40 10.12.2019
2688 Clouds -8 1012 92 10000 3.1 320 09:22 10.12.2019
2689 Clouds -8 1012 92 10000 3.1 320 08:59 10.12.2019
2690 Clouds -8 1014 92 0 0.5 0 08:40 10.12.2019
2691 Clouds -7 1014 92 0 0.5 0 08:22 10.12.2019
2692 Clear -7 1012 85 10000 1.5 350 07:54 10.12.2019
2693 Clear -7 1011 85 10000 0.69 293 07:36 10.12.2019
2694 Clear -7 1011 85 10000 0.69 293 07:18 10.12.2019
2695 Clear -7 1010 85 10000 1 0 06:42 10.12.2019
2696 Clear -7 1010 85 10000 1 0 06:19 10.12.2019
2697 Clear -6 1010 85 10000 1.5 120 05:51 10.12.2019
2698 Clear -5 1009 68 10000 2.6 300 04:35 10.12.2019
2699 Clear -5 1008 73 10000 2.6 290 03:27 10.12.2019
2700 Clear -5 1007 68 10000 3.1 320 02:36 10.12.2019
2701 Clear -4 1006 73 10000 3.1 310 01:40 10.12.2019
2702 Clear -3 1006 73 10000 3.1 310 01:19 10.12.2019
2703 Clear -3 1004 73 10000 3.6 300 00:31 10.12.2019
2704 Clear -3 1003 73 10000 2.1 310 23:59 09.12.2019
2705 Clear -3 1002 73 10000 3.6 360 23:39 09.12.2019
2706 Clear -2 1002 68 10000 3.1 360 23:21 09.12.2019
2707 Clear -2 1002 68 10000 3.1 360 22:57 09.12.2019
2708 Clear -1 1001 74 10000 6.2 350 22:39 09.12.2019
2709 Clear -2 1001 74 10000 6.2 350 22:18 09.12.2019
2710 Clear -2 1000 74 10000 3.1 350 21:56 09.12.2019
2711 Clear -1 999 63 10000 6.2 350 21:38 09.12.2019
2712 Clear -1 999 63 10000 6.2 350 21:18 09.12.2019
2713 Clear -1 998 68 10000 4.6 350 20:56 09.12.2019
2714 Clear -1 997 63 10000 6.7 350 20:37 09.12.2019
2715 Clouds -1 997 63 10000 6.7 350 20:19 09.12.2019
2716 Clouds -1 995 68 10000 7.7 350 19:55 09.12.2019
2717 Clouds 0 995 68 10000 6.2 350 19:37 09.12.2019
2718 Clouds 0 995 68 10000 6.2 350 19:19 09.12.2019
2719 Clouds 0 993 68 10000 4.6 350 18:55 09.12.2019
2720 Clouds 0 993 74 10000 4.6 360 18:36 09.12.2019
2721 Clouds 0 993 74 10000 4.6 360 18:18 09.12.2019
2722 Clouds 0 992 65 10000 4.6 360 17:56 09.12.2019
2723 Clouds 0 991 65 10000 3.6 350 17:37 09.12.2019
2724 Clouds 1 991 74 10000 3.6 350 17:19 09.12.2019
2725 Clouds 1 990 74 10000 4.6 350 16:54 09.12.2019
2726 Clouds 1 988 74 10000 4.1 350 16:36 09.12.2019
2727 Clouds 1 988 74 10000 4.1 360 16:18 09.12.2019
2728 Clouds 1 988 74 10000 4.1 360 15:55 09.12.2019
2729 Clouds 1 987 74 10000 4.6 360 15:36 09.12.2019
2730 Clouds 1 987 74 10000 4.6 360 15:36 09.12.2019
2731 Clouds 1 987 74 10000 4.6 360 15:18 09.12.2019
2732 Clouds 1 985 74 10000 6.2 360 14:42 09.12.2019
2733 Clouds 1 984 76 10000 5.7 10 14:19 09.12.2019
2734 Snow 1 985 76 10000 6.2 360 14:19 09.12.2019
2735 Clouds 1 984 76 10000 5.7 10 13:57 09.12.2019
2736 Clouds 1 983 72 10000 6.7 10 13:38 09.12.2019
2737 Clouds 1 983 72 10000 6.7 10 13:38 09.12.2019
2738 Clouds 1 982 72 10000 6.2 10 13:19 09.12.2019
2739 Clouds 1 983 72 10000 6.7 10 13:19 09.12.2019
2740 Clouds 1 982 72 10000 6.2 10 12:56 09.12.2019
2741 Clouds 1 981 72 10000 8.7 10 12:37 09.12.2019
2742 Clouds 1 981 72 10000 8.7 10 12:19 09.12.2019
2743 Clouds 1 981 72 10000 8.2 10 11:55 09.12.2019
2744 Snow 1 980 72 10000 8.7 10 11:37 09.12.2019
2745 Snow 1 980 97 10000 8.7 10 11:18 09.12.2019
2746 Snow 1 980 97 10000 8.7 10 11:18 09.12.2019
2747 Snow 1 978 97 1100 4.6 20 10:40 09.12.2019
2748 Snow 2 978 97 1100 4.6 20 10:20 09.12.2019
2749 Rain 2 977 100 6000 3.6 360 09:58 09.12.2019
2750 Rain 1 976 93 10000 1 0 09:40 09.12.2019
2751 Rain 2 976 93 10000 1 0 09:21 09.12.2019
2752 Clouds 2 975 93 10000 2.1 200 08:43 09.12.2019
2753 Clouds 2 975 93 10000 2.1 200 08:25 09.12.2019
2754 Clouds 2 974 93 10000 1 0 07:56 09.12.2019
2755 Clouds 2 974 93 10000 2.6 220 07:37 09.12.2019
2756 Clouds 2 974 93 10000 2.6 220 07:19 09.12.2019
2757 Clouds 2 973 93 10000 3.1 210 06:39 09.12.2019
2758 Clouds 2 973 93 10000 3.1 210 06:21 09.12.2019
2759 Clouds 2 973 93 10000 3.1 200 05:26 09.12.2019
2760 Clouds 2 972 93 10000 4.6 220 04:31 09.12.2019
2761 Clouds 1 972 93 10000 3.1 210 03:19 09.12.2019
2762 Clouds 1 972 93 10000 3.1 210 03:19 09.12.2019
2763 Clouds 2 972 93 10000 5.1 210 02:19 09.12.2019
2764 Clouds 2 971 93 10000 6.2 190 01:41 09.12.2019
2765 Clouds 2 971 100 10000 7.2 190 00:45 09.12.2019
2766 Clouds 2 971 84 10000 4.6 200 00:25 09.12.2019
2767 Clouds 2 971 84 10000 4.6 200 23:40 08.12.2019
2768 Clouds 2 971 82 10000 4.6 200 23:22 08.12.2019
2769 Clouds 2 971 82 10000 5.7 200 22:57 08.12.2019
2770 Clouds 1 971 82 10000 4.6 200 22:38 08.12.2019
2771 Clouds 1 971 82 10000 4.6 200 22:19 08.12.2019
2772 Clouds 1 971 82 10000 4.1 200 21:58 08.12.2019
2773 Clouds 1 971 82 10000 2.6 210 21:40 08.12.2019
2774 Clouds 1 971 82 10000 2.6 210 21:19 08.12.2019
2775 Clouds 1 971 82 10000 2.1 190 20:57 08.12.2019
2776 Clouds 1 971 82 10000 2.6 190 20:38 08.12.2019
2777 Clouds 1 971 81 10000 2.6 190 20:38 08.12.2019
2778 Clouds 1 970 93 10000 3.6 190 20:20 08.12.2019
2779 Clouds 1 970 93 10000 3.6 190 19:57 08.12.2019
2780 Clouds 1 970 93 10000 4.1 200 19:39 08.12.2019
2781 Clouds 1 970 93 10000 4.1 200 19:21 08.12.2019
2782 Clouds 1 970 100 10000 4.6 200 18:55 08.12.2019
2783 Clouds 1 970 100 10000 7.7 200 18:37 08.12.2019
2784 Clouds 1 970 100 10000 7.7 200 18:37 08.12.2019
2785 Clouds 1 970 92 10000 5.1 190 18:18 08.12.2019
2786 Clouds 1 970 92 10000 5.1 190 17:56 08.12.2019
2787 Clouds 1 970 92 10000 5.1 190 17:56 08.12.2019
2788 Clouds 0 970 93 10000 1.5 0 17:38 08.12.2019
2789 Clouds 0 970 92 10000 1.5 0 17:19 08.12.2019
2790 Clouds 0 970 92 10000 1 0 16:56 08.12.2019
2791 Clouds 0 969 92 10000 2.1 340 16:38 08.12.2019
2792 Clouds 0 969 92 10000 2.1 340 16:20 08.12.2019
2793 Clouds 0 969 100 10000 1 0 15:54 08.12.2019
2794 Clouds 0 969 100 10000 1 0 15:36 08.12.2019
2795 Clouds 0 969 100 10000 1 0 15:18 08.12.2019
2796 Mist 0 969 100 2600 1.5 320 14:40 08.12.2019
2797 Mist 0 969 100 2600 1.5 320 14:40 08.12.2019
2798 Mist 0 969 100 2600 1.5 320 14:22 08.12.2019
2799 Mist 0 969 100 2500 1.5 320 13:57 08.12.2019
2800 Mist 1 970 92 4300 2.1 0 13:38 08.12.2019
2801 Mist 1 970 92 4300 2.1 0 13:20 08.12.2019
2802 Mist 1 970 92 4300 2.1 0 13:20 08.12.2019
2803 Mist 0 971 92 5000 3.1 20 12:54 08.12.2019
2804 Clouds 0 972 100 2300 3.6 20 12:36 08.12.2019
2805 Clouds 1 972 100 2300 3.6 20 12:18 08.12.2019
2806 Snow 0 974 92 3500 3.6 20 11:39 08.12.2019
2807 Snow 0 974 92 3500 3.6 20 11:21 08.12.2019
2808 Snow 0 976 92 1400 3.1 30 10:59 08.12.2019
2809 Snow 0 977 100 1500 2.6 40 10:38 08.12.2019
2810 Snow 0 977 100 1500 2.6 40 10:20 08.12.2019
2811 Snow 0 978 92 1300 4.1 20 09:57 08.12.2019
2812 Snow 0 980 92 1600 3.1 20 09:39 08.12.2019
2813 Snow 0 980 92 1600 3.1 20 09:20 08.12.2019
2814 Rain -1 979 100 0 7.7 110 08:58 08.12.2019
2815 Drizzle -1 980 97 0 6.2 100 08:38 08.12.2019
2816 Snow -1 984 92 1500 2.1 100 08:19 08.12.2019
2817 Snow -1 984 92 1500 2.1 100 07:44 08.12.2019
2818 Snow -2 985 92 2800 3.1 100 07:20 08.12.2019
2819 Snow -2 986 92 4100 1 0 06:51 08.12.2019
2820 Snow -2 987 100 10000 1 0 06:22 08.12.2019
2821 Snow -2 988 92 10000 1 0 05:49 08.12.2019
2822 Clouds -2 989 92 10000 1 0 05:18 08.12.2019
2823 Clouds -3 991 92 10000 1 0 03:50 08.12.2019
2824 Clouds -3 991 92 10000 0.98 27 03:26 08.12.2019
2825 Clouds -3 992 85 10000 0.98 27 02:39 08.12.2019
2826 Clouds -2 992 85 10000 1 0 01:56 08.12.2019
2827 Clouds -2 993 85 10000 1.5 30 01:27 08.12.2019
2828 Clouds -2 993 85 10000 1.5 30 01:27 08.12.2019
2829 Clouds -2 993 85 10000 0.5 0 00:40 08.12.2019
2830 Clouds -2 993 85 10000 0.5 0 00:21 08.12.2019
2831 Clouds -2 993 79 10000 1 0 23:42 07.12.2019
2832 Clouds -2 993 79 10000 1 0 23:21 07.12.2019
2833 Clouds -2 994 85 10000 1 0 22:58 07.12.2019
2834 Clouds -2 994 85 10000 1 0 22:40 07.12.2019
2835 Clouds -2 994 85 10000 1 0 22:40 07.12.2019
2836 Clouds -2 994 85 10000 1 0 22:40 07.12.2019
2837 Clouds -2 994 85 10000 1 0 22:40 07.12.2019
2838 Clouds -2 994 85 10000 1 0 22:40 07.12.2019
2839 Clouds -2 994 85 10000 1 0 22:22 07.12.2019
2840 Clouds -2 994 86 10000 1 0 21:56 07.12.2019
2841 Clouds -2 994 79 10000 1 0 21:38 07.12.2019
2842 Clouds -2 994 79 10000 1 0 21:38 07.12.2019
2843 Clouds -1 994 79 10000 1 0 21:20 07.12.2019
2844 Clouds -2 993 79 10000 1 0 20:59 07.12.2019
2845 Clouds -1 993 79 10000 1.5 0 20:37 07.12.2019
2846 Clear -1 993 86 10000 1.5 20 20:19 07.12.2019
2847 Clear -1 993 86 10000 1.5 20 19:56 07.12.2019
2848 Clear -1 993 86 10000 1 0 19:38 07.12.2019
2849 Clear -1 993 86 10000 1 0 19:20 07.12.2019
2850 Clear -1 993 84 10000 2.1 0 18:44 07.12.2019
2851 Clear -1 993 84 10000 2.1 0 18:21 07.12.2019
2852 Clear 0 992 64 10000 1.5 0 17:59 07.12.2019
2853 Clear 0 992 64 10000 1.5 0 17:41 07.12.2019
2854 Clear 0 992 80 10000 2.1 320 17:23 07.12.2019
2855 Clear 0 991 86 10000 1.5 340 16:58 07.12.2019
2856 Clear 0 991 87 10000 2.1 330 16:39 07.12.2019
2857 Clear 0 991 87 10000 2.1 330 16:20 07.12.2019
2858 Clear 0 991 87 10000 2.6 310 15:57 07.12.2019
2859 Clear 1 990 74 10000 1 0 15:38 07.12.2019
2860 Clear 1 990 74 10000 1 0 15:38 07.12.2019
2861 Clear 1 990 74 10000 1 0 15:20 07.12.2019
2862 Clear 1 990 80 10000 1 0 14:42 07.12.2019
2863 Clouds 2 990 80 10000 1 0 14:19 07.12.2019
2864 Clouds 2 989 82 10000 1 0 13:56 07.12.2019
2865 Clouds 2 989 82 10000 1 0 13:56 07.12.2019
2866 Clouds 1 989 80 10000 1 0 13:37 07.12.2019
2867 Clouds 2 989 80 10000 1 0 13:19 07.12.2019
2868 Clouds 2 988 82 10000 1.5 290 12:41 07.12.2019
2869 Clouds 2 988 82 10000 1.5 290 12:23 07.12.2019
2870 Clouds 2 988 82 10000 1.5 310 11:59 07.12.2019
2871 Clouds 2 988 82 10000 1.5 310 11:41 07.12.2019
2872 Clouds 1 988 85 10000 1.5 300 11:22 07.12.2019
2873 Fog 1 987 85 10000 1.5 320 10:39 07.12.2019
2874 Fog 1 987 85 10000 1.5 320 10:20 07.12.2019
2875 Fog 0 987 85 10000 2.1 330 09:59 07.12.2019
2876 Fog 0 986 85 10000 2.1 320 09:38 07.12.2019
2877 Fog 0 986 85 10000 2.1 320 09:38 07.12.2019
2878 Fog 0 986 85 10000 2.1 320 09:20 07.12.2019
2879 Clouds 0 986 85 10000 1.5 270 08:45 07.12.2019
2880 Clouds 0 986 85 10000 1.5 270 08:21 07.12.2019
2881 Clouds 0 985 85 9000 1 0 07:47 07.12.2019
2882 Clouds 1 985 85 10000 2.6 40 07:28 07.12.2019
2883 Rain 1 985 85 10000 2.1 360 06:52 07.12.2019
2884 Rain 1 985 85 10000 1.5 10 06:26 07.12.2019
2885 Clouds 1 984 85 9000 1.5 330 05:47 07.12.2019
2886 Rain 1 984 90 10000 2.1 330 04:43 07.12.2019
2887 Clouds 1 985 90 7000 0.5 0 03:50 07.12.2019
2888 Fog 1 985 89 800 1.5 340 02:22 07.12.2019
2889 Fog 1 985 89 900 1.5 40 01:41 07.12.2019
2890 Fog 1 985 90 900 1.5 40 01:22 07.12.2019
2891 Fog 1 985 100 0 1.5 340 00:21 07.12.2019
2892 Fog 2 986 90 6000 1.5 10 23:57 06.12.2019
2893 Fog 2 986 90 6000 1.5 10 23:57 06.12.2019
2894 Fog 2 986 90 1300 1.5 360 23:39 06.12.2019
2895 Fog 1 986 91 1300 1.5 360 23:20 06.12.2019
2896 Fog 1 986 91 6000 0.5 10 22:39 06.12.2019
2897 Fog 1 986 91 6000 0.5 10 22:21 06.12.2019
2898 Clouds 0 987 91 9000 1.5 360 21:59 06.12.2019
2899 Clouds 0 987 100 10000 1 0 21:41 06.12.2019
2900 Clouds 0 987 100 10000 1 0 21:20 06.12.2019
2901 Clouds 1 987 100 10000 1 350 20:56 06.12.2019
2902 Clouds 1 987 91 10000 0.5 0 20:38 06.12.2019
2903 Clouds 1 987 93 10000 0.5 0 20:38 06.12.2019
2904 Clouds 1 987 92 10000 0.5 0 20:19 06.12.2019
2905 Clouds 1 987 92 10000 1 0 19:42 06.12.2019
2906 Clouds 1 987 92 10000 1 0 19:42 06.12.2019
2907 Clouds 1 987 92 10000 1 0 19:24 06.12.2019
2908 Clouds 1 987 92 10000 1 0 19:24 06.12.2019
2909 Clouds 1 987 92 10000 1 0 18:59 06.12.2019
2910 Clouds 1 987 92 10000 2.6 210 18:40 06.12.2019
2911 Clouds 1 987 92 10000 2.6 210 18:21 06.12.2019
2912 Clouds 1 987 92 10000 2.6 210 18:21 06.12.2019
2913 Clouds 1 987 86 10000 1 0 17:58 06.12.2019
2914 Clouds 1 987 92 10000 1.5 0 17:40 06.12.2019
2915 Clouds 1 987 91 10000 1.5 0 17:21 06.12.2019
2916 Clouds 1 987 80 10000 2.1 220 16:57 06.12.2019
2917 Clouds 1 987 86 10000 1.5 230 16:37 06.12.2019
2918 Clouds 1 987 86 10000 1.5 230 16:19 06.12.2019
2919 Clouds 2 987 91 10000 0.5 0 15:41 06.12.2019
2920 Clouds 2 987 91 10000 0.5 0 15:22 06.12.2019
2921 Clouds 2 987 74 10000 0.5 0 14:58 06.12.2019
2922 Clouds 2 987 91 10000 1 0 14:40 06.12.2019
2923 Clouds 2 987 90 10000 1 0 14:19 06.12.2019
2924 Clouds 2 987 90 10000 1.5 180 13:46 06.12.2019
2925 Clouds 1 986 89 10000 2.1 280 13:26 06.12.2019
2926 Clouds 2 986 89 10000 2.1 250 12:57 06.12.2019
2927 Clouds 2 986 89 10000 2.1 250 12:39 06.12.2019
2928 Clouds 2 986 89 10000 2.1 250 12:20 06.12.2019
2929 Clouds 2 986 93 10000 1.5 280 11:42 06.12.2019
2930 Clouds 3 986 93 10000 1.5 280 11:23 06.12.2019
2931 Clouds 2 985 93 10000 2.1 290 10:55 06.12.2019
2932 Clouds 2 984 93 10000 2.6 260 10:37 06.12.2019
2933 Clouds 2 984 93 10000 2.6 260 10:19 06.12.2019
2934 Clouds 2 984 93 10000 1.5 250 09:55 06.12.2019
2935 Clouds 2 983 93 10000 1 0 09:36 06.12.2019
2936 Clouds 2 983 93 10000 1 0 09:36 06.12.2019
2937 Clouds 2 983 93 10000 2.1 230 09:18 06.12.2019
2938 Clouds 1 982 100 10000 3.1 220 08:40 06.12.2019
2939 Rain 1 982 100 10000 3.1 220 08:22 06.12.2019
2940 Clouds 2 982 100 10000 1.5 230 07:38 06.12.2019
2941 Clouds 2 982 100 10000 1.5 230 07:20 06.12.2019
2942 Clouds 2 982 100 10000 1.5 230 07:20 06.12.2019
2943 Clouds 3 981 93 10000 1 0 06:48 06.12.2019
2944 Clouds 3 981 93 10000 1 0 06:24 06.12.2019
2945 Rain 3 981 100 10000 2.6 160 05:47 06.12.2019
2946 Clouds 5 983 93 10000 6.2 190 02:44 06.12.2019
2947 Clouds 4 984 93 10000 7.2 190 01:43 06.12.2019
2948 Clouds 5 985 86 10000 6.7 200 00:50 06.12.2019
2949 Clouds 6 986 86 10000 8.7 190 00:23 06.12.2019
2950 Clouds 6 986 86 10000 9.3 200 23:51 05.12.2019
2951 Clouds 4 987 86 10000 10.3 180 23:20 05.12.2019
2952 Clouds 4 987 80 10000 9.8 180 22:58 05.12.2019
2953 Clouds 4 987 80 10000 9.8 180 22:58 05.12.2019
2954 Clouds 4 988 86 10000 8.2 170 22:39 05.12.2019
2955 Clouds 4 988 86 10000 8.2 170 22:19 05.12.2019
2956 Clouds 4 988 80 10000 8.2 160 21:57 05.12.2019
2957 Clouds 4 988 80 10000 8.2 160 21:57 05.12.2019
2958 Clouds 4 988 80 10000 6.7 160 21:39 05.12.2019
2959 Clouds 4 988 80 10000 6.7 160 21:39 05.12.2019
2960 Clouds 4 988 80 10000 6.7 160 21:20 05.12.2019
2961 Clouds 4 988 80 10000 7.7 160 20:57 05.12.2019
2962 Clouds 4 988 80 10000 7.7 160 20:38 05.12.2019
2963 Clouds 4 988 80 10000 7.7 160 20:38 05.12.2019
2964 Clouds 4 989 80 10000 7.7 170 20:19 05.12.2019
2965 Clouds 4 989 80 10000 7.7 180 19:43 05.12.2019
2966 Clouds 4 989 80 10000 9.3 190 19:25 05.12.2019
2967 Clouds 4 989 80 10000 8.7 190 18:59 05.12.2019
2968 Clouds 4 989 80 10000 8.7 190 18:39 05.12.2019
2969 Clouds 4 989 80 10000 6.2 190 18:20 05.12.2019
2970 Clouds 4 989 81 10000 7.2 190 17:56 05.12.2019
2971 Clouds 4 989 81 10000 7.2 190 17:37 05.12.2019
2972 Clouds 4 989 80 10000 7.2 200 17:18 05.12.2019
2973 Clouds 3 990 77 10000 7.7 190 16:40 05.12.2019
2974 Clouds 3 990 77 10000 8.2 190 16:22 05.12.2019
2975 Clouds 5 991 77 10000 8.7 190 15:59 05.12.2019
2976 Clouds 5 991 77 10000 8.7 190 15:40 05.12.2019
2977 Clouds 6 991 80 10000 7.2 200 15:21 05.12.2019
2978 Clouds 6 992 80 10000 9.3 200 14:57 05.12.2019
2979 Clouds 5 992 80 10000 9.3 200 14:38 05.12.2019
2980 Clouds 3 992 86 10000 7.2 200 14:20 05.12.2019
2981 Clouds 3 993 72 10000 9.8 200 13:58 05.12.2019
2982 Clouds 3 993 71 10000 9.8 200 13:40 05.12.2019
2983 Clouds 3 993 72 10000 9.8 200 13:40 05.12.2019
2984 Clouds 4 993 71 10000 8.2 210 13:21 05.12.2019
2985 Clouds 3 994 86 10000 7.7 200 12:59 05.12.2019
2986 Clouds 3 994 86 10000 7.7 200 12:40 05.12.2019
2987 Clouds 3 994 80 10000 8.7 210 12:21 05.12.2019
2988 Clouds 2 995 80 10000 8.2 200 11:55 05.12.2019
2989 Clouds 3 995 80 10000 8.2 200 11:36 05.12.2019
2990 Clouds 4 995 86 10000 7.2 200 11:18 05.12.2019
2991 Clouds 4 995 86 10000 9.3 200 10:54 05.12.2019
2992 Clouds 4 995 86 10000 9.3 200 10:36 05.12.2019
2993 Clouds 4 996 86 10000 5.7 190 10:18 05.12.2019
2994 Clouds 3 996 86 10000 6.2 190 09:42 05.12.2019
2995 Clouds 4 997 86 10000 5.1 180 09:20 05.12.2019
2996 Clouds 3 997 93 10000 6.7 180 08:57 05.12.2019
2997 Clouds 3 997 93 10000 6.2 180 08:37 05.12.2019
2998 Clouds 3 997 93 10000 6.2 180 08:19 05.12.2019
2999 Clouds 3 998 93 10000 6.7 190 07:44 05.12.2019
3000 Clouds 3 998 93 10000 6.2 180 07:24 05.12.2019
3001 Clouds 4 998 93 10000 7.2 190 06:49 05.12.2019
3002 Clouds 4 998 93 10000 4.6 180 06:24 05.12.2019
3003 Clouds 4 999 93 10000 5.7 170 05:58 05.12.2019
3004 Clouds 4 999 93 10000 5.7 170 05:58 05.12.2019
3005 Clouds 4 999 93 10000 5.7 170 05:38 05.12.2019
3006 Clouds 3 999 93 10000 6.2 170 05:18 05.12.2019
3007 Clouds 3 1001 93 10000 6.7 170 03:43 05.12.2019
3008 Clouds 3 1001 93 10000 7.7 180 02:42 05.12.2019
3009 Clouds 3 1001 93 10000 5.7 170 02:23 05.12.2019
3010 Clouds 3 1001 100 10000 6.7 180 01:51 05.12.2019
3011 Clouds 3 1002 93 10000 7.2 180 01:24 05.12.2019
3012 Clouds 2 1002 93 10000 4.1 200 00:47 05.12.2019
3013 Clouds 2 1002 89 10000 6.2 200 00:24 05.12.2019
3014 Clouds 2 1002 89 10000 8.7 190 23:57 04.12.2019
3015 Clouds 2 1002 89 10000 8.7 190 23:38 04.12.2019
3016 Clouds 3 1002 86 10000 8.2 180 23:19 04.12.2019
3017 Clouds 3 1002 86 10000 9.8 180 22:39 04.12.2019
3018 Clouds 3 1003 86 10000 8.2 190 22:20 04.12.2019
3019 Clouds 3 1003 86 10000 8.7 210 21:58 04.12.2019
3020 Clouds 2 1003 86 10000 8.7 210 21:40 04.12.2019
3021 Clouds 2 1003 86 10000 7.7 200 21:21 04.12.2019
3022 Clouds 2 1003 86 10000 2.6 190 20:59 04.12.2019
3023 Clouds 2 1003 86 10000 2.6 190 20:41 04.12.2019
3024 Clouds 2 1004 87 10000 1.5 0 20:22 04.12.2019
3025 Clouds 2 1004 100 10000 3.6 0 19:59 04.12.2019
3026 Clouds 2 1004 93 9000 6.7 200 19:39 04.12.2019
3027 Clouds 2 1004 93 9000 6.7 200 19:20 04.12.2019
3028 Clouds 2 1005 100 9000 3.6 220 18:57 04.12.2019
3029 Clouds 2 1005 100 9000 3.6 220 18:39 04.12.2019
3030 Clouds 2 1005 87 9000 3.6 200 18:20 04.12.2019
3031 Fog 2 1005 100 7000 3.1 200 17:40 04.12.2019
3032 Fog 1 1005 100 2000 2.1 180 17:22 04.12.2019
3033 Fog 1 1005 100 1000 2.1 200 16:59 04.12.2019
3034 Fog 1 1005 100 1000 2.1 200 16:40 04.12.2019
3035 Fog 1 1006 100 300 3.1 200 16:20 04.12.2019
3036 Fog 1 1006 100 250 1.51 212 15:56 04.12.2019
3037 Fog 1 1006 100 250 1.51 212 15:38 04.12.2019
3038 Fog 1 1006 92 200 1 0 15:19 04.12.2019
3039 Fog 1 1006 92 300 1.51 212 14:44 04.12.2019
3040 Fog 1 1007 100 200 1.7 203 14:24 04.12.2019
3041 Fog 1 1007 100 300 0.5 0 13:59 04.12.2019
3042 Fog 1 1007 100 300 0.5 0 13:38 04.12.2019
3043 Fog 1 1007 100 300 1.5 195 13:20 04.12.2019
3044 Fog 1 1009 100 3100 2.6 130 12:45 04.12.2019
3045 Fog 0 1008 100 400 1.5 170 12:25 04.12.2019
3046 Fog 0 1008 92 400 2.1 210 11:57 04.12.2019
3047 Fog 0 1008 92 400 2.1 210 11:39 04.12.2019
3048 Fog 0 1008 92 200 1.5 100 11:21 04.12.2019
3049 Fog 0 1008 92 200 1.5 100 11:21 04.12.2019
3050 Fog -1 1010 91 250 2.1 150 10:44 04.12.2019
3051 Fog -1 1008 100 450 0.5 0 10:24 04.12.2019
3052 Fog -1 1008 100 300 1.5 190 09:57 04.12.2019
3053 Fog -1 1008 100 300 1.5 190 09:38 04.12.2019
3054 Fog -1 1007 100 900 1 0 09:20 04.12.2019
3055 Fog -1 1007 100 1600 1 0 08:41 04.12.2019
3056 Fog -1 1007 100 650 0.5 0 08:23 04.12.2019
3057 Fog -1 1007 100 550 0.5 0 07:50 04.12.2019
3058 Fog -1 1007 100 3000 1.5 170 07:30 04.12.2019
3059 Fog -1 1009 93 0 2.6 110 06:47 04.12.2019
3060 Fog -1 1009 100 0 0.5 0 06:25 04.12.2019
3061 Fog -2 1008 92 3000 0.33 234 05:42 04.12.2019
3062 Fog 0 1008 100 6000 1 220 04:31 04.12.2019
3063 Fog -1 1008 100 500 2.6 210 03:20 04.12.2019
3064 Fog 1 1008 92 6000 1.33 156 01:21 04.12.2019
3065 Fog 1 1007 100 6000 2.6 200 00:40 04.12.2019
3066 Fog 2 1007 100 7000 1.5 190 00:18 04.12.2019
3067 Fog 2 1007 100 7000 1.5 180 23:41 03.12.2019
3068 Fog 1 1007 92 8000 3.1 20 23:19 03.12.2019
3069 Fog 1 1007 100 7000 1 0 22:54 03.12.2019
3070 Fog 1 1007 100 7000 1 0 22:36 03.12.2019
3071 Clouds 1 1009 100 10000 1.5 170 22:18 03.12.2019
3072 Clouds 1 1009 100 10000 0.5 0 21:39 03.12.2019
3073 Fog 0 1007 100 6000 1 0 21:19 03.12.2019
3074 Clouds 1 1007 92 6000 0.5 0 20:58 03.12.2019
3075 Clouds 2 1009 93 10000 3.1 210 20:40 03.12.2019
3076 Clouds 1 1009 93 10000 3.1 210 20:19 03.12.2019
3077 Clouds 1 1009 93 10000 2.6 200 19:55 03.12.2019
3078 Clouds 1 1009 93 10000 2.6 200 19:55 03.12.2019
3079 Clouds 1 1009 93 10000 2.6 200 19:37 03.12.2019
3080 Clouds 1 1009 93 10000 4.1 210 19:19 03.12.2019
3081 Fog 1 1007 92 2500 1 0 18:56 03.12.2019
3082 Fog 1 1007 100 1100 1 0 18:38 03.12.2019
3083 Fog 1 1007 100 1100 1 0 18:20 03.12.2019
3084 Fog 0 1006 100 400 1.5 230 17:56 03.12.2019
3085 Fog 0 1006 100 700 0.32 28 17:36 03.12.2019
3086 Fog 0 1006 100 700 0.98 9 17:18 03.12.2019
3087 Fog 0 1006 100 900 1 0 16:56 03.12.2019
3088 Mist 0 1006 100 4000 1 0 16:38 03.12.2019
3089 Mist 0 1006 100 4000 1 0 16:19 03.12.2019
3090 Clouds 1 1006 100 6000 1 0 15:54 03.12.2019
3091 Clouds 1 1006 100 6000 1 0 15:36 03.12.2019
3092 Mist 1 1006 100 5000 1.5 300 15:18 03.12.2019
3093 Clouds 1 1006 100 10000 2.1 210 14:42 03.12.2019
3094 Clouds 1 1006 100 9000 4.6 170 14:20 03.12.2019
3095 Clouds 1 1006 100 9000 3.1 150 13:56 03.12.2019
3096 Clouds 0 1006 100 9000 3.1 150 13:36 03.12.2019
3097 Clouds 0 1007 100 8000 3.1 170 13:18 03.12.2019
3098 Clouds 1 1007 92 10000 3.1 140 12:41 03.12.2019
3099 Rain 1 1012 100 3000 3.1 200 12:18 03.12.2019
3100 Rain 1 1012 100 5000 3.1 200 11:58 03.12.2019
3101 -273 0 0 0 0 0 11:39 03.12.2019
3102 Rain -1 1013 93 5000 3.1 190 11:20 03.12.2019
3103 Rain -1 1013 93 7000 3.6 200 10:58 03.12.2019
3104 Rain -1 1013 93 7000 3.6 200 10:40 03.12.2019
3105 Rain -1 1013 86 7000 3.6 190 10:19 03.12.2019
3106 Rain -2 1014 86 10000 4.6 200 09:46 03.12.2019
3107 Snow -2 1012 92 8000 0.5 0 09:25 03.12.2019
3108 Drizzle -3 1014 86 7000 1.5 170 08:59 03.12.2019
3109 Drizzle -3 1014 86 7000 1.5 170 08:40 03.12.2019
3110 Snow -5 1012 92 10000 0.5 210 08:21 03.12.2019
3111 Clouds -4 1013 92 10000 0.5 0 07:53 03.12.2019
3112 -273 0 0 0 0 0 07:53 03.12.2019
3113 Clouds -5 1013 92 10000 0.4 238 07:30 03.12.2019
3114 Clouds -5 1016 92 0 2.1 190 06:59 03.12.2019
3115 Clouds -6 1015 92 10000 0.5 0 06:21 03.12.2019
3116 Clouds -6 1015 92 10000 0.4 238 05:56 03.12.2019
3117 Clouds -7 1016 92 10000 1 0 04:48 03.12.2019
3118 Clouds -7 1017 92 10000 0.36 232 03:23 03.12.2019
3119 Clouds -7 1017 85 10000 0.5 0 02:58 03.12.2019
3120 Clouds -7 1017 85 10000 0.5 0 02:40 03.12.2019
3121 Clouds -7 1017 92 10000 0.5 0 02:21 03.12.2019
3122 Clouds -6 1017 92 10000 0.5 0 01:41 03.12.2019
3123 Clouds -6 1018 92 10000 0.5 210 01:21 03.12.2019
3124 Clouds -7 1018 92 10000 0.78 227 00:43 03.12.2019
3125 Clouds -7 1017 85 10000 0.78 227 00:25 03.12.2019
3126 Clouds -7 1018 92 10000 0.5 0 23:44 02.12.2019
3127 Clouds -8 1020 92 0 1 0 23:23 02.12.2019
3128 Clouds -7 1018 92 10000 0.5 0 22:59 02.12.2019
3129 Clouds -7 1018 92 10000 0.5 0 22:39 02.12.2019
3130 Clouds -7 1018 92 10000 0.66 230 22:21 02.12.2019
3131 Clouds -7 1018 85 10000 0.66 230 21:57 02.12.2019
3132 Clouds -7 1018 85 10000 0.66 230 21:36 02.12.2019
3133 Clouds -7 1017 92 10000 0.5 0 21:36 02.12.2019
3134 Clouds -7 1017 92 10000 0.5 0 21:18 02.12.2019
3135 Clouds -6 1017 92 10000 0.5 0 20:55 02.12.2019
3136 Clouds -6 1017 92 10000 0.5 0 20:55 02.12.2019
3137 Clouds -6 1017 92 10000 0.5 0 20:55 02.12.2019
3138 Clouds -6 1017 92 10000 0.75 216 20:37 02.12.2019
3139 Clouds -7 1017 92 10000 0.46 317 20:18 02.12.2019
3140 Clouds -7 1017 92 10000 0.46 317 19:42 02.12.2019
3141 Clouds -7 1017 92 10000 1 0 19:21 02.12.2019
3142 Clouds -7 1017 92 10000 1 0 19:21 02.12.2019
3143 Clouds -6 1016 92 10000 0.5 0 18:57 02.12.2019
3144 Clouds -6 1016 92 10000 0.5 0 18:57 02.12.2019
3145 Clouds -6 1016 92 10000 0.5 0 18:57 02.12.2019
3146 Clouds -6 1016 92 10000 0.5 0 18:38 02.12.2019
3147 Clouds -6 1016 92 10000 1 200 18:18 02.12.2019
3148 Clouds -5 1018 92 10000 1 80 17:57 02.12.2019
3149 Clouds -5 1018 92 10000 1 80 17:57 02.12.2019
3150 Clouds -5 1018 92 10000 1 80 17:38 02.12.2019
3151 Clouds -6 1016 92 10000 0.5 0 17:18 02.12.2019
3152 Clouds -6 1017 92 10000 1.5 90 16:39 02.12.2019
3153 Fog -6 1015 92 10000 0.5 0 16:19 02.12.2019
3154 Clouds -5 1017 92 10000 2.1 300 15:57 02.12.2019
3155 Clouds -5 1017 92 10000 2.1 300 15:39 02.12.2019
3156 Clouds -5 1017 92 10000 1.5 60 15:21 02.12.2019
3157 Clouds -5 1017 92 10000 1 80 14:56 02.12.2019
3158 Clouds -5 1017 92 10000 1 80 14:37 02.12.2019
3159 Clouds -5 1017 92 10000 1 60 14:19 02.12.2019
3160 Clouds -5 1017 92 10000 1 20 13:55 02.12.2019
3161 Clouds -5 1017 92 10000 1 20 13:55 02.12.2019
3162 Clouds -5 1016 92 10000 1.5 70 13:37 02.12.2019
3163 Clouds -5 1016 92 10000 1.5 70 13:18 02.12.2019
3164 Clouds -5 1016 92 10000 0.5 0 12:42 02.12.2019
3165 Clouds -4 1016 92 10000 1.5 50 12:21 02.12.2019
3166 Clouds -4 1016 92 10000 1.5 50 12:21 02.12.2019
3167 Clouds -5 1016 92 10000 1 40 11:58 02.12.2019
3168 Clouds -5 1016 92 10000 1 40 11:38 02.12.2019
3169 Fog -6 1013 92 10000 0.5 0 11:19 02.12.2019
3170 Fog -7 1013 92 10000 0.94 310 10:57 02.12.2019
3171 Fog -7 1013 92 10000 0.94 310 10:39 02.12.2019
3172 Fog -8 1013 92 10000 1 0 10:21 02.12.2019
3173 Fog -8 1012 92 10000 1 0 09:56 02.12.2019
3174 Fog -8 1012 92 10000 1 0 09:38 02.12.2019
3175 Fog -8 1012 85 5000 1 0 09:18 02.12.2019
3176 Fog -8 1012 92 2000 0.94 310 08:42 02.12.2019
3177 Fog -8 1012 92 3500 1.14 271 08:23 02.12.2019
3178 Fog -8 1012 92 4000 0.5 0 07:59 02.12.2019
3179 Fog -8 1012 92 8000 1.29 280 07:38 02.12.2019
3180 Fog -8 1012 92 8000 1.29 280 07:19 02.12.2019
3181 Fog -8 1012 92 2000 1 0 06:40 02.12.2019
3182 Fog -8 1012 92 10000 1.29 280 05:45 02.12.2019
3183 Clouds -8 1014 92 0 1 10 05:18 02.12.2019
3184 Clouds -7 1014 92 0 1.5 60 03:19 02.12.2019
3185 Clouds -7 1013 92 0 1.5 50 02:47 02.12.2019
3186 Fog -7 1012 92 500 1 0 01:47 02.12.2019
3187 Fog -8 1012 100 0 0.5 0 01:20 02.12.2019
3188 Fog -7 1012 92 400 1 360 00:37 02.12.2019
3189 Fog -7 1012 100 0 1.5 300 00:19 02.12.2019
3190 Fog -7 1011 100 300 1 0 23:42 01.12.2019
3191 Fog -6 1011 100 0 1 0 23:21 01.12.2019
3192 Fog -6 1011 92 6000 0.5 0 22:56 01.12.2019
3193 Fog -6 1011 92 6000 0.5 0 22:38 01.12.2019
3194 Clouds -6 1011 92 10000 0.5 0 22:19 01.12.2019
3195 Clouds -5 1011 85 10000 0.5 0 21:56 01.12.2019
3196 Clouds -5 1011 85 10000 0.5 0 21:56 01.12.2019
3197 Clouds -6 1011 85 10000 0.5 0 21:38 01.12.2019
3198 Clouds -6 1011 92 10000 1.5 350 21:19 01.12.2019
3199 Clouds -6 1011 92 10000 1.5 300 20:58 01.12.2019
3200 Clouds -6 1011 92 10000 1.5 300 20:39 01.12.2019
3201 Clouds -6 1010 85 10000 1.5 30 20:21 01.12.2019
3202 Clouds -6 1010 85 10000 2.1 40 19:57 01.12.2019
3203 Clouds -6 1010 85 10000 2.1 40 19:38 01.12.2019
3204 Clouds -6 1010 92 10000 1.5 320 19:20 01.12.2019
3205 Clouds -6 1010 92 10000 0.5 0 18:55 01.12.2019
3206 Clouds -5 1010 92 10000 0.5 0 18:37 01.12.2019
3207 Clouds -5 1010 92 10000 0.5 0 18:37 01.12.2019
3208 Clouds -5 1010 92 10000 0.5 0 18:37 01.12.2019
3209 Clouds -5 1010 92 10000 1 0 18:18 01.12.2019
3210 Clouds -6 1010 92 10000 0.98 7 17:56 01.12.2019
3211 Clouds -5 1010 92 10000 1 0 17:38 01.12.2019
3212 Clouds -5 1010 92 10000 1 0 17:19 01.12.2019
3213 Clouds -5 1010 92 10000 1 0 16:44 01.12.2019
3214 Clouds -5 1010 85 10000 1 0 16:25 01.12.2019
3215 Clouds -5 1010 92 10000 1 0 15:58 01.12.2019
3216 Clouds -5 1010 92 10000 1 0 15:58 01.12.2019
3217 Clouds -5 1010 92 10000 1 0 15:40 01.12.2019
3218 Clouds -5 1010 92 10000 1 0 15:40 01.12.2019
3219 Clouds -5 1010 92 10000 0.5 0 15:22 01.12.2019
3220 Clouds -5 1010 92 10000 0.5 0 15:22 01.12.2019
3221 Clouds -5 1010 92 10000 1 0 14:38 01.12.2019
3222 Clouds -5 1010 92 10000 1.5 40 14:19 01.12.2019
3223 Clouds -5 1011 92 10000 1.5 260 13:40 01.12.2019
3224 Clouds -5 1011 92 10000 1 0 13:22 01.12.2019
3225 Clouds -4 1014 80 0 2.1 230 12:58 01.12.2019
3226 Clouds -4 1014 80 0 2.1 230 12:40 01.12.2019
3227 Clouds -4 1014 86 0 1.5 170 12:40 01.12.2019
3228 Clouds -4 1014 86 0 1.5 170 12:40 01.12.2019
3229 Clouds -4 1014 86 0 1.5 170 12:40 01.12.2019
3230 Clouds -4 1014 80 0 2.1 230 12:40 01.12.2019
3231 Clouds -5 1012 92 10000 1 0 11:46 01.12.2019
3232 Clouds -5 1012 92 10000 0.5 0 11:24 01.12.2019
3233 Clouds -7 1012 92 10000 1.09 234 10:57 01.12.2019
3234 Clouds -7 1012 92 10000 1.09 234 10:39 01.12.2019
3235 Clouds -7 1012 85 10000 1 0 10:19 01.12.2019
3236 Clouds -8 1012 92 10000 1 0 09:41 01.12.2019
3237 Clouds -8 1012 92 10000 1 0 09:22 01.12.2019
3238 Clouds -8 1012 85 10000 0.5 0 08:55 01.12.2019
3239 Clouds -8 1012 85 10000 0.5 0 08:36 01.12.2019
3240 Clouds -8 1015 92 0 1.5 90 08:18 01.12.2019
3241 Fog -8 1013 92 10000 0.65 271 07:43 01.12.2019
3242 Fog -8 1013 92 10000 1 0 07:23 01.12.2019
3243 Mist -8 1013 92 5000 0.65 271 06:51 01.12.2019
3244 Clouds -9 1016 85 0 1 110 05:58 01.12.2019
3245 Fog -9 1014 100 1000 1 0 04:55 01.12.2019
3246 Clouds -9 1017 92 0 1.5 100 04:27 01.12.2019
3247 Fog -9 1015 92 10000 0.39 300 02:44 01.12.2019
3248 Fog -9 1016 84 10000 1 0 02:26 01.12.2019
3249 Fog -9 1016 85 10000 1 0 01:53 01.12.2019
3250 Fog -9 1016 92 10000 1 0 01:30 01.12.2019
3251 Fog -9 1016 92 10000 1 0 00:45 01.12.2019
3252 Fog -9 1016 92 10000 1.5 210 00:26 01.12.2019
3253 Fog -9 1016 92 10000 1.5 170 23:47 30.11.2019
3254 Fog -9 1016 92 10000 1 0 23:25 30.11.2019
3255 Fog -9 1016 92 10000 0.63 247 22:59 30.11.2019
3256 Fog -9 1016 92 10000 0.63 247 22:39 30.11.2019
3257 Clouds -9 1017 92 10000 1.5 230 22:20 30.11.2019
3258 Clouds -9 1017 92 10000 1.5 230 22:20 30.11.2019
3259 Clear -9 1017 92 10000 1 0 21:47 30.11.2019
3260 Clear -9 1017 92 10000 0.63 247 21:28 30.11.2019
3261 Clear -8 1017 92 10000 1.5 150 20:58 30.11.2019
3262 Clear -8 1017 92 10000 1.5 150 20:40 30.11.2019
3263 Clear -8 1017 92 10000 1.5 140 20:19 30.11.2019
3264 Clear -8 1016 92 10000 1.5 200 19:57 30.11.2019
3265 Clear -7 1016 92 10000 1.5 200 19:39 30.11.2019
3266 Clear -7 1016 92 10000 1.5 200 19:39 30.11.2019
3267 Clear -7 1016 92 10000 1 0 19:20 30.11.2019
3268 Clear -7 1016 92 10000 1 0 18:59 30.11.2019
3269 Clear -7 1016 92 10000 0.5 0 18:38 30.11.2019
3270 Clear -7 1016 85 10000 1 0 18:20 30.11.2019
3271 Clear -7 1016 85 10000 1 0 17:58 30.11.2019
3272 Clear -7 1016 85 10000 1 0 17:39 30.11.2019
3273 Clear -7 1016 92 10000 1.5 160 17:21 30.11.2019
3274 Clear -6 1016 79 10000 1 0 16:58 30.11.2019
3275 Clear -6 1016 79 10000 1 0 16:40 30.11.2019
3276 Clear -5 1015 79 10000 1.5 60 16:20 30.11.2019
3277 Clear -5 1015 85 10000 1.5 330 15:42 30.11.2019
3278 Clear -4 1015 79 10000 1 0 15:20 30.11.2019
3279 Clear -4 1015 73 10000 1 0 14:58 30.11.2019
3280 Clear -4 1015 73 10000 1 0 14:38 30.11.2019
3281 Clear -3 1015 79 10000 1.5 350 14:19 30.11.2019
3282 Clear -4 1014 79 10000 1.5 0 13:58 30.11.2019
3283 Clear -4 1014 79 10000 1.5 0 13:38 30.11.2019
3284 Clear -3 1014 73 10000 2.1 350 13:20 30.11.2019
3285 Clear -3 1014 73 10000 2.1 350 12:47 30.11.2019
3286 Clear -4 1013 79 10000 2.1 320 12:29 30.11.2019
3287 Clear -4 1013 85 10000 2.1 340 11:58 30.11.2019
3288 Clear -4 1013 85 10000 2.1 340 11:58 30.11.2019
3289 Clear -4 1013 85 10000 2.1 340 11:40 30.11.2019
3290 Clear -6 1013 92 10000 1.5 360 11:18 30.11.2019
3291 Clear -7 1012 92 10000 1.5 320 10:45 30.11.2019
3292 Clear -7 1012 92 10000 2.6 330 10:21 30.11.2019
3293 Clear -7 1012 85 10000 2.6 320 09:59 30.11.2019
3294 Clear -7 1012 85 10000 2.6 320 09:41 30.11.2019
3295 Clear -8 1011 92 10000 2.6 340 09:20 30.11.2019
3296 Clear -8 1011 92 10000 2.1 350 08:41 30.11.2019
3297 Clouds -7 1010 100 10000 2.1 350 08:19 30.11.2019
3298 Clouds -7 1010 100 10000 1.5 360 07:44 30.11.2019
3299 Clouds -7 1010 100 10000 0.81 304 07:25 30.11.2019
3300 Clouds -7 1010 100 10000 2.1 200 06:49 30.11.2019
3301 Clouds -7 1009 92 10000 1.5 180 06:28 30.11.2019
3302 Clouds -7 1009 92 10000 1 0 05:30 30.11.2019
3303 Clouds -5 1009 85 10000 0.93 337 03:40 30.11.2019
3304 Clouds -5 1008 79 10000 2.1 30 02:39 30.11.2019
3305 Clear -5 1008 79 10000 2.1 30 02:20 30.11.2019
3306 Clouds -4 1008 79 10000 2.1 310 01:25 30.11.2019
3307 Clouds -5 1008 85 10000 1.5 280 00:47 30.11.2019
3308 Clouds -5 1007 85 10000 1.5 250 00:28 30.11.2019
3309 Clouds -5 1007 85 10000 1 0 23:55 29.11.2019
3310 Clouds -4 1007 85 10000 1 0 23:37 29.11.2019
3311 Clear -4 1007 85 10000 1 0 23:18 29.11.2019
3312 Clear -4 1006 79 10000 1 0 22:39 29.11.2019
3313 Clear -3 1006 73 10000 2.1 310 22:21 29.11.2019
3314 Clear -3 1006 79 10000 2.1 340 21:42 29.11.2019
3315 Clear -3 1005 73 10000 2.1 350 21:22 29.11.2019
3316 Clear -3 1005 73 10000 2.6 330 20:57 29.11.2019
3317 Clear -3 1005 73 10000 2.6 330 20:37 29.11.2019
3318 Clear -3 1005 73 10000 3.1 320 20:18 29.11.2019
3319 Clear -3 1004 79 10000 3.1 310 19:56 29.11.2019
3320 Clear -3 1004 79 10000 3.1 310 19:38 29.11.2019
3321 Clear -3 1004 79 10000 3.1 300 19:19 29.11.2019
3322 Clear -3 1004 79 10000 3.6 310 18:54 29.11.2019
3323 Clear -2 1004 79 10000 3.6 310 18:36 29.11.2019
3324 Clear -3 1003 79 10000 2.6 330 18:18 29.11.2019
3325 Clear -3 1002 79 10000 3.1 320 17:41 29.11.2019
3326 Clear -2 1002 74 10000 3.6 310 17:22 29.11.2019
3327 Clear -3 1002 74 10000 2.6 310 16:44 29.11.2019
3328 Clear -2 1001 74 10000 2.6 350 16:21 29.11.2019
3329 Clear -2 1001 74 10000 3.1 330 15:59 29.11.2019
3330 Clear -2 1001 74 10000 3.1 330 15:59 29.11.2019
3331 Clear -2 1001 74 10000 3.1 330 15:39 29.11.2019
3332 Clear -1 1000 74 10000 3.6 300 15:21 29.11.2019
3333 Clear -1 1000 74 10000 3.6 310 14:41 29.11.2019
3334 Clear -1 1000 68 10000 4.1 310 14:22 29.11.2019
3335 Clear -1 999 74 10000 3.1 350 13:58 29.11.2019
3336 Clear -1 999 74 10000 3.1 350 13:38 29.11.2019
3337 Clear -1 999 68 10000 1.5 0 13:20 29.11.2019
3338 Clear -1 999 63 10000 2.1 280 12:44 29.11.2019
3339 Clear -1 999 68 10000 3.1 310 12:25 29.11.2019
3340 Clear -1 998 68 10000 3.6 340 11:59 29.11.2019
3341 Clear -1 998 68 10000 3.6 340 11:40 29.11.2019
3342 Clear -2 998 73 10000 3.1 350 11:19 29.11.2019
3343 Clear -2 997 73 10000 2.1 310 10:58 29.11.2019
3344 Clear -2 997 73 10000 2.1 310 10:39 29.11.2019
3345 Clear -2 997 63 10000 2.6 360 10:21 29.11.2019
3346 Clear -3 997 73 10000 2.1 340 09:59 29.11.2019
3347 Clear -3 997 73 10000 2.1 340 09:40 29.11.2019
3348 Clear -3 996 79 10000 2.6 10 09:22 29.11.2019
3349 Clear -3 996 73 10000 3.6 360 08:57 29.11.2019
3350 Clear -3 996 73 10000 4.1 20 08:37 29.11.2019
3351 Clouds -3 996 73 10000 4.1 20 08:19 29.11.2019
3352 Clouds -3 995 73 10000 4.1 360 07:42 29.11.2019
3353 Clouds -3 995 79 10000 2.6 330 07:23 29.11.2019
3354 Clouds -3 994 79 10000 2.1 350 06:54 29.11.2019
3355 Clouds -3 994 79 10000 2.1 350 06:35 29.11.2019
3356 Clouds -2 994 68 10000 6.2 350 05:46 29.11.2019
3357 Clouds -2 993 74 10000 5.7 350 05:23 29.11.2019
3358 Clouds -2 993 74 10000 5.7 350 05:23 29.11.2019
3359 Clouds -2 992 74 10000 5.1 350 03:43 29.11.2019
3360 Clouds -2 992 74 10000 3.1 340 03:19 29.11.2019
3361 Clouds -2 991 74 10000 4.1 340 02:25 29.11.2019
3362 Clouds -1 991 74 10000 4.1 340 01:49 29.11.2019
3363 Clouds -1 991 79 10000 5.1 350 01:23 29.11.2019
3364 Clouds -1 991 79 10000 5.1 350 01:23 29.11.2019
3365 Clouds -1 991 79 10000 6.2 350 00:40 29.11.2019
3366 Clouds -1 990 74 10000 6.2 360 00:20 29.11.2019
3367 Clouds 0 990 80 10000 5.7 360 23:42 28.11.2019
3368 Snow 0 990 80 10000 8.2 360 23:21 28.11.2019
3369 Snow 0 989 80 10000 7.2 360 22:57 28.11.2019
3370 Snow 0 989 80 10000 8.2 360 22:37 28.11.2019
3371 Snow 0 989 80 10000 8.2 360 22:37 28.11.2019
3372 Snow -1 989 80 10000 8.2 360 22:19 28.11.2019
3373 Snow 0 989 86 10000 6.7 10 21:55 28.11.2019
3374 Snow 0 989 86 10000 6.7 10 21:36 28.11.2019
3375 Snow 0 988 86 10000 7.2 10 21:18 28.11.2019
3376 Snow 0 988 92 10000 6.7 360 20:42 28.11.2019
3377 Snow 0 988 92 8000 8.2 10 20:22 28.11.2019
3378 Snow 0 988 92 6000 7.7 10 19:58 28.11.2019
3379 Snow 0 988 92 6000 7.7 10 19:40 28.11.2019
3380 Snow -1 988 92 7000 7.2 10 19:22 28.11.2019
3381 Snow 0 988 92 5000 7.2 10 18:59 28.11.2019
3382 Snow 0 988 92 5000 7.2 10 18:39 28.11.2019
3383 Snow 0 987 92 5000 6.7 360 18:18 28.11.2019
3384 Snow 0 987 92 4400 7.7 10 17:59 28.11.2019
3385 Snow 0 987 92 4400 7.7 10 17:40 28.11.2019
3386 Snow 0 987 100 4700 7.2 360 17:21 28.11.2019
3387 Snow 0 987 92 5000 7.2 10 16:55 28.11.2019
3388 Snow 0 987 92 5000 7.2 10 16:37 28.11.2019
3389 Snow 0 987 100 3000 6.7 10 16:18 28.11.2019
3390 Snow 0 986 100 1700 6.2 360 15:41 28.11.2019
3391 Snow 0 986 100 2200 6.2 360 15:20 28.11.2019
3392 Snow 0 986 100 2100 6.2 360 14:58 28.11.2019
3393 Snow 0 986 100 2100 6.2 360 14:40 28.11.2019
3394 Snow 0 986 100 1300 6.2 10 14:21 28.11.2019
3395 Snow 0 986 100 3500 6.2 360 13:56 28.11.2019
3396 Snow 0 986 100 3500 6.2 360 13:38 28.11.2019
3397 Snow 0 987 100 4000 6.2 10 13:19 28.11.2019
3398 Snow 0 987 100 1900 5.7 360 12:42 28.11.2019
3399 Snow 0 987 100 3900 5.7 10 12:23 28.11.2019
3400 Snow 0 987 100 2400 5.1 360 11:57 28.11.2019
3401 Snow 0 987 100 2400 5.1 360 11:57 28.11.2019
3402 Snow 0 987 100 2400 5.1 360 11:39 28.11.2019
3403 Snow 0 987 100 1200 5.1 360 11:20 28.11.2019
3404 Snow 0 987 100 1500 4.6 360 10:43 28.11.2019
3405 Snow 0 987 100 1300 4.1 360 10:22 28.11.2019
3406 Snow 0 988 100 2600 4.38 16 09:59 28.11.2019
3407 Snow 0 988 100 2600 4.38 16 09:40 28.11.2019
3408 Snow 0 988 100 2100 4.38 16 09:20 28.11.2019
3409 Snow 0 988 100 2100 4.38 16 09:20 28.11.2019
3410 Snow 0 988 100 3000 4.38 16 08:54 28.11.2019
3411 Snow 0 988 100 3000 4.5 16 08:36 28.11.2019
3412 Snow 0 988 96 3400 3.94 17 08:18 28.11.2019
3413 Snow 0 988 96 3700 3.94 17 07:41 28.11.2019
3414 Snow 0 988 96 3400 3.94 17 07:23 28.11.2019
3415 Snow 0 988 96 4000 3.94 17 06:43 28.11.2019
3416 Snow 0 989 96 8000 3.94 17 06:18 28.11.2019
3417 Snow 0 989 96 5000 3.94 17 05:44 28.11.2019
3418 Snow 0 990 96 6000 3.55 18 04:54 28.11.2019
3419 Snow 0 992 96 4100 3.55 18 02:33 28.11.2019
3420 Snow 1 993 95 6000 3.62 15 01:28 28.11.2019
3421 Snow 1 993 95 8000 3.62 15 00:42 28.11.2019
3422 Snow 1 994 95 8000 3.62 15 00:20 28.11.2019
3423 Clouds 1 994 95 9000 4.1 10 23:40 27.11.2019
3424 Snow 1 995 94 9000 3.6 10 23:21 27.11.2019
3425 Clouds 1 995 94 10000 3.1 20 22:58 27.11.2019
3426 Snow 1 995 94 10000 3.6 10 22:38 27.11.2019
3427 Snow 1 995 94 10000 3.6 10 22:19 27.11.2019
3428 Snow 1 996 94 10000 2.6 20 21:56 27.11.2019
3429 Snow 1 996 94 10000 2.6 20 21:37 27.11.2019
3430 Snow 1 996 94 9000 3.6 10 21:19 27.11.2019
3431 Snow 1 996 94 9000 3.1 20 20:57 27.11.2019
3432 Snow 1 996 94 9000 3.1 20 20:57 27.11.2019
3433 Snow 1 996 94 9000 3.1 20 20:38 27.11.2019
3434 Clouds 1 996 94 10000 3.1 10 20:19 27.11.2019
3435 Clouds 1 997 94 10000 3.1 10 19:56 27.11.2019
3436 Clouds 1 997 94 10000 3.1 10 19:38 27.11.2019
3437 Clouds 1 997 94 10000 3.1 360 19:19 27.11.2019
3438 Snow 1 997 94 10000 3.6 10 18:58 27.11.2019
3439 Snow 1 997 94 10000 3.6 10 18:36 27.11.2019
3440 Clouds 1 997 94 10000 2.6 360 18:18 27.11.2019
3441 Clouds 1 998 94 10000 2.1 20 17:55 27.11.2019
3442 Clouds 1 998 94 10000 2.1 20 17:37 27.11.2019
3443 Clouds 1 998 96 10000 2.6 10 17:18 27.11.2019
3444 Clouds 1 998 96 10000 2.6 360 16:55 27.11.2019
3445 Clouds 1 998 96 10000 2.6 360 16:55 27.11.2019
3446 Clouds 1 998 96 10000 2.6 360 16:36 27.11.2019
3447 Clouds 1 998 96 10000 2.6 10 16:18 27.11.2019
3448 Clouds 1 998 96 10000 3.6 10 15:56 27.11.2019
3449 Clouds 1 998 96 10000 3.6 10 15:56 27.11.2019
3450 Clouds 1 998 96 10000 3.6 10 15:38 27.11.2019
3451 Clouds 1 998 96 10000 3.6 10 15:20 27.11.2019
3452 Clouds 1 999 96 10000 3.1 10 14:56 27.11.2019
3453 Clouds 1 999 96 10000 3.1 10 14:38 27.11.2019
3454 Clouds 1 999 93 10000 3.6 20 14:19 27.11.2019
3455 Clouds 1 999 93 10000 3.6 20 14:19 27.11.2019
3456 Clouds 1 999 93 10000 4.6 10 13:55 27.11.2019
3457 Snow 1 999 92 8000 3.6 20 13:37 27.11.2019
3458 Snow 1 999 92 8000 3.6 20 13:18 27.11.2019
3459 Snow 1 999 92 8000 3.6 20 13:18 27.11.2019
3460 Snow 1 1000 92 8000 3.6 10 12:41 27.11.2019
3461 Snow 1 1000 92 8000 3.1 10 12:22 27.11.2019
3462 Snow 1 1000 92 4000 3.1 10 11:57 27.11.2019
3463 Snow 1 1000 86 8000 3.1 20 11:37 27.11.2019
3464 Snow 1 1000 96 10000 3.1 10 11:18 27.11.2019
3465 Snow 1 1000 96 10000 3.1 10 10:46 27.11.2019
3466 Snow 1 1000 96 10000 3.1 10 10:46 27.11.2019
3467 Clouds 1 1000 96 10000 3.1 10 10:24 27.11.2019
3468 Clouds 1 1000 96 10000 3.1 20 09:58 27.11.2019
3469 Clouds 1 1000 96 10000 3.1 20 09:39 27.11.2019
3470 Clouds 1 1000 96 10000 2.6 360 09:21 27.11.2019
3471 Clouds 1 1000 96 10000 3.1 360 08:42 27.11.2019
3472 Clouds 1 1000 98 10000 2.6 10 08:23 27.11.2019
3473 Clouds 1 1000 98 10000 3.1 10 07:51 27.11.2019
3474 Clouds 1 1000 98 10000 4.1 10 07:30 27.11.2019
3475 Clouds 1 1000 98 10000 3.6 20 06:58 27.11.2019
3476 Clouds 1 1000 98 10000 2.6 20 06:39 27.11.2019
3477 Clouds 0 1000 98 10000 2.6 20 05:55 27.11.2019
3478 Snow 1 1000 97 10000 2.1 10 05:26 27.11.2019
3479 Snow 1 1001 97 10000 1.5 10 04:55 27.11.2019
3480 Snow 1 1001 97 7000 2.1 20 04:36 27.11.2019
3481 Snow 1 1001 97 9000 2.1 10 03:48 27.11.2019
3482 Snow 0 1001 97 8000 2.1 10 03:21 27.11.2019
3483 Snow 0 1001 97 6000 2.1 10 02:42 27.11.2019
3484 Snow 0 1002 98 3600 2.1 10 01:25 27.11.2019
3485 Snow 0 1002 98 3600 2.1 20 00:42 27.11.2019
3486 Snow 0 1002 98 3200 2.1 20 00:23 27.11.2019
3487 Snow 0 1002 98 3000 2.6 10 23:42 26.11.2019
3488 Snow 0 1002 98 3500 2.1 10 23:24 26.11.2019
3489 Snow 0 1002 98 3300 1.5 10 22:55 26.11.2019
3490 Snow 0 1002 98 3300 1.5 10 22:37 26.11.2019
3491 Snow 0 1003 98 3000 1.5 20 22:18 26.11.2019
3492 Snow 0 1003 98 3700 2.1 20 21:39 26.11.2019
3493 Snow 0 1003 98 3300 2.1 20 21:21 26.11.2019
3494 Snow 0 1003 98 3500 2.1 20 20:57 26.11.2019
3495 Snow 0 1003 98 3500 2.1 20 20:39 26.11.2019
3496 Snow 0 1003 98 4500 2.6 10 20:19 26.11.2019
3497 Snow 0 1003 98 4000 2.1 20 19:56 26.11.2019
3498 Mist 1 1004 98 4500 2.1 30 19:38 26.11.2019
3499 Mist 0 1004 98 4500 2.1 30 19:20 26.11.2019
3500 Clouds 1 1004 98 9000 2.6 30 18:58 26.11.2019
3501 Clouds 1 1004 98 9000 2.6 30 18:39 26.11.2019
3502 Clouds 1 1004 98 9000 3.1 30 18:21 26.11.2019
3503 Clouds 1 1004 98 9000 3.1 30 17:59 26.11.2019
3504 Rain 1 1004 98 9000 2.6 30 17:40 26.11.2019
3505 Rain 1 1004 97 9000 2.6 30 17:22 26.11.2019
3506 Rain 1 1004 97 9000 2.1 20 16:57 26.11.2019
3507 Rain 1 1004 97 9000 2.1 20 16:38 26.11.2019
3508 Rain 1 1005 97 10000 1.5 10 16:19 26.11.2019
3509 Drizzle 1 1005 97 10000 1.5 20 15:59 26.11.2019
3510 Drizzle 1 1005 97 10000 1.5 20 15:38 26.11.2019
3511 Clouds 1 1005 97 10000 2.1 50 15:20 26.11.2019
3512 Snow 1 1005 97 7000 1.5 30 14:51 26.11.2019
3513 Clouds 1 1005 97 7000 1.5 360 14:26 26.11.2019
3514 Snow 1 1006 97 9000 1 350 13:59 26.11.2019
3515 Snow 1 1006 97 9000 1 350 13:40 26.11.2019
3516 Snow 1 1006 93 2400 1.5 10 13:22 26.11.2019
3517 Snow 1 1007 93 5000 1 10 12:40 26.11.2019
3518 Snow 1 1007 93 5000 1 10 12:22 26.11.2019
3519 Snow 1 1007 93 6000 1 0 11:59 26.11.2019
3520 Snow 1 1007 93 8000 0.5 360 11:40 26.11.2019
3521 Snow 1 1007 95 8000 0.5 360 11:20 26.11.2019
3522 Snow 1 1007 95 6000 0.5 360 10:59 26.11.2019
3523 Snow 1 1007 95 6000 0.5 360 10:41 26.11.2019
3524 Snow 1 1007 95 7000 1 360 10:21 26.11.2019
3525 Snow 1 1008 95 7000 0.5 30 09:58 26.11.2019
3526 Snow 1 1008 95 7000 0.5 30 09:38 26.11.2019
3527 Snow 1 1008 95 7000 1 10 09:20 26.11.2019
3528 Snow 1 1008 95 9000 1 10 08:46 26.11.2019
3529 Clouds 1 1008 95 8000 1 360 08:26 26.11.2019
3530 Clouds 1 1008 97 7000 0.95 3 07:48 26.11.2019
3531 Snow 1 1009 97 4000 0.95 3 07:29 26.11.2019
3532 Snow 1 1009 97 3700 0.95 3 06:59 26.11.2019
3533 Snow 1 1009 97 3700 1 330 06:40 26.11.2019
3534 Mist 1 1009 97 2300 0.95 3 05:54 26.11.2019
3535 Mist 1 1010 96 2100 1 11 04:47 26.11.2019
3536 Mist 1 1011 96 1800 1 11 02:53 26.11.2019
3537 Mist 1 1011 97 2000 0.65 44 01:35 26.11.2019
3538 Mist 1 1012 97 5000 0.65 44 00:53 26.11.2019
3539 Mist 1 1012 97 5000 0.5 0 00:33 26.11.2019
3540 Mist 1 1013 97 5000 0.65 44 23:56 25.11.2019
3541 Clouds 1 1013 97 8000 0.5 340 23:37 25.11.2019
3542 Clouds 1 1013 97 8000 0.5 340 23:18 25.11.2019
3543 Clouds 1 1013 97 8000 0.86 33 22:39 25.11.2019
3544 Clouds 1 1013 97 6000 0.86 33 22:19 25.11.2019
3545 Mist 1 1013 97 5000 0.86 33 21:59 25.11.2019
3546 Mist 1 1013 97 5000 0.86 33 21:40 25.11.2019
3547 Mist 1 1013 97 4200 0.86 33 21:22 25.11.2019
3548 Snow 1 1014 97 5000 0.5 330 20:58 25.11.2019
3549 Snow 1 1014 97 3300 1 0 20:40 25.11.2019
3550 Snow 1 1014 97 5000 0.5 330 20:40 25.11.2019
3551 Snow 1 1014 97 3300 1 0 20:20 25.11.2019
3552 Snow 1 1014 97 3300 1 0 20:20 25.11.2019
3553 Mist 1 1014 97 3900 0.93 13 19:56 25.11.2019
3554 Mist 1 1014 97 3900 0.93 13 19:38 25.11.2019
3555 Drizzle 1 1014 97 3700 0.5 0 19:19 25.11.2019
3556 Fog 1 1014 100 2800 1 0 18:57 25.11.2019
3557 Fog 1 1014 97 4300 1.5 0 18:39 25.11.2019
3558 Fog 1 1014 97 4300 1.5 0 18:21 25.11.2019
3559 Fog 1 1014 100 3800 1.5 0 17:58 25.11.2019
3560 Fog 2 1014 100 3800 1.5 0 17:39 25.11.2019
3561 Drizzle 2 1015 100 2100 1.5 50 17:21 25.11.2019
3562 Drizzle 2 1015 100 2700 1.5 30 16:58 25.11.2019
3563 Drizzle 2 1015 100 2700 1.5 30 16:40 25.11.2019
3564 Drizzle 2 1015 100 2700 1 0 16:22 25.11.2019
3565 Drizzle 2 1015 100 1700 1.5 30 15:56 25.11.2019
3566 Fog 2 1015 93 1200 2.6 30 15:37 25.11.2019
3567 Fog 2 1015 93 1200 2.6 30 15:19 25.11.2019
3568 Fog 2 1015 100 1300 2.1 20 14:43 25.11.2019
3569 Fog 2 1016 100 900 1.5 20 14:25 25.11.2019
3570 Fog 2 1016 100 900 1.5 20 13:57 25.11.2019
3571 Fog 2 1016 100 900 1.5 20 13:57 25.11.2019
3572 Fog 2 1016 100 900 1.5 20 13:57 25.11.2019
3573 Fog 2 1016 100 900 1.5 20 13:37 25.11.2019
3574 Mist 1 1016 93 1200 1.5 30 13:18 25.11.2019
3575 Mist 1 1016 93 1800 1.5 20 12:58 25.11.2019
3576 Drizzle 1 1016 93 5000 1.5 30 12:39 25.11.2019
3577 Drizzle 1 1016 93 5000 1.5 30 12:19 25.11.2019
3578 Fog 1 1017 93 10000 1 350 11:40 25.11.2019
3579 Fog 1 1017 91 10000 1 350 11:21 25.11.2019
3580 Fog 1 1017 91 9000 1 0 10:59 25.11.2019
3581 Fog 1 1017 91 9000 1 0 10:41 25.11.2019
3582 Fog 1 1017 91 9000 1.5 40 10:20 25.11.2019
3583 Fog 1 1017 91 9000 0.5 0 09:44 25.11.2019
3584 Mist 1 1017 91 5000 1 0 09:26 25.11.2019
3585 Rain 1 1017 91 5000 1 0 08:58 25.11.2019
3586 Rain 1 1017 91 5000 1 0 08:38 25.11.2019
3587 Rain 1 1017 93 5000 0.5 0 08:19 25.11.2019
3588 Mist 1 1017 93 3500 1 0 07:40 25.11.2019
3589 Rain 1 1017 93 1800 1 0 07:18 25.11.2019
3590 Drizzle 1 1017 93 1100 1 0 06:39 25.11.2019
3591 Mist 1 1017 93 1900 1.5 100 06:19 25.11.2019
3592 Clouds 1 1017 93 10000 0.5 0 05:33 25.11.2019
3593 Clouds 1 1017 91 10000 0.5 0 04:50 25.11.2019
3594 Rain 2 1018 91 10000 1.5 70 02:48 25.11.2019
3595 Clouds 2 1018 100 10000 1.5 80 01:57 25.11.2019
3596 Clouds 2 1018 100 10000 1.5 80 01:38 25.11.2019
3597 Clouds 2 1018 100 6000 1 50 01:19 25.11.2019
3598 Clouds 2 1018 100 10000 1.5 50 00:21 25.11.2019
3599 Clouds 2 1018 100 6000 2.1 40 23:45 24.11.2019
3600 Clouds 2 1019 100 6000 1.5 40 23:21 24.11.2019
3601 Mist 2 1019 100 5000 2.1 20 22:59 24.11.2019
3602 Mist 2 1019 100 5000 2.1 20 22:59 24.11.2019
3603 Mist 2 1019 100 5000 2.1 20 22:40 24.11.2019
3604 Clouds 2 1019 100 6000 1 30 22:20 24.11.2019
3605 Clouds 2 1019 100 6000 1.5 30 21:58 24.11.2019
3606 Clouds 2 1019 100 6000 1.5 30 21:40 24.11.2019
3607 Clouds 2 1019 100 9000 1 40 21:21 24.11.2019
3608 Clouds 2 1019 100 10000 2.1 50 20:58 24.11.2019
3609 Clouds 2 1019 100 10000 2.1 50 20:38 24.11.2019
3610 Clouds 2 1019 100 10000 2.1 40 20:19 24.11.2019
3611 Clouds 2 1019 100 10000 2.1 40 19:56 24.11.2019
3612 Clouds 2 1019 100 10000 2.1 40 19:38 24.11.2019
3613 Drizzle 2 1019 100 8000 2.6 30 19:20 24.11.2019
3614 Clouds 2 1019 100 9000 2.1 20 18:58 24.11.2019
3615 Drizzle 2 1019 100 10000 1.5 20 18:37 24.11.2019
3616 Drizzle 2 1019 100 10000 1.5 20 18:19 24.11.2019
3617 Drizzle 2 1019 100 10000 1 40 17:56 24.11.2019
3618 Rain 2 1019 100 10000 2.1 70 17:37 24.11.2019
3619 Rain 2 1019 100 10000 2.1 70 17:37 24.11.2019
3620 Rain 2 1019 100 10000 2.1 70 17:19 24.11.2019
3621 Drizzle 2 1019 100 8000 2.1 30 16:57 24.11.2019
3622 Drizzle 2 1019 100 8000 2.1 30 16:38 24.11.2019
3623 Drizzle 2 1019 100 8000 2.1 40 16:20 24.11.2019
3624 Drizzle 2 1019 93 9000 2.6 40 15:44 24.11.2019
3625 Drizzle 3 1019 93 9000 2.1 50 15:26 24.11.2019
3626 Clouds 3 1020 93 8000 2.1 60 14:58 24.11.2019
3627 Clouds 3 1020 93 8000 2.1 60 14:38 24.11.2019
3628 Drizzle 3 1020 93 7000 2.6 50 14:19 24.11.2019
3629 Clouds 3 1020 93 8000 2.1 30 13:54 24.11.2019
3630 Clouds 3 1020 93 8000 2.1 30 13:54 24.11.2019
3631 Clouds 3 1020 93 9000 2.1 30 13:36 24.11.2019
3632 Clouds 3 1020 93 9000 2.1 30 13:18 24.11.2019
3633 Clouds 3 1020 93 9000 2.6 30 12:42 24.11.2019
3634 Drizzle 3 1020 93 8000 2.6 40 12:19 24.11.2019
3635 Clouds 3 1021 100 8000 2.1 0 11:58 24.11.2019
3636 Drizzle 3 1021 100 5000 2.1 40 11:37 24.11.2019
3637 Drizzle 3 1021 100 5000 2.1 40 11:19 24.11.2019
3638 Drizzle 3 1021 100 6000 1.5 30 10:47 24.11.2019
3639 Drizzle 3 1021 100 7000 2.1 40 10:29 24.11.2019
3640 Drizzle 3 1021 93 7000 2.1 40 09:59 24.11.2019
3641 Clouds 3 1020 100 8000 2.1 50 09:38 24.11.2019
3642 Clouds 3 1020 100 8000 2.1 50 09:19 24.11.2019
3643 Clouds 3 1020 100 10000 2.1 50 08:56 24.11.2019
3644 Clouds 3 1020 100 10000 1.5 40 08:36 24.11.2019
3645 Clouds 3 1020 100 10000 1.5 40 08:18 24.11.2019
3646 Clouds 3 1020 100 10000 2.1 0 07:45 24.11.2019
3647 Clouds 3 1020 100 10000 2.6 40 07:20 24.11.2019
3648 Clouds 3 1020 100 10000 2.1 40 06:26 24.11.2019
3649 Drizzle 3 1020 100 9000 1.5 40 04:54 24.11.2019
3650 Drizzle 3 1020 100 9000 1.5 40 04:35 24.11.2019
3651 Drizzle 3 1020 100 6000 2.6 50 02:35 24.11.2019
3652 Drizzle 3 1020 100 5000 2.6 30 01:49 24.11.2019
3653 Rain 3 1020 100 4700 2.6 20 01:27 24.11.2019
3654 Drizzle 4 1020 100 5000 2.6 30 00:48 24.11.2019
3655 Drizzle 4 1020 100 5000 3.1 30 00:24 24.11.2019
3656 Mist 4 1020 100 5000 3.1 30 23:56 23.11.2019
3657 Mist 4 1020 100 5000 3.1 30 23:56 23.11.2019
3658 Mist 4 1020 100 5000 3.1 30 23:38 23.11.2019
3659 Clouds 4 1020 100 8000 2.6 30 23:19 23.11.2019
3660 Clouds 4 1020 100 9000 3.1 30 22:55 23.11.2019
3661 Clouds 4 1020 100 9000 3.1 30 22:37 23.11.2019
3662 Mist 4 1020 100 5000 3.6 20 22:18 23.11.2019
3663 Mist 4 1020 100 4400 3.6 20 21:43 23.11.2019
3664 Mist 4 1020 100 4400 3.6 20 21:23 23.11.2019
3665 Mist 4 1020 100 9000 3.6 20 20:59 23.11.2019
3666 Clouds 4 1020 100 10000 3.6 20 20:38 23.11.2019
3667 Clouds 4 1020 100 10000 3.6 20 20:19 23.11.2019
3668 Clouds 4 1020 100 10000 4.1 30 19:56 23.11.2019
3669 Clouds 4 1020 100 10000 4.1 30 19:38 23.11.2019
3670 Clouds 4 1020 100 10000 3.1 30 19:18 23.11.2019
3671 Clouds 4 1020 100 10000 3.6 40 18:55 23.11.2019
3672 Mist 4 1020 100 5000 3.6 20 18:36 23.11.2019
3673 Mist 4 1020 100 5000 3.6 20 18:18 23.11.2019
3674 Mist 4 1020 100 4000 3.1 30 17:41 23.11.2019
3675 Mist 4 1020 100 4000 3.1 30 17:21 23.11.2019
3676 Mist 4 1019 100 3900 3.1 30 16:56 23.11.2019
3677 Mist 4 1019 100 3900 3.1 30 16:38 23.11.2019
3678 Mist 4 1019 100 3300 3.1 40 16:20 23.11.2019
3679 Mist 4 1019 100 2400 3.6 30 15:58 23.11.2019
3680 Mist 4 1019 100 2400 3.6 30 15:39 23.11.2019
3681 Mist 4 1019 100 2500 4.1 50 15:19 23.11.2019
3682 Mist 4 1019 100 2500 3.6 40 14:56 23.11.2019
3683 Mist 4 1019 100 2500 3.6 40 14:56 23.11.2019
3684 Mist 4 1019 100 2500 3.6 40 14:37 23.11.2019
3685 Mist 4 1019 100 3000 4.1 30 14:18 23.11.2019
3686 Mist 4 1019 100 3500 4.6 20 13:42 23.11.2019
3687 Drizzle 4 1019 100 5000 4.1 20 13:20 23.11.2019
3688 Mist 4 1019 100 4000 3.6 20 12:58 23.11.2019
3689 Mist 4 1019 100 4000 3.6 20 12:39 23.11.2019
3690 Mist 4 1019 100 4500 3.6 20 12:21 23.11.2019
3691 Mist 4 1019 100 5000 4.6 30 11:42 23.11.2019
3692 Mist 4 1019 100 5000 4.6 30 11:20 23.11.2019
3693 Mist 4 1019 100 5000 3.1 30 10:45 23.11.2019
3694 Clouds 4 1019 100 6000 3.6 30 10:22 23.11.2019
3695 Drizzle 4 1018 100 10000 4.1 30 09:42 23.11.2019
3696 Rain 4 1018 100 8000 3.1 20 09:20 23.11.2019
3697 Rain 4 1018 100 10000 2.6 20 08:45 23.11.2019
3698 Rain 4 1018 100 10000 3.1 10 08:20 23.11.2019
3699 Rain 4 1018 100 10000 3.6 20 07:54 23.11.2019
3700 Rain 4 1018 93 10000 3.6 20 07:35 23.11.2019
3701 Rain 4 1018 100 10000 2.6 20 06:48 23.11.2019
3702 Rain 4 1018 100 10000 2.1 10 06:21 23.11.2019
3703 Rain 4 1017 93 9000 3.1 20 05:51 23.11.2019
3704 Rain 4 1017 93 10000 3.6 20 05:29 23.11.2019
3705 Rain 4 1017 93 9000 3.1 20 04:49 23.11.2019
3706 Drizzle 4 1017 100 10000 3.1 20 04:27 23.11.2019
3707 Drizzle 4 1016 93 0 2.6 80 02:48 23.11.2019
3708 Drizzle 4 1017 100 6000 3.6 20 02:22 23.11.2019
3709 Drizzle 4 1017 100 7000 3.1 30 01:38 23.11.2019
3710 Rain 4 1017 100 10000 3.1 20 00:43 23.11.2019
3711 Rain 4 1017 100 10000 3.1 20 00:18 23.11.2019
3712 Rain 4 1016 100 10000 3.1 10 23:42 22.11.2019
3713 Rain 4 1016 100 10000 3.1 10 23:20 22.11.2019
3714 Rain 4 1016 93 10000 2.6 20 22:57 22.11.2019
3715 Rain 4 1016 93 10000 2.6 20 22:38 22.11.2019
3716 Rain 4 1016 93 10000 3.1 20 22:20 22.11.2019
3717 Rain 4 1016 93 10000 3.1 20 21:58 22.11.2019
3718 Rain 4 1016 93 10000 3.1 20 21:39 22.11.2019
3719 Rain 4 1016 100 10000 3.1 30 21:20 22.11.2019
3720 Rain 4 1016 100 10000 3.1 30 20:43 22.11.2019
3721 Rain 4 1016 100 9000 3.1 40 20:22 22.11.2019
3722 Rain 4 1016 100 9000 2.6 30 19:57 22.11.2019
3723 Rain 4 1016 100 9000 2.6 30 19:37 22.11.2019
3724 Rain 4 1015 100 9000 2.6 30 19:19 22.11.2019
3725 Rain 4 1015 100 9000 2.6 40 18:40 22.11.2019
3726 Drizzle 4 1015 100 9000 2.6 40 18:21 22.11.2019
3727 Drizzle 4 1015 100 7000 3.1 50 17:58 22.11.2019
3728 Drizzle 4 1015 100 7000 3.1 50 17:40 22.11.2019
3729 Drizzle 4 1015 100 7000 3.1 50 17:21 22.11.2019
3730 Drizzle 4 1015 93 9000 3.1 50 16:42 22.11.2019
3731 Drizzle 4 1015 100 8000 3.1 50 16:24 22.11.2019
3732 Drizzle 4 1015 93 6000 3.1 40 15:45 22.11.2019
3733 Drizzle 4 1015 93 8000 3.1 80 15:24 22.11.2019
3734 Drizzle 4 1015 93 6000 3.1 0 14:56 22.11.2019
3735 Drizzle 4 1015 93 6000 3.1 0 14:56 22.11.2019
3736 Drizzle 4 1015 93 6000 3.1 0 14:56 22.11.2019
3737 Drizzle 4 1015 93 6000 3.1 0 14:38 22.11.2019
3738 Drizzle 4 1015 93 6000 3.1 0 14:38 22.11.2019
3739 Drizzle 4 1015 93 6000 2.6 70 14:19 22.11.2019
3740 Rain 4 1015 100 9000 2.6 30 13:58 22.11.2019
3741 Rain 4 1016 93 5000 3.1 40 13:37 22.11.2019
3742 Rain 4 1016 93 5000 3.1 40 13:18 22.11.2019
3743 Rain 4 1016 100 6000 3.1 40 12:57 22.11.2019
3744 Rain 5 1015 87 10000 3.6 70 12:39 22.11.2019
3745 Rain 4 1015 87 10000 3.6 70 12:18 22.11.2019
3746 Rain 5 1016 100 4000 3.1 40 11:55 22.11.2019
3747 Rain 4 1016 100 4500 3.1 60 11:36 22.11.2019
3748 Rain 4 1016 100 4500 3.1 60 11:18 22.11.2019
3749 Rain 5 1016 100 4500 3.1 60 11:18 22.11.2019
3750 Rain 4 1017 100 8000 2.6 50 10:40 22.11.2019
3751 Drizzle 5 1016 100 7000 3.1 40 10:22 22.11.2019
3752 Drizzle 5 1016 100 7000 3.1 40 10:22 22.11.2019
3753 Drizzle 4 1016 93 10000 2.6 40 09:57 22.11.2019
3754 Drizzle 5 1016 93 10000 2.6 40 09:39 22.11.2019
3755 Clouds 5 1017 93 10000 2.6 10 09:21 22.11.2019
3756 Rain 4 1017 100 10000 3.1 20 08:47 22.11.2019
3757 Rain 4 1017 100 8000 3.1 30 08:27 22.11.2019
3758 Clouds 4 1017 93 10000 3.6 20 07:55 22.11.2019
3759 Clouds 4 1017 93 10000 3.6 20 07:37 22.11.2019
3760 Drizzle 4 1017 100 6000 3.6 20 07:18 22.11.2019
3761 Rain 4 1017 100 7000 3.6 20 06:40 22.11.2019
3762 Drizzle 4 1017 100 5000 3.1 20 05:54 22.11.2019
3763 Rain 4 1017 100 4500 3.6 30 04:52 22.11.2019
3764 Rain 4 1018 100 2300 3.1 20 02:56 22.11.2019
3765 Rain 4 1018 100 4000 3.1 20 02:32 22.11.2019
3766 Drizzle 4 1018 100 4800 2.6 40 01:46 22.11.2019
3767 Drizzle 4 1018 100 5000 2.6 60 01:20 22.11.2019
3768 Drizzle 4 1018 100 3500 2.6 30 00:54 22.11.2019
3769 Drizzle 4 1018 100 4000 3.1 30 00:25 22.11.2019
3770 Mist 4 1018 100 5000 3.1 30 23:56 21.11.2019
3771 Mist 4 1018 100 5000 3.1 30 23:56 21.11.2019
3772 Mist 4 1018 100 5000 3.1 30 23:37 21.11.2019
3773 Drizzle 4 1018 100 6000 3.6 30 23:18 21.11.2019
3774 Clouds 4 1018 100 6000 3.1 30 22:41 21.11.2019
3775 Drizzle 4 1018 100 5000 3.6 30 22:22 21.11.2019
3776 Drizzle 4 1019 100 5000 3.6 20 21:57 21.11.2019
3777 Drizzle 4 1019 100 5000 3.6 20 21:38 21.11.2019
3778 Drizzle 4 1018 100 5000 4.1 30 21:20 21.11.2019
3779 Drizzle 4 1018 100 5000 4.1 30 20:59 21.11.2019
3780 Drizzle 4 1018 100 5000 4.1 30 20:39 21.11.2019
3781 Drizzle 4 1018 100 5000 4.6 30 20:19 21.11.2019
3782 Drizzle 4 1018 100 5000 4.6 30 20:19 21.11.2019
3783 Rain 4 1018 100 5000 4.6 30 19:59 21.11.2019
3784 Rain 4 1018 100 5000 4.6 30 19:59 21.11.2019
3785 Rain 4 1018 100 5000 4.6 30 19:41 21.11.2019
3786 Rain 4 1019 100 5000 4.6 40 19:22 21.11.2019
3787 Rain 4 1019 100 5000 4.6 40 18:57 21.11.2019
3788 Rain 4 1019 100 5000 4.6 40 18:38 21.11.2019
3789 Rain 4 1019 100 5000 4.6 30 18:19 21.11.2019
3790 Rain 4 1019 100 6000 5.1 30 17:57 21.11.2019
3791 Rain 4 1019 100 5000 5.1 30 17:38 21.11.2019
3792 Rain 4 1019 100 5000 5.1 30 17:19 21.11.2019
3793 Rain 4 1019 100 5000 5.1 30 17:19 21.11.2019
3794 Rain 4 1019 93 4600 5.1 30 16:42 21.11.2019
3795 Rain 4 1019 93 8000 5.1 30 16:42 21.11.2019
3796 Rain 4 1019 93 4600 5.1 30 16:22 21.11.2019
3797 Rain 4 1019 93 7000 5.1 20 15:58 21.11.2019
3798 Rain 4 1019 93 7000 5.1 20 15:39 21.11.2019
3799 Rain 4 1019 93 2900 4.6 20 15:19 21.11.2019
3800 Rain 4 1019 100 3200 4.6 20 14:56 21.11.2019
3801 Rain 4 1019 100 5000 5.1 30 14:36 21.11.2019
3802 Rain 4 1019 100 5000 5.1 30 14:18 21.11.2019
3803 Rain 4 1020 93 10000 4.6 30 13:40 21.11.2019
3804 Rain 4 1020 100 10000 5.1 30 13:20 21.11.2019
3805 Rain 4 1020 100 10000 5.7 20 12:59 21.11.2019
3806 Rain 4 1020 100 10000 5.7 20 12:38 21.11.2019
3807 Rain 4 1020 100 9000 5.1 30 12:20 21.11.2019
3808 Rain 3 1021 100 9000 4.6 30 11:41 21.11.2019
3809 Rain 3 1021 100 9000 5.1 30 11:23 21.11.2019
3810 Clouds 3 1021 100 10000 4.6 30 10:59 21.11.2019
3811 Clouds 3 1021 100 10000 4.6 30 10:41 21.11.2019
3812 Rain 3 1022 93 10000 5.1 30 10:22 21.11.2019
3813 Rain 3 1022 93 10000 4.6 20 09:57 21.11.2019
3814 Rain 3 1022 93 10000 4.6 20 09:38 21.11.2019
3815 Rain 3 1022 93 10000 5.7 30 09:20 21.11.2019
3816 Drizzle 3 1022 100 8000 5.1 30 08:42 21.11.2019
3817 Drizzle 3 1022 93 7000 5.1 20 08:20 21.11.2019
3818 Drizzle 2 1022 100 5000 5.1 20 07:43 21.11.2019
3819 Rain 3 1022 93 5000 4.6 30 07:18 21.11.2019
3820 Rain 2 1022 100 5000 5.1 20 06:57 21.11.2019
3821 Rain 2 1022 100 5000 5.1 20 06:34 21.11.2019
3822 Clouds 2 1022 100 9000 5.1 20 05:38 21.11.2019
3823 Drizzle 2 1023 96 7000 4.1 20 03:34 21.11.2019
3824 Clouds 1 1024 96 10000 3.6 20 02:42 21.11.2019
3825 Clouds 1 1024 94 10000 2.1 30 02:20 21.11.2019
3826 Clouds 1 1024 94 10000 3.1 30 01:42 21.11.2019
3827 Clouds 1 1024 94 10000 4.1 20 00:55 21.11.2019
3828 Clouds 1 1024 94 10000 3.6 20 00:22 21.11.2019
3829 Clouds 1 1025 94 10000 3.6 20 23:59 20.11.2019
3830 Clouds 1 1025 94 10000 3.6 20 23:40 20.11.2019
3831 Clouds 1 1025 92 10000 4.1 10 23:21 20.11.2019
3832 Clouds 1 1025 92 9000 4.1 20 22:55 20.11.2019
3833 Clouds 1 1025 92 9000 4.1 20 22:37 20.11.2019
3834 Clouds 1 1025 92 7000 2.6 10 22:18 20.11.2019
3835 Clouds 1 1025 92 8000 3.6 20 21:57 20.11.2019
3836 Clouds 1 1025 92 8000 3.6 20 21:37 20.11.2019
3837 Clouds 1 1025 92 7000 4.1 20 21:19 20.11.2019
3838 Clouds 1 1025 92 7000 3.6 30 20:55 20.11.2019
3839 Clouds 1 1025 92 7000 3.6 30 20:37 20.11.2019
3840 Clouds 1 1025 92 7000 3.6 30 20:37 20.11.2019
3841 Drizzle 1 1025 91 6000 3.6 20 20:18 20.11.2019
3842 Drizzle 1 1025 91 5000 3.6 20 19:55 20.11.2019
3843 Drizzle 1 1025 91 5000 3.6 20 19:36 20.11.2019
3844 Drizzle 1 1025 91 5000 3.6 20 19:36 20.11.2019
3845 Drizzle 1 1025 91 8000 4.1 20 19:18 20.11.2019
3846 Drizzle 0 1025 91 7000 3.6 30 18:57 20.11.2019
3847 Drizzle 1 1025 91 7000 3.6 30 18:37 20.11.2019
3848 Clouds 1 1025 91 10000 3.1 30 18:19 20.11.2019
3849 Clouds 1 1025 91 10000 3.1 20 17:55 20.11.2019
3850 Clouds 1 1025 91 10000 3.1 20 17:36 20.11.2019
3851 Clouds 1 1025 93 10000 3.1 30 17:18 20.11.2019
3852 Clouds 0 1025 93 10000 3.1 30 16:41 20.11.2019
3853 Clouds 0 1025 93 10000 3.1 40 16:20 20.11.2019
3854 Clouds 0 1025 93 10000 2.6 30 15:58 20.11.2019
3855 Clouds 0 1025 93 10000 2.6 30 15:39 20.11.2019
3856 Clouds 0 1024 93 10000 3.1 10 15:20 20.11.2019
3857 Clouds 0 1024 93 10000 3.1 20 14:56 20.11.2019
3858 Clouds 0 1024 93 10000 3.1 20 14:38 20.11.2019
3859 Clouds 0 1024 89 10000 3.1 40 14:19 20.11.2019
3860 Clouds 0 1024 89 10000 3.1 30 13:55 20.11.2019
3861 Clouds 0 1024 91 10000 3.1 30 13:36 20.11.2019
3862 Clouds 0 1024 91 10000 2.6 30 13:18 20.11.2019
3863 Clouds 0 1023 100 10000 3.6 360 12:40 20.11.2019
3864 Clouds 0 1024 100 10000 3.1 350 12:22 20.11.2019
3865 Clouds 0 1024 92 10000 2.6 350 11:55 20.11.2019
3866 Clouds 0 1024 92 10000 2.6 350 11:37 20.11.2019
3867 Clouds -1 1023 92 10000 2.1 70 11:18 20.11.2019
3868 Clouds -1 1023 92 10000 2.6 350 10:54 20.11.2019
3869 Clouds -1 1022 92 10000 1 0 10:36 20.11.2019
3870 Clouds -1 1022 92 10000 1 0 10:18 20.11.2019
3871 Fog -1 1022 92 10000 2.6 320 09:42 20.11.2019
3872 Fog -1 1022 100 10000 2.1 330 09:20 20.11.2019
3873 Fog -1 1021 100 10000 1 0 08:47 20.11.2019
3874 Fog -1 1021 92 10000 1.5 340 08:28 20.11.2019
3875 Fog -1 1020 92 10000 2.1 340 07:57 20.11.2019
3876 Fog -2 1020 92 10000 2.1 340 07:37 20.11.2019
3877 Mist -2 1019 100 2500 1.5 20 07:18 20.11.2019
3878 Fog -2 1019 100 10000 1.5 20 06:45 20.11.2019
3879 Fog -1 1019 92 0 2.1 30 06:19 20.11.2019
3880 Clouds 0 1017 92 10000 2.6 340 04:43 20.11.2019
3881 Clouds 1 1015 97 10000 3.1 320 02:29 20.11.2019
3882 Rain 1 1014 98 10000 2.6 320 01:38 20.11.2019
3883 Clouds 1 1013 97 10000 1.5 280 00:58 20.11.2019
3884 Clouds 2 1013 93 10000 1.5 290 00:22 20.11.2019
3885 Clouds 2 1012 93 10000 2.6 300 23:43 19.11.2019
3886 Rain 2 1012 93 10000 2.1 310 23:23 19.11.2019
3887 Rain 3 1011 100 10000 1 0 22:56 19.11.2019
3888 Rain 3 1011 100 10000 1 0 22:38 19.11.2019
3889 Rain 3 1011 93 10000 1 0 22:18 19.11.2019
3890 Rain 3 1010 100 1100 1.5 330 21:55 19.11.2019
3891 Rain 3 1010 100 1100 1.5 330 21:36 19.11.2019
3892 Rain 3 1009 100 1000 1 0 21:18 19.11.2019
3893 Rain 3 1009 100 1600 2.1 210 20:55 19.11.2019
3894 Rain 3 1009 100 1600 2.1 210 20:36 19.11.2019
3895 Rain 3 1008 100 1900 1.5 230 20:18 19.11.2019
3896 Rain 3 1008 100 6000 2.6 180 19:42 19.11.2019
3897 Rain 3 1008 100 5000 2.6 170 19:20 19.11.2019
3898 Rain 3 1008 100 5000 2.1 180 18:58 19.11.2019
3899 Rain 4 1008 100 5000 2.1 180 18:40 19.11.2019
3900 Rain 4 1007 93 10000 2.6 200 18:21 19.11.2019
3901 Rain 3 1007 93 10000 3.6 190 17:58 19.11.2019
3902 Rain 3 1007 93 10000 3.6 190 17:40 19.11.2019
3903 Rain 3 1007 100 9000 3.6 200 17:20 19.11.2019
3904 Rain 4 1006 100 10000 5.1 170 16:59 19.11.2019
3905 Rain 4 1006 100 10000 5.1 170 16:40 19.11.2019
3906 Rain 4 1006 100 10000 5.1 170 16:40 19.11.2019
3907 Rain 4 1006 100 10000 4.6 170 16:20 19.11.2019
3908 Rain 4 1006 100 10000 4.6 180 15:47 19.11.2019
3909 Rain 4 1006 100 10000 4.6 180 15:47 19.11.2019
3910 Rain 4 1005 100 7000 5.1 170 15:27 19.11.2019
3911 Rain 4 1005 100 5000 5.1 170 14:58 19.11.2019
3912 Rain 4 1005 100 5000 5.1 170 14:39 19.11.2019
3913 Drizzle 4 1005 100 6000 3.1 170 14:21 19.11.2019
3914 Rain 4 1005 100 900 3.1 170 13:42 19.11.2019
3915 Rain 4 1005 100 1200 1.5 0 13:42 19.11.2019
3916 Rain 4 1005 100 900 3.1 170 13:42 19.11.2019
3917 Rain 4 1005 100 1200 1.5 0 13:22 19.11.2019
3918 Drizzle 4 1005 100 1200 0.5 0 12:58 19.11.2019
3919 Drizzle 4 1005 100 1200 0.5 0 12:39 19.11.2019
3920 Rain 4 1005 100 1800 2.1 50 12:21 19.11.2019
3921 Rain 4 1005 100 4000 1.5 40 11:56 19.11.2019
3922 Rain 4 1005 100 4000 1.5 40 11:56 19.11.2019
3923 Rain 4 1005 100 4000 1.5 40 11:37 19.11.2019
3924 Rain 4 1005 100 3500 2.1 30 11:18 19.11.2019
3925 Rain 3 1005 100 3500 2.6 30 10:44 19.11.2019
3926 Rain 4 1005 100 3500 2.6 30 10:21 19.11.2019
3927 Rain 4 1005 93 3500 2.6 40 09:45 19.11.2019
3928 Rain 4 1005 100 4000 2.6 30 09:22 19.11.2019
3929 Rain 4 1005 100 5000 3.1 30 08:59 19.11.2019
3930 Rain 4 1005 100 5000 3.1 30 08:40 19.11.2019
3931 Rain 4 1005 100 5000 3.1 30 08:22 19.11.2019
3932 Rain 4 1005 100 5000 3.1 40 07:56 19.11.2019
3933 Rain 4 1005 100 5000 3.1 40 07:37 19.11.2019
3934 Rain 4 1005 100 5000 3.1 30 07:18 19.11.2019
3935 Rain 4 1005 100 5000 3.1 30 06:42 19.11.2019
3936 Rain 4 1005 100 3300 3.6 30 06:19 19.11.2019
3937 Rain 4 1005 100 6000 3.1 30 05:19 19.11.2019
3938 Rain 4 1006 100 9000 3.6 30 03:41 19.11.2019
3939 Rain 4 1006 100 10000 3.6 30 03:20 19.11.2019
3940 Rain 4 1006 100 6000 4.1 30 02:50 19.11.2019
3941 Rain 4 1007 100 9000 4.1 30 01:49 19.11.2019
3942 Rain 4 1007 100 6000 3.6 30 00:49 19.11.2019
3943 Drizzle 3 1007 100 5000 4.1 30 00:21 19.11.2019
3944 Drizzle 3 1008 100 5000 4.1 30 23:40 18.11.2019
3945 Drizzle 3 1008 93 5000 4.1 30 23:20 18.11.2019
3946 Drizzle 3 1008 93 5000 4.1 30 23:20 18.11.2019
3947 Drizzle 3 1008 93 5000 4.1 30 22:48 18.11.2019
3948 Drizzle 3 1008 93 5000 4.1 30 22:24 18.11.2019
3949 Drizzle 3 1008 100 5000 4.1 30 21:59 18.11.2019
3950 Drizzle 3 1008 100 5000 4.1 30 21:40 18.11.2019
3951 Drizzle 3 1008 100 5000 4.1 30 21:40 18.11.2019
3952 Drizzle 3 1008 100 5000 3.6 30 21:22 18.11.2019
3953 Drizzle 3 1009 93 5000 3.6 30 20:59 18.11.2019
3954 Drizzle 3 1009 93 5000 3.6 30 20:41 18.11.2019
3955 Drizzle 3 1009 100 5000 3.6 30 20:19 18.11.2019
3956 Rain 3 1009 100 5000 4.1 20 19:58 18.11.2019
3957 Rain 3 1009 100 5000 4.1 20 19:38 18.11.2019
3958 Rain 3 1009 100 5000 4.1 30 19:20 18.11.2019
3959 Drizzle 3 1009 100 5000 4.1 20 18:56 18.11.2019
3960 Drizzle 3 1009 100 5000 4.1 20 18:38 18.11.2019
3961 Rain 3 1010 100 5000 4.6 20 18:19 18.11.2019
3962 Rain 3 1010 93 5000 3.6 20 17:59 18.11.2019
3963 Rain 3 1010 93 5000 3.6 20 17:37 18.11.2019
3964 Rain 3 1010 93 9000 4.6 10 17:19 18.11.2019
3965 Clouds 2 1010 100 9000 4.6 20 16:43 18.11.2019
3966 Rain 2 1011 100 10000 5.1 10 16:24 18.11.2019
3967 Rain 2 1011 100 9000 5.7 10 15:59 18.11.2019
3968 Rain 2 1011 100 9000 5.7 10 15:40 18.11.2019
3969 Rain 2 1011 93 7000 5.7 20 15:21 18.11.2019
3970 Rain 2 1012 100 8000 5.7 20 14:58 18.11.2019
3971 Rain 2 1012 100 8000 5.7 20 14:39 18.11.2019
3972 Rain 2 1012 100 9000 5.7 20 14:20 18.11.2019
3973 Rain 2 1013 93 10000 4.6 20 13:43 18.11.2019
3974 Rain 2 1013 93 10000 7.2 10 13:25 18.11.2019
3975 Rain 2 1013 93 10000 6.2 360 12:43 18.11.2019
3976 Rain 2 1014 98 10000 5.1 20 12:20 18.11.2019
3977 Rain 1 1014 98 10000 5.7 10 11:57 18.11.2019
3978 Rain 1 1014 98 10000 5.7 10 11:38 18.11.2019
3979 Clouds 1 1015 98 10000 5.1 20 11:20 18.11.2019
3980 Clouds 1 1015 98 9000 4.6 20 10:44 18.11.2019
3981 Clouds 1 1016 98 8000 4.1 10 10:25 18.11.2019
3982 Snow 1 1016 98 6000 3.6 10 09:58 18.11.2019
3983 Snow 1 1016 98 6000 3.6 10 09:38 18.11.2019
3984 Snow 1 1017 98 2400 3.1 30 09:20 18.11.2019
3985 Snow 1 1017 98 2500 3.1 20 08:55 18.11.2019
3986 Snow 0 1017 98 2500 3.1 20 08:36 18.11.2019
3987 Snow 1 1017 98 3800 2.6 30 08:18 18.11.2019
3988 Snow 1 1017 98 3200 2.6 30 07:44 18.11.2019
3989 Snow 1 1017 98 3900 3.1 30 07:23 18.11.2019
3990 Snow 1 1017 98 6000 2.6 20 06:48 18.11.2019
3991 Snow 1 1017 98 6000 2.6 20 06:28 18.11.2019
3992 Clouds 1 1018 98 10000 2.1 20 05:42 18.11.2019
3993 Mist 1 1018 97 7000 1.5 40 03:59 18.11.2019
3994 Clouds 1 1018 97 10000 2.1 340 01:40 18.11.2019
3995 Clouds 1 1018 98 10000 1.5 330 00:54 18.11.2019
3996 Clouds 1 1018 98 10000 1 0 00:20 18.11.2019
3997 Clouds 1 1017 98 10000 1 0 23:41 17.11.2019
3998 Clouds 1 1017 97 10000 0.5 330 23:21 17.11.2019
3999 Clouds 1 1017 97 10000 0.9 32 22:57 17.11.2019
4000 Clouds 1 1017 97 10000 0.9 32 22:57 17.11.2019
4001 Clouds 1 1017 97 10000 0.9 32 22:39 17.11.2019
4002 Clouds 1 1017 97 10000 1 0 22:20 17.11.2019
4003 Clouds 1 1017 97 10000 0.5 0 21:56 17.11.2019
4004 Clouds 1 1017 97 10000 0.5 0 21:37 17.11.2019
4005 Clouds 1 1017 97 10000 0.5 0 21:18 17.11.2019
4006 Clouds 1 1017 97 10000 1 0 20:55 17.11.2019
4007 Clouds 1 1016 97 10000 1 310 20:36 17.11.2019
4008 Clouds 1 1016 97 10000 1 310 20:18 17.11.2019
4009 Fog 1 1015 97 9000 0.43 195 19:55 17.11.2019
4010 Fog 1 1015 97 9000 0.43 195 19:36 17.11.2019
4011 Fog 1 1015 97 7000 0.5 0 19:18 17.11.2019
4012 Fog 1 1015 97 7000 1 0 18:54 17.11.2019
4013 Fog 1 1015 100 9000 0.43 195 18:36 17.11.2019
4014 Fog 1 1015 100 9000 0.43 195 18:18 17.11.2019
4015 Fog 1 1014 100 900 1 0 17:56 17.11.2019
4016 Fog 1 1014 100 900 1 0 17:38 17.11.2019
4017 Fog 1 1014 100 2500 1.5 190 17:18 17.11.2019
4018 Fog 2 1013 93 6000 1 215 16:42 17.11.2019
4019 Fog 2 1013 93 10000 1 0 16:22 17.11.2019
4020 Fog 2 1013 93 10000 1.5 0 15:59 17.11.2019
4021 Fog 2 1013 93 10000 1.5 0 15:41 17.11.2019
4022 Clouds 2 1012 100 10000 1.5 230 15:19 17.11.2019
4023 Clouds 3 1012 86 10000 1 215 14:57 17.11.2019
4024 Clouds 3 1012 86 10000 1 215 14:39 17.11.2019
4025 Clouds 3 1011 86 10000 0.68 240 14:20 17.11.2019
4026 Clouds 3 1011 93 10000 0.5 0 13:59 17.11.2019
4027 Clouds 3 1011 93 10000 0.5 0 13:59 17.11.2019
4028 Rain 3 1011 93 10000 0.5 350 13:40 17.11.2019
4029 Rain 3 1011 93 10000 0.5 350 13:20 17.11.2019
4030 Rain 3 1010 93 10000 1 0 12:45 17.11.2019
4031 Rain 3 1010 100 10000 1 0 12:24 17.11.2019
4032 Clouds 3 1012 93 0 1.5 290 11:59 17.11.2019
4033 Clouds 3 1010 100 10000 1 350 11:40 17.11.2019
4034 Snow 2 1009 100 10000 1.5 10 11:21 17.11.2019
4035 Rain 2 1009 96 10000 1.5 10 10:56 17.11.2019
4036 Rain 2 1009 96 10000 1.5 10 10:56 17.11.2019
4037 Clouds 2 1008 96 10000 1.5 20 10:36 17.11.2019
4038 Clouds 2 1008 96 10000 1.5 20 10:18 17.11.2019
4039 Rain 2 1008 96 10000 1.5 20 09:41 17.11.2019
4040 Clouds 2 1007 96 10000 2.1 10 09:23 17.11.2019
4041 Snow 1 1007 96 8000 1.5 10 08:44 17.11.2019
4042 Snow 1 1006 97 9000 2.1 350 08:24 17.11.2019
4043 Snow 2 1006 97 10000 2.6 350 07:56 17.11.2019
4044 Snow 2 1005 97 10000 3.6 360 07:38 17.11.2019
4045 Snow 2 1005 97 10000 3.6 360 07:19 17.11.2019
4046 Clouds 2 1005 97 10000 3.6 360 06:50 17.11.2019
4047 Rain 2 1005 97 10000 3.6 350 06:28 17.11.2019
4048 Rain 1 1004 95 10000 5.1 10 04:57 17.11.2019
4049 Rain 1 1004 100 0 4.6 350 03:59 17.11.2019
4050 Rain 1 1004 95 10000 4.1 360 03:33 17.11.2019
4051 Clouds 1 1004 95 10000 4.6 360 02:41 17.11.2019
4052 Clouds 1 1004 100 10000 4.1 360 01:50 17.11.2019
4053 Clouds 1 1004 98 10000 5.1 10 00:59 17.11.2019
4054 Clouds 1 1005 98 10000 5.1 10 00:23 17.11.2019
4055 Snow 1 1005 98 10000 4.6 10 23:59 16.11.2019
4056 Snow 1 1005 98 10000 4.6 10 23:40 16.11.2019
4057 Snow 1 1005 98 10000 4.6 10 23:40 16.11.2019
4058 Snow 1 1005 98 7000 5.1 10 23:18 16.11.2019
4059 Snow 1 1005 98 6000 5.1 10 22:42 16.11.2019
4060 Snow 1 1006 98 3300 5.7 10 22:20 16.11.2019
4061 Snow 1 1006 98 6000 5.1 10 21:58 16.11.2019
4062 Snow 1 1006 98 6000 5.1 10 21:40 16.11.2019
4063 Snow 1 1006 98 6000 6.2 10 21:21 16.11.2019
4064 Snow 1 1006 98 4000 6.2 10 20:57 16.11.2019
4065 Snow 1 1006 98 4000 6.2 10 20:39 16.11.2019
4066 Clouds 1 1007 98 7000 6.2 10 20:19 16.11.2019
4067 Snow 1 1007 98 8000 5.7 10 19:41 16.11.2019
4068 Snow 1 1007 98 8000 5.7 10 19:22 16.11.2019
4069 Snow 2 1008 98 10000 5.7 20 18:58 16.11.2019
4070 Snow 2 1008 98 10000 6.2 10 18:39 16.11.2019
4071 Snow 2 1008 98 10000 6.2 10 18:20 16.11.2019
4072 Snow 2 1008 98 9000 5.7 10 17:55 16.11.2019
4073 Snow 2 1009 98 8000 5.1 20 17:36 16.11.2019
4074 Snow 1 1009 98 8000 5.1 20 17:18 16.11.2019
4075 Snow 2 1009 98 7000 5.7 10 16:43 16.11.2019
4076 Clouds 2 1009 98 10000 5.1 20 16:25 16.11.2019
4077 Clouds 2 1009 98 10000 5.7 20 15:54 16.11.2019
4078 Snow 2 1010 98 9000 4.6 20 15:36 16.11.2019
4079 Snow 2 1010 98 9000 4.6 20 15:18 16.11.2019
4080 Snow 1 1010 98 7000 5.7 10 14:40 16.11.2019
4081 Snow 1 1011 98 1400 4.6 10 14:21 16.11.2019
4082 Snow 1 1011 98 1400 4.6 10 13:56 16.11.2019
4083 Snow 1 1011 98 1400 4.6 10 13:38 16.11.2019
4084 Snow 1 1012 98 2200 4.6 10 13:19 16.11.2019
4085 Snow 1 1012 98 2300 4.6 10 12:57 16.11.2019
4086 Snow 1 1012 98 2300 4.6 10 12:57 16.11.2019
4087 Snow 1 1012 98 2300 4.6 10 12:39 16.11.2019
4088 Snow 1 1013 98 1400 4.1 10 12:20 16.11.2019
4089 Snow 1 1013 98 1500 4.6 10 11:44 16.11.2019
4090 Snow 1 1013 98 2800 4.6 20 11:26 16.11.2019
4091 Snow 1 1014 98 4600 4.6 20 10:56 16.11.2019
4092 Snow 1 1014 98 4700 4.6 20 10:38 16.11.2019
4093 Snow 1 1014 98 4700 4.6 20 10:20 16.11.2019
4094 Snow 1 1014 98 4000 5.1 10 09:43 16.11.2019
4095 Snow 1 1015 98 5000 5.1 10 09:21 16.11.2019
4096 Snow 1 1015 98 3900 4.6 10 08:58 16.11.2019
4097 Clouds 1 1015 98 8000 5.1 10 08:37 16.11.2019
4098 Clouds 1 1015 97 8000 5.1 10 08:18 16.11.2019
4099 Snow 2 1015 97 8000 5.1 20 07:41 16.11.2019
4100 Snow 2 1015 97 8000 5.1 20 07:41 16.11.2019
4101 Snow 2 1015 97 7000 4.6 20 07:20 16.11.2019
4102 Snow 2 1015 97 7000 5.1 20 06:45 16.11.2019
4103 Snow 2 1016 97 5000 5.7 20 06:26 16.11.2019
4104 Clouds 2 1017 97 10000 5.1 20 04:50 16.11.2019
4105 Clouds 2 1018 97 10000 3.6 20 03:42 16.11.2019
4106 Clouds 2 1018 97 10000 3.6 30 03:23 16.11.2019
4107 Clouds 2 1019 98 10000 4.6 40 01:44 16.11.2019
4108 Clouds 2 1019 96 10000 5.1 20 01:19 16.11.2019
4109 Clouds 2 1020 96 10000 4.1 40 00:41 16.11.2019
4110 Clouds 2 1020 96 10000 4.1 30 00:20 16.11.2019
4111 Clouds 2 1020 96 10000 1.5 30 23:39 15.11.2019
4112 Clouds 2 1020 96 10000 3.1 20 23:39 15.11.2019
4113 Clouds 2 1020 95 10000 3.1 20 23:20 15.11.2019
4114 Clouds 2 1021 95 10000 4.1 30 22:55 15.11.2019
4115 Clouds 2 1021 95 10000 4.1 30 22:55 15.11.2019
4116 Clouds 2 1021 95 10000 4.1 30 22:36 15.11.2019
4117 Rain 2 1021 95 10000 3.6 20 22:18 15.11.2019
4118 Drizzle 2 1021 95 10000 3.1 10 21:41 15.11.2019
4119 Clouds 2 1022 95 10000 3.6 20 21:21 15.11.2019
4120 Clouds 2 1022 95 10000 4.1 10 20:59 15.11.2019
4121 Clouds 2 1022 95 10000 4.1 10 20:40 15.11.2019
4122 Clouds 2 1022 95 10000 4.6 20 20:21 15.11.2019
4123 Clouds 2 1022 95 10000 5.7 20 19:59 15.11.2019
4124 Clouds 2 1022 95 10000 5.7 20 19:40 15.11.2019
4125 Clouds 2 1022 95 10000 4.6 20 19:20 15.11.2019
4126 Clouds 2 1022 95 10000 4.1 20 18:58 15.11.2019
4127 Clouds 2 1022 95 10000 4.1 20 18:40 15.11.2019
4128 Drizzle 2 1022 95 10000 4.1 20 18:21 15.11.2019
4129 Drizzle 2 1022 95 10000 4.1 30 17:43 15.11.2019
4130 Drizzle 2 1022 100 10000 2.6 360 17:25 15.11.2019
4131 Drizzle 2 1022 100 10000 2.6 360 17:25 15.11.2019
4132 Drizzle 2 1022 97 10000 2.1 360 16:58 15.11.2019
4133 Drizzle 2 1022 97 10000 2.1 360 16:39 15.11.2019
4134 Clouds 2 1022 97 10000 3.1 360 16:20 15.11.2019
4135 Clouds 2 1022 97 10000 2.6 360 15:39 15.11.2019
4136 Clouds 2 1022 97 10000 2.6 360 15:20 15.11.2019
4137 Clouds 2 1022 100 10000 3.1 360 14:58 15.11.2019
4138 Clouds 2 1022 100 10000 3.1 360 14:40 15.11.2019
4139 Clouds 2 1022 93 10000 3.1 30 14:21 15.11.2019
4140 Clouds 2 1022 93 10000 2.6 30 13:59 15.11.2019
4141 Clouds 2 1022 93 10000 2.6 30 13:59 15.11.2019
4142 Clouds 2 1022 93 10000 2.6 30 13:40 15.11.2019
4143 Clouds 2 1023 100 10000 2.1 20 13:21 15.11.2019
4144 Clouds 2 1022 100 10000 3.6 10 12:59 15.11.2019
4145 Clouds 2 1022 100 10000 3.6 10 12:40 15.11.2019
4146 Clouds 2 1022 100 10000 2.6 350 12:21 15.11.2019
4147 Clouds 2 1023 100 10000 2.1 10 11:59 15.11.2019
4148 Clouds 2 1023 100 10000 2.1 10 11:39 15.11.2019
4149 Clouds 2 1023 100 10000 1 10 11:21 15.11.2019
4150 Clouds 2 1022 98 10000 1 350 10:57 15.11.2019
4151 Clouds 2 1022 98 10000 1 350 10:39 15.11.2019
4152 Clouds 2 1022 100 10000 2.1 350 10:19 15.11.2019
4153 Fog 2 1022 98 7000 2.1 360 09:41 15.11.2019
4154 Fog 2 1022 100 8000 2.6 10 09:20 15.11.2019
4155 Fog 1 1021 100 10000 2.1 40 08:45 15.11.2019
4156 Fog 1 1021 98 10000 1 30 08:23 15.11.2019
4157 Clouds 1 1021 100 10000 0.6 32 07:49 15.11.2019
4158 Clouds 1 1020 100 10000 1 0 07:29 15.11.2019
4159 Clouds 1 1020 100 6000 2.1 350 06:59 15.11.2019
4160 Clouds 1 1020 100 6000 2.1 350 06:34 15.11.2019
4161 Mist 1 1020 98 1700 1 0 05:49 15.11.2019
4162 Mist 1 1019 98 1600 0.46 41 05:27 15.11.2019
4163 Clouds 1 1018 98 1900 0.5 0 03:58 15.11.2019
4164 Mist 1 1018 98 2000 0.5 0 03:32 15.11.2019
4165 Mist 1 1018 98 2000 0.91 42 02:23 15.11.2019
4166 Mist 1 1017 98 2200 1.5 340 01:36 15.11.2019
4167 Mist 1 1017 98 2200 1.5 340 01:36 15.11.2019
4168 Rain 1 1017 98 2500 1.02 36 01:18 15.11.2019
4169 Mist 1 1017 98 3000 1 20 00:34 15.11.2019
4170 Rain 1 1016 98 4000 1.02 36 23:57 14.11.2019
4171 Rain 1 1016 98 4000 1.02 36 23:38 14.11.2019
4172 Rain 2 1016 98 5000 1 340 23:18 14.11.2019
4173 Rain 2 1015 98 8000 1 0 22:40 14.11.2019
4174 Clouds 2 1015 98 10000 0.68 25 22:21 14.11.2019
4175 Clouds 2 1015 98 10000 0.68 25 22:21 14.11.2019
4176 Clouds 2 1014 98 10000 1.5 0 21:57 14.11.2019
4177 Clouds 1 1014 98 10000 1.5 0 21:38 14.11.2019
4178 Clouds 1 1014 98 10000 1.5 0 21:38 14.11.2019
4179 Clouds 2 1014 98 10000 1.5 0 21:20 14.11.2019
4180 Clouds 2 1014 98 10000 1.5 0 20:42 14.11.2019
4181 Clouds 1 1013 100 8000 2.6 130 20:24 14.11.2019
4182 Clouds 2 1013 100 6000 2.6 0 19:59 14.11.2019
4183 Clouds 2 1013 100 6000 2.6 0 19:41 14.11.2019
4184 Clouds 2 1012 100 7000 2.1 0 19:18 14.11.2019
4185 Clouds 2 1012 93 9000 1.5 0 18:56 14.11.2019
4186 Clouds 2 1011 93 9000 1 0 18:38 14.11.2019
4187 Clouds 2 1011 93 9000 1 0 18:20 14.11.2019
4188 Clouds 2 1011 93 9000 1 0 17:56 14.11.2019
4189 Clouds 2 1011 93 8000 1 0 17:37 14.11.2019
4190 Clouds 2 1011 93 8000 1 0 17:19 14.11.2019
4191 Clouds 2 1010 93 8000 1 0 16:57 14.11.2019
4192 Clouds 2 1010 93 8000 1 0 16:36 14.11.2019
4193 Clouds 2 1010 93 9000 1 0 16:18 14.11.2019
4194 Clouds 2 1009 93 9000 1 0 15:56 14.11.2019
4195 Clouds 2 1009 93 9000 1 0 15:37 14.11.2019
4196 Clouds 2 1009 93 9000 1.5 40 15:19 14.11.2019
4197 Fog 2 1009 93 10000 1 0 14:44 14.11.2019
4198 Fog 2 1009 93 10000 0.64 73 14:22 14.11.2019
4199 Fog 2 1009 93 10000 0.64 73 14:22 14.11.2019
4200 Fog 2 1008 93 9000 1 350 13:57 14.11.2019
4201 Fog 2 1008 93 9000 1 350 13:38 14.11.2019
4202 Rain 2 1008 93 9000 1 10 13:19 14.11.2019
4203 Fog 2 1008 100 9000 1 360 12:55 14.11.2019
4204 Fog 2 1008 93 9000 1.5 50 12:36 14.11.2019
4205 Fog 2 1008 93 9000 1.5 50 12:18 14.11.2019
4206 Fog 2 1007 100 9000 2.1 30 11:39 14.11.2019
4207 Fog 2 1007 100 8000 1 0 11:20 14.11.2019
4208 Fog 2 1007 100 8000 1 0 11:20 14.11.2019
4209 Fog 2 1007 100 8000 1 0 11:20 14.11.2019
4210 Fog 2 1007 100 8000 1 0 11:20 14.11.2019
4211 Fog 2 1007 100 8000 1.5 20 10:58 14.11.2019
4212 Fog 2 1007 100 8000 1.5 20 10:40 14.11.2019
4213 Fog 2 1006 100 7000 1.5 10 10:20 14.11.2019
4214 Mist 2 1006 99 5000 1 350 09:56 14.11.2019
4215 Mist 2 1005 100 4500 1 40 09:38 14.11.2019
4216 Mist 2 1005 100 4500 1 40 09:19 14.11.2019
4217 Mist 2 1005 100 4500 1 40 08:47 14.11.2019
4218 Mist 2 1005 99 4800 1.5 30 08:25 14.11.2019
4219 Mist 2 1005 99 5000 1.5 40 07:56 14.11.2019
4220 Mist 2 1005 99 5000 1.5 40 07:37 14.11.2019
4221 Clouds 1 1004 99 8000 1.5 30 07:19 14.11.2019
4222 Rain 1 1004 99 6000 1 20 06:41 14.11.2019
4223 Rain 1 1004 99 4000 1 30 06:18 14.11.2019
4224 Rain 1 1003 98 9000 1 10 04:41 14.11.2019
4225 Clouds 2 1003 98 8000 1 0 04:19 14.11.2019
4226 Clouds 2 1003 98 9000 0.5 0 02:45 14.11.2019
4227 Clouds 2 1002 100 7000 1 0 01:44 14.11.2019
4228 Clouds 2 1002 100 10000 1.5 10 01:26 14.11.2019
4229 Clouds 2 1002 100 9000 1.5 350 00:49 14.11.2019
4230 Clouds 2 1002 100 10000 1 0 00:29 14.11.2019
4231 Clouds 2 1002 100 10000 2.1 30 23:41 13.11.2019
4232 Clouds 2 1002 100 10000 2.1 50 23:21 13.11.2019
4233 Clouds 2 1002 100 10000 1.5 40 22:56 13.11.2019
4234 Clouds 1 1002 100 9000 1 0 22:38 13.11.2019
4235 Clouds 1 1002 100 9000 1 0 22:38 13.11.2019
4236 Clouds 1 1002 100 9000 1 0 22:20 13.11.2019
4237 Clouds 1 1002 100 6000 0.5 0 21:55 13.11.2019
4238 Clouds 1 1002 100 6000 0.5 0 21:37 13.11.2019
4239 Clouds 1 1001 100 7000 1.5 50 21:19 13.11.2019
4240 Fog 1 1001 100 5000 1 0 20:56 13.11.2019
4241 Fog 1 1001 100 5000 1 0 20:37 13.11.2019
4242 Fog 1 1001 100 6000 1 0 20:37 13.11.2019
4243 Fog 1 1001 100 6000 1 0 20:18 13.11.2019
4244 Mist 1 1001 100 5000 0.5 0 19:44 13.11.2019
4245 Fog 1 1001 100 6000 0.74 90 19:20 13.11.2019
4246 Fog 1 1001 100 4700 1 320 18:58 13.11.2019
4247 Fog 1 1001 100 4700 1 320 18:39 13.11.2019
4248 Mist 1 1000 100 2900 1 0 18:21 13.11.2019
4249 Mist 1 1000 93 5000 1.5 150 17:58 13.11.2019
4250 -273 0 0 0 0 0 17:40 13.11.2019
4251 Mist 2 1000 93 4500 0.9 117 17:22 13.11.2019
4252 Mist 2 1000 93 4500 1 112 17:22 13.11.2019
4253 Rain 1 1000 100 8000 0.9 117 16:59 13.11.2019
4254 Rain 1 1000 100 8000 1 112 16:59 13.11.2019
4255 Rain 1 1000 100 8000 0.9 117 16:40 13.11.2019
4256 Rain 2 1000 100 9000 1 0 16:21 13.11.2019
4257 Rain 2 1000 100 9000 1 0 16:21 13.11.2019
4258 Rain 2 1000 100 9000 2.6 160 15:58 13.11.2019
4259 Snow 2 999 93 6000 0.5 0 15:39 13.11.2019
4260 Snow 2 999 93 6000 0.5 0 15:21 13.11.2019
4261 Drizzle 2 999 93 4000 1 0 14:43 13.11.2019
4262 Rain 2 999 93 10000 1.5 120 14:23 13.11.2019
4263 Rain 2 999 93 9000 2.1 120 13:59 13.11.2019
4264 Rain 2 1000 93 9000 2.1 120 13:37 13.11.2019
4265 Rain 2 1000 93 9000 2.1 120 13:19 13.11.2019
4266 Rain 2 999 93 9000 2.6 120 12:56 13.11.2019
4267 Rain 2 999 93 9000 2.6 120 12:37 13.11.2019
4268 Rain 2 1000 93 7000 2.6 130 12:19 13.11.2019
4269 Rain 2 1000 93 8000 2.6 150 11:41 13.11.2019
4270 Rain 2 1000 100 8000 2.6 150 11:21 13.11.2019
4271 Rain 2 1000 93 6000 2.6 150 10:58 13.11.2019
4272 Rain 2 1000 93 6000 2.6 150 10:40 13.11.2019
4273 Rain 2 1000 100 6000 2.1 140 10:20 13.11.2019
4274 Mist 1 1000 93 5000 1.5 180 09:57 13.11.2019
4275 Mist 1 1000 93 5000 1.5 180 09:38 13.11.2019
4276 Rain 1 1000 100 6000 3.1 170 09:20 13.11.2019
4277 Rain 1 999 100 7000 1 0 08:39 13.11.2019
4278 Rain 1 999 100 7000 1 0 08:39 13.11.2019
4279 Rain 1 999 93 9000 2.1 150 08:20 13.11.2019
4280 Rain 1 999 93 10000 3.1 150 07:43 13.11.2019
4281 Rain 1 999 100 8000 3.6 140 07:21 13.11.2019
4282 Rain 1 999 93 8000 3.6 160 06:47 13.11.2019
4283 Rain 1 999 93 8000 3.1 160 06:19 13.11.2019
4284 Rain 1 999 93 8000 3.1 160 06:19 13.11.2019
4285 Rain 1 999 93 8000 3.1 160 06:19 13.11.2019
4286 Clouds 1 999 100 6000 3.6 160 05:57 13.11.2019
4287 Clouds 1 999 100 6000 3.6 160 05:38 13.11.2019
4288 Rain 1 998 98 1000 0.5 0 04:44 13.11.2019
4289 Rain 1 998 98 3500 0.5 0 02:28 13.11.2019
4290 Rain 1 998 99 3700 2.18 162 01:46 13.11.2019
4291 Rain 1 998 99 4500 1.68 158 00:57 13.11.2019
4292 Rain 1 998 99 4800 1 20 00:36 13.11.2019
4293 Rain 1 998 99 5000 1.68 158 23:42 12.11.2019
4294 Clouds 1 998 99 7000 1.5 360 23:22 12.11.2019
4295 Clouds 1 998 99 6000 1 330 22:58 12.11.2019
4296 Clouds 1 998 99 6000 1 330 22:40 12.11.2019
4297 Clouds 1 998 99 6000 1 330 22:40 12.11.2019
4298 Drizzle 1 998 99 7000 1 0 22:18 12.11.2019
4299 Rain 1 998 99 7000 2.1 50 21:44 12.11.2019
4300 Clouds 1 998 99 8000 1.5 0 21:25 12.11.2019
4301 Rain 1 998 99 9000 2.1 50 20:58 12.11.2019
4302 Rain 1 998 99 9000 2.1 50 20:38 12.11.2019
4303 Drizzle 1 998 99 10000 1 0 20:19 12.11.2019
4304 Drizzle 1 998 99 10000 1.5 60 19:58 12.11.2019
4305 Drizzle 1 998 99 10000 1.5 60 19:39 12.11.2019
4306 Clouds 0 997 99 10000 1.5 30 19:19 12.11.2019
4307 Clouds 0 997 99 10000 1.5 30 18:59 12.11.2019
4308 Snow 0 997 99 7000 1 0 18:40 12.11.2019
4309 Snow 0 998 99 5000 1 0 18:22 12.11.2019
4310 Snow 1 997 99 4700 1 0 17:58 12.11.2019
4311 Snow 1 997 99 4700 1 0 17:39 12.11.2019
4312 Snow 1 997 99 3300 1 0 17:21 12.11.2019
4313 Snow 1 998 99 2000 0.5 0 16:57 12.11.2019
4314 Snow 1 998 99 2000 0.5 0 16:39 12.11.2019
4315 Snow 1 997 99 2300 1 0 16:21 12.11.2019
4316 Snow 1 998 99 4000 2.1 60 15:42 12.11.2019
4317 Snow 1 998 99 3300 3.6 60 15:21 12.11.2019
4318 Snow 1 998 99 2700 4.1 70 14:57 12.11.2019
4319 Snow 1 998 99 2700 4.1 70 14:37 12.11.2019
4320 Snow 1 998 99 3000 3.6 70 14:19 12.11.2019
4321 Snow 1 999 99 7000 4.6 80 13:56 12.11.2019
4322 Snow 1 999 100 7000 4.6 80 13:37 12.11.2019
4323 Rain 1 999 99 9000 4.6 60 13:37 12.11.2019
4324 Rain 1 999 99 9000 4.6 60 13:18 12.11.2019
4325 Rain 1 1000 99 9000 4.6 70 12:43 12.11.2019
4326 Clouds 1 1000 100 9000 4.6 70 12:20 12.11.2019
4327 Clouds 1 1000 100 10000 4.1 70 11:59 12.11.2019
4328 Clouds 2 1000 100 10000 4.1 70 11:59 12.11.2019
4329 Clouds 1 1001 100 10000 3.6 80 11:40 12.11.2019
4330 Clouds 1 1001 100 10000 3.6 80 11:22 12.11.2019
4331 Clouds 1 1001 100 10000 3.6 80 11:22 12.11.2019
4332 Clouds 1 1001 100 10000 4.1 80 10:56 12.11.2019
4333 Clouds 1 1001 97 9000 3.6 80 10:38 12.11.2019
4334 Clouds 1 1001 97 9000 3.6 80 10:19 12.11.2019
4335 Clouds 0 1001 97 9000 3.6 80 09:42 12.11.2019
4336 Clouds 0 1001 100 9000 3.1 50 09:23 12.11.2019
4337 Clouds 0 1001 100 9000 3.1 40 08:57 12.11.2019
4338 Clouds 0 1002 100 10000 3.1 30 08:39 12.11.2019
4339 Clouds 0 1002 100 10000 3.1 30 08:19 12.11.2019
4340 Clouds -1 1002 100 10000 3.1 30 07:40 12.11.2019
4341 Clouds -1 1002 92 9000 3.1 40 07:22 12.11.2019
4342 Clouds -1 1002 92 10000 3.6 40 06:45 12.11.2019
4343 Clouds -1 1002 100 10000 3.1 30 06:23 12.11.2019
4344 Clouds -1 1002 100 10000 3.1 30 05:46 12.11.2019
4345 Clouds -2 1003 92 10000 3.1 30 04:46 12.11.2019
4346 Clouds -2 1004 92 10000 1.5 10 03:48 12.11.2019
4347 Snow -2 1004 92 10000 2.6 20 01:47 12.11.2019
4348 Snow -2 1004 92 3700 2.1 20 01:22 12.11.2019
4349 Clouds -2 1004 100 10000 1 10 00:47 12.11.2019
4350 Clouds -3 1004 92 10000 1 0 00:28 12.11.2019
4351 Snow -3 1004 100 10000 2.1 340 23:44 11.11.2019
4352 Snow -3 1004 100 10000 1.5 330 23:23 11.11.2019
4353 Snow -2 1004 92 10000 1.5 80 22:57 11.11.2019
4354 Snow -3 1004 92 10000 1.5 80 22:36 11.11.2019
4355 Snow -3 1004 92 10000 0.5 0 22:18 11.11.2019
4356 Snow -2 1004 85 10000 2.1 330 21:57 11.11.2019
4357 Snow -2 1004 85 10000 2.1 330 21:38 11.11.2019
4358 Clouds -2 1004 92 10000 1.5 360 21:19 11.11.2019
4359 Clouds -3 1004 92 10000 1.5 350 20:42 11.11.2019
4360 Clouds -3 1004 92 10000 1 10 20:20 11.11.2019
4361 Clouds -3 1004 92 9000 2.1 350 19:59 11.11.2019
4362 Clouds -3 1004 92 9000 2.1 350 19:41 11.11.2019
4363 Clouds -3 1004 100 9000 2.6 360 19:18 11.11.2019
4364 Clouds -3 1004 92 7000 2.6 350 18:56 11.11.2019
4365 Clouds -3 1004 92 7000 2.6 350 18:37 11.11.2019
4366 Clouds -3 1004 100 6000 3.1 10 18:19 11.11.2019
4367 Snow -3 1004 100 6000 3.1 360 17:42 11.11.2019
4368 Snow -3 1004 100 6000 2.1 360 17:24 11.11.2019
4369 Snow -3 1003 92 2500 3.1 360 16:43 11.11.2019
4370 Snow -3 1004 100 4200 2.6 360 16:24 11.11.2019
4371 Snow -3 1004 100 4200 2.6 360 15:59 11.11.2019
4372 Snow -3 1004 92 2800 3.6 10 15:40 11.11.2019
4373 Snow -3 1004 92 4000 4.1 20 15:20 11.11.2019
4374 Snow -2 1004 92 4000 4.1 10 14:44 11.11.2019
4375 Snow -3 1004 92 3800 4.6 10 14:25 11.11.2019
4376 Snow -2 1004 92 2500 5.1 20 13:58 11.11.2019
4377 Snow -2 1004 92 2500 5.1 20 13:38 11.11.2019
4378 Snow -2 1005 92 3900 5.1 20 13:20 11.11.2019
4379 Snow -2 1005 92 3600 5.1 10 12:57 11.11.2019
4380 Snow -2 1005 92 3600 5.1 10 12:39 11.11.2019
4381 Snow -2 1005 92 3300 5.1 10 12:21 11.11.2019
4382 Snow -3 1005 92 1200 4.6 20 11:43 11.11.2019
4383 Snow -3 1006 92 4500 5.7 20 11:22 11.11.2019
4384 Snow -3 1006 100 1400 5.1 30 10:58 11.11.2019
4385 Snow -3 1006 100 1400 5.1 30 10:39 11.11.2019
4386 Snow -3 1006 92 3400 4.6 30 10:18 11.11.2019
4387 Snow -3 1006 100 1800 5.1 30 09:56 11.11.2019
4388 Snow -3 1006 100 1800 5.1 30 09:36 11.11.2019
4389 Snow -3 1006 92 6000 4.6 20 09:18 11.11.2019
4390 Snow -4 1007 92 5000 5.7 20 08:39 11.11.2019
4391 Snow -4 1007 92 1900 5.1 20 08:20 11.11.2019
4392 Snow -4 1007 100 3000 4.6 20 07:56 11.11.2019
4393 Snow -4 1007 100 1300 4.1 20 07:37 11.11.2019
4394 Snow -4 1007 100 1300 4.1 20 07:37 11.11.2019
4395 Snow -3 1007 100 1300 4.1 20 07:18 11.11.2019
4396 Snow -3 1008 100 1700 3.6 10 06:44 11.11.2019
4397 Snow -3 1009 100 1200 3.1 20 06:21 11.11.2019
4398 Snow -3 1009 100 2000 3.6 10 05:50 11.11.2019
4399 Snow -3 1009 100 2500 3.6 20 04:29 11.11.2019
4400 Snow -3 1010 100 4000 3.1 20 03:23 11.11.2019
4401 Snow -3 1011 92 8000 2.6 20 02:22 11.11.2019
4402 Snow -3 1011 100 7000 2.6 360 01:55 11.11.2019
4403 Snow -3 1011 100 7000 2.6 360 01:34 11.11.2019
4404 Snow -3 1012 92 10000 1.5 350 00:47 11.11.2019
4405 Clouds -3 1012 92 10000 1.5 340 00:19 11.11.2019
4406 Clouds -3 1012 92 10000 1.5 350 23:39 10.11.2019
4407 Clouds -3 1012 92 10000 1 0 23:20 10.11.2019
4408 Snow -3 1013 92 0 2.1 30 22:57 10.11.2019
4409 Snow -3 1013 92 0 2.1 30 22:38 10.11.2019
4410 Snow -3 1014 92 0 2.1 30 22:20 10.11.2019
4411 Clouds -3 1013 92 10000 0.5 0 21:58 10.11.2019
4412 Clouds -3 1013 92 10000 0.5 0 21:39 10.11.2019
4413 Clouds -3 1013 92 10000 0.5 0 21:39 10.11.2019
4414 Clouds -3 1013 92 10000 1.5 0 21:21 10.11.2019
4415 Clouds -3 1013 86 10000 1 0 20:56 10.11.2019
4416 Clouds -3 1013 86 10000 1 0 20:37 10.11.2019
4417 Clouds -3 1013 92 10000 1 0 20:19 10.11.2019
4418 Clouds -3 1013 86 10000 1.5 130 19:54 10.11.2019
4419 Clouds -3 1013 86 10000 1.5 130 19:36 10.11.2019
4420 Snow -3 1013 92 10000 2.06 42 19:18 10.11.2019
4421 Snow -3 1013 92 10000 2.06 42 19:18 10.11.2019
4422 Snow -3 1013 92 10000 1 0 18:54 10.11.2019
4423 Snow -3 1013 92 10000 1 0 18:36 10.11.2019
4424 Snow -2 1013 92 10000 2.06 42 18:18 10.11.2019
4425 Snow -2 1013 92 10000 1 0 17:54 10.11.2019
4426 Clouds -2 1013 79 10000 2.06 42 17:36 10.11.2019
4427 Clouds -2 1013 79 10000 1.38 32 17:18 10.11.2019
4428 Clouds -2 1013 79 10000 1.38 32 17:18 10.11.2019
4429 Clouds -2 1013 86 10000 1 0 16:43 10.11.2019
4430 Snow -2 1013 79 10000 1 0 16:25 10.11.2019
4431 Snow -2 1013 92 10000 1 0 15:56 10.11.2019
4432 Snow -2 1013 92 10000 1 0 15:56 10.11.2019
4433 Snow -2 1013 92 10000 1 0 15:37 10.11.2019
4434 Snow -2 1013 86 10000 1 70 15:18 10.11.2019
4435 Rain -1 1013 86 10000 1.5 50 14:56 10.11.2019
4436 Rain -1 1013 86 10000 1.5 50 14:38 10.11.2019
4437 Snow -1 1013 86 10000 1 30 14:19 10.11.2019
4438 Snow -1 1013 92 10000 1.5 50 13:44 10.11.2019
4439 Clouds -1 1013 86 10000 1.5 30 13:22 10.11.2019
4440 Snow -1 1013 86 8000 1 0 12:59 10.11.2019
4441 Snow -1 1013 86 8000 1 0 12:40 10.11.2019
4442 Snow -1 1013 92 3700 2.1 30 12:19 10.11.2019
4443 Snow -1 1014 92 7000 1.5 360 11:55 10.11.2019
4444 Snow -1 1014 92 7000 1.5 360 11:37 10.11.2019
4445 Snow -1 1014 92 6000 1.5 20 11:18 10.11.2019
4446 Snow -1 1014 92 6000 1.5 20 11:18 10.11.2019
4447 Snow -1 1013 92 4700 2.1 30 10:42 10.11.2019
4448 Snow -1 1013 92 4700 2.1 30 10:42 10.11.2019
4449 Snow -2 1013 92 9000 3.1 30 10:20 10.11.2019
4450 Snow -2 1013 92 7000 2.6 30 09:55 10.11.2019
4451 Snow -2 1013 92 3300 2.6 30 09:37 10.11.2019
4452 Snow -2 1013 92 3300 2.6 30 09:18 10.11.2019
4453 Snow -2 1013 86 9000 3.1 20 08:39 10.11.2019
4454 Snow -2 1013 86 9000 3.1 20 08:39 10.11.2019
4455 Snow -2 1013 86 10000 3.6 10 08:20 10.11.2019
4456 Clouds -2 1013 86 10000 3.6 10 07:44 10.11.2019
4457 Clouds -2 1013 86 10000 3.1 10 07:26 10.11.2019
4458 Snow -2 1013 86 10000 3.1 10 06:54 10.11.2019
4459 Snow -2 1012 86 10000 2.6 20 05:51 10.11.2019
4460 Clouds -1 1012 86 10000 3.6 360 03:28 10.11.2019
4461 Clouds -1 1012 86 10000 3.1 360 02:22 10.11.2019
4462 Clouds -1 1012 92 10000 4.1 20 01:20 10.11.2019
4463 Clouds -2 1012 86 10000 4.1 20 00:48 10.11.2019
4464 Snow -2 1012 86 10000 4.1 20 23:59 09.11.2019
4465 Snow -2 1012 86 10000 4.1 20 23:40 09.11.2019
4466 Snow -1 1012 86 10000 3.6 10 23:19 09.11.2019
4467 Snow -1 1012 86 10000 3.6 10 22:42 09.11.2019
4468 Snow -1 1012 92 6000 4.1 10 22:22 09.11.2019
4469 Snow -1 1012 86 7000 4.1 10 21:58 09.11.2019
4470 Snow -1 1012 86 7000 4.1 10 21:39 09.11.2019
4471 Snow -1 1012 86 10000 5.1 10 21:20 09.11.2019
4472 Snow -1 1011 92 10000 3.6 10 20:44 09.11.2019
4473 Snow -1 1011 86 10000 4.1 10 20:24 09.11.2019
4474 Snow -1 1011 86 10000 4.1 10 19:59 09.11.2019
4475 Snow -1 1011 86 10000 5.1 10 19:40 09.11.2019
4476 Snow -1 1011 86 10000 5.1 10 19:22 09.11.2019
4477 Clouds -1 1011 86 10000 5.1 10 18:57 09.11.2019
4478 Clouds -1 1011 86 10000 5.1 10 18:38 09.11.2019
4479 Clouds -1 1011 86 10000 5.1 20 18:18 09.11.2019
4480 Clouds -1 1011 86 9000 5.7 20 17:42 09.11.2019
4481 Clouds -1 1011 86 9000 5.7 20 17:22 09.11.2019
4482 Clouds -1 1011 86 9000 5.7 20 16:57 09.11.2019
4483 Clouds -1 1011 86 9000 5.7 20 16:38 09.11.2019
4484 Snow -1 1010 86 7000 4.6 10 16:19 09.11.2019
4485 Snow -1 1010 86 10000 5.1 10 15:42 09.11.2019
4486 Snow -1 1010 92 8000 5.7 20 15:23 09.11.2019
4487 Snow -1 1010 92 8000 5.7 20 15:23 09.11.2019
4488 Snow -1 1011 92 7000 5.1 10 14:47 09.11.2019
4489 Snow -1 1011 92 5000 4.6 10 14:24 09.11.2019
4490 Snow -1 1011 92 5000 4.6 10 13:58 09.11.2019
4491 Snow -1 1010 92 4300 5.7 20 13:40 09.11.2019
4492 Snow 0 1010 92 5000 5.7 10 13:21 09.11.2019
4493 Snow 0 1011 92 7000 5.7 10 12:59 09.11.2019
4494 Snow 0 1011 92 7000 5.7 10 12:40 09.11.2019
4495 Snow 0 1011 86 5000 5.7 10 12:22 09.11.2019
4496 Snow -1 1011 92 3500 5.7 10 11:54 09.11.2019
4497 Snow -1 1011 92 3500 5.7 10 11:36 09.11.2019
4498 Snow -1 1011 92 3500 5.7 20 11:18 09.11.2019
4499 Snow -1 1011 92 3200 5.7 20 10:39 09.11.2019
4500 Snow -1 1011 92 4300 5.7 10 10:19 09.11.2019
4501 Snow -1 1011 92 4300 5.7 10 10:19 09.11.2019
4502 Snow -1 1011 92 4100 5.7 10 09:47 09.11.2019
4503 Snow -1 1011 92 4600 5.7 10 09:28 09.11.2019
4504 Snow -1 1011 92 4200 5.7 20 08:59 09.11.2019
4505 Snow -1 1011 92 4200 5.7 20 08:59 09.11.2019
4506 Snow -1 1011 92 4200 5.7 20 08:39 09.11.2019
4507 Snow -1 1011 92 4600 5.7 10 08:19 09.11.2019
4508 Snow -1 1010 92 4900 5.7 10 07:45 09.11.2019
4509 Snow -1 1011 92 5000 5.7 10 07:23 09.11.2019
4510 Snow -1 1010 92 5000 5.7 10 06:49 09.11.2019
4511 Snow -1 1010 86 7000 6.7 20 06:30 09.11.2019
4512 Snow -1 1010 86 10000 6.7 20 05:43 09.11.2019
4513 Snow -1 1010 86 8000 7.2 10 04:58 09.11.2019
4514 Snow -1 1011 86 10000 7.2 20 03:52 09.11.2019
4515 Snow -1 1011 92 9000 6.7 20 02:43 09.11.2019
4516 Snow -1 1011 86 9000 6.2 10 01:55 09.11.2019
4517 Snow -1 1011 86 10000 5.7 10 00:52 09.11.2019
4518 Snow -1 1011 86 9000 5.7 10 00:31 09.11.2019
4519 Snow -1 1011 86 9000 5.7 10 00:31 09.11.2019
4520 Snow -1 1011 92 10000 5.7 10 23:58 08.11.2019
4521 Snow -1 1011 92 10000 5.7 10 23:39 08.11.2019
4522 Snow -1 1011 92 9000 4.6 10 23:19 08.11.2019
4523 Snow -1 1011 92 9000 4.6 10 23:19 08.11.2019
4524 Snow -1 1011 92 9000 5.1 10 22:48 08.11.2019
4525 Snow -2 1011 92 9000 5.1 360 22:22 08.11.2019
4526 Snow -1 1011 86 8000 5.1 10 21:56 08.11.2019
4527 Snow -1 1011 86 8000 5.1 10 21:38 08.11.2019
4528 Snow -2 1011 86 9000 5.1 360 21:18 08.11.2019
4529 Snow -2 1011 86 8000 5.1 10 20:42 08.11.2019
4530 Snow -2 1011 86 9000 4.6 360 20:22 08.11.2019
4531 Snow -2 1011 100 6000 4.6 10 19:58 08.11.2019
4532 Snow -2 1011 100 6000 4.6 10 19:38 08.11.2019
4533 Snow -2 1011 86 8000 5.1 10 19:18 08.11.2019
4534 Snow -2 1011 92 8000 4.1 360 18:55 08.11.2019
4535 Snow -2 1011 92 8000 4.1 360 18:37 08.11.2019
4536 Snow -2 1011 92 9000 4.6 10 18:37 08.11.2019
4537 Snow -2 1011 92 9000 4.6 10 18:19 08.11.2019
4538 Snow -2 1011 92 9000 5.1 10 17:55 08.11.2019
4539 Snow -2 1011 92 9000 5.1 10 17:55 08.11.2019
4540 Snow -2 1011 92 9000 5.1 10 17:37 08.11.2019
4541 Snow -2 1011 92 9000 4.6 360 17:19 08.11.2019
4542 Snow -2 1011 92 3800 4.6 360 16:58 08.11.2019
4543 Snow -2 1011 92 3800 4.6 360 16:39 08.11.2019
4544 Snow -2 1011 92 3800 4.6 360 16:39 08.11.2019
4545 Snow -2 1011 92 1800 5.1 360 16:19 08.11.2019
4546 Snow -2 1011 92 2500 5.1 360 15:57 08.11.2019
4547 Snow -2 1011 92 2500 5.1 360 15:38 08.11.2019
4548 Snow -2 1011 92 1700 4.6 360 15:20 08.11.2019
4549 Snow -2 1011 92 2100 4.6 10 14:55 08.11.2019
4550 Snow -2 1011 92 2100 4.6 10 14:36 08.11.2019
4551 Snow -2 1011 92 1000 5.1 10 14:18 08.11.2019
4552 Snow -2 1011 92 1100 5.1 10 13:55 08.11.2019
4553 Snow -2 1011 92 1200 5.7 360 13:36 08.11.2019
4554 Snow -2 1011 92 1200 5.7 360 13:18 08.11.2019
4555 Snow -2 1011 92 7000 5.1 10 12:42 08.11.2019
4556 Snow -2 1011 92 5000 5.7 10 12:24 08.11.2019
4557 Snow -2 1011 86 5000 5.1 10 11:56 08.11.2019
4558 Snow -2 1011 86 5000 5.1 10 11:37 08.11.2019
4559 Snow -2 1011 86 2600 5.7 10 11:19 08.11.2019
4560 Snow -2 1011 79 10000 5.7 360 10:54 08.11.2019
4561 Snow -2 1011 79 10000 5.7 360 10:36 08.11.2019
4562 Snow -2 1011 79 10000 6.2 360 10:18 08.11.2019
4563 Clouds -2 1012 79 10000 4.6 360 09:41 08.11.2019
4564 Clouds -2 1011 79 10000 4.6 10 09:20 08.11.2019
4565 Clouds -2 1012 79 10000 4.6 360 08:54 08.11.2019
4566 Snow -2 1011 79 10000 4.6 360 08:36 08.11.2019
4567 Snow -2 1011 79 10000 4.6 360 08:18 08.11.2019
4568 Snow -2 1011 79 10000 4.1 360 07:39 08.11.2019
4569 Snow -2 1011 79 10000 4.6 360 07:20 08.11.2019
4570 Snow -2 1011 79 10000 5.1 360 06:40 08.11.2019
4571 Snow -2 1010 79 10000 4.6 360 06:20 08.11.2019
4572 Snow -2 1011 79 10000 5.1 360 05:53 08.11.2019
4573 Snow -2 1011 79 10000 5.1 10 05:19 08.11.2019
4574 Clouds -2 1011 73 10000 4.6 350 03:44 08.11.2019
4575 Clouds -2 1011 73 10000 4.1 360 03:21 08.11.2019
4576 Clouds -2 1011 73 10000 4.1 350 02:42 08.11.2019
4577 Clouds -3 1011 79 10000 2.6 360 01:47 08.11.2019
4578 Clouds -3 1011 85 10000 2.1 10 01:22 08.11.2019
4579 Clouds -3 1011 85 10000 2.6 360 00:24 08.11.2019
4580 Clouds -3 1010 85 10000 2.1 20 23:58 07.11.2019
4581 Clouds -3 1010 85 10000 2.1 20 23:40 07.11.2019
4582 Clouds -3 1011 92 10000 3.1 10 23:21 07.11.2019
4583 Clouds -3 1010 85 10000 3.1 350 22:42 07.11.2019
4584 Clouds -3 1010 85 10000 2.1 330 22:21 07.11.2019
4585 Clouds -3 1010 85 10000 2.1 330 21:56 07.11.2019
4586 Clouds -3 1010 85 10000 2.1 360 21:37 07.11.2019
4587 Clouds -3 1010 85 10000 2.1 360 21:19 07.11.2019
4588 Clouds -3 1010 92 10000 3.1 360 20:57 07.11.2019
4589 Clouds -3 1010 92 10000 3.1 350 20:39 07.11.2019
4590 Clouds -3 1010 92 10000 3.1 350 20:20 07.11.2019
4591 Clouds -3 1009 85 10000 3.1 360 19:54 07.11.2019
4592 Clouds -3 1009 85 10000 3.6 360 19:36 07.11.2019
4593 Clouds -3 1009 85 10000 3.6 360 19:18 07.11.2019
4594 Clouds -3 1009 85 10000 5.1 30 18:55 07.11.2019
4595 Clouds -3 1009 85 10000 5.1 40 18:36 07.11.2019
4596 Clouds -3 1009 85 10000 5.1 40 18:18 07.11.2019
4597 Clouds -2 1009 79 10000 5.1 10 17:40 07.11.2019
4598 Clouds -2 1009 79 10000 5.1 10 17:21 07.11.2019
4599 Clouds -2 1009 86 10000 3.6 350 16:58 07.11.2019
4600 Clouds -2 1009 86 10000 3.6 350 16:58 07.11.2019
4601 Rain -2 1009 92 10000 3.1 30 16:39 07.11.2019
4602 Rain -2 1009 92 10000 3.1 30 16:19 07.11.2019
4603 Rain -2 1009 92 10000 4.1 30 15:56 07.11.2019
4604 Rain -2 1009 92 10000 3.1 30 15:37 07.11.2019
4605 Rain -2 1009 92 10000 3.1 30 15:18 07.11.2019
4606 Snow -2 1008 92 10000 3.1 30 14:44 07.11.2019
4607 Snow -2 1008 92 10000 3.1 30 14:26 07.11.2019
4608 Clouds -2 1008 92 10000 4.1 40 13:56 07.11.2019
4609 Clouds -2 1008 92 10000 4.1 40 13:56 07.11.2019
4610 Snow -2 1008 92 10000 3.6 50 13:38 07.11.2019
4611 Rain -2 1008 92 10000 3.1 60 13:20 07.11.2019
4612 Rain -2 1008 92 10000 3.1 60 12:58 07.11.2019
4613 Clouds -2 1008 92 10000 3.6 50 12:39 07.11.2019
4614 Clouds -2 1008 92 10000 3.6 50 12:20 07.11.2019
4615 Clouds -2 1008 85 10000 4.1 50 12:20 07.11.2019
4616 Clouds -3 1008 85 10000 4.1 50 11:44 07.11.2019
4617 Clouds -3 1008 85 10000 3.6 30 11:44 07.11.2019
4618 Clouds -3 1008 85 10000 3.6 30 11:24 07.11.2019
4619 Clouds -3 1008 85 10000 3.6 30 11:23 07.11.2019
4620 Clouds -3 1008 92 10000 2.6 30 10:59 07.11.2019
4621 Clouds -4 1007 92 10000 3.1 30 10:40 07.11.2019
4622 Clouds -4 1007 92 10000 3.1 20 10:18 07.11.2019
4623 Clouds -5 1007 92 10000 3.1 30 09:42 07.11.2019
4624 Clouds -5 1007 92 10000 3.1 30 09:22 07.11.2019
4625 -273 0 0 0 0 0 08:56 07.11.2019
4626 -273 0 0 0 0 0 08:55 07.11.2019
4627 Clouds -6 1007 92 10000 1.5 20 08:37 07.11.2019
4628 Clouds -6 1007 92 10000 1.5 20 08:18 07.11.2019
4629 Clouds -6 1006 92 10000 1.5 330 07:41 07.11.2019
4630 -273 0 0 0 0 0 07:41 07.11.2019
4631 Clouds -6 1006 92 10000 1.5 330 07:21 07.11.2019
4632 Clouds -6 1006 92 10000 1.5 350 06:48 07.11.2019
4633 Clouds -6 1006 85 10000 2.1 340 06:28 07.11.2019
4634 Clouds -6 1007 92 0 3.6 350 05:57 07.11.2019
4635 Clouds -7 1007 92 0 3.6 350 05:38 07.11.2019
4636 Clouds -7 1007 92 0 3.6 350 05:19 07.11.2019
4637 Clouds -7 1007 92 0 3.6 350 05:19 07.11.2019
4638 Clouds -7 1006 92 10000 1.5 350 04:41 07.11.2019
4639 Clouds -7 1006 92 10000 2.1 340 02:58 07.11.2019
4640 Clouds -7 1006 92 10000 2.1 340 02:57 07.11.2019
4641 Clouds -6 1005 92 10000 2.1 330 00:47 07.11.2019
4642 Clouds -6 1005 92 10000 2.1 330 00:20 07.11.2019
4643 Clouds -6 1006 85 10000 1.5 330 23:47 06.11.2019
4644 Clouds -6 1006 85 10000 1.5 330 23:47 06.11.2019
4645 Clouds -6 1006 92 10000 1.5 340 23:22 06.11.2019
4646 Clouds -6 1006 85 10000 1.5 340 22:56 06.11.2019
4647 Clouds -6 1005 85 10000 2.1 340 22:38 06.11.2019
4648 Clouds -6 1005 85 10000 2.1 340 22:18 06.11.2019
4649 Clouds -6 1005 92 10000 1 10 21:42 06.11.2019
4650 Clouds -6 1005 92 10000 1 10 21:21 06.11.2019
4651 Clouds -6 1005 92 10000 1.5 350 20:59 06.11.2019
4652 Clouds -6 1005 92 10000 1.5 350 20:40 06.11.2019
4653 Clouds -5 1005 92 10000 1.5 350 20:22 06.11.2019
4654 Clouds -6 1005 92 10000 2.1 360 19:59 06.11.2019
4655 Clouds -5 1005 92 10000 1.5 10 19:40 06.11.2019
4656 Clouds -5 1005 92 10000 1.5 10 19:21 06.11.2019
4657 Clouds -5 1005 92 10000 1.5 10 18:58 06.11.2019
4658 Clouds -5 1005 85 10000 3.1 30 18:39 06.11.2019
4659 Clouds -5 1005 85 10000 3.1 30 18:19 06.11.2019
4660 Clouds -4 1005 85 10000 3.1 30 17:58 06.11.2019
4661 Clouds -4 1005 85 10000 3.1 30 17:40 06.11.2019
4662 Clouds -4 1004 85 10000 3.6 30 17:21 06.11.2019
4663 Clouds -4 1004 79 10000 3.6 30 16:55 06.11.2019
4664 Clouds -3 1004 79 10000 2.6 40 16:37 06.11.2019
4665 Clouds -3 1004 79 10000 2.6 40 16:18 06.11.2019
4666 Clouds -2 1004 73 10000 3.1 40 15:55 06.11.2019
4667 Clouds -2 1004 73 10000 3.1 40 15:36 06.11.2019
4668 Clouds -2 1004 73 10000 3.1 40 15:18 06.11.2019
4669 Clouds -2 1004 68 10000 3.1 30 14:55 06.11.2019
4670 Clouds -2 1004 68 10000 3.1 30 14:37 06.11.2019
4671 Clouds -2 1004 68 10000 3.6 30 14:19 06.11.2019
4672 Clouds -2 1005 73 10000 4.1 50 13:40 06.11.2019
4673 Clouds -2 1005 73 10000 3.6 30 13:22 06.11.2019
4674 Clouds -2 1005 79 10000 3.6 30 12:58 06.11.2019
4675 Clouds -2 1005 79 10000 3.6 30 12:39 06.11.2019
4676 Clouds -2 1005 79 10000 3.1 30 12:21 06.11.2019
4677 Clouds -3 1005 85 10000 3.1 20 11:58 06.11.2019
4678 Clouds -3 1005 85 10000 3.6 20 11:38 06.11.2019
4679 Clouds -3 1005 85 10000 3.6 20 11:18 06.11.2019
4680 Clouds -3 1006 73 10000 4.1 10 10:56 06.11.2019
4681 Clouds -4 1006 73 10000 4.6 10 10:38 06.11.2019
4682 Clouds -4 1005 85 10000 3.6 40 10:19 06.11.2019
4683 Clouds -4 1005 85 10000 3.1 20 09:44 06.11.2019
4684 -273 0 0 0 0 0 09:24 06.11.2019
4685 Clouds -5 1005 85 10000 2.1 10 08:59 06.11.2019
4686 Clouds -5 1005 85 10000 2.1 10 08:39 06.11.2019
4687 Clouds -5 1005 92 10000 2.6 20 08:20 06.11.2019
4688 Clouds -5 1005 92 10000 2.1 20 07:59 06.11.2019
4689 Clouds -5 1004 92 10000 2.6 20 07:40 06.11.2019
4690 Clouds -5 1004 92 10000 2.6 20 07:20 06.11.2019
4691 Clouds -5 1004 92 10000 2.6 30 06:44 06.11.2019
4692 Clouds -5 1005 92 10000 2.6 10 06:24 06.11.2019
4693 Clouds -5 1005 79 0 4.1 360 04:32 06.11.2019
4694 Clouds -5 1005 85 10000 1.5 330 02:20 06.11.2019
4695 Clouds -5 1005 85 10000 1.5 340 01:31 06.11.2019
4696 Clouds -5 1005 85 10000 2.1 10 00:39 06.11.2019
4697 Clouds -5 1005 85 10000 1.5 10 23:58 05.11.2019
4698 Clouds -5 1005 85 10000 1.5 10 23:38 05.11.2019
4699 Clouds -5 1005 85 10000 1.5 10 23:38 05.11.2019
4700 Clouds -5 1005 92 10000 2.1 360 23:20 05.11.2019
4701 Clouds -5 1005 85 10000 2.1 20 22:43 05.11.2019
4702 Clouds -5 1005 79 10000 2.1 360 22:20 05.11.2019
4703 Clouds -5 1005 85 10000 2.1 10 21:59 05.11.2019
4704 Clouds -5 1005 85 10000 2.1 10 21:59 05.11.2019
4705 Clouds -5 1005 85 10000 2.1 10 21:41 05.11.2019
4706 Clouds -5 1005 85 10000 3.1 20 21:20 05.11.2019
4707 Clouds -4 1005 85 10000 3.1 20 20:57 05.11.2019
4708 Clouds -5 1005 85 10000 3.1 20 20:38 05.11.2019
4709 Clouds -4 1005 85 10000 3.6 20 20:20 05.11.2019
4710 Clouds -4 1005 85 10000 3.1 30 19:56 05.11.2019
4711 Clouds -4 1005 85 10000 3.1 20 19:38 05.11.2019
4712 Clouds -4 1005 85 10000 3.1 20 19:19 05.11.2019
4713 Clouds -4 1005 79 10000 2.6 10 18:56 05.11.2019
4714 Clouds -3 1005 79 10000 3.6 40 18:38 05.11.2019
4715 Clouds -3 1005 79 10000 3.6 40 18:19 05.11.2019
4716 Clouds -3 1005 79 10000 4.6 20 17:56 05.11.2019
4717 Clouds -3 1005 79 10000 4.6 20 17:56 05.11.2019
4718 Clouds -3 1005 73 10000 4.6 30 17:37 05.11.2019
4719 Clouds -3 1005 73 10000 4.6 30 17:18 05.11.2019
4720 Clouds -2 1005 73 10000 4.1 30 16:42 05.11.2019
4721 Clouds -2 1005 73 10000 4.1 30 16:21 05.11.2019
4722 Clouds -2 1005 79 10000 3.6 30 15:59 05.11.2019
4723 Clouds -1 1005 63 10000 4.6 360 15:37 05.11.2019
4724 Clouds -1 1005 63 10000 5.1 10 15:18 05.11.2019
4725 Clouds -1 1005 63 10000 4.1 10 14:55 05.11.2019
4726 Clouds -1 1005 63 10000 4.1 10 14:55 05.11.2019
4727 Clouds -1 1005 63 10000 4.1 10 14:55 05.11.2019
4728 Clouds -1 1005 63 10000 4.1 10 14:36 05.11.2019
4729 Clouds -1 1005 63 10000 5.1 10 14:18 05.11.2019
4730 Clouds -1 1005 63 10000 6.2 20 13:43 05.11.2019
4731 Clouds -1 1005 63 10000 6.2 10 13:24 05.11.2019
4732 Clouds -2 1005 79 10000 4.6 40 12:42 05.11.2019
4733 Clouds -2 1005 79 10000 4.1 40 12:23 05.11.2019
4734 Clouds -2 1006 79 10000 3.6 30 11:59 05.11.2019
4735 Clouds -2 1006 74 10000 4.6 10 11:40 05.11.2019
4736 Clouds -2 1006 85 10000 3.6 40 11:21 05.11.2019
4737 Clouds -2 1005 85 10000 4.1 20 10:59 05.11.2019
4738 Clouds -2 1006 73 10000 4.1 10 10:40 05.11.2019
4739 Clouds -3 1006 73 10000 4.1 10 10:22 05.11.2019
4740 Clouds -3 1006 73 10000 5.1 10 09:55 05.11.2019
4741 Clouds -4 1005 85 10000 3.6 10 09:37 05.11.2019
4742 Clouds -4 1005 85 10000 3.6 10 09:18 05.11.2019
4743 Clouds -4 1005 85 10000 2.1 10 08:40 05.11.2019
4744 Clouds -4 1005 85 10000 2.6 10 08:20 05.11.2019
4745 Clouds -4 1005 85 10000 5.1 360 07:58 05.11.2019
4746 Clouds -4 1005 85 10000 5.1 360 07:40 05.11.2019
4747 Clouds -4 1005 85 10000 5.1 360 07:40 05.11.2019
4748 Clouds -4 1005 92 10000 4.6 360 07:22 05.11.2019
4749 Clouds -4 1005 92 10000 3.6 360 06:50 05.11.2019
4750 Clouds -4 1005 92 10000 3.1 10 05:51 05.11.2019
4751 Clouds -4 1005 85 10000 3.1 360 05:24 05.11.2019
4752 Clouds -4 1005 85 10000 3.6 10 04:38 05.11.2019
4753 Clouds -3 1005 92 10000 3.1 20 03:56 05.11.2019
4754 Clouds -3 1005 79 10000 4.6 10 02:51 05.11.2019
4755 Clouds -3 1005 85 10000 5.1 10 02:29 05.11.2019
4756 Clouds -3 1005 85 10000 5.1 10 02:29 05.11.2019
4757 Clouds -3 1005 85 10000 3.6 360 01:26 05.11.2019
4758 Clouds -3 1005 85 10000 4.1 10 00:38 05.11.2019
4759 Clouds -3 1005 79 10000 3.6 350 23:59 04.11.2019
4760 Clouds -3 1005 79 10000 3.6 350 23:38 04.11.2019
4761 Clouds -3 1005 79 10000 3.6 350 23:18 04.11.2019
4762 Clouds -3 1005 79 10000 3.6 350 23:18 04.11.2019
4763 Clouds -3 1005 79 10000 3.6 350 23:18 04.11.2019
4764 Clouds -3 1005 79 10000 2.6 340 22:42 04.11.2019
4765 Clouds -3 1005 85 10000 3.1 10 22:24 04.11.2019
4766 Clouds -2 1005 85 10000 3.1 10 21:56 04.11.2019
4767 Clouds -2 1004 79 10000 5.7 10 21:38 04.11.2019
4768 Clouds -2 1005 79 10000 3.1 360 21:19 04.11.2019
4769 Clouds -2 1004 85 10000 4.1 360 20:59 04.11.2019
4770 Clouds -2 1004 85 10000 4.1 360 20:40 04.11.2019
4771 Clouds -2 1004 85 10000 5.1 10 20:21 04.11.2019
4772 Clouds -2 1004 85 10000 5.1 10 19:59 04.11.2019
4773 Clouds -2 1004 85 10000 5.1 10 19:41 04.11.2019
4774 Clouds -2 1004 85 10000 4.1 10 19:22 04.11.2019
4775 Clouds -2 1004 79 10000 5.7 10 18:57 04.11.2019
4776 Clouds -1 1004 79 10000 5.7 10 18:39 04.11.2019
4777 Clouds -1 1004 79 10000 5.1 360 18:19 04.11.2019
4778 Clouds -1 1004 79 10000 4.6 360 17:41 04.11.2019
4779 Clouds -1 1004 79 10000 4.6 360 17:41 04.11.2019
4780 Clouds -1 1004 79 10000 5.1 10 17:22 04.11.2019
4781 Clouds -1 1004 79 10000 4.6 360 16:59 04.11.2019
4782 Clouds -1 1004 79 10000 4.6 360 16:41 04.11.2019
4783 Clouds 0 1003 74 10000 5.7 360 16:23 04.11.2019
4784 Clouds 0 1003 74 10000 5.7 10 15:57 04.11.2019
4785 Clouds 0 1003 74 10000 5.7 10 15:39 04.11.2019
4786 Clouds 0 1003 74 10000 5.7 10 15:19 04.11.2019
4787 Clouds 0 1003 68 10000 6.7 10 14:57 04.11.2019
4788 Clouds 1 1003 68 10000 6.7 20 14:39 04.11.2019
4789 Clouds 1 1003 68 10000 6.7 20 14:19 04.11.2019
4790 Clouds 1 1003 68 10000 6.7 10 13:55 04.11.2019
4791 Clouds 1 1003 68 10000 6.7 10 13:37 04.11.2019
4792 Clear 1 1003 68 10000 7.2 20 13:19 04.11.2019
4793 Clear 1 1003 68 10000 7.2 20 12:44 04.11.2019
4794 Clear 1 1003 68 10000 7.7 20 12:24 04.11.2019
4795 Clear 1 1003 68 10000 7.2 20 11:57 04.11.2019
4796 Clear 0 1003 68 10000 7.2 20 11:39 04.11.2019
4797 Clear 0 1003 68 10000 6.2 20 11:21 04.11.2019
4798 Clear 0 1003 68 10000 6.7 20 10:45 04.11.2019
4799 Clouds 0 1003 68 10000 7.2 20 10:26 04.11.2019
4800 Clouds 0 1003 68 10000 6.2 20 09:56 04.11.2019
4801 Clouds -1 1003 68 10000 6.2 20 09:38 04.11.2019
4802 Clear -1 1003 68 10000 5.7 20 09:19 04.11.2019
4803 Clear -1 1003 68 10000 5.7 20 09:19 04.11.2019
4804 Clear -1 1003 68 10000 6.2 20 08:42 04.11.2019
4805 Clear -1 1002 63 10000 6.2 20 08:21 04.11.2019
4806 Clear -1 1002 68 10000 6.2 20 07:49 04.11.2019
4807 Clear -1 1002 68 10000 5.1 20 07:25 04.11.2019
4808 Clear -1 1002 68 10000 5.1 20 06:59 04.11.2019
4809 Clear -1 1002 68 10000 5.1 20 06:40 04.11.2019
4810 Clear -1 1002 68 10000 5.7 10 06:18 04.11.2019
4811 Clear 0 1001 68 10000 5.7 10 05:30 04.11.2019
4812 Clear -1 1001 68 10000 6.2 20 04:26 04.11.2019
4813 Clouds 0 1001 68 10000 6.2 20 03:29 04.11.2019
4814 Clouds 0 1001 74 10000 5.7 10 01:24 04.11.2019
4815 Clouds 0 1001 68 10000 5.7 20 00:54 04.11.2019
4816 Clouds 0 1001 68 10000 5.7 20 00:22 04.11.2019
4817 Clouds 0 1000 74 10000 5.1 20 23:58 03.11.2019
4818 Clouds 0 1000 74 10000 5.1 20 23:58 03.11.2019
4819 Clouds 0 1000 74 10000 5.1 20 23:37 03.11.2019
4820 Clouds 0 1000 74 10000 5.1 20 23:37 03.11.2019
4821 Clouds 0 1000 74 10000 5.7 20 23:18 03.11.2019
4822 Clouds 0 1000 74 10000 5.7 20 23:18 03.11.2019
4823 Clouds 0 1000 74 10000 5.7 20 23:18 03.11.2019
4824 Clouds 0 1000 74 10000 5.7 20 23:18 03.11.2019
4825 Clouds 0 1000 74 10000 5.7 20 23:18 03.11.2019
4826 Clouds 1 1000 68 10000 5.7 20 22:56 03.11.2019
4827 Clouds 1 1000 68 10000 5.7 20 22:38 03.11.2019
4828 Clouds 1 1000 68 10000 4.6 20 22:18 03.11.2019
4829 Clouds 1 1000 68 10000 5.1 10 21:42 03.11.2019
4830 Clouds 1 1000 68 10000 4.6 10 21:21 03.11.2019
4831 Clouds 1 1000 74 10000 4.1 10 20:57 03.11.2019
4832 Clouds 1 1000 74 10000 4.1 10 20:37 03.11.2019
4833 Clouds 1 1000 74 10000 3.6 10 20:19 03.11.2019
4834 Clouds 1 999 74 10000 3.6 10 19:57 03.11.2019
4835 Clouds 1 999 74 10000 3.6 10 19:38 03.11.2019
4836 Clouds 1 999 74 10000 4.6 10 19:20 03.11.2019
4837 Clouds 1 999 74 10000 4.1 10 18:54 03.11.2019
4838 Clouds 1 999 74 10000 4.1 10 18:36 03.11.2019
4839 Clouds 1 999 74 10000 4.1 10 18:36 03.11.2019
4840 Clouds 1 999 68 10000 4.6 10 18:18 03.11.2019
4841 Clouds 1 999 68 10000 4.6 10 17:42 03.11.2019
4842 Clouds 1 998 74 10000 4.1 20 17:20 03.11.2019
4843 Clouds 1 998 74 10000 4.1 20 16:56 03.11.2019
4844 Clouds 1 998 74 10000 4.1 20 16:56 03.11.2019
4845 Clouds 1 998 74 10000 4.1 20 16:38 03.11.2019
4846 Clouds 1 998 74 10000 4.1 20 16:20 03.11.2019
4847 Clouds 2 998 66 10000 4.1 10 15:57 03.11.2019
4848 Clouds 2 998 66 10000 4.6 10 15:39 03.11.2019
4849 Clouds 2 998 66 10000 4.6 10 15:21 03.11.2019
4850 Clouds 2 998 66 10000 5.1 10 14:42 03.11.2019
4851 Clouds 2 998 63 10000 5.1 10 14:19 03.11.2019
4852 Clouds 2 997 63 10000 5.1 10 13:58 03.11.2019
4853 Clouds 2 997 63 10000 5.1 10 13:40 03.11.2019
4854 Clouds 2 997 66 10000 5.7 10 13:18 03.11.2019
4855 Clouds 2 997 66 10000 5.7 10 12:39 03.11.2019
4856 Clouds 2 997 66 10000 4.6 10 12:20 03.11.2019
4857 Clouds 2 996 64 10000 6.2 40 11:58 03.11.2019
4858 Clouds 2 996 64 10000 6.2 40 11:40 03.11.2019
4859 Clouds 2 996 69 10000 5.7 30 11:20 03.11.2019
4860 Clouds 2 996 69 10000 5.7 30 11:20 03.11.2019
4861 Clouds 1 997 80 10000 4.1 20 10:54 03.11.2019
4862 Clouds 1 997 80 10000 4.1 20 10:36 03.11.2019
4863 Clouds 2 997 70 10000 5.1 10 10:18 03.11.2019
4864 Clouds 1 997 70 10000 5.7 10 09:42 03.11.2019
4865 Clouds 1 996 86 10000 5.7 20 09:23 03.11.2019
4866 Clouds 1 996 80 10000 5.7 20 08:55 03.11.2019
4867 Clouds 1 996 80 10000 5.7 20 08:36 03.11.2019
4868 Clouds 1 996 86 10000 5.7 20 08:18 03.11.2019
4869 Clouds 1 995 86 10000 6.2 20 07:43 03.11.2019
4870 Clouds 1 995 86 10000 5.7 10 07:18 03.11.2019
4871 Clouds 1 995 92 10000 5.1 20 06:39 03.11.2019
4872 Clouds 0 994 79 0 5.7 10 05:52 03.11.2019
4873 Clouds 1 994 79 0 5.1 10 05:32 03.11.2019
4874 Clouds 1 994 82 0 5.1 20 04:51 03.11.2019
4875 Clouds 0 994 82 0 5.1 10 03:54 03.11.2019
4876 Clouds 0 994 92 10000 3.1 360 02:47 03.11.2019
4877 Clouds 0 994 81 0 3.6 20 02:23 03.11.2019
4878 Clouds 0 994 92 10000 4.1 10 01:49 03.11.2019
4879 Clouds 0 994 92 10000 4.1 10 01:24 03.11.2019
4880 Clouds 0 994 86 10000 4.1 360 00:57 03.11.2019
4881 Clouds 0 994 86 10000 4.1 360 00:38 03.11.2019
4882 Clouds 0 993 92 10000 4.6 360 00:19 03.11.2019
4883 Clouds 0 993 92 10000 4.1 360 23:40 02.11.2019
4884 Clouds 0 994 92 10000 2.6 360 23:20 02.11.2019
4885 Clouds 1 994 83 0 4.6 360 22:57 02.11.2019
4886 Clouds 0 994 83 0 4.6 360 22:38 02.11.2019
4887 Clouds 0 994 83 0 5.1 10 22:20 02.11.2019
4888 Clouds 1 994 83 0 5.1 10 21:57 02.11.2019
4889 Clouds 1 994 83 0 5.1 10 21:38 02.11.2019
4890 Clouds 1 994 83 0 5.1 10 21:19 02.11.2019
4891 Clouds 1 994 83 0 5.1 10 21:19 02.11.2019
4892 Clouds 1 993 86 10000 4.6 10 21:00 02.11.2019
4893 Clouds 0 993 92 10000 2.1 360 20:41 02.11.2019
4894 Clear 1 993 86 10000 4.1 360 20:21 02.11.2019
4895 Clouds 1 993 92 10000 3.6 10 19:59 02.11.2019
4896 Clear 1 993 86 10000 3.6 10 19:37 02.11.2019
4897 Clouds 1 993 86 10000 3.1 20 19:18 02.11.2019
4898 Clouds 1 993 91 10000 3.1 10 18:54 02.11.2019
4899 Clouds 1 993 91 10000 3.1 10 18:36 02.11.2019
4900 Clouds 1 993 91 10000 4.6 20 18:18 02.11.2019
4901 Clouds 2 993 86 10000 3.6 20 17:55 02.11.2019
4902 Clouds 2 993 86 10000 3.6 10 17:36 02.11.2019
4903 Clouds 2 993 86 10000 3.6 10 17:18 02.11.2019
4904 Clouds 3 993 86 10000 4.1 10 16:39 02.11.2019
4905 Clouds 3 993 90 10000 4.1 10 16:20 02.11.2019
4906 Rain 3 993 90 10000 3.6 20 15:44 02.11.2019
4907 Clouds 3 993 90 10000 3.1 20 15:22 02.11.2019
4908 Clouds 3 994 93 10000 2.6 20 14:58 02.11.2019
4909 Clouds 3 994 90 10000 2.6 30 14:40 02.11.2019
4910 Clouds 3 994 78 10000 2.6 30 14:21 02.11.2019
4911 Clouds 4 994 93 10000 2.6 30 13:54 02.11.2019
4912 Clouds 3 994 93 10000 1.5 350 13:36 02.11.2019
4913 Clouds 3 994 93 10000 1.5 350 13:18 02.11.2019
4914 Clouds 3 994 80 10000 1.5 0 12:40 02.11.2019
4915 Clouds 3 995 93 10000 1.5 50 12:22 02.11.2019
4916 Clouds 3 995 100 10000 2.6 40 11:55 02.11.2019
4917 Clouds 3 995 100 10000 2.6 40 11:37 02.11.2019
4918 Clouds 3 995 100 10000 1 0 11:37 02.11.2019
4919 Clouds 3 995 100 10000 1 0 11:19 02.11.2019
4920 Clouds 2 995 100 10000 1.5 350 10:43 02.11.2019
4921 Clouds 2 995 89 10000 1.5 360 10:24 02.11.2019
4922 Clouds 2 995 100 10000 2.1 20 09:43 02.11.2019
4923 Clouds 2 995 100 10000 2.1 20 09:43 02.11.2019
4924 Clouds 2 995 89 10000 2.6 360 09:22 02.11.2019
4925 Clouds 1 996 89 10000 1.5 340 08:57 02.11.2019
4926 Clouds 1 996 89 10000 1.5 340 08:39 02.11.2019
4927 Clouds 1 996 96 10000 1.5 30 08:19 02.11.2019
4928 Clouds 1 996 96 10000 2.1 40 07:45 02.11.2019
4929 Clouds 1 996 96 10000 2.1 30 07:26 02.11.2019
4930 Clouds 1 996 96 10000 2.1 30 07:26 02.11.2019
4931 Clouds 1 996 96 8000 2.6 10 06:52 02.11.2019
4932 Mist 1 997 100 3600 1.5 70 06:25 02.11.2019
4933 Mist 1 997 100 4700 1.5 40 05:54 02.11.2019
4934 Mist 1 997 98 2200 2.1 10 04:46 02.11.2019
4935 Fog 1 997 98 900 1.5 340 04:19 02.11.2019
4936 Fog 1 998 98 800 1 350 03:33 02.11.2019
4937 Fog 1 999 98 900 1 0 02:32 02.11.2019
4938 Fog 1 1000 96 900 0.5 0 01:41 02.11.2019
4939 Fog 1 1000 97 500 1 0 01:19 02.11.2019
4940 Fog 1 1001 97 500 1 0 00:42 02.11.2019
4941 Clouds 1 1001 100 0 2.1 40 00:23 02.11.2019
4942 Fog 1 1001 100 450 1 0 23:42 01.11.2019
4943 Clouds 1 1002 100 0 1.5 60 23:20 01.11.2019
4944 Fog 1 1002 100 500 1.5 60 22:43 01.11.2019
4945 Fog 1 1003 100 700 2.1 70 22:22 01.11.2019
4946 Fog 1 1003 100 700 2.1 70 22:22 01.11.2019
4947 Mist 1 1003 100 1800 1.5 60 21:56 01.11.2019
4948 Mist 1 1003 100 1800 1.5 60 21:38 01.11.2019
4949 Mist 1 1003 100 3000 1 0 21:19 01.11.2019
4950 Mist 1 1004 100 1400 1.5 330 20:42 01.11.2019
4951 Fog 1 1004 100 900 1 0 20:24 01.11.2019
4952 Fog 1 1004 100 900 1 0 20:00 01.11.2019
4953 Fog 1 1004 100 0 1.5 330 19:41 01.11.2019
4954 Fog 1 1005 100 550 0.5 0 19:22 01.11.2019
4955 Fog 1 1005 100 550 0.5 0 19:22 01.11.2019
4956 Fog 1 1005 100 500 0.5 0 18:57 01.11.2019
4957 Fog 1 1005 100 500 1 0 18:38 01.11.2019
4958 Fog 1 1005 100 500 1 0 18:18 01.11.2019
4959 Fog 1 1006 100 500 1 330 17:41 01.11.2019
4960 Fog 1 1006 100 500 1 330 17:41 01.11.2019
4961 Fog 1 1006 100 450 1 0 17:23 01.11.2019
4962 Mist 2 1008 100 6500 1.5 60 16:58 01.11.2019
4963 Mist 2 1008 100 6500 1.5 60 16:36 01.11.2019
4964 Clouds 2 1008 100 10000 1 0 16:18 01.11.2019
4965 Clouds 2 1008 100 9000 1 0 15:40 01.11.2019
4966 Clouds 2 1009 100 10000 1 0 15:22 01.11.2019
4967 Clouds 2 1010 93 10000 0.5 0 14:56 01.11.2019
4968 Clouds 2 1010 93 10000 0.5 0 14:38 01.11.2019
4969 Rain 2 1010 93 10000 0.5 0 14:19 01.11.2019
4970 Fog 2 1010 93 4000 1 0 13:55 01.11.2019
4971 Fog 2 1010 93 4000 1 0 13:36 01.11.2019
4972 Fog 2 1011 100 4000 1.5 140 13:18 01.11.2019
4973 Fog 1 1010 100 600 1.5 140 12:42 01.11.2019
4974 Fog 1 1010 100 500 1.5 140 12:24 01.11.2019
4975 Fog 0 1011 100 550 1 0 11:42 01.11.2019
4976 Fog 0 1011 100 550 1 0 11:24 01.11.2019
4977 Fog 0 1011 100 550 1.5 130 10:56 01.11.2019
4978 Fog -1 1012 100 450 1 0 10:38 01.11.2019
4979 Fog -1 1012 100 450 1 0 10:19 01.11.2019
4980 Fog -1 1012 100 500 0.43 80 09:42 01.11.2019
4981 Fog -1 1012 100 500 0.43 80 09:23 01.11.2019
4982 Fog -2 1013 100 500 0.5 0 08:57 01.11.2019
4983 Fog -2 1013 100 500 0.5 0 08:39 01.11.2019
4984 Fog -2 1013 100 500 1 0 08:20 01.11.2019
4985 Fog -2 1013 100 500 1 0 08:20 01.11.2019
4986 Fog -2 1013 100 450 1 0 07:46 01.11.2019
4987 Fog -2 1013 100 10000 1 30 07:23 01.11.2019
4988 Clouds -2 1013 100 10000 0.55 40 06:55 01.11.2019
4989 Fog -2 1014 92 10000 1 30 06:23 01.11.2019
4990 Fog -2 1014 100 10000 1.5 330 05:58 01.11.2019
4991 Fog -2 1014 100 10000 1.5 330 05:38 01.11.2019
4992 Clouds -2 1015 92 10000 0.5 0 03:32 01.11.2019
4993 Clouds -1 1017 92 10000 0.5 0 01:48 01.11.2019
4994 Clouds -1 1017 100 10000 0.93 34 01:19 01.11.2019
4995 Clouds -1 1017 92 10000 0.93 34 00:20 01.11.2019
4996 Clouds -1 1017 100 10000 1.5 360 23:45 31.10.2019
4997 Clouds -1 1018 92 10000 1 0 23:25 31.10.2019
4998 Clouds -1 1018 92 10000 0.5 0 22:58 31.10.2019
4999 Clouds 0 1018 92 10000 0.5 0 22:40 31.10.2019
5000 Clouds 0 1018 92 10000 1 30 22:22 31.10.2019
5001 Clouds 0 1018 92 10000 1 0 21:56 31.10.2019
5002 Clouds 0 1018 92 10000 1 10 21:37 31.10.2019
5003 Clouds 0 1018 92 10000 1 10 21:18 31.10.2019
5004 Clouds 1 1018 92 10000 0.5 0 20:40 31.10.2019
5005 Clouds 1 1018 88 10000 0.45 333 20:22 31.10.2019
5006 Clouds 1 1018 80 10000 1 0 19:48 31.10.2019
5007 Clouds 1 1019 74 10000 1 0 19:29 31.10.2019
5008 Clouds 2 1018 74 10000 1 0 18:59 31.10.2019
5009 Clouds 2 1018 74 10000 1 0 18:41 31.10.2019
5010 Clouds 2 1019 69 10000 2.1 320 18:22 31.10.2019
5011 Clouds 2 1018 88 10000 1 0 17:56 31.10.2019
5012 Clouds 3 1018 88 10000 1 0 17:37 31.10.2019
5013 Clouds 5 1018 81 10000 1.5 0 17:19 31.10.2019
5014 Clouds 6 1018 81 10000 0.03 254 16:41 31.10.2019
5015 Clouds 6 1019 81 10000 1 0 16:20 31.10.2019
5016 Clouds 6 1018 81 10000 1.5 140 15:59 31.10.2019
5017 Clouds 5 1018 81 10000 1.5 140 15:40 31.10.2019
5018 Clouds 5 1019 81 10000 0.5 0 15:20 31.10.2019
5019 Clouds 6 1019 81 10000 1 0 14:57 31.10.2019
5020 Clouds 6 1019 81 10000 1 0 14:39 31.10.2019
5021 Clouds 6 1019 81 10000 1 0 14:39 31.10.2019
5022 Clouds 9 1019 62 10000 0.5 0 14:21 31.10.2019
5023 Clouds 8 1019 62 10000 1 0 13:59 31.10.2019
5024 Clouds 8 1019 62 10000 0.5 0 13:38 31.10.2019
5025 Clouds 8 1019 62 10000 0.5 0 13:19 31.10.2019
5026 Clouds 8 1019 62 10000 1 0 12:55 31.10.2019
5027 Clouds 7 1019 62 10000 1 0 12:37 31.10.2019
5028 Clouds 7 1021 75 10000 2.6 200 12:18 31.10.2019
5029 Clouds 6 1019 86 10000 0.5 0 11:45 31.10.2019
5030 Clouds 5 1019 86 10000 1.5 220 11:20 31.10.2019
5031 Clouds 4 1020 70 10000 1.5 0 10:57 31.10.2019
5032 Clouds 3 1020 70 10000 2.6 210 10:38 31.10.2019
5033 Clouds 3 1020 70 10000 2.6 210 10:20 31.10.2019
5034 Clouds 3 1020 92 10000 2.1 180 09:44 31.10.2019
5035 Clouds 3 1021 75 10000 3.6 190 09:19 31.10.2019
5036 Clouds 3 1021 75 10000 3.1 190 08:57 31.10.2019
5037 Clouds 3 1021 75 10000 3.1 190 08:39 31.10.2019
5038 Clouds 2 1019 92 10000 0.94 254 08:20 31.10.2019
5039 Clouds 2 1019 73 10000 2.1 340 07:44 31.10.2019
5040 Clouds 2 1019 74 10000 3.1 340 07:24 31.10.2019
5041 Clouds 2 1019 73 10000 1 0 06:50 31.10.2019
5042 Clouds 2 1019 73 10000 1.5 330 06:30 31.10.2019
5043 Clouds 1 1019 76 10000 1 0 05:18 31.10.2019
5044 Clouds 1 1019 76 10000 1 0 05:18 31.10.2019
5045 Clouds 1 1019 92 10000 2.1 130 02:47 31.10.2019
5046 Clouds 1 1020 92 10000 1.5 0 02:22 31.10.2019
5047 Clouds 0 1020 92 10000 1.5 140 00:48 31.10.2019
5048 Clouds 0 1020 92 10000 1.5 140 00:24 31.10.2019
5049 Clouds 0 1020 86 10000 1 0 23:40 30.10.2019
5050 Clouds 0 1020 92 10000 1 0 23:22 30.10.2019
5051 Clouds 0 1021 70 10000 1 0 22:41 30.10.2019
5052 Clouds 0 1021 92 10000 1.5 130 22:19 30.10.2019
5053 Clouds 0 1021 92 10000 1.12 235 21:54 30.10.2019
5054 Clouds 0 1021 70 10000 1 0 21:36 30.10.2019
5055 Clouds 0 1021 70 10000 1 0 21:36 30.10.2019
5056 Clouds 0 1021 70 10000 1 0 21:18 30.10.2019
5057 Clouds 0 1021 70 10000 1.5 240 20:57 30.10.2019
5058 Clouds 0 1021 70 10000 1.5 240 20:57 30.10.2019
5059 Clouds 0 1021 69 10000 0.5 0 20:37 30.10.2019
5060 Clouds 0 1021 66 10000 0.5 0 20:19 30.10.2019
5061 Clouds 0 1021 66 10000 1 0 19:42 30.10.2019
5062 Clouds 0 1022 66 10000 1 0 19:24 30.10.2019
5063 Clouds 0 1022 80 10000 1 0 18:59 30.10.2019
5064 Clouds 0 1022 80 10000 1 0 18:38 30.10.2019
5065 Clouds 1 1022 80 10000 1 0 18:19 30.10.2019
5066 Clouds 1 1022 74 10000 1 0 17:55 30.10.2019
5067 Clouds 1 1022 74 10000 1 0 17:37 30.10.2019
5068 Clouds 1 1022 74 10000 1 0 17:37 30.10.2019
5069 Clouds 1 1022 74 10000 1 0 17:37 30.10.2019
5070 Clouds 1 1022 74 10000 0.5 0 17:18 30.10.2019
5071 Clouds 2 1022 69 10000 1 200 16:42 30.10.2019
5072 Clouds 2 1022 69 10000 1 0 16:24 30.10.2019
5073 Clouds 2 1022 69 10000 1 0 16:24 30.10.2019
5074 Clouds 2 1022 64 10000 2.1 220 16:00 30.10.2019
5075 Clouds 2 1022 64 10000 2.1 220 15:40 30.10.2019
5076 Clouds 3 1023 69 10000 2.1 180 15:21 30.10.2019
5077 Clouds 3 1023 64 10000 3.1 210 14:59 30.10.2019
5078 Clouds 3 1023 64 10000 3.1 210 14:40 30.10.2019
5079 Clouds 3 1023 64 10000 2.1 200 14:22 30.10.2019
5080 Clouds 3 1023 69 10000 2.6 200 13:55 30.10.2019
5081 Clouds 3 1023 64 10000 2.1 140 13:37 30.10.2019
5082 Clouds 3 1023 69 10000 2.6 200 13:37 30.10.2019
5083 Clouds 3 1023 64 10000 2.1 140 13:18 30.10.2019
5084 Clouds 2 1024 69 10000 2.1 150 12:45 30.10.2019
5085 Clouds 2 1024 80 10000 2.1 150 12:27 30.10.2019
5086 Clouds 1 1024 48 10000 1 0 11:58 30.10.2019
5087 Clouds 2 1024 48 10000 1 0 11:40 30.10.2019
5088 Clouds 1 1025 92 10000 1.5 220 11:21 30.10.2019
5089 Clouds 0 1025 86 10000 1 0 10:43 30.10.2019
5090 Clouds 0 1025 92 10000 0.05 357 10:23 30.10.2019
5091 Clouds -1 1025 92 10000 0.5 0 09:42 30.10.2019
5092 Clouds -1 1025 86 10000 1.5 150 09:24 30.10.2019
5093 Clouds -2 1025 86 10000 1 0 08:57 30.10.2019
5094 Clouds -2 1025 86 10000 1 0 08:39 30.10.2019
5095 Clouds -2 1025 92 10000 0.65 3 08:20 30.10.2019
5096 Clouds -2 1025 92 10000 1 0 07:46 30.10.2019
5097 Clouds -2 1025 92 10000 1 0 07:24 30.10.2019
5098 Clouds -2 1025 92 10000 0.65 3 06:42 30.10.2019
5099 Clouds -3 1026 92 10000 1 0 06:21 30.10.2019
5100 Clouds -3 1026 92 10000 0.65 3 05:42 30.10.2019
5101 Clouds -3 1026 92 10000 0.21 263 04:55 30.10.2019
5102 Clouds -3 1027 92 10000 0.21 263 03:43 30.10.2019
5103 Clouds -3 1027 92 10000 1 0 02:55 30.10.2019
5104 Clouds -3 1027 85 10000 1 360 02:19 30.10.2019
5105 Clouds -3 1027 92 10000 0.18 283 01:31 30.10.2019
5106 Clouds -2 1027 86 10000 1 340 00:31 30.10.2019
5107 Clouds -2 1027 86 10000 1 350 23:46 29.10.2019
5108 Clouds -2 1027 86 10000 1.5 340 23:24 29.10.2019
5109 Clouds -2 1027 79 10000 1 0 22:49 29.10.2019
5110 Clouds -1 1027 86 10000 1 340 22:20 29.10.2019
5111 Clouds -1 1027 79 10000 1 10 21:59 29.10.2019
5112 Clouds -1 1027 79 10000 1 10 21:41 29.10.2019
5113 Clouds -1 1027 65 10000 1 40 21:20 29.10.2019
5114 Clouds -1 1027 65 10000 2.1 320 20:59 29.10.2019
5115 Clouds 0 1027 65 10000 2.1 320 20:40 29.10.2019
5116 Clouds 0 1027 64 10000 2.6 320 20:21 29.10.2019
5117 Clouds 0 1027 64 10000 1.5 350 19:57 29.10.2019
5118 Clouds 0 1027 64 10000 1.5 350 19:38 29.10.2019
5119 Clouds 0 1027 59 10000 1.5 330 19:20 29.10.2019
5120 Clouds 0 1027 59 10000 1.5 0 18:56 29.10.2019
5121 Clouds 0 1027 59 10000 1.5 0 18:56 29.10.2019
5122 Clouds 0 1027 59 10000 1.5 0 18:37 29.10.2019
5123 Clouds 1 1027 55 10000 1.5 360 18:19 29.10.2019
5124 Clouds 2 1026 55 10000 1.5 300 17:54 29.10.2019
5125 Clouds 2 1026 55 10000 1.5 300 17:36 29.10.2019
5126 Clear 2 1026 51 10000 2.1 290 17:18 29.10.2019
5127 Clear 3 1026 44 10000 2.6 300 16:39 29.10.2019
5128 Clear 4 1026 41 10000 2.6 300 16:21 29.10.2019
5129 Clear 4 1026 45 10000 3.1 300 15:56 29.10.2019
5130 Clear 5 1026 45 10000 3.1 300 15:38 29.10.2019
5131 Clear 6 1026 41 10000 3.6 0 15:20 29.10.2019
5132 Clear 6 1026 45 10000 4.1 300 14:55 29.10.2019
5133 Clear 6 1026 45 10000 4.1 300 14:37 29.10.2019
5134 Clear 7 1026 45 10000 4.1 300 14:18 29.10.2019
5135 Clear 7 1026 45 10000 4.1 300 14:18 29.10.2019
5136 Clear 7 1026 45 10000 3.1 310 13:40 29.10.2019
5137 Clear 6 1026 45 10000 3.6 300 13:22 29.10.2019
5138 Clear 6 1026 45 10000 3.1 290 12:46 29.10.2019
5139 Clear 5 1026 45 10000 3.1 300 12:26 29.10.2019
5140 Clear 5 1026 45 10000 3.1 300 12:26 29.10.2019
5141 Clear 5 1026 45 10000 2.6 300 11:59 29.10.2019
5142 Clear 5 1026 45 10000 2.6 300 11:41 29.10.2019
5143 Clear 3 1026 52 10000 1.5 300 11:19 29.10.2019
5144 Clear 3 1026 55 10000 2.1 300 10:57 29.10.2019
5145 Clear 3 1027 69 10000 1.5 330 10:38 29.10.2019
5146 Clear 2 1027 69 10000 1.5 330 10:20 29.10.2019
5147 Clear 1 1026 59 10000 2.6 300 09:55 29.10.2019
5148 Clear 0 1025 64 10000 2.6 320 09:37 29.10.2019
5149 Clear 0 1025 64 10000 2.6 320 09:19 29.10.2019
5150 Clear 0 1025 58 10000 2.6 310 08:43 29.10.2019
5151 Clear -1 1025 74 10000 1.5 290 08:24 29.10.2019
5152 Clear -1 1025 68 10000 1.5 270 07:54 29.10.2019
5153 Clear -1 1024 68 10000 2.6 320 07:36 29.10.2019
5154 Clear -1 1024 68 10000 2.6 320 07:18 29.10.2019
5155 Clear -1 1024 68 10000 2.1 330 06:42 29.10.2019
5156 Clear -1 1024 68 10000 3.6 350 06:20 29.10.2019
5157 Clear 0 1024 69 10000 3.6 350 05:50 29.10.2019
5158 Clear 0 1024 69 10000 3.6 350 05:50 29.10.2019
5159 Clear 0 1024 69 10000 2.6 340 05:19 29.10.2019
5160 Clear 0 1023 69 10000 2.6 330 03:55 29.10.2019
5161 Clear 0 1022 69 10000 3.1 360 02:32 29.10.2019
5162 Clear 0 1022 69 10000 3.6 350 01:46 29.10.2019
5163 Clear 0 1022 69 10000 4.1 360 01:18 29.10.2019
5164 Clear 0 1021 69 10000 2.6 340 00:30 29.10.2019
5165 Clear 0 1021 69 10000 1.5 260 23:42 28.10.2019
5166 Clear 0 1021 69 10000 1.5 300 23:20 28.10.2019
5167 Clear 0 1020 64 10000 2.6 270 22:57 28.10.2019
5168 Clear 0 1020 64 10000 2.6 270 22:37 28.10.2019
5169 Clear 0 1020 64 10000 2.6 270 22:18 28.10.2019
5170 Clear 0 1020 64 10000 2.6 290 21:54 28.10.2019
5171 Clear 0 1020 64 10000 2.6 290 21:54 28.10.2019
5172 Clear 0 1020 64 10000 2.6 290 21:36 28.10.2019
5173 Clear 0 1020 59 10000 2.1 300 21:18 28.10.2019
5174 Clear 0 1020 64 10000 2.6 300 20:42 28.10.2019
5175 Clear 0 1019 64 10000 2.6 300 20:24 28.10.2019
5176 Clear 0 1019 64 10000 2.6 300 20:24 28.10.2019
5177 Clear 1 1019 74 10000 1.5 330 19:58 28.10.2019
5178 Clear 1 1019 74 10000 1.5 330 19:39 28.10.2019
5179 Clear 1 1019 69 10000 2.6 310 19:20 28.10.2019
5180 Clear 1 1019 74 10000 3.1 300 18:58 28.10.2019
5181 Clear 1 1019 74 10000 3.1 300 18:39 28.10.2019
5182 Clear 2 1018 69 10000 2.6 300 18:21 28.10.2019
5183 Clear 2 1018 69 10000 2.1 320 17:56 28.10.2019
5184 Clear 2 1018 69 10000 2.1 320 17:56 28.10.2019
5185 Clear 2 1018 69 10000 2.1 320 17:38 28.10.2019
5186 Clear 3 1018 69 10000 1.5 300 17:19 28.10.2019
5187 Clear 3 1018 56 10000 2.1 250 16:55 28.10.2019
5188 Clear 4 1018 56 10000 2.1 250 16:37 28.10.2019
5189 Clear 4 1017 60 10000 1.5 0 16:19 28.10.2019
5190 Clear 5 1017 60 10000 1.5 270 15:56 28.10.2019
5191 Clear 5 1017 52 10000 1.5 290 15:37 28.10.2019
5192 Clear 6 1017 52 10000 1.5 290 15:18 28.10.2019
5193 Clear 7 1017 52 10000 1.5 10 14:55 28.10.2019
5194 Clear 7 1017 52 10000 1.5 10 14:37 28.10.2019
5195 Clouds 7 1017 52 10000 2.1 0 14:18 28.10.2019
5196 Clouds 7 1017 52 10000 1 0 13:54 28.10.2019
5197 Clouds 7 1017 52 10000 1 0 13:54 28.10.2019
5198 Clouds 6 1017 60 10000 1.5 160 13:36 28.10.2019
5199 Clouds 6 1017 60 10000 1.5 160 13:18 28.10.2019
5200 Clouds 6 1017 64 10000 1 0 12:40 28.10.2019
5201 Clouds 5 1016 60 10000 1 0 12:19 28.10.2019
5202 Clouds 5 1016 60 10000 1 0 11:38 28.10.2019
5203 Clouds 4 1016 64 10000 1 0 11:20 28.10.2019
5204 Clouds 4 1016 64 10000 1 0 10:56 28.10.2019
5205 Clouds 3 1016 64 10000 1 0 10:38 28.10.2019
5206 Clouds 3 1015 64 10000 0.75 308 10:19 28.10.2019
5207 Clouds 2 1015 74 10000 1 0 09:54 28.10.2019
5208 Clouds 1 1014 74 10000 1 0 09:36 28.10.2019
5209 Clouds 1 1014 74 10000 1 0 09:18 28.10.2019
5210 Clouds 0 1014 66 10000 0.5 0 08:55 28.10.2019
5211 Clouds 0 1014 68 10000 0.5 0 08:37 28.10.2019
5212 Clouds 0 1014 86 10000 2.1 300 08:18 28.10.2019
5213 Clouds 0 1013 74 10000 1.5 340 07:42 28.10.2019
5214 Clouds 0 1013 74 10000 0.5 0 07:21 28.10.2019
5215 Clouds 0 1013 86 10000 2.6 10 06:55 28.10.2019
5216 Clouds 0 1013 86 10000 2.6 10 06:34 28.10.2019
5217 Clouds 0 1012 86 10000 1.5 50 04:39 28.10.2019
5218 Clouds 0 1011 86 10000 1.5 310 03:43 28.10.2019
5219 Clouds 0 1011 86 10000 1 20 02:45 28.10.2019
5220 Clouds -1 1010 73 10000 1 0 01:36 28.10.2019
5221 Clouds -1 1010 73 10000 1.5 320 00:46 28.10.2019
5222 Clouds -1 1009 73 10000 1 0 00:23 28.10.2019
5223 Clouds -1 1009 92 10000 1 350 23:44 27.10.2019
5224 Clouds -1 1009 86 10000 2.1 10 23:21 27.10.2019
5225 Clouds -1 1008 86 10000 2.6 340 22:56 27.10.2019
5226 Clouds -1 1008 86 10000 2.6 340 22:56 27.10.2019
5227 Clouds -1 1008 79 10000 2.6 330 22:37 27.10.2019
5228 Clouds -1 1008 79 10000 2.6 330 22:18 27.10.2019
5229 Clouds -1 1007 92 10000 1.5 350 21:40 27.10.2019
5230 Clouds -1 1008 79 0 1 20 21:22 27.10.2019
5231 Clouds 0 1007 78 10000 2.1 340 20:59 27.10.2019
5232 Clouds 0 1007 78 10000 2.1 340 20:40 27.10.2019
5233 Clouds 0 1006 81 10000 3.1 320 20:22 27.10.2019
5234 Clouds 0 1006 81 10000 2.6 330 19:58 27.10.2019
5235 Clouds 0 1006 81 10000 2.6 330 19:37 27.10.2019
5236 Clouds 0 1006 81 10000 1.5 340 19:19 27.10.2019
5237 Clouds 1 1005 80 10000 1.5 350 18:56 27.10.2019
5238 Clouds 1 1005 80 10000 1.5 350 18:38 27.10.2019
5239 Clouds 1 1005 74 10000 0.5 0 18:20 27.10.2019
5240 Clouds 2 1006 93 0 0.5 0 17:55 27.10.2019
5241 Clouds 2 1005 64 10000 0.67 318 17:36 27.10.2019
5242 Clear 2 1006 80 0 1.5 220 17:18 27.10.2019
5243 Clear 3 1004 65 10000 2.1 200 16:55 27.10.2019
5244 Clear 3 1004 65 10000 2.1 200 16:55 27.10.2019
5245 Clear 4 1004 60 10000 1.5 210 16:37 27.10.2019
5246 Clear 4 1004 60 10000 1.5 210 16:18 27.10.2019
5247 Clear 4 1004 56 10000 1.5 190 15:55 27.10.2019
5248 Clear 5 1004 56 10000 1.5 190 15:36 27.10.2019
5249 Clear 5 1003 60 10000 1 0 15:18 27.10.2019
5250 Clear 6 1003 56 10000 1 0 14:41 27.10.2019
5251 Clear 6 1003 60 10000 1 0 14:19 27.10.2019
5252 Clear 6 1003 65 10000 0.5 0 13:55 27.10.2019
5253 Clouds 6 1003 65 10000 0.5 0 13:37 27.10.2019
5254 Clouds 6 1002 64 10000 1 0 13:18 27.10.2019
5255 Clouds 5 1002 64 10000 1.5 170 12:42 27.10.2019
5256 Clouds 5 1002 69 10000 1 0 12:23 27.10.2019
5257 Clouds 4 1001 69 10000 1.5 310 11:55 27.10.2019
5258 Clouds 4 1001 69 10000 1.5 310 11:37 27.10.2019
5259 Clouds 3 1001 74 10000 1.5 0 11:18 27.10.2019
5260 Clouds 3 1001 80 10000 0.5 0 10:41 27.10.2019
5261 Clouds 3 1001 80 10000 0.5 0 10:22 27.10.2019
5262 Clouds 2 1000 80 10000 1 0 09:44 27.10.2019
5263 Clouds 2 1000 80 10000 1 0 09:44 27.10.2019
5264 Clouds 2 1000 83 10000 2.1 280 09:19 27.10.2019
5265 Clouds 2 1000 81 10000 2.1 320 08:59 27.10.2019
5266 Clouds 2 1000 81 10000 2.1 320 08:39 27.10.2019
5267 Clouds 2 1000 92 10000 2.1 290 08:19 27.10.2019
5268 Clouds 2 999 86 10000 2.1 280 07:48 27.10.2019
5269 Clouds 2 999 86 10000 2.6 320 07:28 27.10.2019
5270 Clouds 2 999 86 10000 2.6 320 07:28 27.10.2019
5271 Rain 2 1000 100 0 2.1 350 06:56 27.10.2019
5272 Clouds 2 999 92 10000 1.5 290 06:31 27.10.2019
5273 Clouds 2 999 92 10000 1.5 310 05:58 27.10.2019
5274 Clouds 2 999 92 10000 1.5 310 05:37 27.10.2019
5275 Clouds 2 999 97 10000 1 0 04:32 27.10.2019
5276 Mist 2 1001 100 3700 2.1 350 02:42 27.10.2019
5277 Clouds 2 1000 96 10000 2.1 290 01:28 27.10.2019
5278 Clouds 3 1001 96 10000 1.5 300 00:56 27.10.2019
5279 Clouds 3 1001 96 10000 1.5 300 00:38 27.10.2019
5280 Clouds 3 1001 96 10000 1.5 290 23:59 26.10.2019
5281 Clouds 3 1001 96 10000 1.5 290 23:59 26.10.2019
5282 Clouds 3 1001 96 10000 1.5 290 23:40 26.10.2019
5283 Clouds 2 1001 93 10000 2.1 310 23:22 26.10.2019
5284 Clouds 2 1001 93 10000 2.1 250 22:58 26.10.2019
5285 Clouds 3 1001 93 10000 2.1 250 22:39 26.10.2019
5286 Clouds 3 1001 93 10000 1 0 22:20 26.10.2019
5287 Clouds 3 1001 93 10000 2.6 220 21:59 26.10.2019
5288 Clouds 3 1001 93 10000 2.6 220 21:40 26.10.2019
5289 Clouds 3 1001 100 10000 2.1 200 21:19 26.10.2019
5290 Clouds 3 1001 93 10000 2.6 200 20:45 26.10.2019
5291 Clouds 3 1001 93 10000 2.6 200 20:20 26.10.2019
5292 Clouds 4 1001 86 10000 2.1 200 19:56 26.10.2019
5293 Clouds 4 1001 93 10000 2.1 190 19:38 26.10.2019
5294 Clouds 4 1001 93 10000 2.1 190 19:19 26.10.2019
5295 Clouds 4 1001 86 10000 3.6 200 18:55 26.10.2019
5296 Clouds 4 1001 86 10000 3.6 200 18:37 26.10.2019
5297 Clouds 4 1001 80 10000 3.1 210 18:18 26.10.2019
5298 Clouds 5 1001 86 10000 4.6 190 17:39 26.10.2019
5299 Clouds 5 1001 86 10000 4.6 190 17:21 26.10.2019
5300 Clouds 5 1001 80 10000 2.6 220 16:58 26.10.2019
5301 Clouds 5 1001 80 10000 2.6 220 16:40 26.10.2019
5302 Clouds 5 1002 80 10000 3.1 210 16:21 26.10.2019
5303 Clouds 6 1001 80 10000 2.6 220 15:41 26.10.2019
5304 Clouds 6 1002 80 10000 2.6 230 15:19 26.10.2019
5305 Clouds 5 1001 86 10000 2.1 240 14:41 26.10.2019
5306 Clouds 5 1001 86 10000 2.1 240 14:22 26.10.2019
5307 Clouds 5 1002 80 0 1.42 214 13:59 26.10.2019
5308 Clouds 5 1002 80 0 1.42 214 13:40 26.10.2019
5309 Clouds 5 1002 80 0 1.42 214 13:40 26.10.2019
5310 Clouds 5 1001 86 10000 1 0 13:20 26.10.2019
5311 Clouds 4 979 84 0 1.42 214 12:46 26.10.2019
5312 Clouds 4 1000 93 10000 1 0 12:23 26.10.2019
5313 Clouds 4 1000 93 10000 1 0 11:50 26.10.2019
5314 Clouds 4 1000 93 10000 1 0 11:29 26.10.2019
5315 Clouds 4 1000 93 10000 1 0 11:29 26.10.2019
5316 Rain 4 1000 93 10000 2.1 320 10:54 26.10.2019
5317 Rain 4 1000 93 10000 2.1 320 10:36 26.10.2019
5318 Rain 4 999 93 10000 1 350 10:18 26.10.2019
5319 Rain 4 999 93 10000 1.5 340 09:41 26.10.2019
5320 Rain 3 999 93 10000 1.5 360 09:23 26.10.2019
5321 Drizzle 3 999 93 10000 1 0 08:43 26.10.2019
5322 Rain 3 999 93 10000 1 0 08:25 26.10.2019
5323 Rain 3 999 93 10000 1 240 07:47 26.10.2019
5324 Rain 3 999 93 10000 1.5 150 07:28 26.10.2019
5325 Rain 2 999 93 10000 0.5 150 06:43 26.10.2019
5326 Rain 3 1000 86 10000 1 110 06:24 26.10.2019
5327 Rain 3 1001 86 10000 2.6 190 05:19 26.10.2019
5328 Rain 4 1002 86 10000 3.6 180 04:24 26.10.2019
5329 Clouds 5 1004 76 10000 4.1 190 02:47 26.10.2019
5330 Clouds 5 1004 76 10000 4.1 210 01:55 26.10.2019
5331 Clouds 5 1004 76 10000 5.1 200 01:22 26.10.2019
5332 Clouds 5 1005 71 10000 5.1 170 00:24 26.10.2019
5333 Clouds 5 1005 69 10000 4.6 160 23:43 25.10.2019
5334 Clouds 5 1005 64 10000 3.6 180 23:20 25.10.2019
5335 Clouds 5 1005 64 10000 5.1 180 22:41 25.10.2019
5336 Clouds 5 1005 64 10000 4.1 190 22:23 25.10.2019
5337 Clouds 5 1005 56 10000 5.1 170 21:58 25.10.2019
5338 Clouds 5 1005 56 10000 5.1 170 21:40 25.10.2019
5339 Clouds 5 1005 56 10000 4.6 170 21:21 25.10.2019
5340 Clear 5 1004 52 10000 3.6 200 20:56 25.10.2019
5341 Clear 6 1004 52 10000 3.6 200 20:38 25.10.2019
5342 Clear 6 1004 45 10000 4.1 220 20:18 25.10.2019
5343 Clear 6 1004 48 10000 3.1 220 19:43 25.10.2019
5344 Clear 6 1003 45 10000 4.6 240 19:25 25.10.2019
5345 Clear 7 1003 52 10000 4.6 230 18:45 25.10.2019
5346 Rain 7 1002 49 10000 6.2 220 18:23 25.10.2019
5347 Clear 8 1002 52 10000 6.7 220 17:42 25.10.2019
5348 Clear 9 1002 62 10000 4.6 200 17:22 25.10.2019
5349 Clear 9 1001 57 10000 5.1 210 16:56 25.10.2019
5350 Clear 9 1001 57 10000 5.1 210 16:37 25.10.2019
5351 Clear 10 1001 49 10000 4.1 230 16:19 25.10.2019
5352 Clear 10 1001 49 10000 4.1 230 15:41 25.10.2019
5353 Clouds 10 1001 49 10000 5.7 230 15:22 25.10.2019
5354 Clouds 10 1000 49 10000 4.6 230 14:59 25.10.2019
5355 Clouds 10 1000 50 10000 5.7 220 14:39 25.10.2019
5356 Clouds 10 1000 50 10000 5.7 220 14:20 25.10.2019
5357 Clouds 10 1000 50 10000 5.7 230 13:44 25.10.2019
5358 Clouds 10 1000 50 10000 5.7 230 13:44 25.10.2019
5359 Clouds 10 999 57 10000 5.7 230 13:24 25.10.2019
5360 Clouds 10 999 57 10000 6.2 220 12:57 25.10.2019
5361 Clouds 10 999 57 10000 6.2 220 12:39 25.10.2019
5362 Clouds 10 997 61 10000 6.2 220 12:19 25.10.2019
5363 Clouds 10 997 66 10000 5.7 220 11:41 25.10.2019
5364 Clouds 10 996 70 10000 5.7 220 11:23 25.10.2019
5365 Clouds 9 995 70 10000 5.7 230 10:59 25.10.2019
5366 Clouds 9 995 70 10000 5.7 230 10:39 25.10.2019
5367 Clouds 9 994 76 10000 5.7 250 10:20 25.10.2019
5368 Rain 9 992 81 10000 7.2 210 09:55 25.10.2019
5369 Rain 10 992 81 10000 7.2 210 09:36 25.10.2019
5370 Rain 10 991 93 10000 9.8 180 09:18 25.10.2019
5371 Rain 10 991 93 10000 9.8 170 08:43 25.10.2019
5372 Rain 11 991 93 10000 9.3 160 08:23 25.10.2019
5373 Rain 11 992 100 6000 7.2 150 07:51 25.10.2019
5374 Rain 12 992 100 6000 7.2 150 07:32 25.10.2019
5375 Rain 12 994 100 10000 6.2 150 06:39 25.10.2019
5376 Rain 12 995 93 8000 6.2 160 05:51 25.10.2019
5377 Clouds 12 996 93 10000 6.2 160 05:32 25.10.2019
5378 Clouds 11 996 100 9000 4.6 160 04:39 25.10.2019
5379 Clouds 11 998 100 10000 5.7 160 02:46 25.10.2019
5380 Drizzle 11 999 100 7000 5.7 160 01:53 25.10.2019
5381 Rain 11 1000 100 5000 6.2 160 00:41 25.10.2019
5382 Rain 11 1000 100 4300 5.1 160 00:18 25.10.2019
5383 Drizzle 11 1000 100 4800 5.1 150 23:40 24.10.2019
5384 Drizzle 11 1001 100 3700 4.6 140 23:21 24.10.2019
5385 Drizzle 11 1001 100 3200 3.1 140 22:54 24.10.2019
5386 Drizzle 11 1001 100 3200 3.1 140 22:54 24.10.2019
5387 Drizzle 11 1001 100 3200 3.1 140 22:36 24.10.2019
5388 Drizzle 11 1001 100 2800 2.6 200 22:18 24.10.2019
5389 Rain 10 1002 100 3800 3.6 150 21:54 24.10.2019
5390 Rain 10 1002 100 3800 3.6 150 21:54 24.10.2019
5391 Rain 10 1002 100 3800 3.6 150 21:36 24.10.2019
5392 Rain 10 1002 100 3800 3.6 150 21:36 24.10.2019
5393 Rain 11 1002 100 4200 4.1 140 21:18 24.10.2019
5394 Rain 10 1003 100 4800 4.1 160 20:54 24.10.2019
5395 Rain 10 1003 100 4800 4.1 160 20:36 24.10.2019
5396 Rain 10 1003 100 4200 0.5 0 20:18 24.10.2019
5397 Drizzle 10 1004 93 4600 2.1 190 19:42 24.10.2019
5398 Drizzle 10 1004 100 3400 2.6 140 19:23 24.10.2019
5399 Drizzle 10 1004 100 2800 2.1 110 18:58 24.10.2019
5400 Drizzle 10 1004 100 2800 2.1 110 18:58 24.10.2019
5401 Drizzle 10 1005 100 2400 1.5 100 18:39 24.10.2019
5402 Drizzle 10 1005 100 2400 1.5 100 18:21 24.10.2019
5403 Drizzle 10 1005 100 1500 1.5 80 17:56 24.10.2019
5404 Drizzle 9 1005 100 1500 1.5 80 17:37 24.10.2019
5405 Drizzle 10 1005 100 2000 1.5 80 17:18 24.10.2019
5406 Rain 9 1005 93 2600 1.5 90 16:42 24.10.2019
5407 Rain 9 1006 93 5000 1.5 140 16:23 24.10.2019
5408 Rain 9 1006 93 5000 1.5 140 16:23 24.10.2019
5409 Rain 10 1006 93 3500 2.1 150 15:59 24.10.2019
5410 Drizzle 9 1007 93 5000 2.6 160 15:41 24.10.2019
5411 Drizzle 9 1007 93 5000 2.6 160 15:23 24.10.2019
5412 Drizzle 9 1007 93 7000 3.1 170 14:59 24.10.2019
5413 Drizzle 9 1007 93 7000 3.1 170 14:41 24.10.2019
5414 Drizzle 9 1007 100 7000 2.1 200 14:22 24.10.2019
5415 Clouds 9 1007 93 9000 2.1 180 13:42 24.10.2019
5416 Drizzle 9 1007 93 9000 2.1 180 13:21 24.10.2019
5417 Clouds 9 1007 93 9000 1 0 12:59 24.10.2019
5418 Clouds 9 1007 93 9000 1 0 12:40 24.10.2019
5419 Drizzle 9 1007 93 9000 3.1 170 12:20 24.10.2019
5420 Rain 9 1008 87 10000 3.1 180 11:57 24.10.2019
5421 Rain 9 1008 87 10000 3.1 180 11:39 24.10.2019
5422 Clouds 8 1008 93 10000 3.6 180 11:20 24.10.2019
5423 Rain 8 1008 87 10000 4.1 190 10:59 24.10.2019
5424 Clouds 8 1008 87 10000 5.7 190 10:41 24.10.2019
5425 Rain 8 1008 87 10000 4.1 190 10:41 24.10.2019
5426 Clouds 8 1008 87 10000 5.7 190 10:22 24.10.2019
5427 Clouds 8 1008 93 10000 4.1 190 09:39 24.10.2019
5428 Clouds 8 1008 93 10000 3.6 200 09:19 24.10.2019
5429 Clouds 8 1008 87 10000 4.6 190 08:56 24.10.2019
5430 Clouds 8 1008 87 10000 4.1 190 08:37 24.10.2019
5431 Clouds 8 1008 87 10000 4.1 190 08:18 24.10.2019
5432 Clouds 7 1008 87 10000 1 0 07:46 24.10.2019
5433 Clouds 7 1008 87 10000 3.1 230 07:23 24.10.2019
5434 Clouds 7 1007 93 10000 1 0 06:48 24.10.2019
5435 Clouds 7 1008 87 10000 0.5 0 06:26 24.10.2019
5436 Clouds 7 1008 87 10000 2.1 140 05:52 24.10.2019
5437 Clouds 6 1008 87 10000 1.5 150 05:29 24.10.2019
5438 Clouds 7 1008 87 10000 5.1 210 03:39 24.10.2019
5439 Clouds 7 1008 87 10000 4.6 210 03:19 24.10.2019
5440 Clouds 7 1008 81 10000 3.6 190 02:29 24.10.2019
5441 Clouds 7 1008 87 10000 5.7 200 01:54 24.10.2019
5442 Clouds 7 1009 87 10000 3.6 200 01:29 24.10.2019
5443 Clouds 7 1009 81 10000 5.7 210 00:44 24.10.2019
5444 Clouds 7 1009 87 10000 3.6 180 00:23 24.10.2019
5445 Clouds 8 1009 93 10000 3.1 180 23:43 23.10.2019
5446 Clouds 8 1009 93 10000 3.1 180 23:43 23.10.2019
5447 Clouds 8 1009 87 10000 4.1 180 23:23 23.10.2019
5448 Clouds 8 1009 87 10000 4.1 180 23:23 23.10.2019
5449 Clouds 8 1009 87 10000 2.6 160 22:57 23.10.2019
5450 Clouds 8 1009 93 10000 2.6 170 22:38 23.10.2019
5451 Clouds 8 1009 93 10000 2.6 170 22:19 23.10.2019
5452 Clouds 8 1009 87 10000 3.1 190 21:58 23.10.2019
5453 Clouds 8 1009 87 10000 3.1 190 21:39 23.10.2019
5454 Clouds 8 1009 87 10000 5.1 200 21:20 23.10.2019
5455 Clouds 8 1009 81 10000 5.7 210 20:58 23.10.2019
5456 Clouds 9 1009 81 10000 5.7 210 20:39 23.10.2019
5457 Clouds 9 1009 87 10000 5.1 210 20:20 23.10.2019
5458 Clouds 9 1009 87 10000 5.7 190 19:58 23.10.2019
5459 Clouds 9 1009 87 10000 4.1 190 19:39 23.10.2019
5460 Clouds 9 1009 87 10000 4.1 190 19:18 23.10.2019
5461 Clouds 9 1009 81 10000 5.7 180 18:55 23.10.2019
5462 Clouds 9 1009 76 10000 6.2 180 18:36 23.10.2019
5463 Clouds 9 1009 76 10000 6.2 180 18:36 23.10.2019
5464 Clouds 10 1009 76 10000 6.2 180 18:18 23.10.2019
5465 Clouds 10 1009 76 10000 5.1 210 17:43 23.10.2019
5466 Clouds 11 1009 71 10000 5.7 200 17:20 23.10.2019
5467 Clouds 11 1009 76 10000 4.1 200 16:56 23.10.2019
5468 Clouds 11 1009 76 10000 4.1 200 16:38 23.10.2019
5469 Clouds 12 1010 76 10000 5.1 210 16:19 23.10.2019
5470 Clouds 12 1010 76 10000 5.1 210 16:19 23.10.2019
5471 Clouds 12 1010 76 10000 6.2 200 15:42 23.10.2019
5472 Clouds 12 1010 81 10000 6.7 210 15:22 23.10.2019
5473 Clouds 12 1010 81 10000 5.7 190 14:58 23.10.2019
5474 Clouds 12 1010 81 10000 5.7 190 14:38 23.10.2019
5475 Clouds 12 1010 81 10000 5.7 190 14:19 23.10.2019
5476 Clouds 12 1010 81 10000 4.6 190 13:57 23.10.2019
5477 Clouds 11 1010 87 10000 4.6 170 13:39 23.10.2019
5478 Clouds 11 1010 87 10000 4.6 170 13:21 23.10.2019
5479 Clouds 11 1010 87 10000 3.6 190 12:55 23.10.2019
5480 Clouds 11 1010 87 10000 3.6 190 12:37 23.10.2019
5481 Clouds 10 1010 87 10000 5.7 190 12:18 23.10.2019
5482 Clouds 10 1010 87 10000 5.1 180 11:55 23.10.2019
5483 Clouds 9 1010 87 10000 3.6 170 11:37 23.10.2019
5484 Clouds 9 1010 87 10000 3.6 170 11:19 23.10.2019
5485 Clouds 9 1010 93 10000 3.1 150 10:45 23.10.2019
5486 Clouds 9 1010 93 10000 2.6 160 10:25 23.10.2019
5487 Clouds 9 1010 93 10000 5.1 180 09:42 23.10.2019
5488 Clouds 8 1010 93 10000 7.2 200 09:24 23.10.2019
5489 Clouds 8 1010 93 10000 5.7 210 08:59 23.10.2019
5490 Clouds 8 1010 93 10000 5.7 210 08:41 23.10.2019
5491 Clouds 8 1009 93 10000 2.6 230 08:23 23.10.2019
5492 Clouds 8 1009 87 10000 3.1 220 07:46 23.10.2019
5493 Clouds 8 1009 93 10000 3.6 190 07:22 23.10.2019
5494 Clouds 8 1009 87 10000 3.1 190 06:46 23.10.2019
5495 Clouds 8 1009 93 10000 5.1 190 06:22 23.10.2019
5496 Clouds 8 1009 87 10000 3.6 200 05:45 23.10.2019
5497 Rain 8 1009 93 10000 3.6 190 04:41 23.10.2019
5498 Rain 8 1010 87 10000 4.6 200 03:35 23.10.2019
5499 Clouds 8 1010 87 10000 4.6 190 02:40 23.10.2019
5500 Clouds 9 1009 87 10000 5.1 200 01:32 23.10.2019
5501 Clouds 9 1009 87 10000 5.1 190 00:56 23.10.2019
5502 Clouds 9 1009 87 10000 4.1 190 00:28 23.10.2019
5503 Clouds 9 1009 93 10000 5.1 180 23:40 22.10.2019
5504 Clouds 9 1008 87 10000 5.1 190 23:18 22.10.2019
5505 Clouds 9 1008 87 10000 4.1 200 22:57 22.10.2019
5506 Clouds 9 1008 87 10000 4.1 200 22:38 22.10.2019
5507 Clouds 9 1008 81 10000 3.6 190 22:20 22.10.2019
5508 Clouds 9 1008 81 10000 5.7 210 21:56 22.10.2019
5509 Clouds 9 1008 81 10000 5.7 220 21:37 22.10.2019
5510 Clouds 9 1008 81 10000 5.7 220 21:18 22.10.2019
5511 Clouds 9 1007 81 10000 5.1 230 20:56 22.10.2019
5512 Clouds 9 1007 81 10000 6.2 220 20:38 22.10.2019
5513 Clouds 9 1007 81 10000 6.2 220 20:19 22.10.2019
5514 Clouds 9 1007 81 10000 5.7 210 19:45 22.10.2019
5515 Clouds 9 1007 81 10000 4.1 210 19:27 22.10.2019
5516 Clouds 8 1007 81 10000 4.6 210 18:58 22.10.2019
5517 Clouds 9 1007 81 10000 4.6 210 18:58 22.10.2019
5518 Clouds 9 1007 81 10000 4.6 220 18:40 22.10.2019
5519 Clouds 9 1007 81 10000 4.6 220 18:22 22.10.2019
5520 Clouds 9 1007 75 10000 4.6 210 17:57 22.10.2019
5521 Clouds 9 1007 75 10000 4.6 210 17:38 22.10.2019
5522 Clouds 9 1007 75 10000 6.2 210 17:20 22.10.2019
5523 Clouds 9 1007 75 10000 6.2 210 17:20 22.10.2019
5524 Clouds 9 1007 75 10000 6.2 210 17:20 22.10.2019
5525 Clouds 9 1006 75 10000 5.7 210 16:57 22.10.2019
5526 Clouds 9 1006 75 10000 5.7 210 16:37 22.10.2019
5527 Clouds 9 1007 75 10000 5.7 210 16:19 22.10.2019
5528 Clouds 9 1007 75 10000 7.7 210 15:44 22.10.2019
5529 Clouds 9 1007 75 10000 6.7 210 15:21 22.10.2019
5530 Clouds 9 1007 70 10000 7.2 210 14:58 22.10.2019
5531 Clouds 9 1007 70 10000 7.2 210 14:40 22.10.2019
5532 Clouds 9 1007 70 10000 6.7 210 14:19 22.10.2019
5533 Clouds 9 1007 75 10000 8.2 210 13:42 22.10.2019
5534 Clouds 8 1007 75 10000 7.7 210 13:21 22.10.2019
5535 Clouds 8 1007 75 10000 7.7 200 12:58 22.10.2019
5536 Clouds 8 1007 75 10000 7.7 200 12:40 22.10.2019
5537 Clouds 8 1007 75 10000 7.7 200 12:21 22.10.2019
5538 Clouds 8 1007 81 10000 7.7 200 11:54 22.10.2019
5539 Clouds 7 1007 81 10000 7.7 200 11:36 22.10.2019
5540 Clouds 7 1007 81 10000 7.7 200 11:18 22.10.2019
5541 Clouds 7 1007 81 10000 7.2 200 10:38 22.10.2019
5542 Clouds 7 1007 86 10000 6.2 210 10:20 22.10.2019
5543 Clouds 7 1007 86 10000 6.2 210 10:00 22.10.2019
5544 Clouds 7 1007 86 10000 6.2 210 10:00 22.10.2019
5545 Clouds 6 1008 86 10000 6.7 210 09:41 22.10.2019
5546 Clouds 6 1008 86 10000 6.7 200 09:22 22.10.2019
5547 Clouds 6 1008 86 10000 6.2 200 08:59 22.10.2019
5548 Clouds 6 1008 86 10000 6.2 200 08:41 22.10.2019
5549 Clouds 6 1008 80 10000 6.7 210 08:19 22.10.2019
5550 Clouds 6 1008 86 10000 7.2 200 07:44 22.10.2019
5551 Clouds 5 1008 86 10000 5.7 200 07:25 22.10.2019
5552 Clouds 5 1008 93 10000 5.1 210 06:45 22.10.2019
5553 Clouds 5 1009 93 10000 5.1 210 06:27 22.10.2019
5554 Clouds 4 1009 93 10000 6.7 200 05:48 22.10.2019
5555 Clouds 4 1010 93 10000 6.2 210 04:54 22.10.2019
5556 Clouds 4 1011 93 10000 3.1 190 02:31 22.10.2019
5557 Clouds 4 1011 93 10000 3.1 190 02:31 22.10.2019
5558 Clouds 5 1012 93 10000 4.1 200 01:39 22.10.2019
5559 Clouds 5 1013 100 10000 2.6 200 01:21 22.10.2019
5560 Clouds 5 1013 100 8000 2.6 200 00:56 22.10.2019
5561 Clouds 5 1013 100 8000 2.6 200 00:38 22.10.2019
5562 Clouds 5 1013 100 7000 4.6 190 00:19 22.10.2019
5563 Mist 5 1014 93 5000 4.1 190 23:39 21.10.2019
5564 Mist 4 1014 100 5000 3.6 210 23:19 21.10.2019
5565 Mist 5 1015 100 5000 4.1 190 22:59 21.10.2019
5566 Mist 4 1015 100 5000 4.1 190 22:39 21.10.2019
5567 Mist 4 1015 100 5000 3.6 190 22:20 21.10.2019
5568 Mist 4 1016 100 5000 3.6 180 21:58 21.10.2019
5569 Mist 4 1016 100 5000 3.6 180 21:38 21.10.2019
5570 Clouds 4 1016 93 7000 4.1 190 21:20 21.10.2019
5571 Clouds 4 1016 93 10000 3.6 200 20:57 21.10.2019
5572 Clouds 4 1016 93 10000 3.6 200 20:39 21.10.2019
5573 Clouds 4 1017 93 10000 4.1 190 20:20 21.10.2019
5574 Clouds 4 1017 93 10000 5.1 190 19:56 21.10.2019
5575 Clouds 4 1017 93 10000 5.1 190 19:37 21.10.2019
5576 Clouds 4 1017 93 10000 4.1 190 19:19 21.10.2019
5577 Clouds 4 1017 93 10000 5.1 180 18:55 21.10.2019
5578 Clouds 4 1018 93 10000 4.6 170 18:36 21.10.2019
5579 Clouds 4 1018 93 10000 4.6 170 18:18 21.10.2019
5580 Clouds 4 1018 93 10000 4.6 170 17:39 21.10.2019
5581 Clouds 4 1018 93 10000 4.6 160 17:20 21.10.2019
5582 Clouds 4 1018 93 10000 3.1 170 16:59 21.10.2019
5583 Clouds 4 1018 93 10000 3.1 170 16:40 21.10.2019
5584 Clouds 4 1018 86 10000 3.1 150 16:22 21.10.2019
5585 Clouds 4 1019 86 10000 2.6 150 15:58 21.10.2019
5586 Clouds 4 1019 86 10000 2.6 150 15:39 21.10.2019
5587 Clouds 4 1019 86 10000 4.1 170 15:20 21.10.2019
5588 Clouds 4 1019 86 10000 3.1 160 14:55 21.10.2019
5589 Clouds 4 1019 86 10000 3.1 160 14:36 21.10.2019
5590 Clouds 4 1019 86 10000 3.1 150 14:18 21.10.2019
5591 Clouds 4 1020 86 10000 2.1 210 13:42 21.10.2019
5592 Clouds 4 1020 93 10000 1.5 160 13:20 21.10.2019
5593 Clouds 4 1020 86 10000 1.5 0 12:58 21.10.2019
5594 Clouds 4 1020 86 10000 1.5 0 12:40 21.10.2019
5595 Clouds 3 1020 86 10000 2.1 130 12:20 21.10.2019
5596 Clouds 3 1020 86 10000 2.1 130 11:54 21.10.2019
5597 Clouds 3 1020 86 10000 2.1 130 11:54 21.10.2019
5598 Clouds 3 1020 86 10000 2.1 130 11:54 21.10.2019
5599 Clouds 3 1020 86 10000 2.1 130 11:36 21.10.2019
5600 Clouds 3 1020 86 10000 2.1 140 11:18 21.10.2019
5601 Clouds 3 1019 86 10000 1.5 150 10:54 21.10.2019
5602 Clouds 3 1019 86 10000 1.5 150 10:54 21.10.2019
5603 Clouds 3 1019 86 10000 1.5 150 10:36 21.10.2019
5604 Clouds 3 1020 86 10000 2.6 160 10:18 21.10.2019
5605 Clouds 2 1019 87 10000 2.1 0 09:39 21.10.2019
5606 Clouds 2 1019 94 10000 2.6 160 09:21 21.10.2019
5607 Clouds 2 1019 95 10000 1 0 08:42 21.10.2019
5608 Clouds 2 1019 95 10000 1 0 08:23 21.10.2019
5609 Clouds 2 1018 86 10000 1 0 07:55 21.10.2019
5610 Clouds 2 1018 86 10000 1 0 07:36 21.10.2019
5611 Clouds 2 1018 86 10000 1 90 07:18 21.10.2019
5612 Clouds 2 1018 86 10000 1 0 06:43 21.10.2019
5613 Clouds 2 1018 86 10000 1 30 06:24 21.10.2019
5614 Clouds 2 1018 93 10000 1.5 30 05:41 21.10.2019
5615 Clouds 2 1017 93 10000 1.5 20 03:41 21.10.2019
5616 Clouds 2 1017 93 10000 0.5 0 02:40 21.10.2019
5617 Clouds 2 1016 93 10000 1 0 02:20 21.10.2019
5618 Clouds 3 1016 93 10000 0.5 0 01:48 21.10.2019
5619 Clouds 3 1016 93 10000 1 0 01:20 21.10.2019
5620 Clouds 3 1016 93 10000 1.5 360 00:40 21.10.2019
5621 Clouds 3 1015 93 10000 2.1 20 00:22 21.10.2019
5622 Clouds 4 1015 93 10000 2.6 30 23:40 20.10.2019
5623 Clouds 4 1015 93 10000 2.6 10 23:21 20.10.2019
5624 Clouds 4 1015 93 10000 2.6 10 22:54 20.10.2019
5625 Clouds 4 1015 93 10000 2.6 10 22:36 20.10.2019
5626 Clouds 4 1014 93 10000 3.1 350 22:18 20.10.2019
5627 Clouds 4 1014 93 10000 3.6 20 21:40 20.10.2019
5628 Clouds 4 1014 93 10000 3.6 20 21:40 20.10.2019
5629 Clouds 4 1014 86 10000 3.1 20 21:22 20.10.2019
5630 Clouds 4 1013 93 10000 3.1 360 20:57 20.10.2019
5631 Clouds 4 1013 93 10000 3.1 360 20:39 20.10.2019
5632 Clouds 4 1013 93 10000 3.1 360 20:18 20.10.2019
5633 Clouds 4 1013 93 10000 3.1 360 20:18 20.10.2019
5634 Clouds 4 1013 93 10000 4.1 360 19:55 20.10.2019
5635 Clouds 5 1013 93 10000 4.1 360 19:37 20.10.2019
5636 Clouds 5 1012 93 10000 2.6 360 19:19 20.10.2019
5637 Clouds 5 1012 86 10000 4.6 10 18:41 20.10.2019
5638 Clouds 5 1011 86 10000 4.6 10 18:22 20.10.2019
5639 Clouds 5 1011 93 10000 4.1 360 17:58 20.10.2019
5640 Clouds 5 1011 93 10000 4.1 360 17:39 20.10.2019
5641 Clouds 5 1011 93 10000 4.1 360 17:39 20.10.2019
5642 Clouds 5 1011 93 10000 4.6 360 17:21 20.10.2019
5643 Drizzle 5 1011 93 10000 4.6 360 16:55 20.10.2019
5644 Rain 6 1010 93 10000 4.1 360 16:37 20.10.2019
5645 Rain 6 1010 93 10000 4.1 360 16:18 20.10.2019
5646 Rain 6 1010 93 10000 4.6 360 15:42 20.10.2019
5647 Rain 6 1010 93 10000 5.1 360 15:23 20.10.2019
5648 Rain 6 1010 93 10000 5.1 360 14:59 20.10.2019
5649 Rain 6 1010 93 10000 5.1 360 14:38 20.10.2019
5650 Rain 6 1010 93 10000 5.1 360 14:38 20.10.2019
5651 Rain 6 1010 93 10000 5.1 360 14:38 20.10.2019
5652 Rain 6 1009 93 10000 5.1 360 14:20 20.10.2019
5653 Rain 6 1009 93 10000 5.1 10 13:56 20.10.2019
5654 Rain 6 1009 93 10000 5.1 10 13:37 20.10.2019
5655 Rain 6 1009 93 10000 6.2 10 13:19 20.10.2019
5656 Rain 6 1009 93 10000 6.2 10 12:57 20.10.2019
5657 Rain 6 1009 93 10000 6.2 10 12:39 20.10.2019
5658 Rain 6 1009 93 10000 6.2 10 12:39 20.10.2019
5659 Rain 6 1009 100 10000 6.7 10 12:21 20.10.2019
5660 Rain 6 1008 93 9000 7.2 10 11:59 20.10.2019
5661 Rain 6 1008 93 9000 7.2 10 11:40 20.10.2019
5662 Rain 6 1008 100 9000 6.7 20 11:22 20.10.2019
5663 Rain 6 1008 93 10000 7.2 10 10:57 20.10.2019
5664 Rain 6 1008 93 10000 7.2 10 10:38 20.10.2019
5665 Rain 6 1008 86 10000 5.7 20 10:20 20.10.2019
5666 Rain 6 1007 93 10000 7.7 20 09:44 20.10.2019
5667 Rain 6 1007 93 10000 7.2 20 09:23 20.10.2019
5668 Rain 6 1007 93 10000 7.2 20 08:59 20.10.2019
5669 Rain 6 1007 93 10000 6.7 10 08:39 20.10.2019
5670 Rain 6 1007 93 10000 6.2 10 08:20 20.10.2019
5671 Rain 6 1007 93 10000 5.7 10 07:47 20.10.2019
5672 Rain 6 1007 93 9000 5.1 360 07:26 20.10.2019
5673 Rain 6 1007 93 10000 5.1 10 06:28 20.10.2019
5674 Drizzle 5 1007 93 10000 3.1 10 04:28 20.10.2019
5675 Clouds 5 1007 93 10000 2.6 30 03:49 20.10.2019
5676 Clouds 5 1007 93 10000 2.6 40 03:22 20.10.2019
5677 Clouds 5 1007 93 10000 2.6 10 02:46 20.10.2019
5678 Clouds 5 1007 93 10000 3.1 10 02:22 20.10.2019
5679 Clouds 5 1007 93 10000 1 0 01:47 20.10.2019
5680 Clouds 5 1006 100 10000 1.5 350 01:20 20.10.2019
5681 Fog 4 1006 93 10000 0.5 0 00:47 20.10.2019
5682 Fog 4 1006 100 10000 1 340 00:20 20.10.2019
5683 Clouds 4 1006 100 10000 0.5 40 23:44 19.10.2019
5684 Clouds 4 1005 93 10000 0.5 0 23:24 19.10.2019
5685 Clouds 4 1005 93 10000 1 0 22:59 19.10.2019
5686 Clouds 4 1005 93 10000 1 0 22:40 19.10.2019
5687 Clouds 4 1005 93 10000 1.5 330 22:20 19.10.2019
5688 Clouds 4 1004 93 10000 1.5 330 21:54 19.10.2019
5689 Clouds 4 1004 93 10000 1.5 330 21:36 19.10.2019
5690 Clouds 4 1004 93 10000 1.5 320 21:18 19.10.2019
5691 Fog 5 1004 93 10000 1 0 20:41 19.10.2019
5692 Fog 5 1003 93 10000 1.45 309.983 20:20 19.10.2019
5693 Fog 5 1003 93 10000 1 230 19:42 19.10.2019
5694 Fog 5 1002 93 10000 0.5 0 19:24 19.10.2019
5695 Clouds 6 1002 93 10000 0.5 0 18:55 19.10.2019
5696 Clouds 6 1002 93 10000 0.5 0 18:37 19.10.2019
5697 Clouds 6 1001 87 10000 1.5 290 18:18 19.10.2019
5698 Clouds 6 1001 87 10000 1.5 290 17:41 19.10.2019
5699 Clouds 7 1000 87 10000 1.5 280 17:21 19.10.2019
5700 Clouds 7 1000 87 10000 1.5 280 17:21 19.10.2019
5701 Rain 7 1000 87 10000 1.5 280 16:56 19.10.2019
5702 Rain 7 1000 87 10000 1.5 280 16:37 19.10.2019
5703 Rain 7 999 93 10000 2.1 270 16:18 19.10.2019
5704 Rain 7 1001 87 10000 2.6 270 15:41 19.10.2019
5705 Rain 7 998 93 5000 1 0 15:23 19.10.2019
5706 Rain 7 998 93 5000 3.6 350 14:39 19.10.2019
5707 Rain 7 997 93 5000 4.1 350 14:20 19.10.2019
5708 Rain 7 997 93 3600 4.6 10 13:58 19.10.2019
5709 Rain 7 997 93 3600 4.6 10 13:39 19.10.2019
5710 Rain 7 997 100 3500 4.6 20 13:19 19.10.2019
5711 Drizzle 7 997 93 3700 6.2 30 12:56 19.10.2019
5712 Drizzle 7 997 93 3700 6.2 30 12:37 19.10.2019
5713 Rain 7 996 93 9000 6.7 30 12:18 19.10.2019
5714 Rain 7 996 100 10000 6.7 30 11:41 19.10.2019
5715 Drizzle 7 996 100 8000 4.6 20 11:23 19.10.2019
5716 Drizzle 7 996 100 8000 4.6 20 10:56 19.10.2019
5717 Rain 7 996 100 5000 2.6 50 10:38 19.10.2019
5718 Rain 7 996 100 3400 5.1 30 10:19 19.10.2019
5719 Rain 7 996 93 8000 5.7 30 09:42 19.10.2019
5720 Rain 7 996 93 8000 5.7 30 09:42 19.10.2019
5721 Drizzle 7 996 100 3500 5.7 30 09:24 19.10.2019
5722 Drizzle 7 996 100 6000 6.2 20 08:59 19.10.2019
5723 Drizzle 7 996 100 6000 6.2 20 08:40 19.10.2019
5724 Drizzle 7 996 100 6000 6.2 20 08:21 19.10.2019
5725 Rain 8 996 100 10000 5.1 20 07:44 19.10.2019
5726 Rain 8 996 100 10000 4.6 10 07:24 19.10.2019
5727 Rain 8 996 100 10000 4.6 10 07:24 19.10.2019
5728 Rain 8 996 100 10000 4.6 10 07:24 19.10.2019
5729 Rain 7 996 100 10000 4.6 10 06:47 19.10.2019
5730 Rain 7 996 100 9000 5.1 10 05:57 19.10.2019
5731 Rain 8 997 100 10000 5.7 10 05:32 19.10.2019
5732 Rain 8 998 100 9000 7.2 20 04:21 19.10.2019
5733 Rain 7 999 93 10000 6.2 10 02:46 19.10.2019
5734 Drizzle 8 1000 93 7000 5.7 20 01:53 19.10.2019
5735 Rain 8 1000 93 8000 5.1 10 01:20 19.10.2019
5736 Rain 8 1000 93 8000 5.1 10 01:20 19.10.2019
5737 Rain 8 998 93 0 4.6 30 00:48 19.10.2019
5738 Clouds 8 999 93 0 5.1 40 00:26 19.10.2019
5739 Clouds 8 1000 93 0 5.1 50 23:45 18.10.2019
5740 Clouds 8 1002 100 10000 3.6 10 23:26 18.10.2019
5741 Clouds 8 1003 93 10000 4.1 20 22:57 18.10.2019
5742 Clouds 8 1003 93 10000 4.1 20 22:39 18.10.2019
5743 Rain 8 1003 93 10000 3.6 30 22:20 18.10.2019
5744 Rain 8 1003 93 10000 3.6 20 21:58 18.10.2019
5745 Rain 8 1003 93 10000 3.6 20 21:38 18.10.2019
5746 Clouds 8 1004 93 10000 3.6 20 21:20 18.10.2019
5747 Clouds 8 1004 93 10000 4.1 20 20:56 18.10.2019
5748 Clouds 7 1004 93 10000 4.1 20 20:38 18.10.2019
5749 Clouds 7 1004 100 10000 3.6 20 20:20 18.10.2019
5750 Clouds 7 1004 100 10000 3.1 10 19:55 18.10.2019
5751 Clouds 7 1004 100 10000 3.1 10 19:37 18.10.2019
5752 Clouds 7 1005 100 10000 2.6 20 19:19 18.10.2019
5753 Clouds 7 1005 100 10000 2.1 360 18:43 18.10.2019
5754 Clouds 7 1005 93 10000 2.1 20 18:24 18.10.2019
5755 Clouds 7 1005 93 10000 2.1 20 18:24 18.10.2019
5756 Clouds 7 1005 93 10000 2.1 20 18:24 18.10.2019
5757 Clouds 8 1005 93 10000 2.6 20 17:59 18.10.2019
5758 Clouds 7 1005 93 10000 2.6 20 17:38 18.10.2019
5759 Clouds 8 1005 93 10000 2.6 40 17:20 18.10.2019
5760 Clouds 8 1005 93 10000 2.6 40 17:20 18.10.2019
5761 Clouds 8 1006 93 10000 1.5 360 16:56 18.10.2019
5762 Clouds 8 1006 93 10000 1.5 360 16:37 18.10.2019
5763 Clouds 8 1006 93 10000 1.5 340 16:19 18.10.2019
5764 Clouds 8 1006 93 10000 1 0 15:40 18.10.2019
5765 Clouds 8 1006 93 10000 1.5 180 15:21 18.10.2019
5766 Clouds 8 1006 87 10000 0.5 0 14:58 18.10.2019
5767 Clouds 8 1006 87 10000 0.5 0 14:58 18.10.2019
5768 Clouds 8 1006 87 10000 0.5 0 14:58 18.10.2019
5769 Clouds 8 1006 87 10000 0.5 0 14:58 18.10.2019
5770 Clouds 8 1006 87 10000 0.5 0 14:58 18.10.2019
5771 Clouds 8 1006 87 10000 0.5 0 14:40 18.10.2019
5772 Clouds 8 1006 87 10000 2.1 150 14:22 18.10.2019
5773 Clouds 8 1006 93 10000 1.5 230 13:59 18.10.2019
5774 Clouds 8 1006 93 10000 1.5 230 13:40 18.10.2019
5775 Mist 8 1007 93 10000 2.1 210 13:22 18.10.2019
5776 Fog 7 1007 93 10000 3.1 200 12:56 18.10.2019
5777 Fog 7 1007 93 10000 3.1 200 12:38 18.10.2019
5778 Fog 7 1007 93 10000 3.1 200 12:38 18.10.2019
5779 Fog 7 1007 93 10000 3.1 200 12:38 18.10.2019
5780 Fog 7 1007 93 9000 4.1 160 12:20 18.10.2019
5781 Fog 7 1007 93 9000 4.1 160 12:20 18.10.2019
5782 Fog 7 1007 93 9000 1.5 210 11:56 18.10.2019
5783 Fog 7 1007 93 9000 1.5 210 11:37 18.10.2019
5784 Fog 7 1007 93 5000 2.1 220 11:18 18.10.2019
5785 Fog 6 1007 93 5000 2.1 220 10:43 18.10.2019
5786 Fog 6 1007 93 5000 2.1 220 10:43 18.10.2019
5787 Fog 7 1007 93 5000 1 0 10:23 18.10.2019
5788 Fog 6 1006 100 4000 1 0 09:59 18.10.2019
5789 Fog 6 1006 100 4000 1 0 09:59 18.10.2019
5790 Fog 7 1006 100 4000 1 0 09:40 18.10.2019
5791 Fog 6 1006 100 1200 1 200 09:21 18.10.2019
5792 Fog 6 1006 100 800 1.5 210 08:58 18.10.2019
5793 Fog 6 1006 100 800 1.5 210 08:58 18.10.2019
5794 Fog 6 1006 100 800 1.5 210 08:40 18.10.2019
5795 Fog 6 1006 100 2000 1.5 220 08:21 18.10.2019
5796 Mist 7 1006 100 1500 1.5 210 07:42 18.10.2019
5797 Mist 7 1005 100 1900 1 220 07:21 18.10.2019
5798 Mist 6 1005 100 1800 1 230 06:39 18.10.2019
5799 Mist 7 1005 100 2200 0.5 0 06:21 18.10.2019
5800 Clouds 7 1007 93 0 2.6 230 05:56 18.10.2019
5801 Clouds 7 1007 93 0 3.1 250 05:23 18.10.2019
5802 Clouds 7 1007 93 0 2.1 230 04:25 18.10.2019
5803 Clouds 7 1007 93 0 3.1 220 03:29 18.10.2019
5804 Rain 7 1006 100 0 3.6 210 02:33 18.10.2019
5805 Drizzle 7 1006 93 0 3.6 150 01:44 18.10.2019
5806 Drizzle 7 1006 100 4800 2.1 20 01:26 18.10.2019
5807 Drizzle 7 1006 93 0 3.1 120 00:45 18.10.2019
5808 Drizzle 7 1006 100 0 3.6 120 00:21 18.10.2019
5809 Drizzle 7 1007 100 4600 2.1 20 23:55 17.10.2019
5810 Drizzle 7 1007 100 4600 2.1 20 23:36 17.10.2019
5811 Drizzle 7 1007 100 4600 2.1 20 23:18 17.10.2019
5812 Drizzle 7 1007 93 5000 2.1 10 22:54 17.10.2019
5813 Drizzle 7 1007 93 5000 2.1 10 22:36 17.10.2019
5814 Drizzle 7 1007 100 5000 2.1 20 22:18 17.10.2019
5815 Drizzle 7 1007 93 6000 2.6 30 21:55 17.10.2019
5816 Drizzle 7 1007 93 6000 2.6 30 21:55 17.10.2019
5817 Drizzle 7 1007 93 6000 2.6 30 21:37 17.10.2019
5818 Rain 7 1007 93 9000 2.1 20 21:19 17.10.2019
5819 Rain 7 1008 93 6000 2.1 20 20:56 17.10.2019
5820 -273 0 0 0 0 0 20:56 17.10.2019
5821 Rain 7 1008 93 6000 2.1 20 20:56 17.10.2019
5822 Rain 7 1008 93 6000 2.1 20 20:37 17.10.2019
5823 Rain 7 1008 93 9000 2.1 40 20:18 17.10.2019
5824 Rain 7 1008 93 9000 2.1 40 20:18 17.10.2019
5825 Rain 7 1008 93 10000 2.1 50 19:42 17.10.2019
5826 Rain 7 1008 93 10000 1.5 60 19:20 17.10.2019
5827 Drizzle 7 1008 93 6000 2.6 40 18:59 17.10.2019
5828 Rain 7 1008 93 6000 2.6 80 18:39 17.10.2019
5829 Rain 7 1008 93 6000 2.6 80 18:20 17.10.2019
5830 Drizzle 7 1008 93 10000 2.6 50 17:43 17.10.2019
5831 Clouds 7 1008 93 10000 2.1 60 17:25 17.10.2019
5832 Clouds 7 1008 93 10000 2.6 0 16:59 17.10.2019
5833 Clouds 7 1008 93 10000 2.6 0 16:41 17.10.2019
5834 Fog 7 1008 93 10000 2.6 90 16:19 17.10.2019
5835 Rain 7 1008 93 10000 3.6 60 15:57 17.10.2019
5836 Rain 7 1008 93 10000 3.6 60 15:38 17.10.2019
5837 Rain 7 1008 93 10000 3.6 60 15:38 17.10.2019
5838 Clouds 7 1009 93 10000 2.6 80 15:20 17.10.2019
5839 Clouds 7 1009 93 10000 2.6 80 14:56 17.10.2019
5840 Clouds 7 1009 93 10000 2.6 80 14:38 17.10.2019
5841 Clouds 7 1009 87 10000 3.1 70 14:19 17.10.2019
5842 Clouds 7 1009 93 10000 2.6 90 13:39 17.10.2019
5843 Clouds 7 1009 87 10000 2.1 70 13:20 17.10.2019
5844 Clouds 7 1009 87 10000 2.1 50 12:58 17.10.2019
5845 Clouds 7 1009 87 10000 2.1 50 12:37 17.10.2019
5846 Clouds 7 1009 87 10000 2.6 30 12:19 17.10.2019
5847 Clouds 7 1009 93 10000 3.1 40 11:42 17.10.2019
5848 Clouds 7 1009 87 10000 3.1 30 11:22 17.10.2019
5849 Clouds 7 1009 100 10000 3.1 30 10:59 17.10.2019
5850 Clouds 7 1009 100 10000 3.1 30 10:41 17.10.2019
5851 Clouds 7 1009 100 10000 3.1 30 10:41 17.10.2019
5852 Clouds 6 1008 93 10000 3.1 30 10:19 17.10.2019
5853 -273 0 0 0 0 0 09:56 17.10.2019
5854 Clouds 6 1008 93 10000 2.6 30 09:38 17.10.2019
5855 Clouds 6 1008 93 10000 2.6 20 09:19 17.10.2019
5856 Clouds 6 1008 93 10000 2.6 20 08:48 17.10.2019
5857 Clouds 6 1008 93 10000 2.6 20 08:27 17.10.2019
5858 Clouds 6 1008 93 10000 2.1 10 07:59 17.10.2019
5859 Clouds 6 1008 93 10000 2.1 10 07:41 17.10.2019
5860 Clouds 6 1008 100 10000 2.6 20 07:21 17.10.2019
5861 Clouds 6 1008 100 10000 3.1 20 06:51 17.10.2019
5862 Clouds 6 1008 100 10000 3.1 10 06:31 17.10.2019
5863 Clouds 6 1008 100 10000 3.1 10 05:59 17.10.2019
5864 Clouds 6 1008 100 10000 3.1 10 05:37 17.10.2019
5865 Clouds 6 1008 100 10000 2.6 10 05:19 17.10.2019
5866 Clouds 6 1008 100 10000 2.6 10 04:45 17.10.2019
5867 Clouds 6 1008 100 10000 3.1 10 03:45 17.10.2019
5868 Rain 7 1008 100 0 2.6 10 01:56 17.10.2019
5869 Rain 7 1008 100 0 2.6 10 01:56 17.10.2019
5870 Rain 7 1008 93 10000 3.6 10 00:42 17.10.2019
5871 Rain 7 1008 93 10000 3.6 10 00:20 17.10.2019
5872 Rain 7 1008 93 8000 4.1 10 23:58 16.10.2019
5873 Rain 7 1008 93 8000 4.1 10 23:39 16.10.2019
5874 Rain 7 1008 93 8000 3.1 360 23:18 16.10.2019
5875 Rain 7 1008 93 10000 3.6 360 22:54 16.10.2019
5876 Rain 7 1008 93 10000 3.6 360 22:36 16.10.2019
5877 Rain 7 1008 100 10000 3.6 10 22:18 16.10.2019
5878 Rain 7 1008 100 10000 3.6 10 21:54 16.10.2019
5879 Rain 7 1008 100 10000 3.6 10 21:54 16.10.2019
5880 Rain 7 1008 100 10000 3.6 10 21:36 16.10.2019
5881 Rain 7 1008 100 9000 3.6 10 21:18 16.10.2019
5882 Rain 7 1008 100 9000 3.1 10 20:54 16.10.2019
5883 Rain 7 1008 100 9000 3.1 10 20:36 16.10.2019
5884 Rain 7 1008 100 9000 3.1 10 20:36 16.10.2019
5885 Rain 7 1008 100 10000 3.1 10 20:18 16.10.2019
5886 -273 0 0 0 0 0 19:40 16.10.2019
5887 Rain 7 1007 100 10000 3.6 10 19:40 16.10.2019
5888 Rain 7 1007 100 10000 3.6 10 19:21 16.10.2019
5889 Rain 7 1007 100 10000 3.6 10 19:21 16.10.2019
5890 Rain 7 1007 100 8000 3.6 360 18:58 16.10.2019
5891 Rain 7 1007 100 8000 3.6 360 18:37 16.10.2019
5892 Rain 7 1007 100 8000 3.1 360 18:18 16.10.2019
5893 Rain 7 1007 100 10000 2.6 360 17:55 16.10.2019
5894 Rain 7 1007 100 10000 2.6 360 17:37 16.10.2019
5895 Rain 7 1007 100 10000 3.6 10 17:18 16.10.2019
5896 Rain 7 1007 100 10000 4.1 10 16:55 16.10.2019
5897 Rain 7 1007 100 10000 4.1 10 16:37 16.10.2019
5898 Rain 7 1007 100 7000 3.6 10 16:18 16.10.2019
5899 Rain 7 1008 93 9000 3.6 20 15:40 16.10.2019
5900 Rain 7 1008 93 9000 3.6 20 15:40 16.10.2019
5901 Rain 7 1007 93 9000 3.6 360 15:19 16.10.2019
5902 Rain 7 1007 93 9000 3.6 360 15:19 16.10.2019
5903 Rain 7 1007 93 9000 3.6 360 14:58 16.10.2019
5904 Rain 7 1007 93 9000 3.6 360 14:40 16.10.2019
5905 Rain 7 1008 93 9000 4.1 360 14:21 16.10.2019
5906 Rain 6 1008 100 6000 4.1 10 13:58 16.10.2019
5907 Rain 6 1008 100 6000 4.1 10 13:39 16.10.2019
5908 Rain 6 1008 100 4600 4.6 10 13:21 16.10.2019
5909 Rain 6 1008 100 7000 5.1 10 12:43 16.10.2019
5910 Rain 6 1008 93 10000 4.6 20 12:20 16.10.2019
5911 -273 0 0 0 0 0 11:55 16.10.2019
5912 Drizzle 6 1008 100 6000 4.6 10 11:37 16.10.2019
5913 Drizzle 6 1008 100 5000 4.1 10 11:18 16.10.2019
5914 Drizzle 6 1008 100 3500 4.1 10 10:36 16.10.2019
5915 Drizzle 6 1008 93 3300 4.6 10 10:18 16.10.2019
5916 Drizzle 5 1008 100 3700 4.6 10 09:40 16.10.2019
5917 Drizzle 5 1008 100 4200 4.1 10 09:22 16.10.2019
5918 Drizzle 5 1008 100 3400 3.6 360 08:57 16.10.2019
5919 Drizzle 5 1008 100 3400 3.6 360 08:39 16.10.2019
5920 Drizzle 5 1008 100 3400 3.6 360 08:39 16.10.2019
5921 -273 0 0 0 0 0 08:20 16.10.2019
5922 Clouds 5 1008 93 9000 3.6 360 07:43 16.10.2019
5923 Clouds 5 1008 93 10000 3.1 350 07:24 16.10.2019
5924 Clouds 5 1008 100 10000 3.6 20 06:55 16.10.2019
5925 Clouds 5 1008 100 8000 5.1 20 06:31 16.10.2019
5926 Drizzle 5 1008 100 6000 5.1 10 05:22 16.10.2019
5927 Rain 5 1009 100 10000 4.6 10 02:53 16.10.2019
5928 Rain 5 1010 93 10000 5.1 10 01:38 16.10.2019
5929 Rain 5 1010 93 10000 5.1 20 01:18 16.10.2019
5930 Rain 5 1010 93 10000 5.7 20 00:42 16.10.2019
5931 Rain 5 1010 100 10000 5.7 20 23:59 15.10.2019
5932 Rain 5 1010 100 10000 5.7 20 23:39 15.10.2019
5933 Rain 5 1011 93 10000 5.7 10 23:21 15.10.2019
5934 Rain 5 1011 93 10000 5.1 360 22:55 15.10.2019
5935 Rain 5 1011 93 10000 5.1 360 22:55 15.10.2019
5936 Rain 5 1010 93 10000 5.1 10 22:37 15.10.2019
5937 Rain 5 1010 93 10000 5.1 10 22:19 15.10.2019
5938 Rain 5 1010 93 9000 5.7 20 21:55 15.10.2019
5939 Rain 5 1010 93 9000 5.7 20 21:36 15.10.2019
5940 Rain 5 1011 93 9000 5.7 20 21:18 15.10.2019
5941 Rain 5 1011 93 10000 5.1 10 20:55 15.10.2019
5942 Rain 5 1011 93 10000 5.1 10 20:55 15.10.2019
5943 Rain 5 1011 93 10000 5.1 10 20:37 15.10.2019
5944 Rain 6 1011 93 8000 5.1 20 20:19 15.10.2019
5945 Rain 6 1012 93 9000 5.1 10 19:55 15.10.2019
5946 Rain 6 1012 93 9000 5.1 10 19:55 15.10.2019
5947 Rain 6 1012 93 9000 5.1 10 19:37 15.10.2019
5948 Rain 6 1012 93 9000 5.1 10 19:37 15.10.2019
5949 Rain 6 1011 93 10000 6.2 20 19:18 15.10.2019
5950 Rain 6 1011 93 8000 6.7 20 18:44 15.10.2019
5951 Rain 6 1011 100 7000 6.2 20 18:25 15.10.2019
5952 Rain 6 1012 93 10000 5.1 20 17:55 15.10.2019
5953 Rain 6 1012 93 10000 5.1 20 17:55 15.10.2019
5954 Rain 6 1012 93 10000 5.1 20 17:37 15.10.2019
5955 Rain 6 1013 93 8000 4.1 20 17:19 15.10.2019
5956 Rain 6 1013 93 7000 3.6 20 16:45 15.10.2019
5957 Rain 6 1013 87 7000 4.6 50 16:22 15.10.2019
5958 Rain 7 1013 93 7000 3.1 60 15:58 15.10.2019
5959 Rain 7 1013 93 7000 3.1 60 15:39 15.10.2019
5960 Rain 7 1014 93 8000 2.6 50 15:19 15.10.2019
5961 Rain 7 1014 93 10000 2.6 50 14:56 15.10.2019
5962 Rain 7 1014 93 10000 2.6 50 14:37 15.10.2019
5963 Rain 7 1014 93 10000 2.6 50 14:37 15.10.2019
5964 Rain 7 1014 93 10000 3.6 60 14:19 15.10.2019
5965 Rain 7 1014 93 10000 3.6 50 13:43 15.10.2019
5966 Rain 7 1014 93 10000 3.6 50 13:43 15.10.2019
5967 Rain 7 1014 100 10000 3.1 60 13:21 15.10.2019
5968 Rain 7 1015 93 10000 3.1 70 12:57 15.10.2019
5969 Rain 7 1015 93 10000 3.1 70 12:38 15.10.2019
5970 Rain 7 1015 93 9000 2.6 70 12:19 15.10.2019
5971 Rain 7 1015 93 9000 2.6 70 11:43 15.10.2019
5972 Rain 7 1015 93 9000 2.1 60 11:20 15.10.2019
5973 Rain 7 1015 93 9000 2.1 40 10:56 15.10.2019
5974 Rain 7 1015 93 9000 2.1 40 10:38 15.10.2019
5975 Rain 7 1015 93 10000 1.5 50 10:18 15.10.2019
5976 Rain 7 1016 93 9000 1.5 100 09:55 15.10.2019
5977 Rain 7 1016 93 9000 1.5 100 09:36 15.10.2019
5978 Rain 7 1016 93 10000 1.5 110 09:18 15.10.2019
5979 Drizzle 7 1015 93 10000 1 0 08:41 15.10.2019
5980 Drizzle 7 1015 93 10000 1 0 08:20 15.10.2019
5981 Drizzle 7 1015 93 10000 2.1 110 07:48 15.10.2019
5982 Clouds 7 1015 93 10000 1.5 100 07:23 15.10.2019
5983 Clouds 7 1015 93 10000 1 0 06:58 15.10.2019
5984 Clouds 6 1015 93 10000 1 0 06:40 15.10.2019
5985 Clouds 6 1016 93 10000 1 0 05:58 15.10.2019
5986 Clouds 6 1016 93 10000 1 110 05:37 15.10.2019
5987 Clouds 6 1016 93 10000 1 110 04:53 15.10.2019
5988 Clouds 7 1016 93 10000 1.5 130 04:19 15.10.2019
5989 Clouds 6 1016 93 10000 3.1 150 03:35 15.10.2019
5990 Clouds 6 1016 93 10000 3.1 150 03:35 15.10.2019
5991 Clouds 6 1016 93 10000 1.5 180 01:59 15.10.2019
5992 Rain 6 1016 93 10000 1.5 180 01:40 15.10.2019
5993 Rain 6 1016 93 10000 2.1 170 00:59 15.10.2019
5994 Clouds 6 1015 93 10000 1.5 150 00:26 15.10.2019
5995 Clouds 6 1015 93 10000 2.6 170 23:59 14.10.2019
5996 Clouds 6 1015 93 10000 2.6 170 23:37 14.10.2019
5997 Clouds 6 1015 93 10000 2.6 170 23:19 14.10.2019
5998 Clouds 6 1015 93 10000 2.6 170 23:19 14.10.2019
5999 Clouds 6 1015 93 10000 2.6 180 22:40 14.10.2019
6000 Rain 6 1015 93 10000 2.6 180 22:21 14.10.2019
6001 Clouds 6 1015 93 10000 3.1 170 21:59 14.10.2019
6002 Clouds 6 1015 93 10000 3.1 170 21:40 14.10.2019
6003 Clouds 6 1015 87 10000 1 0 21:21 14.10.2019
6004 Clouds 6 1015 87 10000 1 0 20:58 14.10.2019
6005 Clouds 6 1014 87 10000 1.64 152.763 20:38 14.10.2019
6006 Clouds 6 1014 87 10000 1.64 152.763 20:19 14.10.2019
6007 Clouds 6 1014 81 10000 1 0 19:55 14.10.2019
6008 Clouds 6 1014 81 10000 1 0 19:37 14.10.2019
6009 Clouds 6 1014 87 10000 1 0 19:19 14.10.2019
6010 Clouds 7 1013 81 10000 2.1 100 18:57 14.10.2019
6011 Clouds 7 1013 81 10000 2.1 100 18:37 14.10.2019
6012 Rain 7 1013 75 10000 2.1 130 18:18 14.10.2019
6013 Rain 8 1013 75 10000 1.5 110 17:41 14.10.2019
6014 Rain 9 1013 75 10000 1.5 230 17:23 14.10.2019
6015 Clouds 9 1012 75 10000 1.5 0 16:56 14.10.2019
6016 Rain 9 1012 75 10000 1.5 0 16:38 14.10.2019
6017 Clouds 10 1012 75 10000 2.1 80 16:19 14.10.2019
6018 Clouds 9 1012 81 10000 1 0 15:41 14.10.2019
6019 Clouds 10 1011 81 10000 2.1 30 15:21 14.10.2019
6020 Clouds 10 1011 81 10000 2.6 20 14:44 14.10.2019
6021 Clouds 9 1011 81 10000 3.1 40 14:26 14.10.2019
6022 Clouds 9 1010 81 10000 3.6 360 13:59 14.10.2019
6023 Clouds 9 1010 81 10000 3.6 360 13:40 14.10.2019
6024 Clouds 9 1010 81 10000 4.6 10 13:21 14.10.2019
6025 Clouds 9 1009 81 10000 3.1 360 12:42 14.10.2019
6026 Clouds 9 1009 81 10000 4.1 350 12:21 14.10.2019
6027 Clouds 8 1008 87 10000 3.1 350 11:57 14.10.2019
6028 Clouds 8 1008 87 10000 3.1 350 11:39 14.10.2019
6029 Clouds 8 1008 87 10000 2.1 360 11:20 14.10.2019
6030 Clouds 7 1007 87 10000 2.6 360 10:44 14.10.2019
6031 Clouds 7 1006 87 10000 3.6 20 10:21 14.10.2019
6032 Drizzle 7 1005 93 10000 4.6 20 09:59 14.10.2019
6033 Drizzle 6 1005 93 10000 4.6 20 09:40 14.10.2019
6034 Drizzle 6 1004 93 10000 4.6 360 09:20 14.10.2019
6035 Rain 6 1004 93 10000 4.6 360 08:48 14.10.2019
6036 Rain 6 1003 93 10000 4.6 360 08:23 14.10.2019
6037 Rain 6 1003 100 10000 3.6 10 07:45 14.10.2019
6038 Rain 6 1003 100 10000 3.6 10 07:23 14.10.2019
6039 Rain 6 1002 100 10000 4.1 10 06:56 14.10.2019
6040 Rain 6 1002 100 10000 4.6 360 06:28 14.10.2019
6041 Rain 6 1002 100 10000 3.6 10 05:55 14.10.2019
6042 Rain 6 1002 100 10000 3.6 20 04:59 14.10.2019
6043 Rain 6 1003 100 9000 3.6 40 03:49 14.10.2019
6044 Rain 7 1003 100 9000 3.1 40 03:22 14.10.2019
6045 Rain 7 1004 93 10000 2.1 30 02:25 14.10.2019
6046 Rain 7 1004 100 10000 2.6 30 01:19 14.10.2019
6047 Rain 7 1004 100 10000 1.5 30 00:41 14.10.2019
6048 Rain 7 1004 93 10000 1.5 10 00:18 14.10.2019
6049 Clouds 7 1004 93 0 2.1 60 23:40 13.10.2019
6050 Clouds 7 1005 93 0 2.1 70 23:19 13.10.2019
6051 Clouds 7 1006 100 10000 1.5 360 22:56 13.10.2019
6052 Clouds 7 1006 100 10000 2.1 20 22:38 13.10.2019
6053 Clouds 7 1006 100 10000 2.1 20 22:19 13.10.2019
6054 Clear 7 1007 100 10000 1.5 20 21:56 13.10.2019
6055 Clear 7 1007 100 10000 1.5 20 21:36 13.10.2019
6056 Clear 7 1007 100 10000 1.5 20 21:36 13.10.2019
6057 Clear 7 1007 100 10000 1 340 21:18 13.10.2019
6058 Clear 7 1007 100 10000 1 340 21:18 13.10.2019
6059 Clear 7 1007 93 10000 1.5 350 20:55 13.10.2019
6060 Clear 7 1007 93 10000 1.5 350 20:37 13.10.2019
6061 Clear 7 1007 93 10000 1.5 360 20:18 13.10.2019
6062 Clouds 7 1007 93 10000 1.5 10 19:54 13.10.2019
6063 -273 0 0 0 0 0 19:54 13.10.2019
6064 Clear 7 1007 93 10000 1.5 20 19:36 13.10.2019
6065 Clear 7 1007 93 10000 1.5 20 19:36 13.10.2019
6066 Clear 7 1007 93 10000 1.5 20 19:18 13.10.2019
6067 Clear 8 1007 93 10000 1.5 20 18:40 13.10.2019
6068 Clear 8 1007 93 10000 1.5 20 18:40 13.10.2019
6069 Clear 9 1007 87 10000 3.6 30 18:21 13.10.2019
6070 Clear 9 1007 87 10000 3.1 30 17:59 13.10.2019
6071 Clear 10 1007 87 10000 3.1 30 17:41 13.10.2019
6072 Clouds 10 1007 81 10000 2.1 30 17:22 13.10.2019
6073 Clouds 11 1007 76 10000 1.5 10 16:43 13.10.2019
6074 Clouds 11 1007 81 10000 1 0 16:19 13.10.2019
6075 Clouds 11 1007 75 10000 1.5 40 15:58 13.10.2019
6076 Clouds 11 1007 75 10000 1.5 40 15:57 13.10.2019
6077 Clouds 11 1007 75 10000 1.5 40 15:39 13.10.2019
6078 Clouds 11 1007 81 10000 1.5 0 15:20 13.10.2019
6079 Clouds 11 1007 81 10000 1 0 14:58 13.10.2019
6080 Clouds 11 1007 81 10000 1 0 14:39 13.10.2019
6081 Clouds 11 1006 87 10000 1 0 14:20 13.10.2019
6082 Clouds 12 1007 62 0 3.1 220 13:55 13.10.2019
6083 Clouds 11 1006 87 10000 1 0 13:37 13.10.2019
6084 Clouds 11 1006 87 10000 1 0 13:37 13.10.2019
6085 Clouds 11 1007 62 0 4.6 200 13:18 13.10.2019
6086 Clouds 10 1007 66 0 4.6 220 12:55 13.10.2019
6087 Clouds 10 1007 66 0 4.6 220 12:55 13.10.2019
6088 Clouds 10 1007 62 0 3.6 220 12:36 13.10.2019
6089 Clouds 10 1007 62 0 3.6 220 12:36 13.10.2019
6090 Clouds 9 1007 62 0 3.6 220 12:18 13.10.2019
6091 Clouds 9 1006 66 0 3.1 220 11:54 13.10.2019
6092 Clouds 9 1006 66 0 3.1 220 11:36 13.10.2019
6093 Fog 7 1005 100 5000 2.6 40 11:18 13.10.2019
6094 Fog 6 1005 93 10000 2.1 20 10:40 13.10.2019
6095 Fog 5 1004 93 10000 1.5 20 10:22 13.10.2019
6096 Fog 5 1004 93 10000 1.5 20 10:22 13.10.2019
6097 Fog 5 1004 93 10000 1.5 20 10:22 13.10.2019
6098 Fog 4 1004 100 10000 1 0 09:40 13.10.2019
6099 Fog 3 1004 85 450 1 10 09:21 13.10.2019
6100 Fog 4 1004 85 450 1 10 09:21 13.10.2019
6101 Clouds 4 1005 81 0 2.6 200 08:57 13.10.2019
6102 Fog 3 1003 100 400 1 0 08:37 13.10.2019
6103 Fog 3 1003 89 500 1.5 20 08:18 13.10.2019
6104 Fog 3 1002 89 2800 1 0 07:45 13.10.2019
6105 Clouds 3 1002 89 10000 1 30 06:55 13.10.2019
6106 Fog 3 1002 88 10000 0.5 0 06:31 13.10.2019
6107 Fog 4 1002 88 10000 1.27 298.607 05:34 13.10.2019
6108 Fog 4 1002 88 10000 1.27 298.607 05:34 13.10.2019
6109 Fog 3 1001 88 10000 1 30 04:46 13.10.2019
6110 Fog 4 1000 100 10000 0.5 0 03:39 13.10.2019
6111 Clear 4 1000 93 10000 1 0 02:35 13.10.2019
6112 Clear 4 999 93 10000 1.3 294.517 01:51 13.10.2019
6113 Clear 4 999 93 10000 1.27 314.331 01:22 13.10.2019
6114 Clear 5 998 86 10000 2.1 310 00:44 13.10.2019
6115 Clear 6 997 93 10000 2.1 310 00:21 13.10.2019
6116 Clear 6 997 93 10000 2.1 280 23:55 12.10.2019
6117 Clouds 6 996 87 10000 2.1 310 23:36 12.10.2019
6118 Clouds 6 996 87 10000 2.1 310 23:18 12.10.2019
6119 Clear 7 996 87 10000 2.1 320 22:55 12.10.2019
6120 Clear 7 996 87 10000 2.1 320 22:36 12.10.2019
6121 Clear 7 995 93 10000 3.1 310 22:18 12.10.2019
6122 Clear 8 994 87 10000 1.45 314.131 21:41 12.10.2019
6123 Clear 8 994 93 10000 1.36 297.959 21:23 12.10.2019
6124 Clear 8 994 100 10000 1.64 310.355 20:56 12.10.2019
6125 Clear 8 994 100 10000 1.64 310.355 20:38 12.10.2019
6126 Clear 8 993 93 10000 0.5 0 20:20 12.10.2019
6127 Clear 9 993 87 10000 1.64 310.355 19:37 12.10.2019
6128 Clear 9 993 93 10000 2.6 190 19:19 12.10.2019
6129 Clear 10 992 87 10000 2.6 200 18:46 12.10.2019
6130 Clouds 10 992 93 10000 3.1 210 18:27 12.10.2019
6131 Rain 11 992 93 10000 3.1 200 17:58 12.10.2019
6132 Rain 11 992 93 10000 3.1 200 17:40 12.10.2019
6133 Rain 11 992 81 10000 3.1 200 17:18 12.10.2019
6134 Rain 12 992 81 10000 4.1 210 16:41 12.10.2019
6135 Rain 12 992 81 10000 4.1 210 16:41 12.10.2019
6136 Clouds 12 992 81 10000 2.1 220 16:21 12.10.2019
6137 Clouds 12 992 81 10000 4.6 210 15:59 12.10.2019
6138 Clouds 11 992 81 10000 4.6 210 15:39 12.10.2019
6139 Clouds 11 992 87 10000 5.7 210 15:21 12.10.2019
6140 Clouds 11 992 81 10000 5.1 200 14:41 12.10.2019
6141 Clouds 11 991 81 10000 5.7 170 14:21 12.10.2019
6142 Clouds 11 991 81 10000 5.7 170 14:21 12.10.2019
6143 Clouds 11 991 87 10000 5.1 200 13:53 12.10.2019
6144 Clouds 11 991 87 10000 5.1 200 13:53 12.10.2019
6145 Clouds 11 991 87 10000 5.1 200 13:33 12.10.2019
6146 Clouds 11 991 81 10000 4.1 190 12:59 12.10.2019
6147 Clouds 10 991 81 10000 4.1 190 12:38 12.10.2019
6148 Clouds 10 991 87 10000 3.1 200 12:20 12.10.2019
6149 Clouds 9 991 93 10000 4.1 210 11:56 12.10.2019
6150 Clouds 9 991 93 10000 4.1 210 11:38 12.10.2019
6151 Clouds 8 991 87 10000 4.1 210 11:18 12.10.2019
6152 Clouds 7 990 93 10000 2.6 230 10:40 12.10.2019
6153 Clouds 7 990 93 10000 3.6 210 10:22 12.10.2019
6154 Clouds 7 990 93 10000 3.1 220 09:57 12.10.2019
6155 Clouds 6 990 93 10000 3.1 220 09:57 12.10.2019
6156 Clouds 6 990 93 10000 3.1 210 09:38 12.10.2019
6157 Clouds 5 990 93 10000 3.1 210 09:19 12.10.2019
6158 Clouds 5 990 93 10000 2.6 210 08:44 12.10.2019
6159 Clouds 5 989 93 10000 2.6 220 08:25 12.10.2019
6160 Clouds 5 989 93 10000 2.1 210 07:57 12.10.2019
6161 Clouds 5 989 93 10000 2.6 200 07:31 12.10.2019
6162 Clouds 5 989 93 10000 1.5 170 06:37 12.10.2019
6163 Clouds 5 989 93 10000 3.6 220 05:44 12.10.2019
6164 Clouds 6 989 100 10000 2.6 200 04:43 12.10.2019
6165 Drizzle 6 989 100 9000 2.6 200 03:56 12.10.2019
6166 Clouds 7 989 100 7000 3.1 170 02:50 12.10.2019
6167 Clouds 7 989 100 9000 1 0 01:34 12.10.2019
6168 Clouds 7 989 93 8000 2.1 180 00:56 12.10.2019
6169 Clouds 7 989 93 10000 1 0 00:38 12.10.2019
6170 Fog 7 989 100 7000 2.6 190 23:55 11.10.2019
6171 Fog 7 989 100 7000 2.6 190 23:36 11.10.2019
6172 Fog 7 989 100 7000 1.5 190 23:18 11.10.2019
6173 Fog 7 989 100 6000 3.6 170 22:38 11.10.2019
6174 Fog 7 989 100 8000 2.1 200 22:19 11.10.2019
6175 Rain 7 990 100 7000 1 0 21:44 11.10.2019
6176 Mist 7 990 100 7000 1.5 0 21:22 11.10.2019
6177 Clouds 7 990 100 9000 1.5 160 20:59 11.10.2019
6178 Clouds 7 990 100 9000 1.5 160 20:41 11.10.2019
6179 Rain 7 991 100 0 1 0 20:23 11.10.2019
6180 Rain 7 990 100 7000 1 0 19:55 11.10.2019
6181 Rain 7 990 100 7000 1 0 19:37 11.10.2019
6182 Rain 7 991 100 4500 0.55 302.552 19:37 11.10.2019
6183 Rain 7 991 100 4500 0.55 302.552 19:18 11.10.2019
6184 Rain 7 991 100 4500 0.55 302.552 19:18 11.10.2019
6185 Rain 7 991 100 4500 0.55 302.552 19:18 11.10.2019
6186 Rain 7 991 100 3000 1.5 320 18:56 11.10.2019
6187 Rain 7 991 100 3000 1.5 320 18:37 11.10.2019
6188 Rain 8 991 100 3000 1 0 18:18 11.10.2019
6189 Rain 8 991 100 3000 1 0 17:55 11.10.2019
6190 Rain 8 991 100 3000 1 0 17:36 11.10.2019
6191 Clouds 8 991 100 10000 0.5 0 17:18 11.10.2019
6192 Clouds 8 991 100 10000 0.5 0 17:18 11.10.2019
6193 Clouds 8 992 93 10000 0.5 0 16:41 11.10.2019
6194 Clouds 8 992 93 10000 1 0 16:20 11.10.2019
6195 Clouds 8 992 93 10000 1 0 16:20 11.10.2019
6196 Rain 8 992 93 10000 1 0 15:59 11.10.2019
6197 Rain 8 992 93 10000 1 0 15:38 11.10.2019
6198 Rain 7 993 93 10000 1 0 15:19 11.10.2019
6199 Rain 8 993 93 9000 1 0 14:47 11.10.2019
6200 Rain 8 994 100 9000 1.5 300 14:29 11.10.2019
6201 Rain 7 994 100 9000 0.5 0 13:57 11.10.2019
6202 Rain 7 994 100 10000 1 0 13:38 11.10.2019
6203 Rain 7 994 100 10000 1 0 13:19 11.10.2019
6204 Rain 6 994 93 10000 1 0 12:56 11.10.2019
6205 Rain 6 994 93 10000 1 0 12:38 11.10.2019
6206 Rain 6 995 93 10000 2.1 200 12:18 11.10.2019
6207 Rain 6 995 100 10000 2.1 210 11:41 11.10.2019
6208 Fog 6 995 100 10000 1.5 160 11:22 11.10.2019
6209 Rain 5 995 100 10000 0.5 0 10:58 11.10.2019
6210 Rain 5 995 100 10000 0.5 0 10:40 11.10.2019
6211 Rain 5 995 100 10000 1 360 10:22 11.10.2019
6212 Rain 5 995 100 10000 1.5 350 09:55 11.10.2019
6213 Rain 4 995 100 10000 1.5 350 09:37 11.10.2019
6214 Drizzle 4 995 100 10000 1 0 09:18 11.10.2019
6215 Fog 4 995 93 10000 2.1 280 08:55 11.10.2019
6216 Fog 4 995 93 10000 2.1 280 08:36 11.10.2019
6217 Fog 3 995 100 10000 2.1 280 08:18 11.10.2019
6218 Fog 4 995 100 10000 3.1 210 07:41 11.10.2019
6219 Fog 4 995 100 10000 3.1 210 07:22 11.10.2019
6220 Fog 4 995 100 8000 1.5 210 06:47 11.10.2019
6221 Fog 4 995 100 5000 0.61 266.424 06:22 11.10.2019
6222 Fog 4 995 100 8000 1 350 05:39 11.10.2019
6223 Fog 5 997 93 0 3.6 210 04:59 11.10.2019
6224 Fog 5 995 93 9000 2.6 200 04:24 11.10.2019
6225 Fog 7 996 93 7000 1.5 180 02:19 11.10.2019
6226 Clouds 8 996 100 8000 1 230 00:47 11.10.2019
6227 Clouds 8 996 100 9000 1.5 170 00:27 11.10.2019
6228 Rain 8 996 100 7000 1.5 200 23:44 10.10.2019
6229 Clouds 8 996 100 8000 2.6 180 23:22 10.10.2019
6230 Drizzle 8 996 100 9000 3.1 180 22:57 10.10.2019
6231 Rain 8 996 93 10000 3.1 170 22:39 10.10.2019
6232 Rain 8 996 93 10000 3.1 170 22:20 10.10.2019
6233 Rain 8 996 93 9000 3.6 160 21:57 10.10.2019
6234 Rain 8 996 93 9000 3.6 160 21:39 10.10.2019
6235 Rain 8 997 93 10000 3.1 160 21:20 10.10.2019
6236 Rain 8 997 93 10000 3.6 160 20:42 10.10.2019
6237 Rain 7 997 93 10000 3.1 170 20:21 10.10.2019
6238 Rain 7 997 93 10000 3.1 170 20:21 10.10.2019
6239 Clouds 8 997 93 10000 2.1 180 19:59 10.10.2019
6240 Clouds 8 997 93 10000 2.1 180 19:40 10.10.2019
6241 Clouds 8 997 93 10000 2.1 180 19:40 10.10.2019
6242 Clouds 8 997 93 10000 1 0 19:20 10.10.2019
6243 Clouds 8 997 93 10000 2.1 220 18:57 10.10.2019
6244 Clouds 8 999 93 10000 2.1 130 18:39 10.10.2019
6245 Clouds 8 999 93 10000 2.1 130 18:20 10.10.2019
6246 Clouds 8 997 87 10000 4.6 160 17:54 10.10.2019
6247 Clouds 8 997 87 10000 4.6 160 17:36 10.10.2019
6248 Clouds 8 997 87 10000 4.6 160 17:36 10.10.2019
6249 Clouds 8 997 93 10000 4.1 160 17:18 10.10.2019
6250 Clouds 8 997 93 10000 4.1 160 17:18 10.10.2019
6251 Clouds 8 997 93 10000 3.6 160 16:41 10.10.2019
6252 Clouds 8 997 93 10000 5.1 170 16:22 10.10.2019
6253 Clouds 9 997 93 10000 4.1 170 15:44 10.10.2019
6254 Clouds 8 997 87 10000 3.1 170 15:25 10.10.2019
6255 Clouds 8 997 87 10000 2.6 170 14:59 10.10.2019
6256 Clouds 8 997 87 10000 2.6 170 14:38 10.10.2019
6257 Clouds 8 997 87 10000 2.1 140 14:19 10.10.2019
6258 Clouds 8 997 93 10000 1.5 170 13:59 10.10.2019
6259 Clouds 7 997 93 10000 1.5 170 13:41 10.10.2019
6260 Fog 7 997 93 8000 2.6 190 13:41 10.10.2019
6261 Fog 7 997 93 8000 2.6 190 13:20 10.10.2019
6262 Fog 7 997 93 7000 2.1 160 12:57 10.10.2019
6263 Fog 7 997 93 7000 2.1 160 12:39 10.10.2019
6264 Fog 7 997 100 9000 1.5 170 12:19 10.10.2019
6265 Fog 6 997 100 8000 0.5 0 11:55 10.10.2019
6266 Fog 6 997 100 8000 0.5 0 11:37 10.10.2019
6267 Fog 6 997 93 8000 1 0 11:18 10.10.2019
6268 Fog 6 997 93 7000 1.5 350 10:44 10.10.2019
6269 Fog 6 997 100 5000 1 0 10:26 10.10.2019
6270 Mist 5 997 100 3400 1.5 260 09:56 10.10.2019
6271 Mist 5 997 100 3400 1.5 260 09:38 10.10.2019
6272 Fog 5 996 100 7000 1 0 09:19 10.10.2019
6273 Fog 5 996 100 7000 1.5 350 08:41 10.10.2019
6274 Mist 5 996 100 4400 1 0 08:23 10.10.2019
6275 Fog 5 996 100 2600 0.5 0 07:59 10.10.2019
6276 Fog 5 996 100 2600 0.5 0 07:40 10.10.2019
6277 Mist 5 996 100 3000 1 360 07:20 10.10.2019
6278 Mist 5 996 100 2200 1 0 06:45 10.10.2019
6279 Mist 5 996 100 1500 1.5 320 06:24 10.10.2019
6280 Mist 5 996 100 3000 1.5 320 05:25 10.10.2019
6281 Mist 5 996 100 3700 1.5 350 04:37 10.10.2019
6282 Drizzle 5 996 100 5000 1 0 03:42 10.10.2019
6283 Drizzle 5 996 100 4600 2.1 340 01:43 10.10.2019
6284 Drizzle 5 996 100 3900 2.1 350 01:24 10.10.2019
6285 Rain 5 996 100 4400 2.1 360 00:53 10.10.2019
6286 Rain 5 996 100 4600 2.1 350 00:21 10.10.2019
6287 Drizzle 5 996 100 5000 2.1 360 23:39 09.10.2019
6288 Drizzle 5 996 100 6000 2.1 360 23:20 09.10.2019
6289 Drizzle 5 997 100 6000 2.6 10 22:43 09.10.2019
6290 Drizzle 5 997 100 5000 2.1 10 22:24 09.10.2019
6291 Drizzle 5 997 100 7000 2.1 10 21:59 09.10.2019
6292 Drizzle 5 997 100 7000 2.1 10 21:40 09.10.2019
6293 Drizzle 5 997 100 7000 3.1 10 21:20 09.10.2019
6294 Drizzle 5 997 100 7000 3.1 20 20:56 09.10.2019
6295 Drizzle 5 997 100 7000 3.1 20 20:56 09.10.2019
6296 Drizzle 5 997 93 7000 3.1 20 20:37 09.10.2019
6297 Drizzle 5 997 100 7000 3.1 20 20:37 09.10.2019
6298 Drizzle 5 997 93 7000 3.1 20 20:18 09.10.2019
6299 Drizzle 5 997 100 6000 2.6 20 19:46 09.10.2019
6300 Drizzle 5 997 100 4000 2.1 360 19:24 09.10.2019
6301 Drizzle 5 997 100 3400 2.6 20 18:58 09.10.2019
6302 Mist 5 997 100 4000 2.6 10 18:38 09.10.2019
6303 Mist 5 997 100 4000 2.6 10 18:18 09.10.2019
6304 Mist 5 997 100 3500 2.6 20 17:56 09.10.2019
6305 Mist 5 997 100 4300 3.1 20 17:37 09.10.2019
6306 Mist 5 997 100 4300 3.1 20 17:19 09.10.2019
6307 Mist 5 997 100 5000 2.6 10 16:42 09.10.2019
6308 Drizzle 5 997 93 5000 3.1 20 16:23 09.10.2019
6309 Drizzle 5 997 93 5000 3.1 10 15:58 09.10.2019
6310 Drizzle 5 997 93 5000 3.1 10 15:39 09.10.2019
6311 Rain 5 997 100 5000 3.1 10 15:20 09.10.2019
6312 Rain 5 997 93 8000 3.1 360 14:59 09.10.2019
6313 Rain 5 997 93 8000 3.1 360 14:41 09.10.2019
6314 Drizzle 5 997 93 4000 3.6 80 14:18 09.10.2019
6315 Drizzle 5 997 93 4000 3.6 80 14:18 09.10.2019
6316 Clouds 5 997 87 10000 3.1 100 13:40 09.10.2019
6317 Mist 5 997 100 5000 2.1 330 13:22 09.10.2019
6318 Clouds 5 997 93 10000 1.5 350 12:59 09.10.2019
6319 Clouds 5 997 93 10000 1.5 350 12:59 09.10.2019
6320 Clouds 4 997 93 10000 1.5 350 12:41 09.10.2019
6321 Snow 4 997 93 9000 1.5 0 12:22 09.10.2019
6322 Snow 4 997 93 9000 2.1 0 11:56 09.10.2019
6323 Snow 4 997 93 9000 2.1 0 11:37 09.10.2019
6324 Clouds 4 997 93 9000 2.1 0 11:19 09.10.2019
6325 Rain 4 997 93 10000 1.5 80 10:44 09.10.2019
6326 Rain 4 997 93 9000 2.6 0 10:22 09.10.2019
6327 Rain 4 997 93 10000 2.1 110 09:59 09.10.2019
6328 Rain 4 997 93 10000 2.1 110 09:41 09.10.2019
6329 Clouds 4 997 93 10000 2.1 0 09:19 09.10.2019
6330 Rain 4 997 93 10000 2.6 0 08:43 09.10.2019
6331 Drizzle 4 997 93 9000 2.6 110 08:23 09.10.2019
6332 Drizzle 4 997 93 8000 3.6 0 07:59 09.10.2019
6333 Drizzle 4 997 93 8000 3.6 0 07:39 09.10.2019
6334 Clouds 4 996 93 9000 3.6 100 07:21 09.10.2019
6335 Drizzle 4 996 93 10000 3.1 110 06:52 09.10.2019
6336 Drizzle 4 996 93 10000 3.1 110 06:52 09.10.2019
6337 Clouds 4 996 93 9000 1.5 110 06:19 09.10.2019
6338 Rain 4 996 93 10000 1.5 100 05:44 09.10.2019
6339 Rain 4 996 93 10000 2.6 110 04:26 09.10.2019
6340 Clouds 4 996 100 10000 2.6 120 02:53 09.10.2019
6341 Clouds 4 996 100 8000 2.1 110 01:44 09.10.2019
6342 Clouds 4 996 100 6000 2.1 120 01:21 09.10.2019
6343 Clouds 4 996 100 6000 2.1 120 00:57 09.10.2019
6344 Clouds 4 996 100 6000 2.1 120 00:38 09.10.2019
6345 Clouds 4 996 100 7000 2.6 130 00:20 09.10.2019
6346 Mist 4 996 100 5000 2.1 130 23:39 08.10.2019
6347 Clouds 4 996 100 6000 2.1 120 23:19 08.10.2019
6348 Clouds 4 996 100 6000 2.1 120 23:19 08.10.2019
6349 Clouds 4 996 100 7000 2.1 130 22:57 08.10.2019
6350 Clouds 4 996 100 7000 2.1 130 22:38 08.10.2019
6351 Clouds 4 996 100 9000 1.5 130 22:19 08.10.2019
6352 Clouds 4 996 100 9000 2.1 0 21:57 08.10.2019
6353 Clouds 4 996 100 9000 2.1 0 21:39 08.10.2019
6354 Clouds 4 997 100 10000 1 0 21:19 08.10.2019
6355 Clouds 4 997 100 10000 1.5 30 20:56 08.10.2019
6356 Clouds 4 997 100 10000 1.5 30 20:56 08.10.2019
6357 Clouds 4 997 100 10000 1.5 30 20:37 08.10.2019
6358 Clouds 4 997 93 10000 1 0 20:19 08.10.2019
6359 Clouds 4 997 100 10000 1 0 19:58 08.10.2019
6360 Clouds 4 997 100 10000 1 0 19:39 08.10.2019
6361 Clouds 4 997 100 9000 1 300 19:20 08.10.2019
6362 Clouds 4 997 93 9000 1 0 18:54 08.10.2019
6363 Clouds 4 997 93 9000 1 0 18:36 08.10.2019
6364 Clouds 4 997 93 9000 1.5 290 18:18 08.10.2019
6365 Drizzle 4 997 100 9000 1.5 300 17:40 08.10.2019
6366 Rain 4 997 100 10000 1.5 290 17:20 08.10.2019
6367 Rain 4 998 100 9000 1.5 290 16:58 08.10.2019
6368 Rain 4 998 100 9000 1.5 290 16:39 08.10.2019
6369 Drizzle 4 998 100 9000 1.5 300 16:21 08.10.2019
6370 Rain 4 998 93 9000 0.5 0 15:41 08.10.2019
6371 Rain 4 998 93 9000 0.5 0 15:41 08.10.2019
6372 Rain 4 998 93 9000 0.5 0 15:21 08.10.2019
6373 Rain 4 999 93 8000 1 0 14:58 08.10.2019
6374 Rain 4 999 93 8000 1 0 14:39 08.10.2019
6375 Rain 4 999 93 10000 3.1 100 14:20 08.10.2019
6376 Rain 3 999 100 9000 1 0 13:57 08.10.2019
6377 Rain 3 999 100 9000 1 0 13:38 08.10.2019
6378 Rain 3 1000 100 5000 0.5 0 13:19 08.10.2019
6379 Rain 3 1000 100 5000 0.5 0 13:19 08.10.2019
6380 Rain 3 1000 100 4500 1 0 12:58 08.10.2019
6381 Rain 3 1000 100 4500 1 0 12:37 08.10.2019
6382 Snow 3 1000 97 6000 1 0 12:18 08.10.2019
6383 Rain 3 1001 93 7000 3.6 100 11:41 08.10.2019
6384 Rain 3 1001 93 7000 3.6 100 11:41 08.10.2019
6385 Rain 3 1001 93 10000 4.1 110 11:23 08.10.2019
6386 Snow 3 1001 97 3500 1 0 10:56 08.10.2019
6387 Rain 3 1002 93 10000 3.6 110 10:37 08.10.2019
6388 Rain 3 1002 93 10000 4.1 110 10:19 08.10.2019
6389 Snow 2 1002 97 6000 1 350 09:55 08.10.2019
6390 Snow 2 1002 97 3500 1 350 09:37 08.10.2019
6391 Snow 2 1002 96 3500 1 350 09:19 08.10.2019
6392 Snow 2 1002 97 3500 1 20 08:42 08.10.2019
6393 Snow 2 1003 97 7000 0.73 124.561 08:23 08.10.2019
6394 Snow 2 1003 97 7000 0.73 124.561 08:23 08.10.2019
6395 Rain 2 1003 97 10000 0.73 124.561 07:44 08.10.2019
6396 Rain 2 1004 97 10000 0.5 0 07:21 08.10.2019
6397 Drizzle 2 1004 97 10000 1 0 06:51 08.10.2019
6398 Drizzle 2 1005 97 10000 0.5 0 06:28 08.10.2019
6399 Rain 2 1006 93 0 4.1 120 05:46 08.10.2019
6400 Rain 2 1006 93 0 4.1 120 05:46 08.10.2019
6401 Rain 1 1007 86 0 3.1 120 05:25 08.10.2019
6402 Clear 1 1008 92 10000 0.5 0 04:31 08.10.2019
6403 Clear 1 1008 92 10000 1 0 03:27 08.10.2019
6404 Clear 1 1009 92 10000 0.5 0 02:36 08.10.2019
6405 Clear 1 1009 85 10000 0.62 162.446 01:47 08.10.2019
6406 Clear 1 1010 84 10000 1.11 133.653 01:27 08.10.2019
6407 Clear 1 1010 84 10000 1.11 133.653 00:46 08.10.2019
6408 Clear 1 1010 86 10000 1 0 00:21 08.10.2019
6409 Clear 2 1011 80 10000 0.5 0 23:40 07.10.2019
6410 Clear 1 1011 80 10000 0.5 0 23:20 07.10.2019
6411 Clear 2 1012 86 10000 1.16 130.434 22:56 07.10.2019
6412 Clear 2 1012 86 10000 1.16 130.434 22:56 07.10.2019
6413 Clear 2 1012 86 10000 1.16 130.434 22:38 07.10.2019
6414 Clear 2 1012 86 10000 1.16 130.434 22:38 07.10.2019
6415 Clear 2 1013 86 10000 1 230 22:20 07.10.2019
6416 Clear 2 1013 86 10000 1.16 130.434 21:56 07.10.2019
6417 Clear 2 1013 86 10000 1.16 130.434 21:56 07.10.2019
6418 Clear 2 1013 86 10000 1.16 130.434 21:38 07.10.2019
6419 Clear 2 1013 86 10000 1 280 21:20 07.10.2019
6420 Clear 2 1013 80 10000 1 0 20:57 07.10.2019
6421 Clear 2 1013 80 10000 1 0 20:39 07.10.2019
6422 Clear 2 1013 69 10000 1.1 138.024 20:20 07.10.2019
6423 Clear 2 1014 74 10000 0.5 0 19:58 07.10.2019
6424 Clear 2 1014 74 10000 0.5 0 19:39 07.10.2019
6425 Clear 3 1015 69 10000 1.5 210 19:19 07.10.2019
6426 Clear 3 1015 69 10000 1.5 190 18:56 07.10.2019
6427 Clear 4 1015 69 10000 1.5 190 18:38 07.10.2019
6428 Clear 5 1016 65 10000 3.1 210 18:18 07.10.2019
6429 Clear 6 1016 65 10000 3.1 200 17:43 07.10.2019
6430 Clear 6 1016 56 10000 2.1 230 17:20 07.10.2019
6431 Clear 6 1016 52 10000 2.1 230 16:57 07.10.2019
6432 Clear 7 1016 52 10000 2.1 230 16:38 07.10.2019
6433 Clear 7 1017 52 10000 1 0 16:20 07.10.2019
6434 Clear 7 1017 52 10000 2.1 0 15:45 07.10.2019
6435 Clouds 7 1017 52 10000 1.5 0 15:25 07.10.2019
6436 Clouds 7 1018 56 10000 1 0 14:55 07.10.2019
6437 Clouds 7 1018 56 10000 1 0 14:37 07.10.2019
6438 Clouds 7 1018 56 10000 2.1 0 14:18 07.10.2019
6439 Clouds 7 1019 56 10000 2.1 50 13:41 07.10.2019
6440 Clouds 7 1019 60 10000 1.5 0 13:20 07.10.2019
6441 Clear 6 1019 60 10000 1.5 40 12:55 07.10.2019
6442 Clear 6 1019 60 10000 1.5 40 12:37 07.10.2019
6443 Clear 5 1020 64 10000 2.1 30 12:19 07.10.2019
6444 Clear 4 1020 64 10000 1 0 11:57 07.10.2019
6445 Clear 3 1020 64 10000 1 0 11:37 07.10.2019
6446 Clear 2 1021 64 10000 1 0 11:18 07.10.2019
6447 Clear 2 1021 74 10000 0.78 325.435 10:41 07.10.2019
6448 Clear 2 1021 74 10000 0.78 325.435 10:41 07.10.2019
6449 -273 0 0 0 0 0 10:41 07.10.2019
6450 Clear 1 1021 41 10000 0.5 0 10:20 07.10.2019
6451 Clear 1 1021 41 10000 0.5 0 10:20 07.10.2019
6452 Clear -1 1021 86 10000 0.5 0 09:42 07.10.2019
6453 Clear -1 1021 86 10000 0.5 0 09:42 07.10.2019
6454 Clear -2 1021 86 10000 0.5 0 09:23 07.10.2019
6455 Clear -3 1021 79 10000 1.5 10 08:56 07.10.2019
6456 Clear -3 1021 79 10000 1.5 10 08:38 07.10.2019
6457 Clear -3 1020 85 10000 2.1 350 08:19 07.10.2019
6458 Clear -3 1020 92 10000 2.1 340 07:41 07.10.2019
6459 Clear -3 1021 92 10000 2.6 350 07:22 07.10.2019
6460 Clear -3 1021 92 10000 2.1 360 06:49 07.10.2019
6461 Clear -3 1021 92 10000 2.1 340 06:27 07.10.2019
6462 Clear -3 1021 92 10000 2.1 10 05:47 07.10.2019
6463 Clear -3 1021 92 10000 2.1 340 05:21 07.10.2019
6464 Clear -2 1022 86 10000 1.5 360 04:25 07.10.2019
6465 Clear -3 1022 86 10000 2.1 350 03:44 07.10.2019
6466 Clear -2 1022 86 10000 2.1 340 03:21 07.10.2019
6467 Clear -2 1022 86 10000 2.1 350 02:21 07.10.2019
6468 Clear -2 1022 79 10000 1.5 10 01:52 07.10.2019
6469 Clear -2 1022 86 10000 1 0 01:21 07.10.2019
6470 Clear -2 1023 86 10000 1.5 10 00:39 07.10.2019
6471 Clear -2 1023 86 10000 1 0 00:20 07.10.2019
6472 Clear -1 1023 80 10000 1 0 23:42 06.10.2019
6473 Clear -1 1023 80 10000 1 0 23:42 06.10.2019
6474 Clear -1 1023 80 10000 1 0 23:42 06.10.2019
6475 Clear -1 1023 80 10000 3.1 330 23:22 06.10.2019
6476 Clear -1 1023 80 10000 1.5 340 22:59 06.10.2019
6477 Clear -1 1023 80 10000 1.5 340 22:41 06.10.2019
6478 Clear -1 1023 80 10000 2.6 320 22:22 06.10.2019
6479 Clear -1 1023 86 10000 1.5 350 21:58 06.10.2019
6480 Clear -1 1023 86 10000 1.5 350 21:38 06.10.2019
6481 Clear 0 1023 68 10000 1.5 360 21:19 06.10.2019
6482 Clear 0 1023 68 10000 1.5 350 20:58 06.10.2019
6483 Clear 0 1023 70 10000 1.5 350 20:40 06.10.2019
6484 Clear 0 1023 70 10000 1.5 350 20:40 06.10.2019
6485 Clear 1 1023 70 10000 1.5 350 20:21 06.10.2019
6486 Clear 1 1023 69 10000 1 0 19:57 06.10.2019
6487 Clear 1 1023 69 10000 1 0 19:57 06.10.2019
6488 Clear 1 1023 69 10000 1 0 19:37 06.10.2019
6489 Clear 2 1024 59 10000 1 0 19:19 06.10.2019
6490 Clear 3 1023 59 10000 2.1 40 18:57 06.10.2019
6491 Clear 3 1023 59 10000 2.1 40 18:38 06.10.2019
6492 Clear 4 1023 48 10000 1 0 18:19 06.10.2019
6493 Clear 4 1023 48 10000 1 0 18:19 06.10.2019
6494 Clear 5 1023 48 10000 2.1 40 17:57 06.10.2019
6495 Clear 5 1023 48 10000 2.1 40 17:39 06.10.2019
6496 Clear 5 1024 48 10000 3.1 20 17:19 06.10.2019
6497 Clear 6 1024 44 10000 2.6 30 16:42 06.10.2019
6498 Clear 6 1024 48 10000 2.1 30 16:24 06.10.2019
6499 Clear 6 1024 48 10000 2.6 30 15:56 06.10.2019
6500 Clear 6 1024 48 10000 2.6 30 15:38 06.10.2019
6501 Clear 6 1024 44 10000 3.1 0 15:18 06.10.2019
6502 Clear 6 1025 44 10000 3.1 0 14:42 06.10.2019
6503 Clear 6 1025 48 10000 2.6 30 14:24 06.10.2019
6504 Clear 6 1025 51 10000 2.6 20 13:58 06.10.2019
6505 Clear 5 1025 55 10000 2.6 350 13:39 06.10.2019
6506 Clear 5 1025 55 10000 2.6 350 13:20 06.10.2019
6507 Clear 5 1026 55 10000 2.1 10 12:56 06.10.2019
6508 Clear 4 1026 55 10000 3.6 30 12:38 06.10.2019
6509 Clear 4 1026 55 10000 3.6 30 12:20 06.10.2019
6510 Clouds 3 1026 69 10000 3.1 30 11:56 06.10.2019
6511 Clouds 3 1026 69 10000 3.1 30 11:37 06.10.2019
6512 Clouds 3 1026 69 10000 3.1 30 11:37 06.10.2019
6513 Clear 3 1026 74 10000 3.6 30 11:18 06.10.2019
6514 Clear 2 1026 80 10000 2.1 40 10:43 06.10.2019
6515 Clouds 1 1026 59 10000 2.1 40 10:24 06.10.2019
6516 Clouds 1 1026 86 10000 2.1 30 09:56 06.10.2019
6517 Clouds 0 1026 92 10000 1 0 09:38 06.10.2019
6518 Clouds -1 1026 92 10000 1 0 09:18 06.10.2019
6519 Clouds -1 1026 92 10000 1 360 08:40 06.10.2019
6520 Clouds -1 1026 92 10000 1.5 360 08:20 06.10.2019
6521 Clouds -2 1025 100 10000 1 0 07:44 06.10.2019
6522 Clouds -1 1025 92 10000 1.5 350 07:19 06.10.2019
6523 Clouds -1 1026 92 10000 1 340 06:20 06.10.2019
6524 Clouds -1 1026 92 10000 1.5 10 05:33 06.10.2019
6525 Clouds -1 1026 86 10000 1.5 360 03:41 06.10.2019
6526 Clouds -2 1026 92 10000 1.5 350 02:42 06.10.2019
6527 Clouds -1 1026 92 10000 1 0 02:20 06.10.2019
6528 Clouds -1 1026 100 10000 0.82 329.513 01:40 06.10.2019
6529 Clouds -2 1026 86 10000 1.5 30 01:21 06.10.2019
6530 Clouds -2 1026 86 10000 2.1 350 00:46 06.10.2019
6531 Clouds -1 1026 92 10000 2.1 340 00:25 06.10.2019
6532 Clouds -1 1026 86 10000 2.1 340 23:44 05.10.2019
6533 Clouds -1 1025 92 10000 2.1 340 23:22 05.10.2019
6534 Clear -1 1025 86 10000 2.1 340 22:58 05.10.2019
6535 Clear -1 1025 86 10000 2.1 340 22:40 05.10.2019
6536 Clear -1 1025 86 10000 2.1 340 22:40 05.10.2019
6537 Clear -1 1025 86 10000 1.5 330 22:20 05.10.2019
6538 Clear 0 1025 82 10000 0.5 0 21:56 05.10.2019
6539 Clear 0 1025 82 10000 0.5 0 21:38 05.10.2019
6540 Clear 0 1025 74 10000 1 0 21:18 05.10.2019
6541 Clouds 1 1024 74 10000 1 0 20:55 05.10.2019
6542 Clouds 1 1024 74 10000 1 0 20:37 05.10.2019
6543 Clouds 1 1024 64 10000 0.32 315.505 20:18 05.10.2019
6544 Clouds 2 1024 55 10000 1 0 19:37 05.10.2019
6545 Clouds 2 1024 55 10000 1 0 19:19 05.10.2019
6546 Clouds 2 1024 55 10000 1 0 19:19 05.10.2019
6547 Clouds 3 1024 60 10000 2.1 200 18:55 05.10.2019
6548 Clouds 3 1024 60 10000 2.1 200 18:55 05.10.2019
6549 Clouds 3 1024 60 10000 2.1 200 18:37 05.10.2019
6550 Clouds 5 1024 52 10000 1.5 200 18:19 05.10.2019
6551 Clouds 6 1023 52 10000 1.5 190 17:43 05.10.2019
6552 Clouds 6 1023 48 10000 0.77 307.168 17:25 05.10.2019
6553 Clouds 6 1023 48 10000 1.5 230 16:58 05.10.2019
6554 Clouds 6 1023 48 10000 2.1 240 16:40 05.10.2019
6555 Clouds 6 1023 48 10000 2.1 240 16:21 05.10.2019
6556 Clouds 6 1023 48 10000 2.1 210 15:57 05.10.2019
6557 Clouds 7 1023 48 10000 2.1 210 15:38 05.10.2019
6558 Clouds 7 1023 48 10000 2.1 0 15:20 05.10.2019
6559 Clouds 6 1023 52 10000 1.5 190 14:44 05.10.2019
6560 Clouds 7 1023 48 10000 1.5 190 14:25 05.10.2019
6561 Clouds 6 1023 48 10000 1 0 13:59 05.10.2019
6562 Clouds 6 1023 48 10000 1 0 13:40 05.10.2019
6563 Clouds 6 1023 48 10000 1.5 170 13:20 05.10.2019
6564 Clouds 6 1023 55 10000 2.1 160 12:44 05.10.2019
6565 Clouds 5 1023 64 10000 1.5 160 12:20 05.10.2019
6566 Clouds 5 1023 69 10000 1.5 200 11:44 05.10.2019
6567 Clear 4 1024 64 10000 1 0 11:23 05.10.2019
6568 Clouds 4 1023 69 10000 1 0 10:59 05.10.2019
6569 Clouds 3 1022 80 10000 1 0 10:40 05.10.2019
6570 Clouds 2 1022 80 10000 1 0 10:21 05.10.2019
6571 Clouds 1 1022 69 10000 0.5 0 09:56 05.10.2019
6572 Clouds 1 1022 69 10000 0.5 0 09:37 05.10.2019
6573 Clouds 0 1022 92 10000 1.46 342.224 09:19 05.10.2019
6574 Clouds 0 1022 92 10000 1.54 339.035 08:39 05.10.2019
6575 Clear -1 1023 92 0 2.1 360 08:19 05.10.2019
6576 Clear -1 1021 92 10000 1 0 07:52 05.10.2019
6577 Clear -1 1021 92 10000 1 0 07:31 05.10.2019
6578 Clear -1 1021 92 10000 1 0 06:57 05.10.2019
6579 Clear -1 1021 92 10000 1 20 06:26 05.10.2019
6580 Clear 0 1021 92 10000 1 360 05:40 05.10.2019
6581 Clear 0 1021 92 10000 1.5 320 03:39 05.10.2019
6582 Clear 0 1020 86 10000 1 350 03:20 05.10.2019
6583 Clear 1 1020 92 10000 1 340 01:29 05.10.2019
6584 Clear 1 1020 92 10000 1.5 20 00:51 05.10.2019
6585 Clear 1 1020 92 10000 2.1 40 00:28 05.10.2019
6586 Clouds 1 1019 89 10000 1.5 20 23:59 04.10.2019
6587 Clouds 1 1019 89 10000 1.5 20 23:41 04.10.2019
6588 Clouds 1 1019 89 10000 1 0 23:23 04.10.2019
6589 Clouds 1 1019 80 10000 1 0 22:57 04.10.2019
6590 Clouds 1 1019 80 10000 1 0 22:38 04.10.2019
6591 Clouds 1 1019 80 10000 1 0 22:38 04.10.2019
6592 Clouds 1 1019 80 10000 3.1 360 22:19 04.10.2019
6593 Clouds 2 1019 80 10000 3.1 10 21:55 04.10.2019
6594 Clouds 2 1019 80 10000 3.1 10 21:36 04.10.2019
6595 Clouds 2 1019 74 10000 3.6 360 21:18 04.10.2019
6596 Clouds 2 1018 74 10000 3.6 360 20:42 04.10.2019
6597 Clear 3 1018 74 10000 2.6 360 20:23 04.10.2019
6598 Clear 3 1018 69 10000 2.1 350 19:58 04.10.2019
6599 Clear 3 1018 69 10000 2.1 350 19:39 04.10.2019
6600 Clear 4 1018 64 10000 2.1 340 19:21 04.10.2019
6601 Clear 4 1017 69 10000 2.6 10 18:56 04.10.2019
6602 Clear 4 1017 64 10000 3.1 10 18:37 04.10.2019
6603 Clear 5 1017 64 10000 3.1 10 18:18 04.10.2019
6604 Clear 5 1017 64 10000 3.1 10 18:18 04.10.2019
6605 Clouds 5 1017 64 10000 4.1 20 17:41 04.10.2019
6606 Clouds 5 1017 64 10000 4.1 20 17:41 04.10.2019
6607 Rain 5 1017 64 10000 3.1 30 17:22 04.10.2019
6608 Rain 5 1017 56 10000 4.1 20 16:58 04.10.2019
6609 Rain 6 1017 56 10000 4.1 20 16:40 04.10.2019
6610 Rain 6 1017 60 10000 4.1 10 16:19 04.10.2019
6611 Rain 6 1017 60 10000 4.1 10 16:19 04.10.2019
6612 Rain 6 1017 52 10000 4.1 20 15:57 04.10.2019
6613 Rain 6 1017 60 10000 4.6 40 15:39 04.10.2019
6614 Rain 6 1017 60 10000 4.6 40 15:20 04.10.2019
6615 Clouds 6 1017 56 10000 4.1 30 14:56 04.10.2019
6616 Clouds 6 1017 56 10000 4.1 30 14:38 04.10.2019
6617 Clouds 5 1017 60 10000 4.1 20 14:20 04.10.2019
6618 Clouds 5 1017 64 10000 4.1 30 13:44 04.10.2019
6619 Clouds 5 1017 60 10000 2.6 50 13:22 04.10.2019
6620 Clouds 5 1017 64 10000 4.6 40 12:55 04.10.2019
6621 Clouds 5 1017 64 10000 4.6 40 12:37 04.10.2019
6622 Clouds 4 1018 69 10000 4.1 30 12:18 04.10.2019
6623 Clouds 4 1018 69 10000 4.1 30 11:42 04.10.2019
6624 Clouds 4 1018 69 10000 4.1 30 11:42 04.10.2019
6625 Clouds 4 1017 74 10000 4.1 30 11:22 04.10.2019
6626 Rain 4 1017 74 10000 2.6 10 10:55 04.10.2019
6627 Rain 4 1017 74 10000 2.6 10 10:37 04.10.2019
6628 Clouds 3 1017 80 10000 2.6 20 10:18 04.10.2019
6629 Clouds 2 1017 86 10000 3.1 20 09:41 04.10.2019
6630 Clouds 2 1017 86 10000 2.6 20 09:23 04.10.2019
6631 Clouds 2 1017 86 10000 3.1 10 08:45 04.10.2019
6632 Clouds 2 1016 93 0 3.6 30 08:26 04.10.2019
6633 Clouds 2 1016 86 10000 2.6 30 07:47 04.10.2019
6634 Clear 2 1016 86 10000 2.6 360 07:26 04.10.2019
6635 Clear 2 1016 86 10000 2.1 30 06:59 04.10.2019
6636 Clear 2 1016 86 10000 2.1 30 06:39 04.10.2019
6637 Clear 2 1016 86 10000 2.1 30 06:20 04.10.2019
6638 Drizzle 2 1016 94 10000 3.1 40 05:21 04.10.2019
6639 Drizzle 2 1016 94 10000 2.1 30 04:38 04.10.2019
6640 Drizzle 3 1016 93 10000 3.1 20 03:28 04.10.2019
6641 Drizzle 3 1016 93 10000 2.1 20 02:44 04.10.2019
6642 Drizzle 3 1016 93 10000 2.6 10 01:54 04.10.2019
6643 Drizzle 3 1017 93 10000 2.6 360 01:26 04.10.2019
6644 Rain 3 1017 86 10000 1.5 10 00:34 04.10.2019
6645 Rain 3 1016 86 10000 2.6 20 23:41 03.10.2019
6646 Rain 3 1016 86 10000 2.6 30 23:22 03.10.2019
6647 Rain 4 1016 86 10000 3.1 70 22:58 03.10.2019
6648 Rain 4 1016 86 10000 3.1 70 22:58 03.10.2019
6649 Rain 4 1016 86 10000 3.1 70 22:39 03.10.2019
6650 Rain 4 1016 86 10000 3.1 70 22:39 03.10.2019
6651 Rain 4 1016 86 10000 3.1 70 22:39 03.10.2019
6652 Rain 4 1016 86 10000 4.6 70 22:21 03.10.2019
6653 Rain 4 1016 93 10000 4.6 60 21:58 03.10.2019
6654 Rain 4 1016 93 10000 4.6 60 21:40 03.10.2019
6655 Rain 4 1016 93 10000 4.1 40 21:20 03.10.2019
6656 Rain 4 1016 93 10000 4.1 40 20:58 03.10.2019
6657 Rain 4 1016 93 10000 4.1 40 20:39 03.10.2019
6658 Rain 4 1016 93 10000 3.6 20 20:20 03.10.2019
6659 Rain 4 1015 86 10000 4.1 10 19:56 03.10.2019
6660 Rain 4 1015 86 10000 4.1 10 19:56 03.10.2019
6661 Rain 4 1015 86 10000 4.1 10 19:56 03.10.2019
6662 Rain 4 1015 86 10000 4.1 10 19:38 03.10.2019
6663 Rain 4 1015 86 10000 3.1 20 19:19 03.10.2019
6664 Rain 5 1015 75 10000 3.1 60 18:56 03.10.2019
6665 Rain 5 1015 75 10000 3.1 50 18:37 03.10.2019
6666 Rain 5 1015 75 10000 3.1 50 18:18 03.10.2019
6667 Drizzle 5 1015 75 10000 2.6 50 17:42 03.10.2019
6668 Rain 5 1015 75 10000 3.1 30 17:22 03.10.2019
6669 Rain 5 1015 75 10000 3.6 30 16:57 03.10.2019
6670 Rain 5 1015 75 10000 4.1 40 16:39 03.10.2019
6671 Rain 5 1015 75 10000 4.1 40 16:20 03.10.2019
6672 Rain 5 1015 80 10000 5.1 30 15:45 03.10.2019
6673 Rain 5 1015 75 10000 4.6 30 15:24 03.10.2019
6674 Rain 5 1015 96 10000 2.6 60 14:59 03.10.2019
6675 Rain 5 1015 96 10000 2.1 50 14:37 03.10.2019
6676 Rain 5 1015 96 10000 2.1 50 14:19 03.10.2019
6677 Rain 5 1015 96 10000 2.6 0 13:44 03.10.2019
6678 Rain 5 1016 96 10000 2.6 80 13:26 03.10.2019
6679 Rain 6 1015 75 10000 1.5 350 12:59 03.10.2019
6680 Rain 6 1015 75 10000 1.5 350 12:40 03.10.2019
6681 Rain 6 1015 75 10000 1.5 350 12:40 03.10.2019
6682 -273 0 0 0 0 0 12:20 03.10.2019
6683 Clouds 5 1015 80 10000 1 0 11:58 03.10.2019
6684 Clouds 5 1015 80 10000 1 0 11:58 03.10.2019
6685 Clouds 5 1015 80 10000 1 0 11:40 03.10.2019
6686 Rain 5 1015 91 10000 1.5 50 11:21 03.10.2019
6687 Rain 5 1015 91 10000 1 0 10:57 03.10.2019
6688 Rain 5 1015 91 10000 1 0 10:38 03.10.2019
6689 Rain 5 1015 91 10000 1.5 60 10:18 03.10.2019
6690 Clouds 5 1015 91 10000 2.1 0 09:56 03.10.2019
6691 Clouds 5 1015 91 10000 2.1 0 09:37 03.10.2019
6692 Clouds 4 1015 69 10000 1.5 90 09:19 03.10.2019
6693 Clouds 4 1014 88 10000 1.5 100 08:42 03.10.2019
6694 Clouds 4 1014 88 10000 2.1 100 08:24 03.10.2019
6695 Clouds 4 1014 88 10000 2.6 120 07:42 03.10.2019
6696 Clouds 4 1014 80 10000 2.6 110 07:20 03.10.2019
6697 Clouds 4 1014 80 10000 1 0 06:53 03.10.2019
6698 Clouds 4 1014 80 10000 2.1 100 06:27 03.10.2019
6699 Clouds 5 1014 80 10000 1.5 90 05:49 03.10.2019
6700 Clouds 4 1014 80 10000 1 0 05:27 03.10.2019
6701 Clouds 4 1014 80 10000 1.5 60 04:45 03.10.2019
6702 Clouds 5 1013 80 10000 2.1 50 03:54 03.10.2019
6703 Clouds 5 1013 80 10000 1.5 320 03:19 03.10.2019
6704 Clouds 5 1013 70 10000 2.6 50 02:22 03.10.2019
6705 Clouds 5 1013 80 10000 2.6 20 01:40 03.10.2019
6706 Clouds 6 1013 75 10000 2.6 360 00:53 03.10.2019
6707 Clouds 6 1012 75 10000 3.1 20 00:31 03.10.2019
6708 Clouds 6 1012 75 10000 1.5 350 23:55 02.10.2019
6709 Clouds 7 1012 75 10000 1.5 350 23:36 02.10.2019
6710 Clouds 7 1012 70 10000 3.1 30 23:18 02.10.2019
6711 Clouds 7 1011 70 10000 3.6 20 22:41 02.10.2019
6712 Clouds 7 1011 70 10000 3.6 20 22:20 02.10.2019
6713 Clouds 7 1011 70 10000 4.6 20 21:55 02.10.2019
6714 Clouds 7 1011 70 10000 4.6 20 21:55 02.10.2019
6715 Clouds 7 1011 70 10000 4.6 20 21:37 02.10.2019
6716 Rain 8 1010 75 10000 4.1 30 21:18 02.10.2019
6717 Rain 8 1010 75 10000 4.6 20 20:55 02.10.2019
6718 Rain 8 1010 75 10000 4.6 20 20:55 02.10.2019
6719 Rain 8 1010 75 10000 4.6 20 20:55 02.10.2019
6720 Rain 8 1010 75 10000 4.6 20 20:54 02.10.2019
6721 Rain 8 1010 75 10000 4.6 20 20:36 02.10.2019
6722 Rain 8 1010 75 10000 4.6 20 20:36 02.10.2019
6723 Rain 8 1009 75 10000 2.6 10 20:18 02.10.2019
6724 Clouds 8 1009 70 10000 3.6 30 19:43 02.10.2019
6725 Rain 8 1009 70 10000 2.1 10 19:21 02.10.2019
6726 Clouds 8 1008 70 10000 5.7 30 18:57 02.10.2019
6727 Clouds 8 1008 70 10000 5.7 30 18:38 02.10.2019
6728 Clouds 9 1008 70 10000 5.7 30 18:20 02.10.2019
6729 Clouds 9 1008 66 10000 5.7 20 17:57 02.10.2019
6730 Clouds 9 1008 66 10000 5.7 20 17:38 02.10.2019
6731 Clouds 9 1007 66 10000 6.2 20 17:19 02.10.2019
6732 Clouds 9 1006 66 10000 5.7 10 16:42 02.10.2019
6733 Clouds 10 1005 66 10000 8.2 20 16:22 02.10.2019
6734 Clouds 10 1005 66 10000 8.2 20 15:59 02.10.2019
6735 Clouds 10 1005 66 10000 7.7 10 15:40 02.10.2019
6736 Clouds 10 1005 66 10000 7.7 10 15:22 02.10.2019
6737 Clouds 10 1004 70 10000 6.2 10 14:57 02.10.2019
6738 Clouds 9 1004 70 10000 6.7 10 14:39 02.10.2019
6739 Clouds 9 1004 70 10000 6.7 10 14:39 02.10.2019
6740 Clouds 9 1004 70 10000 6.7 10 14:20 02.10.2019
6741 Drizzle 9 1003 70 10000 7.2 10 13:45 02.10.2019
6742 Drizzle 9 1003 70 10000 7.2 10 13:25 02.10.2019
6743 Drizzle 9 1002 70 10000 7.2 10 12:58 02.10.2019
6744 Drizzle 9 1002 75 10000 7.2 360 12:37 02.10.2019
6745 Drizzle 8 1002 75 10000 7.2 360 12:19 02.10.2019
6746 Drizzle 8 1000 75 10000 7.7 10 11:44 02.10.2019
6747 Drizzle 8 1000 75 10000 7.7 10 11:23 02.10.2019
6748 Drizzle 8 999 81 10000 8.2 360 10:42 02.10.2019
6749 Drizzle 8 999 81 10000 8.2 360 10:20 02.10.2019
6750 Rain 8 998 81 10000 8.2 360 09:59 02.10.2019
6751 Drizzle 8 997 81 10000 7.7 360 09:38 02.10.2019
6752 Rain 7 996 81 10000 9.3 10 09:19 02.10.2019
6753 Rain 7 996 81 10000 9.3 10 08:44 02.10.2019
6754 -273 0 0 0 0 0 08:25 02.10.2019
6755 Drizzle 7 995 87 10000 7.2 360 07:59 02.10.2019
6756 Rain 6 994 93 10000 7.2 360 07:38 02.10.2019
6757 Rain 6 994 93 10000 7.2 360 07:20 02.10.2019
6758 Drizzle 6 993 87 10000 6.2 360 06:36 02.10.2019
6759 Drizzle 6 994 87 0 4.1 340 05:55 02.10.2019
6760 Ra